﻿<?xml version="1.0" encoding="utf-8"?><gpx version="1.1" creator="izvne.com" xmlns="http://www.topografix.com/GPX/1/1"><trk><name>iceland-overview</name><trkseg><trkpt lat="64.13791657" lon="-21.93491173"><ele>7.7</ele><time>2012-07-18T09:41:00.0000000+00:00</time></trkpt><trkpt lat="64.13808441" lon="-21.93468094"><ele>7.3</ele><time>2012-07-18T09:41:20.0000000+00:00</time></trkpt><trkpt lat="64.13742828" lon="-21.93524551"><ele>7.3</ele><time>2012-07-18T09:43:20.0000000+00:00</time></trkpt><trkpt lat="64.13772583" lon="-21.93453026"><ele>8.1</ele><time>2012-07-18T09:45:35.0000000+00:00</time></trkpt><trkpt lat="64.13751984" lon="-21.93478203"><ele>7.8</ele><time>2012-07-18T09:47:00.0000000+00:00</time></trkpt><trkpt lat="64.1377945" lon="-21.93458176"><ele>8.0</ele><time>2012-07-18T09:55:05.0000000+00:00</time></trkpt><trkpt lat="64.13759613" lon="-21.93454933"><ele>8.1</ele><time>2012-07-18T09:55:25.0000000+00:00</time></trkpt><trkpt lat="64.13777161" lon="-21.93446541"><ele>8.0</ele><time>2012-07-18T09:57:40.0000000+00:00</time></trkpt><trkpt lat="64.13748932" lon="-21.93458748"><ele>7.7</ele><time>2012-07-18T10:00:20.0000000+00:00</time></trkpt><trkpt lat="64.13800812" lon="-21.93528366"><ele>7.3</ele><time>2012-07-18T10:00:50.0000000+00:00</time></trkpt><trkpt lat="64.13825989" lon="-21.9364872"><ele>6.2</ele><time>2012-07-18T10:01:05.0000000+00:00</time></trkpt><trkpt lat="64.13865662" lon="-21.93643189"><ele>6.3</ele><time>2012-07-18T10:01:25.0000000+00:00</time></trkpt><trkpt lat="64.13878632" lon="-21.93679047"><ele>6.1</ele><time>2012-07-18T10:01:55.0000000+00:00</time></trkpt><trkpt lat="64.13917542" lon="-21.93973732"><ele>5.7</ele><time>2012-07-18T10:03:40.0000000+00:00</time></trkpt><trkpt lat="64.13983917" lon="-21.9411068"><ele>5.3</ele><time>2012-07-18T10:04:00.0000000+00:00</time></trkpt><trkpt lat="64.1404419" lon="-21.94176102"><ele>2.8</ele><time>2012-07-18T10:04:10.0000000+00:00</time></trkpt><trkpt lat="64.14096069" lon="-21.94172287"><ele>1.8</ele><time>2012-07-18T10:04:20.0000000+00:00</time></trkpt><trkpt lat="64.1420517" lon="-21.94076729"><ele>3.4</ele><time>2012-07-18T10:05:05.0000000+00:00</time></trkpt><trkpt lat="64.14551544" lon="-21.93940544"><ele>2.5</ele><time>2012-07-18T10:09:00.0000000+00:00</time></trkpt><trkpt lat="64.14772034" lon="-21.93578911"><ele>4.0</ele><time>2012-07-18T10:11:30.0000000+00:00</time></trkpt><trkpt lat="64.14807892" lon="-21.93678284"><ele>3.6</ele><time>2012-07-18T10:13:55.0000000+00:00</time></trkpt><trkpt lat="64.14833069" lon="-21.93837738"><ele>5.9</ele><time>2012-07-18T10:15:20.0000000+00:00</time></trkpt><trkpt lat="64.14829254" lon="-21.93791771"><ele>4.5</ele><time>2012-07-18T10:15:40.0000000+00:00</time></trkpt><trkpt lat="64.1481781" lon="-21.93791771"><ele>5.2</ele><time>2012-07-18T10:15:45.0000000+00:00</time></trkpt><trkpt lat="64.14753723" lon="-21.93860436"><ele>9.3</ele><time>2012-07-18T10:18:05.0000000+00:00</time></trkpt><trkpt lat="64.14736939" lon="-21.93699455"><ele>3.4</ele><time>2012-07-18T10:18:35.0000000+00:00</time></trkpt><trkpt lat="64.14712524" lon="-21.93672943"><ele>4.2</ele><time>2012-07-18T10:19:35.0000000+00:00</time></trkpt><trkpt lat="64.14674377" lon="-21.93450737"><ele>18.0</ele><time>2012-07-18T10:20:50.0000000+00:00</time></trkpt><trkpt lat="64.14676666" lon="-21.93384171"><ele>17.0</ele><time>2012-07-18T10:21:10.0000000+00:00</time></trkpt><trkpt lat="64.14663696" lon="-21.93368721"><ele>18.7</ele><time>2012-07-18T10:22:10.0000000+00:00</time></trkpt><trkpt lat="64.14678192" lon="-21.93408394"><ele>17.1</ele><time>2012-07-18T10:22:45.0000000+00:00</time></trkpt><trkpt lat="64.14661408" lon="-21.93428612"><ele>18.0</ele><time>2012-07-18T10:25:25.0000000+00:00</time></trkpt><trkpt lat="64.14672089" lon="-21.93421555"><ele>17.7</ele><time>2012-07-18T10:26:15.0000000+00:00</time></trkpt><trkpt lat="64.14627075" lon="-21.93280602"><ele>23.6</ele><time>2012-07-18T10:27:20.0000000+00:00</time></trkpt><trkpt lat="64.14622498" lon="-21.93232918"><ele>21.9</ele><time>2012-07-18T10:27:55.0000000+00:00</time></trkpt><trkpt lat="64.14640045" lon="-21.93282318"><ele>21.5</ele><time>2012-07-18T10:28:20.0000000+00:00</time></trkpt><trkpt lat="64.14617157" lon="-21.93217468"><ele>21.6</ele><time>2012-07-18T10:28:40.0000000+00:00</time></trkpt><trkpt lat="64.14617157" lon="-21.93123055"><ele>21.7</ele><time>2012-07-18T10:36:25.0000000+00:00</time></trkpt><trkpt lat="64.14683533" lon="-21.93474007"><ele>18.1</ele><time>2012-07-18T10:37:50.0000000+00:00</time></trkpt><trkpt lat="64.1473465" lon="-21.93623924"><ele>3.4</ele><time>2012-07-18T10:38:20.0000000+00:00</time></trkpt><trkpt lat="64.14794159" lon="-21.9409256"><ele>6.2</ele><time>2012-07-18T10:40:15.0000000+00:00</time></trkpt><trkpt lat="64.14823151" lon="-21.94073868"><ele>4.8</ele><time>2012-07-18T10:40:30.0000000+00:00</time></trkpt><trkpt lat="64.14839935" lon="-21.94133377"><ele>3.5</ele><time>2012-07-18T10:40:45.0000000+00:00</time></trkpt><trkpt lat="64.14883423" lon="-21.94169045"><ele>6.0</ele><time>2012-07-18T10:41:10.0000000+00:00</time></trkpt><trkpt lat="64.14917755" lon="-21.94137764"><ele>5.9</ele><time>2012-07-18T10:41:30.0000000+00:00</time></trkpt><trkpt lat="64.15029907" lon="-21.94265747"><ele>3.4</ele><time>2012-07-18T10:43:10.0000000+00:00</time></trkpt><trkpt lat="64.15076447" lon="-21.94400597"><ele>9.2</ele><time>2012-07-18T10:43:30.0000000+00:00</time></trkpt><trkpt lat="64.15117645" lon="-21.94763565"><ele>9.0</ele><time>2012-07-18T10:44:10.0000000+00:00</time></trkpt><trkpt lat="64.15261841" lon="-21.95200157"><ele>8.4</ele><time>2012-07-18T10:45:05.0000000+00:00</time></trkpt><trkpt lat="64.15353394" lon="-21.95247078"><ele>5.1</ele><time>2012-07-18T10:45:35.0000000+00:00</time></trkpt><trkpt lat="64.15396118" lon="-21.95151901"><ele>4.4</ele><time>2012-07-18T10:45:50.0000000+00:00</time></trkpt><trkpt lat="64.15411377" lon="-21.95153427"><ele>4.0</ele><time>2012-07-18T10:45:55.0000000+00:00</time></trkpt><trkpt lat="64.15419006" lon="-21.95271683"><ele>4.9</ele><time>2012-07-18T10:46:40.0000000+00:00</time></trkpt><trkpt lat="64.15398407" lon="-21.95293045"><ele>3.9</ele><time>2012-07-18T11:01:50.0000000+00:00</time></trkpt><trkpt lat="64.15411377" lon="-21.95293617"><ele>4.5</ele><time>2012-07-18T11:06:15.0000000+00:00</time></trkpt><trkpt lat="64.15402222" lon="-21.95278931"><ele>3.9</ele><time>2012-07-18T11:16:05.0000000+00:00</time></trkpt><trkpt lat="64.15399933" lon="-21.95345879"><ele>3.8</ele><time>2012-07-18T11:23:20.0000000+00:00</time></trkpt><trkpt lat="64.15373993" lon="-21.95269585"><ele>4.4</ele><time>2012-07-18T11:30:15.0000000+00:00</time></trkpt><trkpt lat="64.15301514" lon="-21.95318794"><ele>3.6</ele><time>2012-07-18T11:30:45.0000000+00:00</time></trkpt><trkpt lat="64.15270996" lon="-21.95295906"><ele>4.7</ele><time>2012-07-18T11:30:55.0000000+00:00</time></trkpt><trkpt lat="64.15113068" lon="-21.94775963"><ele>8.9</ele><time>2012-07-18T11:32:20.0000000+00:00</time></trkpt><trkpt lat="64.15067291" lon="-21.94424439"><ele>11.0</ele><time>2012-07-18T11:33:20.0000000+00:00</time></trkpt><trkpt lat="64.15027618" lon="-21.94323349"><ele>3.7</ele><time>2012-07-18T11:33:35.0000000+00:00</time></trkpt><trkpt lat="64.14922333" lon="-21.94172096"><ele>5.8</ele><time>2012-07-18T11:34:30.0000000+00:00</time></trkpt><trkpt lat="64.14898682" lon="-21.94093132"><ele>7.0</ele><time>2012-07-18T11:35:00.0000000+00:00</time></trkpt><trkpt lat="64.14909363" lon="-21.94133377"><ele>5.2</ele><time>2012-07-18T11:35:20.0000000+00:00</time></trkpt><trkpt lat="64.14899445" lon="-21.9414444"><ele>5.0</ele><time>2012-07-18T11:35:30.0000000+00:00</time></trkpt><trkpt lat="64.1484375" lon="-21.94119835"><ele>3.6</ele><time>2012-07-18T11:36:55.0000000+00:00</time></trkpt><trkpt lat="64.14831543" lon="-21.94039917"><ele>5.7</ele><time>2012-07-18T11:38:35.0000000+00:00</time></trkpt><trkpt lat="64.14859772" lon="-21.93994522"><ele>8.7</ele><time>2012-07-18T11:39:00.0000000+00:00</time></trkpt><trkpt lat="64.14857483" lon="-21.94044876"><ele>5.6</ele><time>2012-07-18T11:39:15.0000000+00:00</time></trkpt><trkpt lat="64.14897156" lon="-21.94096947"><ele>6.7</ele><time>2012-07-18T11:40:20.0000000+00:00</time></trkpt><trkpt lat="64.14876556" lon="-21.94143105"><ele>7.4</ele><time>2012-07-18T11:40:40.0000000+00:00</time></trkpt><trkpt lat="64.14831543" lon="-21.94105148"><ele>3.5</ele><time>2012-07-18T11:41:10.0000000+00:00</time></trkpt><trkpt lat="64.1478653" lon="-21.94169807"><ele>6.1</ele><time>2012-07-18T11:55:40.0000000+00:00</time></trkpt><trkpt lat="64.14651489" lon="-21.9389534"><ele>5.2</ele><time>2012-07-18T11:57:20.0000000+00:00</time></trkpt><trkpt lat="64.14637756" lon="-21.93798637"><ele>2.9</ele><time>2012-07-18T11:58:30.0000000+00:00</time></trkpt><trkpt lat="64.14557648" lon="-21.93932152"><ele>2.9</ele><time>2012-07-18T11:59:05.0000000+00:00</time></trkpt><trkpt lat="64.14292908" lon="-21.94038391"><ele>3.3</ele><time>2012-07-18T12:00:10.0000000+00:00</time></trkpt><trkpt lat="64.13982391" lon="-21.93803215"><ele>6.9</ele><time>2012-07-18T12:01:55.0000000+00:00</time></trkpt><trkpt lat="64.13961029" lon="-21.93822861"><ele>6.3</ele><time>2012-07-18T12:02:20.0000000+00:00</time></trkpt><trkpt lat="64.13918304" lon="-21.93759728"><ele>6.7</ele><time>2012-07-18T12:02:35.0000000+00:00</time></trkpt><trkpt lat="64.13870239" lon="-21.936203"><ele>6.4</ele><time>2012-07-18T12:03:00.0000000+00:00</time></trkpt><trkpt lat="64.13674164" lon="-21.92366791"><ele>21.6</ele><time>2012-07-18T12:08:30.0000000+00:00</time></trkpt><trkpt lat="64.13540649" lon="-21.92373657"><ele>18.4</ele><time>2012-07-18T12:10:00.0000000+00:00</time></trkpt><trkpt lat="64.13520813" lon="-21.92387962"><ele>18.5</ele><time>2012-07-18T12:10:05.0000000+00:00</time></trkpt><trkpt lat="64.13517761" lon="-21.92446899"><ele>18.3</ele><time>2012-07-18T12:10:10.0000000+00:00</time></trkpt><trkpt lat="64.13542938" lon="-21.92465019"><ele>17.2</ele><time>2012-07-18T12:10:15.0000000+00:00</time></trkpt><trkpt lat="64.13576508" lon="-21.92391968"><ele>19.0</ele><time>2012-07-18T12:10:25.0000000+00:00</time></trkpt><trkpt lat="64.13580322" lon="-21.92311859"><ele>19.1</ele><time>2012-07-18T12:10:40.0000000+00:00</time></trkpt><trkpt lat="64.13552094" lon="-21.92159843"><ele>22.2</ele><time>2012-07-18T12:11:15.0000000+00:00</time></trkpt><trkpt lat="64.13607025" lon="-21.91893387"><ele>20.9</ele><time>2012-07-18T12:11:50.0000000+00:00</time></trkpt><trkpt lat="64.13291168" lon="-21.89883614"><ele>35.5</ele><time>2012-07-18T12:18:15.0000000+00:00</time></trkpt><trkpt lat="64.1324234" lon="-21.89497948"><ele>36.1</ele><time>2012-07-18T12:19:20.0000000+00:00</time></trkpt><trkpt lat="64.1318512" lon="-21.891716"><ele>37.2</ele><time>2012-07-18T12:20:05.0000000+00:00</time></trkpt><trkpt lat="64.13171387" lon="-21.89156151"><ele>38.5</ele><time>2012-07-18T12:20:25.0000000+00:00</time></trkpt><trkpt lat="64.13173676" lon="-21.8906498"><ele>39.7</ele><time>2012-07-18T12:20:45.0000000+00:00</time></trkpt><trkpt lat="64.13135529" lon="-21.88952828"><ele>41.3</ele><time>2012-07-18T12:21:15.0000000+00:00</time></trkpt><trkpt lat="64.13077545" lon="-21.8856411"><ele>48.1</ele><time>2012-07-18T12:22:30.0000000+00:00</time></trkpt><trkpt lat="64.13080597" lon="-21.88422012"><ele>47.5</ele><time>2012-07-18T12:22:55.0000000+00:00</time></trkpt><trkpt lat="64.13067627" lon="-21.88350868"><ele>49.3</ele><time>2012-07-18T12:24:55.0000000+00:00</time></trkpt><trkpt lat="64.13018036" lon="-21.88246918"><ele>48.3</ele><time>2012-07-18T12:25:20.0000000+00:00</time></trkpt><trkpt lat="64.12941742" lon="-21.87585259"><ele>32.9</ele><time>2012-07-18T12:26:25.0000000+00:00</time></trkpt><trkpt lat="64.12921906" lon="-21.87510681"><ele>32.2</ele><time>2012-07-18T12:27:35.0000000+00:00</time></trkpt><trkpt lat="64.12940216" lon="-21.87599564"><ele>33.6</ele><time>2012-07-18T12:28:10.0000000+00:00</time></trkpt><trkpt lat="64.12895203" lon="-21.87633324"><ele>35.1</ele><time>2012-07-18T12:28:45.0000000+00:00</time></trkpt><trkpt lat="64.1289444" lon="-21.87578583"><ele>35.0</ele><time>2012-07-18T12:31:55.0000000+00:00</time></trkpt><trkpt lat="64.12889099" lon="-21.87651444"><ele>35.4</ele><time>2012-07-18T12:34:50.0000000+00:00</time></trkpt><trkpt lat="64.12882996" lon="-21.87587738"><ele>35.4</ele><time>2012-07-18T12:36:25.0000000+00:00</time></trkpt><trkpt lat="64.12889862" lon="-21.87643433"><ele>35.4</ele><time>2012-07-18T12:42:05.0000000+00:00</time></trkpt><trkpt lat="64.12937927" lon="-21.87584114"><ele>33.0</ele><time>2012-07-18T12:44:00.0000000+00:00</time></trkpt><trkpt lat="64.1286087" lon="-21.87193489"><ele>30.1</ele><time>2012-07-18T12:45:25.0000000+00:00</time></trkpt><trkpt lat="64.12840271" lon="-21.86967087"><ele>28.0</ele><time>2012-07-18T12:45:55.0000000+00:00</time></trkpt><trkpt lat="64.12477112" lon="-21.84774017"><ele>9.9</ele><time>2012-07-18T12:49:00.0000000+00:00</time></trkpt><trkpt lat="64.12412262" lon="-21.84153557"><ele>5.0</ele><time>2012-07-18T12:49:45.0000000+00:00</time></trkpt><trkpt lat="64.1238327" lon="-21.83683968"><ele>19.8</ele><time>2012-07-18T12:50:40.0000000+00:00</time></trkpt><trkpt lat="64.12372589" lon="-21.8312664"><ele>36.7</ele><time>2012-07-18T12:52:50.0000000+00:00</time></trkpt><trkpt lat="64.12410736" lon="-21.81160355"><ele>55.1</ele><time>2012-07-18T12:56:55.0000000+00:00</time></trkpt><trkpt lat="64.12428284" lon="-21.79343033"><ele>39.7</ele><time>2012-07-18T12:59:45.0000000+00:00</time></trkpt><trkpt lat="64.12441254" lon="-21.78963852"><ele>39.4</ele><time>2012-07-18T13:00:20.0000000+00:00</time></trkpt><trkpt lat="64.12467957" lon="-21.78664208"><ele>41.4</ele><time>2012-07-18T13:00:45.0000000+00:00</time></trkpt><trkpt lat="64.12527466" lon="-21.78285599"><ele>36.6</ele><time>2012-07-18T13:01:20.0000000+00:00</time></trkpt><trkpt lat="64.12638855" lon="-21.77845764"><ele>33.9</ele><time>2012-07-18T13:02:05.0000000+00:00</time></trkpt><trkpt lat="64.13073731" lon="-21.76690292"><ele>51.3</ele><time>2012-07-18T13:05:05.0000000+00:00</time></trkpt><trkpt lat="64.13246918" lon="-21.76337051"><ele>57.5</ele><time>2012-07-18T13:07:25.0000000+00:00</time></trkpt><trkpt lat="64.13581848" lon="-21.7601471"><ele>52.6</ele><time>2012-07-18T13:10:15.0000000+00:00</time></trkpt><trkpt lat="64.13605499" lon="-21.75933838"><ele>52.3</ele><time>2012-07-18T13:10:35.0000000+00:00</time></trkpt><trkpt lat="64.14065552" lon="-21.7564106"><ele>57.0</ele><time>2012-07-18T13:12:45.0000000+00:00</time></trkpt><trkpt lat="64.14106751" lon="-21.755579"><ele>59.8</ele><time>2012-07-18T13:13:30.0000000+00:00</time></trkpt><trkpt lat="64.1418457" lon="-21.7526989"><ele>62.9</ele><time>2012-07-18T13:14:45.0000000+00:00</time></trkpt><trkpt lat="64.14186859" lon="-21.75185776"><ele>61.1</ele><time>2012-07-18T13:15:00.0000000+00:00</time></trkpt><trkpt lat="64.14228821" lon="-21.75160027"><ele>63.2</ele><time>2012-07-18T13:15:15.0000000+00:00</time></trkpt><trkpt lat="64.14267731" lon="-21.75009346"><ele>66.3</ele><time>2012-07-18T13:15:50.0000000+00:00</time></trkpt><trkpt lat="64.14341736" lon="-21.74845886"><ele>69.4</ele><time>2012-07-18T13:16:40.0000000+00:00</time></trkpt><trkpt lat="64.14363098" lon="-21.74852943"><ele>68.0</ele><time>2012-07-18T13:16:50.0000000+00:00</time></trkpt><trkpt lat="64.14390564" lon="-21.74936104"><ele>65.2</ele><time>2012-07-18T13:17:05.0000000+00:00</time></trkpt><trkpt lat="64.14435577" lon="-21.74951553"><ele>63.9</ele><time>2012-07-18T13:18:45.0000000+00:00</time></trkpt><trkpt lat="64.14498901" lon="-21.75055122"><ele>58.3</ele><time>2012-07-18T13:19:00.0000000+00:00</time></trkpt><trkpt lat="64.14533234" lon="-21.75062561"><ele>57.4</ele><time>2012-07-18T13:19:15.0000000+00:00</time></trkpt><trkpt lat="64.14863586" lon="-21.74392891"><ele>56.2</ele><time>2012-07-18T13:22:50.0000000+00:00</time></trkpt><trkpt lat="64.15192413" lon="-21.73902512"><ele>51.0</ele><time>2012-07-18T13:25:20.0000000+00:00</time></trkpt><trkpt lat="64.15460205" lon="-21.73453713"><ele>57.6</ele><time>2012-07-18T13:27:15.0000000+00:00</time></trkpt><trkpt lat="64.1559372" lon="-21.73158836"><ele>62.7</ele><time>2012-07-18T13:28:00.0000000+00:00</time></trkpt><trkpt lat="64.1581955" lon="-21.72530365"><ele>47.9</ele><time>2012-07-18T13:29:10.0000000+00:00</time></trkpt><trkpt lat="64.15854645" lon="-21.72374916"><ele>49.7</ele><time>2012-07-18T13:29:55.0000000+00:00</time></trkpt><trkpt lat="64.15908051" lon="-21.72309494"><ele>49.1</ele><time>2012-07-18T13:32:40.0000000+00:00</time></trkpt><trkpt lat="64.16007996" lon="-21.72022438"><ele>49.5</ele><time>2012-07-18T13:33:35.0000000+00:00</time></trkpt><trkpt lat="64.1628418" lon="-21.71709251"><ele>60.6</ele><time>2012-07-18T13:35:35.0000000+00:00</time></trkpt><trkpt lat="64.16326904" lon="-21.71632195"><ele>62.9</ele><time>2012-07-18T13:35:55.0000000+00:00</time></trkpt><trkpt lat="64.16405487" lon="-21.71403694"><ele>61.9</ele><time>2012-07-18T13:36:40.0000000+00:00</time></trkpt><trkpt lat="64.164711" lon="-21.71143723"><ele>65.3</ele><time>2012-07-18T13:37:20.0000000+00:00</time></trkpt><trkpt lat="64.16486359" lon="-21.71008492"><ele>63.5</ele><time>2012-07-18T13:37:40.0000000+00:00</time></trkpt><trkpt lat="64.1647644" lon="-21.70804024"><ele>62.5</ele><time>2012-07-18T13:38:05.0000000+00:00</time></trkpt><trkpt lat="64.1656189" lon="-21.70648766"><ele>59.5</ele><time>2012-07-18T13:38:40.0000000+00:00</time></trkpt><trkpt lat="64.16577148" lon="-21.70661545"><ele>59.0</ele><time>2012-07-18T13:38:50.0000000+00:00</time></trkpt><trkpt lat="64.16580963" lon="-21.70727539"><ele>58.1</ele><time>2012-07-18T13:39:05.0000000+00:00</time></trkpt><trkpt lat="64.16562653" lon="-21.70640183"><ele>59.5</ele><time>2012-07-18T13:43:15.0000000+00:00</time></trkpt><trkpt lat="64.16522217" lon="-21.70637131"><ele>61.4</ele><time>2012-07-18T13:43:35.0000000+00:00</time></trkpt><trkpt lat="64.16493225" lon="-21.70689201"><ele>61.9</ele><time>2012-07-18T13:43:45.0000000+00:00</time></trkpt><trkpt lat="64.16464233" lon="-21.70651245"><ele>67.2</ele><time>2012-07-18T13:43:55.0000000+00:00</time></trkpt><trkpt lat="64.16441345" lon="-21.6996994"><ele>60.7</ele><time>2012-07-18T13:45:55.0000000+00:00</time></trkpt><trkpt lat="64.16447449" lon="-21.69754601"><ele>54.4</ele><time>2012-07-18T13:46:10.0000000+00:00</time></trkpt><trkpt lat="64.1647644" lon="-21.6950264"><ele>49.6</ele><time>2012-07-18T13:46:25.0000000+00:00</time></trkpt><trkpt lat="64.16530609" lon="-21.69303894"><ele>45.5</ele><time>2012-07-18T13:46:40.0000000+00:00</time></trkpt><trkpt lat="64.16690064" lon="-21.69034004"><ele>38.9</ele><time>2012-07-18T13:47:10.0000000+00:00</time></trkpt><trkpt lat="64.1674118" lon="-21.68849945"><ele>30.9</ele><time>2012-07-18T13:47:20.0000000+00:00</time></trkpt><trkpt lat="64.16776276" lon="-21.68425751"><ele>21.7</ele><time>2012-07-18T13:47:40.0000000+00:00</time></trkpt><trkpt lat="64.16777039" lon="-21.6835804"><ele>23.3</ele><time>2012-07-18T13:47:45.0000000+00:00</time></trkpt><trkpt lat="64.16753388" lon="-21.68250656"><ele>24.5</ele><time>2012-07-18T13:48:05.0000000+00:00</time></trkpt><trkpt lat="64.16779327" lon="-21.68316269"><ele>24.8</ele><time>2012-07-18T13:48:20.0000000+00:00</time></trkpt><trkpt lat="64.16781616" lon="-21.68278694"><ele>24.9</ele><time>2012-07-18T13:48:35.0000000+00:00</time></trkpt><trkpt lat="64.16894531" lon="-21.68094635"><ele>32.8</ele><time>2012-07-18T13:51:20.0000000+00:00</time></trkpt><trkpt lat="64.1717453" lon="-21.67686653"><ele>51.5</ele><time>2012-07-18T13:54:10.0000000+00:00</time></trkpt><trkpt lat="64.1729126" lon="-21.67607307"><ele>50.2</ele><time>2012-07-18T13:54:55.0000000+00:00</time></trkpt><trkpt lat="64.1750946" lon="-21.67596436"><ele>48.0</ele><time>2012-07-18T13:56:15.0000000+00:00</time></trkpt><trkpt lat="64.17606354" lon="-21.67547035"><ele>48.8</ele><time>2012-07-18T13:56:45.0000000+00:00</time></trkpt><trkpt lat="64.17753601" lon="-21.67337418"><ele>54.3</ele><time>2012-07-18T14:00:40.0000000+00:00</time></trkpt><trkpt lat="64.17810059" lon="-21.67146492"><ele>57.5</ele><time>2012-07-18T14:01:20.0000000+00:00</time></trkpt><trkpt lat="64.17829895" lon="-21.66858292"><ele>58.0</ele><time>2012-07-18T14:03:15.0000000+00:00</time></trkpt><trkpt lat="64.177948" lon="-21.66910744"><ele>60.9</ele><time>2012-07-18T14:03:40.0000000+00:00</time></trkpt><trkpt lat="64.17697144" lon="-21.66896629"><ele>71.0</ele><time>2012-07-18T14:05:00.0000000+00:00</time></trkpt><trkpt lat="64.17572784" lon="-21.66757774"><ele>83.6</ele><time>2012-07-18T14:06:40.0000000+00:00</time></trkpt><trkpt lat="64.17591095" lon="-21.66657829"><ele>86.1</ele><time>2012-07-18T14:07:35.0000000+00:00</time></trkpt><trkpt lat="64.17559052" lon="-21.66761208"><ele>83.7</ele><time>2012-07-18T14:08:20.0000000+00:00</time></trkpt><trkpt lat="64.17360687" lon="-21.66922951"><ele>76.7</ele><time>2012-07-18T14:09:15.0000000+00:00</time></trkpt><trkpt lat="64.1727066" lon="-21.67116737"><ele>73.4</ele><time>2012-07-18T14:09:45.0000000+00:00</time></trkpt><trkpt lat="64.1713028" lon="-21.67221451"><ele>67.5</ele><time>2012-07-18T14:10:30.0000000+00:00</time></trkpt><trkpt lat="64.1711731" lon="-21.67205238"><ele>66.1</ele><time>2012-07-18T14:10:35.0000000+00:00</time></trkpt><trkpt lat="64.17044067" lon="-21.66710281"><ele>75.7</ele><time>2012-07-18T14:12:10.0000000+00:00</time></trkpt><trkpt lat="64.17027283" lon="-21.66436768"><ele>80.8</ele><time>2012-07-18T14:13:00.0000000+00:00</time></trkpt><trkpt lat="64.16894531" lon="-21.65553093"><ele>103.4</ele><time>2012-07-18T14:16:30.0000000+00:00</time></trkpt><trkpt lat="64.16889954" lon="-21.65368652"><ele>104.7</ele><time>2012-07-18T14:23:35.0000000+00:00</time></trkpt><trkpt lat="64.16947174" lon="-21.65404129"><ele>123.0</ele><time>2012-07-18T14:25:05.0000000+00:00</time></trkpt><trkpt lat="64.17056274" lon="-21.65537643"><ele>153.9</ele><time>2012-07-18T14:28:00.0000000+00:00</time></trkpt><trkpt lat="64.1717453" lon="-21.65565109"><ele>186.4</ele><time>2012-07-18T14:30:45.0000000+00:00</time></trkpt><trkpt lat="64.17209625" lon="-21.65552521"><ele>193.3</ele><time>2012-07-18T14:31:25.0000000+00:00</time></trkpt><trkpt lat="64.17276001" lon="-21.65449905"><ele>196.7</ele><time>2012-07-18T14:32:45.0000000+00:00</time></trkpt><trkpt lat="64.17290497" lon="-21.65490532"><ele>197.7</ele><time>2012-07-18T14:33:15.0000000+00:00</time></trkpt><trkpt lat="64.17336273" lon="-21.65372849"><ele>203.9</ele><time>2012-07-18T14:34:45.0000000+00:00</time></trkpt><trkpt lat="64.17264557" lon="-21.65460777"><ele>195.7</ele><time>2012-07-18T14:37:05.0000000+00:00</time></trkpt><trkpt lat="64.17227936" lon="-21.65573502"><ele>193.0</ele><time>2012-07-18T14:38:00.0000000+00:00</time></trkpt><trkpt lat="64.17120361" lon="-21.65631294"><ele>173.8</ele><time>2012-07-18T14:40:30.0000000+00:00</time></trkpt><trkpt lat="64.17055512" lon="-21.65464592"><ele>150.4</ele><time>2012-07-18T14:43:15.0000000+00:00</time></trkpt><trkpt lat="64.16986084" lon="-21.65494156"><ele>133.0</ele><time>2012-07-18T14:45:35.0000000+00:00</time></trkpt><trkpt lat="64.16912079" lon="-21.65461159"><ele>110.8</ele><time>2012-07-18T14:47:35.0000000+00:00</time></trkpt><trkpt lat="64.16896057" lon="-21.6547451"><ele>107.0</ele><time>2012-07-18T14:48:20.0000000+00:00</time></trkpt><trkpt lat="64.16900635" lon="-21.65556145"><ele>103.8</ele><time>2012-07-18T14:50:20.0000000+00:00</time></trkpt><trkpt lat="64.16869354" lon="-21.65546417"><ele>101.5</ele><time>2012-07-18T14:51:05.0000000+00:00</time></trkpt><trkpt lat="64.16906738" lon="-21.6557827"><ele>103.2</ele><time>2012-07-18T14:51:40.0000000+00:00</time></trkpt><trkpt lat="64.17119598" lon="-21.67234802"><ele>65.8</ele><time>2012-07-18T14:55:50.0000000+00:00</time></trkpt><trkpt lat="64.17256928" lon="-21.67131615"><ele>73.6</ele><time>2012-07-18T14:57:00.0000000+00:00</time></trkpt><trkpt lat="64.17364502" lon="-21.66916084"><ele>77.0</ele><time>2012-07-18T14:57:45.0000000+00:00</time></trkpt><trkpt lat="64.17557526" lon="-21.66760063"><ele>83.8</ele><time>2012-07-18T14:58:55.0000000+00:00</time></trkpt><trkpt lat="64.17591095" lon="-21.66757393"><ele>83.4</ele><time>2012-07-18T14:59:05.0000000+00:00</time></trkpt><trkpt lat="64.17733765" lon="-21.66917038"><ele>69.8</ele><time>2012-07-18T15:00:40.0000000+00:00</time></trkpt><trkpt lat="64.17819214" lon="-21.66911316"><ele>58.5</ele><time>2012-07-18T15:01:00.0000000+00:00</time></trkpt><trkpt lat="64.17831421" lon="-21.66885948"><ele>58.2</ele><time>2012-07-18T15:01:05.0000000+00:00</time></trkpt><trkpt lat="64.17954254" lon="-21.65563202"><ele>57.9</ele><time>2012-07-18T15:03:50.0000000+00:00</time></trkpt><trkpt lat="64.17984009" lon="-21.64439201"><ele>44.5</ele><time>2012-07-18T15:07:30.0000000+00:00</time></trkpt><trkpt lat="64.18017578" lon="-21.64174461"><ele>41.1</ele><time>2012-07-18T15:10:25.0000000+00:00</time></trkpt><trkpt lat="64.18079376" lon="-21.60147667"><ele>53.1</ele><time>2012-07-18T15:18:15.0000000+00:00</time></trkpt><trkpt lat="64.18043518" lon="-21.59080124"><ele>64.5</ele><time>2012-07-18T15:20:45.0000000+00:00</time></trkpt><trkpt lat="64.18075562" lon="-21.58634567"><ele>68.6</ele><time>2012-07-18T15:22:00.0000000+00:00</time></trkpt><trkpt lat="64.18126679" lon="-21.58325577"><ele>77.3</ele><time>2012-07-18T15:23:00.0000000+00:00</time></trkpt><trkpt lat="64.1812439" lon="-21.58298683"><ele>78.0</ele><time>2012-07-18T15:23:05.0000000+00:00</time></trkpt><trkpt lat="64.18112946" lon="-21.58327675"><ele>76.5</ele><time>2012-07-18T15:23:40.0000000+00:00</time></trkpt><trkpt lat="64.18125153" lon="-21.58281899"><ele>78.0</ele><time>2012-07-18T15:28:25.0000000+00:00</time></trkpt><trkpt lat="64.18107605" lon="-21.58210945"><ele>79.4</ele><time>2012-07-18T15:28:45.0000000+00:00</time></trkpt><trkpt lat="64.18133545" lon="-21.58292198"><ele>77.5</ele><time>2012-07-18T15:29:25.0000000+00:00</time></trkpt><trkpt lat="64.18183899" lon="-21.58029366"><ele>83.9</ele><time>2012-07-18T15:30:50.0000000+00:00</time></trkpt><trkpt lat="64.18270874" lon="-21.5725193"><ele>96.2</ele><time>2012-07-18T15:33:05.0000000+00:00</time></trkpt><trkpt lat="64.18501282" lon="-21.56253815"><ele>103.9</ele><time>2012-07-18T15:35:45.0000000+00:00</time></trkpt><trkpt lat="64.18547058" lon="-21.55828476"><ele>111.3</ele><time>2012-07-18T15:37:10.0000000+00:00</time></trkpt><trkpt lat="64.18615723" lon="-21.5484581"><ele>129.5</ele><time>2012-07-18T15:41:10.0000000+00:00</time></trkpt><trkpt lat="64.18656158" lon="-21.54537582"><ele>136.7</ele><time>2012-07-18T15:42:10.0000000+00:00</time></trkpt><trkpt lat="64.19550324" lon="-21.51184464"><ele>208.9</ele><time>2012-07-18T15:53:55.0000000+00:00</time></trkpt><trkpt lat="64.19608307" lon="-21.50814056"><ele>209.6</ele><time>2012-07-18T15:54:40.0000000+00:00</time></trkpt><trkpt lat="64.19697571" lon="-21.49975205"><ele>205.4</ele><time>2012-07-18T15:55:55.0000000+00:00</time></trkpt><trkpt lat="64.19771576" lon="-21.4964962"><ele>200.8</ele><time>2012-07-18T15:56:20.0000000+00:00</time></trkpt><trkpt lat="64.20043945" lon="-21.48682594"><ele>195.6</ele><time>2012-07-18T15:57:40.0000000+00:00</time></trkpt><trkpt lat="64.20104218" lon="-21.48383713"><ele>195.1</ele><time>2012-07-18T15:58:05.0000000+00:00</time></trkpt><trkpt lat="64.20140076" lon="-21.48060036"><ele>195.7</ele><time>2012-07-18T15:58:30.0000000+00:00</time></trkpt><trkpt lat="64.20180512" lon="-21.47146034"><ele>205.1</ele><time>2012-07-18T16:00:00.0000000+00:00</time></trkpt><trkpt lat="64.20209503" lon="-21.46904564"><ele>205.3</ele><time>2012-07-18T16:00:40.0000000+00:00</time></trkpt><trkpt lat="64.20289612" lon="-21.46525383"><ele>213.6</ele><time>2012-07-18T16:02:00.0000000+00:00</time></trkpt><trkpt lat="64.20510864" lon="-21.45952606"><ele>224.0</ele><time>2012-07-18T16:04:05.0000000+00:00</time></trkpt><trkpt lat="64.20608521" lon="-21.45577622"><ele>227.0</ele><time>2012-07-18T16:05:10.0000000+00:00</time></trkpt><trkpt lat="64.20892334" lon="-21.43606186"><ele>235.5</ele><time>2012-07-18T16:09:05.0000000+00:00</time></trkpt><trkpt lat="64.20965576" lon="-21.4257679"><ele>230.1</ele><time>2012-07-18T16:10:50.0000000+00:00</time></trkpt><trkpt lat="64.20957947" lon="-21.42167282"><ele>223.7</ele><time>2012-07-18T16:11:15.0000000+00:00</time></trkpt><trkpt lat="64.20922852" lon="-21.41885567"><ele>229.2</ele><time>2012-07-18T16:11:40.0000000+00:00</time></trkpt><trkpt lat="64.20877838" lon="-21.41680908"><ele>230.8</ele><time>2012-07-18T16:12:05.0000000+00:00</time></trkpt><trkpt lat="64.20688629" lon="-21.41017914"><ele>246.0</ele><time>2012-07-18T16:15:30.0000000+00:00</time></trkpt><trkpt lat="64.20635223" lon="-21.40772057"><ele>245.6</ele><time>2012-07-18T16:16:15.0000000+00:00</time></trkpt><trkpt lat="64.20568848" lon="-21.40228462"><ele>244.1</ele><time>2012-07-18T16:17:10.0000000+00:00</time></trkpt><trkpt lat="64.20571899" lon="-21.39792061"><ele>241.3</ele><time>2012-07-18T16:17:55.0000000+00:00</time></trkpt><trkpt lat="64.20613861" lon="-21.39266014"><ele>242.7</ele><time>2012-07-18T16:18:50.0000000+00:00</time></trkpt><trkpt lat="64.2071991" lon="-21.38687706"><ele>247.8</ele><time>2012-07-18T16:20:00.0000000+00:00</time></trkpt><trkpt lat="64.20805359" lon="-21.38307381"><ele>249.0</ele><time>2012-07-18T16:20:50.0000000+00:00</time></trkpt><trkpt lat="64.20962524" lon="-21.37763023"><ele>252.2</ele><time>2012-07-18T16:22:05.0000000+00:00</time></trkpt><trkpt lat="64.21328735" lon="-21.36070252"><ele>253.1</ele><time>2012-07-18T16:24:45.0000000+00:00</time></trkpt><trkpt lat="64.21438599" lon="-21.3501091"><ele>258.9</ele><time>2012-07-18T16:26:20.0000000+00:00</time></trkpt><trkpt lat="64.21463776" lon="-21.34639549"><ele>263.0</ele><time>2012-07-18T16:27:00.0000000+00:00</time></trkpt><trkpt lat="64.21437836" lon="-21.34275818"><ele>259.3</ele><time>2012-07-18T16:27:35.0000000+00:00</time></trkpt><trkpt lat="64.21312714" lon="-21.33693886"><ele>247.0</ele><time>2012-07-18T16:28:10.0000000+00:00</time></trkpt><trkpt lat="64.21117401" lon="-21.32135773"><ele>234.4</ele><time>2012-07-18T16:29:50.0000000+00:00</time></trkpt><trkpt lat="64.20990753" lon="-21.31528854"><ele>231.4</ele><time>2012-07-18T16:30:30.0000000+00:00</time></trkpt><trkpt lat="64.20962524" lon="-21.31290245"><ele>229.7</ele><time>2012-07-18T16:30:45.0000000+00:00</time></trkpt><trkpt lat="64.20967102" lon="-21.30701828"><ele>228.7</ele><time>2012-07-18T16:31:20.0000000+00:00</time></trkpt><trkpt lat="64.20918274" lon="-21.30129433"><ele>228.3</ele><time>2012-07-18T16:32:00.0000000+00:00</time></trkpt><trkpt lat="64.20915985" lon="-21.29758644"><ele>227.3</ele><time>2012-07-18T16:32:25.0000000+00:00</time></trkpt><trkpt lat="64.20954895" lon="-21.28790093"><ele>220.4</ele><time>2012-07-18T16:33:30.0000000+00:00</time></trkpt><trkpt lat="64.21020508" lon="-21.28161049"><ele>219.2</ele><time>2012-07-18T16:34:30.0000000+00:00</time></trkpt><trkpt lat="64.21009827" lon="-21.27977562"><ele>217.1</ele><time>2012-07-18T16:34:45.0000000+00:00</time></trkpt><trkpt lat="64.20957184" lon="-21.27591705"><ele>215.8</ele><time>2012-07-18T16:35:15.0000000+00:00</time></trkpt><trkpt lat="64.20943451" lon="-21.27229691"><ele>216.4</ele><time>2012-07-18T16:35:40.0000000+00:00</time></trkpt><trkpt lat="64.20974731" lon="-21.26875496"><ele>210.2</ele><time>2012-07-18T16:36:00.0000000+00:00</time></trkpt><trkpt lat="64.21110535" lon="-21.26104736"><ele>207.9</ele><time>2012-07-18T16:36:55.0000000+00:00</time></trkpt><trkpt lat="64.21108246" lon="-21.26006508"><ele>206.2</ele><time>2012-07-18T16:37:40.0000000+00:00</time></trkpt><trkpt lat="64.2110672" lon="-21.26029015"><ele>206.8</ele><time>2012-07-18T16:37:55.0000000+00:00</time></trkpt><trkpt lat="64.21081543" lon="-21.2600441"><ele>206.2</ele><time>2012-07-18T16:39:20.0000000+00:00</time></trkpt><trkpt lat="64.21105194" lon="-21.2603302"><ele>206.8</ele><time>2012-07-18T16:40:55.0000000+00:00</time></trkpt><trkpt lat="64.21086884" lon="-21.2599926"><ele>206.1</ele><time>2012-07-18T16:42:35.0000000+00:00</time></trkpt><trkpt lat="64.21109009" lon="-21.26029587"><ele>206.8</ele><time>2012-07-18T16:46:10.0000000+00:00</time></trkpt><trkpt lat="64.21139526" lon="-21.25979996"><ele>205.1</ele><time>2012-07-18T16:46:30.0000000+00:00</time></trkpt><trkpt lat="64.21295166" lon="-21.2536602"><ele>193.5</ele><time>2012-07-18T16:47:10.0000000+00:00</time></trkpt><trkpt lat="64.21936798" lon="-21.23504448"><ele>172.0</ele><time>2012-07-18T16:49:25.0000000+00:00</time></trkpt><trkpt lat="64.22289276" lon="-21.22252083"><ele>153.3</ele><time>2012-07-18T16:50:55.0000000+00:00</time></trkpt><trkpt lat="64.22360992" lon="-21.21729088"><ele>146.5</ele><time>2012-07-18T16:51:25.0000000+00:00</time></trkpt><trkpt lat="64.22422791" lon="-21.21472359"><ele>136.9</ele><time>2012-07-18T16:51:40.0000000+00:00</time></trkpt><trkpt lat="64.2269516" lon="-21.20827293"><ele>131.6</ele><time>2012-07-18T16:52:30.0000000+00:00</time></trkpt><trkpt lat="64.22969055" lon="-21.20031738"><ele>136.4</ele><time>2012-07-18T16:54:00.0000000+00:00</time></trkpt><trkpt lat="64.23062897" lon="-21.19854927"><ele>138.9</ele><time>2012-07-18T16:54:25.0000000+00:00</time></trkpt><trkpt lat="64.23316956" lon="-21.19698143"><ele>138.0</ele><time>2012-07-18T16:55:20.0000000+00:00</time></trkpt><trkpt lat="64.23575592" lon="-21.19259453"><ele>135.6</ele><time>2012-07-18T16:56:25.0000000+00:00</time></trkpt><trkpt lat="64.23768616" lon="-21.19029427"><ele>136.6</ele><time>2012-07-18T16:57:05.0000000+00:00</time></trkpt><trkpt lat="64.23917389" lon="-21.18733406"><ele>125.3</ele><time>2012-07-18T16:57:35.0000000+00:00</time></trkpt><trkpt lat="64.24166107" lon="-21.1855526"><ele>117.9</ele><time>2012-07-18T16:58:10.0000000+00:00</time></trkpt><trkpt lat="64.24295807" lon="-21.18346977"><ele>118.3</ele><time>2012-07-18T16:58:50.0000000+00:00</time></trkpt><trkpt lat="64.2437439" lon="-21.18100357"><ele>119.0</ele><time>2012-07-18T16:59:20.0000000+00:00</time></trkpt><trkpt lat="64.24733734" lon="-21.16594124"><ele>122.1</ele><time>2012-07-18T17:01:50.0000000+00:00</time></trkpt><trkpt lat="64.24830627" lon="-21.16294861"><ele>124.7</ele><time>2012-07-18T17:02:25.0000000+00:00</time></trkpt><trkpt lat="64.25006867" lon="-21.1590519"><ele>127.6</ele><time>2012-07-18T17:03:25.0000000+00:00</time></trkpt><trkpt lat="64.2521286" lon="-21.15307999"><ele>129.2</ele><time>2012-07-18T17:04:35.0000000+00:00</time></trkpt><trkpt lat="64.25369263" lon="-21.14637566"><ele>132.2</ele><time>2012-07-18T17:06:55.0000000+00:00</time></trkpt><trkpt lat="64.25634003" lon="-21.14033318"><ele>133.6</ele><time>2012-07-18T17:09:15.0000000+00:00</time></trkpt><trkpt lat="64.25722504" lon="-21.13909531"><ele>133.2</ele><time>2012-07-18T17:09:35.0000000+00:00</time></trkpt><trkpt lat="64.26139832" lon="-21.13472366"><ele>135.2</ele><time>2012-07-18T17:11:20.0000000+00:00</time></trkpt><trkpt lat="64.26428223" lon="-21.12900162"><ele>135.8</ele><time>2012-07-18T17:12:40.0000000+00:00</time></trkpt><trkpt lat="64.26613617" lon="-21.12695503"><ele>136.7</ele><time>2012-07-18T17:13:25.0000000+00:00</time></trkpt><trkpt lat="64.26728058" lon="-21.12518692"><ele>135.8</ele><time>2012-07-18T17:13:55.0000000+00:00</time></trkpt><trkpt lat="64.27065277" lon="-21.11675453"><ele>136.3</ele><time>2012-07-18T17:16:05.0000000+00:00</time></trkpt><trkpt lat="64.27610779" lon="-21.10541153"><ele>139.0</ele><time>2012-07-18T17:18:40.0000000+00:00</time></trkpt><trkpt lat="64.27716065" lon="-21.10282707"><ele>137.6</ele><time>2012-07-18T17:19:10.0000000+00:00</time></trkpt><trkpt lat="64.27787781" lon="-21.10034752"><ele>137.1</ele><time>2012-07-18T17:19:40.0000000+00:00</time></trkpt><trkpt lat="64.27778626" lon="-21.10091209"><ele>137.7</ele><time>2012-07-18T17:19:50.0000000+00:00</time></trkpt><trkpt lat="64.27772522" lon="-21.1010952"><ele>137.9</ele><time>2012-07-18T17:19:55.0000000+00:00</time></trkpt><trkpt lat="64.2776947" lon="-21.10079956"><ele>137.3</ele><time>2012-07-18T17:20:15.0000000+00:00</time></trkpt><trkpt lat="64.27877808" lon="-21.09641838"><ele>125.6</ele><time>2012-07-18T17:23:10.0000000+00:00</time></trkpt><trkpt lat="64.27927399" lon="-21.09330368"><ele>114.8</ele><time>2012-07-18T17:23:30.0000000+00:00</time></trkpt><trkpt lat="64.27929688" lon="-21.08939934"><ele>115.2</ele><time>2012-07-18T17:24:00.0000000+00:00</time></trkpt><trkpt lat="64.27986145" lon="-21.0877533"><ele>114.9</ele><time>2012-07-18T17:25:30.0000000+00:00</time></trkpt><trkpt lat="64.27976227" lon="-21.08819389"><ele>115.0</ele><time>2012-07-18T17:27:24.0000000+00:00</time></trkpt><trkpt lat="64.27985382" lon="-21.08804321"><ele>114.9</ele><time>2012-07-18T17:27:39.0000000+00:00</time></trkpt><trkpt lat="64.27993012" lon="-21.08713341"><ele>114.5</ele><time>2012-07-18T17:28:24.0000000+00:00</time></trkpt><trkpt lat="64.27990723" lon="-21.08786583"><ele>114.9</ele><time>2012-07-18T17:31:14.0000000+00:00</time></trkpt><trkpt lat="64.27991486" lon="-21.08710671"><ele>114.5</ele><time>2012-07-18T17:35:19.0000000+00:00</time></trkpt><trkpt lat="64.27974701" lon="-21.08817864"><ele>115.0</ele><time>2012-07-18T17:37:34.0000000+00:00</time></trkpt><trkpt lat="64.28000641" lon="-21.0884037"><ele>115.1</ele><time>2012-07-18T17:38:44.0000000+00:00</time></trkpt><trkpt lat="64.27986145" lon="-21.08857727"><ele>115.1</ele><time>2012-07-18T17:40:08.0000000+00:00</time></trkpt><trkpt lat="64.28001404" lon="-21.0882206"><ele>115.0</ele><time>2012-07-18T17:40:38.0000000+00:00</time></trkpt><trkpt lat="64.27980804" lon="-21.08823776"><ele>115.0</ele><time>2012-07-18T17:41:33.0000000+00:00</time></trkpt><trkpt lat="64.28003693" lon="-21.08808136"><ele>115.0</ele><time>2012-07-18T17:42:38.0000000+00:00</time></trkpt><trkpt lat="64.2796402" lon="-21.08735085"><ele>114.6</ele><time>2012-07-18T17:43:55.0000000+00:00</time></trkpt><trkpt lat="64.27996063" lon="-21.0882473"><ele>115.0</ele><time>2012-07-18T17:44:35.0000000+00:00</time></trkpt><trkpt lat="64.27999878" lon="-21.08793831"><ele>115.0</ele><time>2012-07-18T17:44:50.0000000+00:00</time></trkpt><trkpt lat="64.27978516" lon="-21.08821297"><ele>115.0</ele><time>2012-07-18T17:45:25.0000000+00:00</time></trkpt><trkpt lat="64.28001404" lon="-21.08695602"><ele>114.5</ele><time>2012-07-18T17:48:20.0000000+00:00</time></trkpt><trkpt lat="64.27986908" lon="-21.08711624"><ele>114.4</ele><time>2012-07-18T17:58:35.0000000+00:00</time></trkpt><trkpt lat="64.28007507" lon="-21.08706474"><ele>114.7</ele><time>2012-07-18T18:08:25.0000000+00:00</time></trkpt><trkpt lat="64.27990723" lon="-21.0873642"><ele>114.6</ele><time>2012-07-18T18:09:20.0000000+00:00</time></trkpt><trkpt lat="64.27993774" lon="-21.0868187"><ele>114.4</ele><time>2012-07-18T18:10:45.0000000+00:00</time></trkpt><trkpt lat="64.27993774" lon="-21.08713722"><ele>114.5</ele><time>2012-07-18T18:12:35.0000000+00:00</time></trkpt></trkseg><trkseg><trkpt lat="64.27977753" lon="-21.08662987"><ele>114.5</ele><time>2012-07-19T12:01:36.0000000+00:00</time></trkpt><trkpt lat="64.27983093" lon="-21.08742333"><ele>114.6</ele><time>2012-07-19T12:08:41.0000000+00:00</time></trkpt><trkpt lat="64.27939606" lon="-21.08693504"><ele>114.5</ele><time>2012-07-19T12:13:46.0000000+00:00</time></trkpt><trkpt lat="64.27897644" lon="-21.0827713"><ele>116.5</ele><time>2012-07-19T12:14:56.0000000+00:00</time></trkpt><trkpt lat="64.2772522" lon="-21.07567978"><ele>122.9</ele><time>2012-07-19T12:16:56.0000000+00:00</time></trkpt><trkpt lat="64.2763443" lon="-21.07452202"><ele>123.8</ele><time>2012-07-19T12:17:26.0000000+00:00</time></trkpt><trkpt lat="64.27497864" lon="-21.07424355"><ele>121.4</ele><time>2012-07-19T12:18:01.0000000+00:00</time></trkpt><trkpt lat="64.27376556" lon="-21.07313156"><ele>120.0</ele><time>2012-07-19T12:18:31.0000000+00:00</time></trkpt><trkpt lat="64.27230072" lon="-21.07000732"><ele>125.8</ele><time>2012-07-19T12:19:26.0000000+00:00</time></trkpt><trkpt lat="64.27101135" lon="-21.06661415"><ele>128.9</ele><time>2012-07-19T12:20:16.0000000+00:00</time></trkpt><trkpt lat="64.26811218" lon="-21.06347656"><ele>130.0</ele><time>2012-07-19T12:21:31.0000000+00:00</time></trkpt><trkpt lat="64.26737213" lon="-21.06233025"><ele>129.1</ele><time>2012-07-19T12:21:51.0000000+00:00</time></trkpt><trkpt lat="64.2644043" lon="-21.05545044"><ele>119.9</ele><time>2012-07-19T12:23:11.0000000+00:00</time></trkpt><trkpt lat="64.26301575" lon="-21.05322838"><ele>118.3</ele><time>2012-07-19T12:23:41.0000000+00:00</time></trkpt><trkpt lat="64.26167297" lon="-21.05160713"><ele>116.7</ele><time>2012-07-19T12:24:06.0000000+00:00</time></trkpt><trkpt lat="64.26098633" lon="-21.05019188"><ele>115.5</ele><time>2012-07-19T12:24:26.0000000+00:00</time></trkpt><trkpt lat="64.26048279" lon="-21.04859924"><ele>119.1</ele><time>2012-07-19T12:24:46.0000000+00:00</time></trkpt><trkpt lat="64.26007843" lon="-21.04612923"><ele>120.6</ele><time>2012-07-19T12:25:21.0000000+00:00</time></trkpt><trkpt lat="64.26012421" lon="-21.04061699"><ele>130.9</ele><time>2012-07-19T12:26:36.0000000+00:00</time></trkpt><trkpt lat="64.25999451" lon="-21.03910637"><ele>135.6</ele><time>2012-07-19T12:27:11.0000000+00:00</time></trkpt><trkpt lat="64.2596283" lon="-21.03769684"><ele>140.0</ele><time>2012-07-19T12:27:41.0000000+00:00</time></trkpt><trkpt lat="64.25848389" lon="-21.03562927"><ele>148.9</ele><time>2012-07-19T12:30:16.0000000+00:00</time></trkpt><trkpt lat="64.25813294" lon="-21.03352928"><ele>152.5</ele><time>2012-07-19T12:31:11.0000000+00:00</time></trkpt><trkpt lat="64.25811005" lon="-21.03112412"><ele>156.0</ele><time>2012-07-19T12:31:41.0000000+00:00</time></trkpt><trkpt lat="64.25772095" lon="-21.02949524"><ele>157.0</ele><time>2012-07-19T12:32:16.0000000+00:00</time></trkpt><trkpt lat="64.25693512" lon="-21.02844429"><ele>160.0</ele><time>2012-07-19T12:32:46.0000000+00:00</time></trkpt><trkpt lat="64.25399017" lon="-21.02667427"><ele>161.8</ele><time>2012-07-19T12:36:01.0000000+00:00</time></trkpt><trkpt lat="64.25150299" lon="-21.02289391"><ele>165.7</ele><time>2012-07-19T12:37:11.0000000+00:00</time></trkpt><trkpt lat="64.2509613" lon="-21.02269745"><ele>166.7</ele><time>2012-07-19T12:37:31.0000000+00:00</time></trkpt><trkpt lat="64.24889374" lon="-21.02324486"><ele>175.5</ele><time>2012-07-19T12:38:41.0000000+00:00</time></trkpt><trkpt lat="64.24804688" lon="-21.02395058"><ele>178.6</ele><time>2012-07-19T12:39:16.0000000+00:00</time></trkpt><trkpt lat="64.24792481" lon="-21.02442169"><ele>175.6</ele><time>2012-07-19T12:41:31.0000000+00:00</time></trkpt><trkpt lat="64.24781036" lon="-21.02420998"><ele>176.9</ele><time>2012-07-19T12:42:16.0000000+00:00</time></trkpt><trkpt lat="64.24456024" lon="-21.02453423"><ele>171.6</ele><time>2012-07-19T12:43:36.0000000+00:00</time></trkpt><trkpt lat="64.24131012" lon="-21.02763939"><ele>161.0</ele><time>2012-07-19T12:44:31.0000000+00:00</time></trkpt><trkpt lat="64.24011993" lon="-21.0284195"><ele>159.1</ele><time>2012-07-19T12:44:46.0000000+00:00</time></trkpt><trkpt lat="64.2379303" lon="-21.02902985"><ele>161.5</ele><time>2012-07-19T12:45:31.0000000+00:00</time></trkpt><trkpt lat="64.23580933" lon="-21.02865601"><ele>161.7</ele><time>2012-07-19T12:46:16.0000000+00:00</time></trkpt><trkpt lat="64.23376465" lon="-21.02998161"><ele>156.5</ele><time>2012-07-19T12:46:56.0000000+00:00</time></trkpt><trkpt lat="64.23301697" lon="-21.03112412"><ele>156.1</ele><time>2012-07-19T12:47:11.0000000+00:00</time></trkpt><trkpt lat="64.23251343" lon="-21.03289414"><ele>155.0</ele><time>2012-07-19T12:47:26.0000000+00:00</time></trkpt><trkpt lat="64.23228455" lon="-21.03727913"><ele>141.8</ele><time>2012-07-19T12:47:51.0000000+00:00</time></trkpt><trkpt lat="64.23123169" lon="-21.04220963"><ele>129.4</ele><time>2012-07-19T12:48:16.0000000+00:00</time></trkpt><trkpt lat="64.23043823" lon="-21.04859924"><ele>121.2</ele><time>2012-07-19T12:48:56.0000000+00:00</time></trkpt><trkpt lat="64.22975922" lon="-21.05072403"><ele>123.8</ele><time>2012-07-19T12:49:21.0000000+00:00</time></trkpt><trkpt lat="64.22874451" lon="-21.05192566"><ele>124.8</ele><time>2012-07-19T12:49:56.0000000+00:00</time></trkpt><trkpt lat="64.22151184" lon="-21.05431366"><ele>129.6</ele><time>2012-07-19T12:52:56.0000000+00:00</time></trkpt><trkpt lat="64.22042847" lon="-21.05422974"><ele>129.0</ele><time>2012-07-19T12:53:26.0000000+00:00</time></trkpt><trkpt lat="64.21914673" lon="-21.05343437"><ele>131.5</ele><time>2012-07-19T12:54:01.0000000+00:00</time></trkpt><trkpt lat="64.20565033" lon="-21.03998566"><ele>150.3</ele><time>2012-07-19T13:01:26.0000000+00:00</time></trkpt><trkpt lat="64.198349" lon="-21.03031731"><ele>149.7</ele><time>2012-07-19T13:04:46.0000000+00:00</time></trkpt><trkpt lat="64.19696808" lon="-21.02739716"><ele>151.3</ele><time>2012-07-19T13:05:41.0000000+00:00</time></trkpt><trkpt lat="64.19600678" lon="-21.02425385"><ele>149.1</ele><time>2012-07-19T13:06:21.0000000+00:00</time></trkpt><trkpt lat="64.19520569" lon="-21.02010727"><ele>149.4</ele><time>2012-07-19T13:07:01.0000000+00:00</time></trkpt><trkpt lat="64.19483948" lon="-21.01639748"><ele>150.7</ele><time>2012-07-19T13:07:36.0000000+00:00</time></trkpt><trkpt lat="64.19484711" lon="-21.01163864"><ele>152.5</ele><time>2012-07-19T13:08:26.0000000+00:00</time></trkpt><trkpt lat="64.19613648" lon="-20.98896599"><ele>174.7</ele><time>2012-07-19T13:13:36.0000000+00:00</time></trkpt><trkpt lat="64.19609833" lon="-20.98031235"><ele>180.1</ele><time>2012-07-19T13:15:21.0000000+00:00</time></trkpt><trkpt lat="64.19541168" lon="-20.97070885"><ele>198.5</ele><time>2012-07-19T13:17:56.0000000+00:00</time></trkpt><trkpt lat="64.19284821" lon="-20.94991493"><ele>205.7</ele><time>2012-07-19T13:21:51.0000000+00:00</time></trkpt><trkpt lat="64.19256592" lon="-20.95023727"><ele>205.5</ele><time>2012-07-19T13:22:01.0000000+00:00</time></trkpt><trkpt lat="64.19237518" lon="-20.9513607"><ele>204.9</ele><time>2012-07-19T13:22:46.0000000+00:00</time></trkpt><trkpt lat="64.19284821" lon="-20.94939995"><ele>205.7</ele><time>2012-07-19T13:43:31.0000000+00:00</time></trkpt><trkpt lat="64.19204712" lon="-20.94273377"><ele>204.4</ele><time>2012-07-19T13:44:46.0000000+00:00</time></trkpt><trkpt lat="64.19172669" lon="-20.93840027"><ele>205.3</ele><time>2012-07-19T13:45:26.0000000+00:00</time></trkpt><trkpt lat="64.19152832" lon="-20.93254852"><ele>204.7</ele><time>2012-07-19T13:46:16.0000000+00:00</time></trkpt><trkpt lat="64.19159699" lon="-20.92796326"><ele>208.1</ele><time>2012-07-19T13:46:56.0000000+00:00</time></trkpt><trkpt lat="64.19197846" lon="-20.92184067"><ele>207.7</ele><time>2012-07-19T13:47:46.0000000+00:00</time></trkpt><trkpt lat="64.19264984" lon="-20.91591072"><ele>200.6</ele><time>2012-07-19T13:48:26.0000000+00:00</time></trkpt><trkpt lat="64.19358063" lon="-20.91040993"><ele>199.4</ele><time>2012-07-19T13:49:01.0000000+00:00</time></trkpt><trkpt lat="64.19525909" lon="-20.90239525"><ele>188.6</ele><time>2012-07-19T13:49:51.0000000+00:00</time></trkpt><trkpt lat="64.1964035" lon="-20.89492035"><ele>185.2</ele><time>2012-07-19T13:50:36.0000000+00:00</time></trkpt><trkpt lat="64.19773102" lon="-20.87937355"><ele>177.3</ele><time>2012-07-19T13:52:21.0000000+00:00</time></trkpt><trkpt lat="64.19976044" lon="-20.8650589"><ele>183.1</ele><time>2012-07-19T13:54:21.0000000+00:00</time></trkpt><trkpt lat="64.20021057" lon="-20.85850716"><ele>187.5</ele><time>2012-07-19T13:55:51.0000000+00:00</time></trkpt><trkpt lat="64.20108795" lon="-20.85905075"><ele>189.4</ele><time>2012-07-19T13:58:11.0000000+00:00</time></trkpt><trkpt lat="64.20206451" lon="-20.86152649"><ele>189.6</ele><time>2012-07-19T13:58:51.0000000+00:00</time></trkpt><trkpt lat="64.20276642" lon="-20.86258316"><ele>189.4</ele><time>2012-07-19T13:59:11.0000000+00:00</time></trkpt><trkpt lat="64.20457459" lon="-20.8634758"><ele>191.0</ele><time>2012-07-19T14:00:06.0000000+00:00</time></trkpt><trkpt lat="64.20568848" lon="-20.86479187"><ele>191.4</ele><time>2012-07-19T14:00:56.0000000+00:00</time></trkpt><trkpt lat="64.20666504" lon="-20.86543655"><ele>191.2</ele><time>2012-07-19T14:01:26.0000000+00:00</time></trkpt><trkpt lat="64.20743561" lon="-20.86534882"><ele>189.2</ele><time>2012-07-19T14:01:46.0000000+00:00</time></trkpt><trkpt lat="64.20821381" lon="-20.86467171"><ele>187.6</ele><time>2012-07-19T14:02:06.0000000+00:00</time></trkpt><trkpt lat="64.20979309" lon="-20.86151505"><ele>185.8</ele><time>2012-07-19T14:02:56.0000000+00:00</time></trkpt><trkpt lat="64.21086121" lon="-20.86039162"><ele>184.2</ele><time>2012-07-19T14:03:21.0000000+00:00</time></trkpt><trkpt lat="64.2122345" lon="-20.86030388"><ele>182.1</ele><time>2012-07-19T14:03:51.0000000+00:00</time></trkpt><trkpt lat="64.21351624" lon="-20.86162567"><ele>180.8</ele><time>2012-07-19T14:04:21.0000000+00:00</time></trkpt><trkpt lat="64.21391296" lon="-20.86277962"><ele>179.4</ele><time>2012-07-19T14:04:41.0000000+00:00</time></trkpt><trkpt lat="64.21416473" lon="-20.8664093"><ele>177.2</ele><time>2012-07-19T14:05:41.0000000+00:00</time></trkpt><trkpt lat="64.2142868" lon="-20.87397194"><ele>176.0</ele><time>2012-07-19T14:07:11.0000000+00:00</time></trkpt><trkpt lat="64.21257019" lon="-20.88733292"><ele>175.0</ele><time>2012-07-19T14:10:26.0000000+00:00</time></trkpt><trkpt lat="64.21340179" lon="-20.88771629"><ele>175.5</ele><time>2012-07-19T14:12:21.0000000+00:00</time></trkpt><trkpt lat="64.21395111" lon="-20.88747025"><ele>176.1</ele><time>2012-07-19T14:12:41.0000000+00:00</time></trkpt><trkpt lat="64.21630859" lon="-20.88373756"><ele>176.9</ele><time>2012-07-19T14:18:56.0000000+00:00</time></trkpt><trkpt lat="64.21737671" lon="-20.88372231"><ele>187.2</ele><time>2012-07-19T14:20:21.0000000+00:00</time></trkpt><trkpt lat="64.21754456" lon="-20.88403511"><ele>191.5</ele><time>2012-07-19T14:20:46.0000000+00:00</time></trkpt><trkpt lat="64.21743774" lon="-20.88386536"><ele>188.7</ele><time>2012-07-19T14:21:01.0000000+00:00</time></trkpt><trkpt lat="64.21778107" lon="-20.88368988"><ele>192.1</ele><time>2012-07-19T14:21:41.0000000+00:00</time></trkpt><trkpt lat="64.21816254" lon="-20.88450623"><ele>201.7</ele><time>2012-07-19T14:22:51.0000000+00:00</time></trkpt><trkpt lat="64.21778107" lon="-20.88366318"><ele>191.9</ele><time>2012-07-19T14:26:26.0000000+00:00</time></trkpt><trkpt lat="64.21733856" lon="-20.88390541"><ele>187.4</ele><time>2012-07-19T14:27:26.0000000+00:00</time></trkpt><trkpt lat="64.21644592" lon="-20.88369179"><ele>177.6</ele><time>2012-07-19T14:28:46.0000000+00:00</time></trkpt><trkpt lat="64.21387482" lon="-20.88751221"><ele>176.1</ele><time>2012-07-19T14:33:11.0000000+00:00</time></trkpt><trkpt lat="64.21326447" lon="-20.88776207"><ele>175.5</ele><time>2012-07-19T14:33:36.0000000+00:00</time></trkpt><trkpt lat="64.21253967" lon="-20.88725472"><ele>175.0</ele><time>2012-07-19T14:34:06.0000000+00:00</time></trkpt><trkpt lat="64.21417236" lon="-20.87424851"><ele>175.9</ele><time>2012-07-19T14:37:51.0000000+00:00</time></trkpt><trkpt lat="64.21421814" lon="-20.86897659"><ele>176.4</ele><time>2012-07-19T14:38:56.0000000+00:00</time></trkpt><trkpt lat="64.21392059" lon="-20.86256218"><ele>179.9</ele><time>2012-07-19T14:45:46.0000000+00:00</time></trkpt><trkpt lat="64.21365356" lon="-20.86189842"><ele>180.5</ele><time>2012-07-19T14:46:01.0000000+00:00</time></trkpt><trkpt lat="64.21244049" lon="-20.86049843"><ele>182.0</ele><time>2012-07-19T14:46:46.0000000+00:00</time></trkpt><trkpt lat="64.2120285" lon="-20.85884094"><ele>183.8</ele><time>2012-07-19T14:47:16.0000000+00:00</time></trkpt><trkpt lat="64.21191406" lon="-20.85340118"><ele>187.9</ele><time>2012-07-19T14:49:21.0000000+00:00</time></trkpt><trkpt lat="64.21179962" lon="-20.85351372"><ele>187.7</ele><time>2012-07-19T14:56:06.0000000+00:00</time></trkpt><trkpt lat="64.21149445" lon="-20.84836197"><ele>192.5</ele><time>2012-07-19T14:58:36.0000000+00:00</time></trkpt><trkpt lat="64.2114563" lon="-20.84578514"><ele>195.4</ele><time>2012-07-19T14:59:16.0000000+00:00</time></trkpt><trkpt lat="64.21163178" lon="-20.84322929"><ele>199.8</ele><time>2012-07-19T14:59:56.0000000+00:00</time></trkpt><trkpt lat="64.21128845" lon="-20.84005737"><ele>199.8</ele><time>2012-07-19T15:00:46.0000000+00:00</time></trkpt><trkpt lat="64.21127319" lon="-20.83462143"><ele>205.1</ele><time>2012-07-19T15:01:56.0000000+00:00</time></trkpt><trkpt lat="64.2116394" lon="-20.82848358"><ele>207.4</ele><time>2012-07-19T15:03:26.0000000+00:00</time></trkpt><trkpt lat="64.21166229" lon="-20.82386017"><ele>216.3</ele><time>2012-07-19T15:04:41.0000000+00:00</time></trkpt><trkpt lat="64.21221161" lon="-20.82037926"><ele>217.7</ele><time>2012-07-19T15:05:41.0000000+00:00</time></trkpt><trkpt lat="64.21239471" lon="-20.81571007"><ele>221.0</ele><time>2012-07-19T15:06:51.0000000+00:00</time></trkpt><trkpt lat="64.21217346" lon="-20.81128693"><ele>225.2</ele><time>2012-07-19T15:07:56.0000000+00:00</time></trkpt><trkpt lat="64.21221924" lon="-20.80603981"><ele>239.4</ele><time>2012-07-19T15:10:01.0000000+00:00</time></trkpt><trkpt lat="64.21199799" lon="-20.80377007"><ele>240.0</ele><time>2012-07-19T15:10:36.0000000+00:00</time></trkpt><trkpt lat="64.21123505" lon="-20.79938126"><ele>238.6</ele><time>2012-07-19T15:14:06.0000000+00:00</time></trkpt><trkpt lat="64.21244049" lon="-20.7927742"><ele>213.4</ele><time>2012-07-19T15:15:11.0000000+00:00</time></trkpt><trkpt lat="64.21170044" lon="-20.78963089"><ele>209.4</ele><time>2012-07-19T15:15:36.0000000+00:00</time></trkpt><trkpt lat="64.21084595" lon="-20.78167915"><ele>214.7</ele><time>2012-07-19T15:17:11.0000000+00:00</time></trkpt><trkpt lat="64.21115875" lon="-20.77847862"><ele>206.6</ele><time>2012-07-19T15:18:21.0000000+00:00</time></trkpt><trkpt lat="64.21136475" lon="-20.77767181"><ele>204.0</ele><time>2012-07-19T15:18:26.0000000+00:00</time></trkpt><trkpt lat="64.21224976" lon="-20.77605438"><ele>190.5</ele><time>2012-07-19T15:18:36.0000000+00:00</time></trkpt><trkpt lat="64.21053314" lon="-20.77137756"><ele>183.8</ele><time>2012-07-19T15:19:16.0000000+00:00</time></trkpt><trkpt lat="64.21022797" lon="-20.76953888"><ele>178.9</ele><time>2012-07-19T15:19:26.0000000+00:00</time></trkpt><trkpt lat="64.21022034" lon="-20.76849175"><ele>175.0</ele><time>2012-07-19T15:19:31.0000000+00:00</time></trkpt><trkpt lat="64.21066284" lon="-20.76567459"><ele>161.6</ele><time>2012-07-19T15:19:46.0000000+00:00</time></trkpt><trkpt lat="64.21103668" lon="-20.75843048"><ele>129.0</ele><time>2012-07-19T15:20:21.0000000+00:00</time></trkpt><trkpt lat="64.21212769" lon="-20.7491169"><ele>102.6</ele><time>2012-07-19T15:21:01.0000000+00:00</time></trkpt><trkpt lat="64.21214294" lon="-20.74803543"><ele>97.8</ele><time>2012-07-19T15:21:06.0000000+00:00</time></trkpt><trkpt lat="64.21179199" lon="-20.74703026"><ele>92.4</ele><time>2012-07-19T15:21:26.0000000+00:00</time></trkpt><trkpt lat="64.2118988" lon="-20.74388313"><ele>87.5</ele><time>2012-07-19T15:21:46.0000000+00:00</time></trkpt><trkpt lat="64.21164703" lon="-20.74298668"><ele>85.6</ele><time>2012-07-19T15:22:06.0000000+00:00</time></trkpt><trkpt lat="64.21224213" lon="-20.74201584"><ele>86.4</ele><time>2012-07-19T15:23:16.0000000+00:00</time></trkpt><trkpt lat="64.21308136" lon="-20.73854256"><ele>87.5</ele><time>2012-07-19T15:23:56.0000000+00:00</time></trkpt><trkpt lat="64.21355438" lon="-20.73747826"><ele>87.0</ele><time>2012-07-19T15:24:16.0000000+00:00</time></trkpt><trkpt lat="64.21627808" lon="-20.73521042"><ele>82.8</ele><time>2012-07-19T15:25:21.0000000+00:00</time></trkpt><trkpt lat="64.21662903" lon="-20.73467064"><ele>81.4</ele><time>2012-07-19T15:25:31.0000000+00:00</time></trkpt><trkpt lat="64.21674347" lon="-20.73395538"><ele>79.8</ele><time>2012-07-19T15:46:16.0000000+00:00</time></trkpt><trkpt lat="64.21739197" lon="-20.73406029"><ele>79.7</ele><time>2012-07-19T16:31:36.0000000+00:00</time></trkpt><trkpt lat="64.21942902" lon="-20.73217201"><ele>76.5</ele><time>2012-07-19T16:32:26.0000000+00:00</time></trkpt><trkpt lat="64.23184967" lon="-20.71325684"><ele>70.7</ele><time>2012-07-19T16:36:46.0000000+00:00</time></trkpt><trkpt lat="64.23749542" lon="-20.70186997"><ele>75.9</ele><time>2012-07-19T16:39:31.0000000+00:00</time></trkpt><trkpt lat="64.23937988" lon="-20.69669151"><ele>75.2</ele><time>2012-07-19T16:40:26.0000000+00:00</time></trkpt><trkpt lat="64.23999023" lon="-20.69338226"><ele>77.4</ele><time>2012-07-19T16:41:01.0000000+00:00</time></trkpt><trkpt lat="64.24088287" lon="-20.68190384"><ele>87.2</ele><time>2012-07-19T16:43:51.0000000+00:00</time></trkpt><trkpt lat="64.24054718" lon="-20.66741753"><ele>78.9</ele><time>2012-07-19T16:45:46.0000000+00:00</time></trkpt><trkpt lat="64.24006653" lon="-20.66429901"><ele>80.2</ele><time>2012-07-19T16:46:16.0000000+00:00</time></trkpt><trkpt lat="64.23596191" lon="-20.6430397"><ele>93.1</ele><time>2012-07-19T16:50:51.0000000+00:00</time></trkpt><trkpt lat="64.23534393" lon="-20.64068222"><ele>93.2</ele><time>2012-07-19T16:51:21.0000000+00:00</time></trkpt><trkpt lat="64.23428345" lon="-20.63813782"><ele>92.5</ele><time>2012-07-19T16:51:56.0000000+00:00</time></trkpt><trkpt lat="64.2318573" lon="-20.63480759"><ele>92.6</ele><time>2012-07-19T16:53:01.0000000+00:00</time></trkpt><trkpt lat="64.23065186" lon="-20.63393974"><ele>89.0</ele><time>2012-07-19T16:53:26.0000000+00:00</time></trkpt><trkpt lat="64.22710419" lon="-20.63323212"><ele>79.2</ele><time>2012-07-19T16:54:26.0000000+00:00</time></trkpt><trkpt lat="64.2263794" lon="-20.63268089"><ele>77.5</ele><time>2012-07-19T16:54:41.0000000+00:00</time></trkpt><trkpt lat="64.22549439" lon="-20.63126564"><ele>76.8</ele><time>2012-07-19T16:55:01.0000000+00:00</time></trkpt><trkpt lat="64.2246933" lon="-20.62830353"><ele>71.4</ele><time>2012-07-19T16:55:31.0000000+00:00</time></trkpt><trkpt lat="64.22445679" lon="-20.62296104"><ele>71.0</ele><time>2012-07-19T16:56:11.0000000+00:00</time></trkpt><trkpt lat="64.22317505" lon="-20.61659813"><ele>68.2</ele><time>2012-07-19T16:57:06.0000000+00:00</time></trkpt><trkpt lat="64.22306061" lon="-20.61476135"><ele>68.5</ele><time>2012-07-19T16:57:21.0000000+00:00</time></trkpt><trkpt lat="64.22319794" lon="-20.61274338"><ele>70.4</ele><time>2012-07-19T16:57:41.0000000+00:00</time></trkpt><trkpt lat="64.22358704" lon="-20.61090088"><ele>69.6</ele><time>2012-07-19T16:58:01.0000000+00:00</time></trkpt><trkpt lat="64.22530365" lon="-20.60523796"><ele>73.8</ele><time>2012-07-19T16:59:11.0000000+00:00</time></trkpt><trkpt lat="64.22571564" lon="-20.60231972"><ele>72.0</ele><time>2012-07-19T16:59:41.0000000+00:00</time></trkpt><trkpt lat="64.2256546" lon="-20.5989151"><ele>72.7</ele><time>2012-07-19T17:00:06.0000000+00:00</time></trkpt><trkpt lat="64.22460938" lon="-20.58374977"><ele>79.7</ele><time>2012-07-19T17:02:41.0000000+00:00</time></trkpt><trkpt lat="64.2246933" lon="-20.57989502"><ele>77.3</ele><time>2012-07-19T17:03:16.0000000+00:00</time></trkpt><trkpt lat="64.22519684" lon="-20.57555389"><ele>78.6</ele><time>2012-07-19T17:03:56.0000000+00:00</time></trkpt><trkpt lat="64.22568512" lon="-20.5735569"><ele>80.4</ele><time>2012-07-19T17:04:21.0000000+00:00</time></trkpt><trkpt lat="64.22640228" lon="-20.57174683"><ele>78.8</ele><time>2012-07-19T17:04:46.0000000+00:00</time></trkpt><trkpt lat="64.2273407" lon="-20.57030678"><ele>80.1</ele><time>2012-07-19T17:05:11.0000000+00:00</time></trkpt><trkpt lat="64.22946167" lon="-20.56791115"><ele>82.3</ele><time>2012-07-19T17:06:01.0000000+00:00</time></trkpt><trkpt lat="64.23132324" lon="-20.56516647"><ele>80.8</ele><time>2012-07-19T17:06:41.0000000+00:00</time></trkpt><trkpt lat="64.23799133" lon="-20.55277252"><ele>93.0</ele><time>2012-07-19T17:09:56.0000000+00:00</time></trkpt><trkpt lat="64.23906708" lon="-20.54985809"><ele>88.5</ele><time>2012-07-19T17:10:26.0000000+00:00</time></trkpt><trkpt lat="64.23946381" lon="-20.54766083"><ele>86.7</ele><time>2012-07-19T17:10:41.0000000+00:00</time></trkpt><trkpt lat="64.23967743" lon="-20.54475594"><ele>85.2</ele><time>2012-07-19T17:11:01.0000000+00:00</time></trkpt><trkpt lat="64.24002075" lon="-20.51762199"><ele>84.5</ele><time>2012-07-19T17:16:16.0000000+00:00</time></trkpt><trkpt lat="64.24073792" lon="-20.51158905"><ele>87.5</ele><time>2012-07-19T17:17:16.0000000+00:00</time></trkpt><trkpt lat="64.24158478" lon="-20.50784683"><ele>88.8</ele><time>2012-07-19T17:17:56.0000000+00:00</time></trkpt><trkpt lat="64.24237061" lon="-20.50542069"><ele>88.5</ele><time>2012-07-19T17:18:21.0000000+00:00</time></trkpt><trkpt lat="64.24347687" lon="-20.50276756"><ele>88.7</ele><time>2012-07-19T17:18:51.0000000+00:00</time></trkpt><trkpt lat="64.24677277" lon="-20.49656296"><ele>95.0</ele><time>2012-07-19T17:20:36.0000000+00:00</time></trkpt><trkpt lat="64.24851227" lon="-20.49395561"><ele>92.3</ele><time>2012-07-19T17:21:26.0000000+00:00</time></trkpt><trkpt lat="64.25254059" lon="-20.48871613"><ele>103.0</ele><time>2012-07-19T17:23:41.0000000+00:00</time></trkpt><trkpt lat="64.25475311" lon="-20.48397636"><ele>95.7</ele><time>2012-07-19T17:24:36.0000000+00:00</time></trkpt><trkpt lat="64.2586441" lon="-20.47458077"><ele>102.2</ele><time>2012-07-19T17:26:46.0000000+00:00</time></trkpt><trkpt lat="64.26459503" lon="-20.46779633"><ele>118.7</ele><time>2012-07-19T17:37:36.0000000+00:00</time></trkpt><trkpt lat="64.26651764" lon="-20.46445847"><ele>117.0</ele><time>2012-07-19T17:38:31.0000000+00:00</time></trkpt><trkpt lat="64.26734161" lon="-20.46235657"><ele>112.5</ele><time>2012-07-19T17:38:51.0000000+00:00</time></trkpt><trkpt lat="64.27030182" lon="-20.45295906"><ele>108.0</ele><time>2012-07-19T17:40:16.0000000+00:00</time></trkpt><trkpt lat="64.27534485" lon="-20.43669128"><ele>122.4</ele><time>2012-07-19T17:43:56.0000000+00:00</time></trkpt><trkpt lat="64.27642822" lon="-20.432724"><ele>119.6</ele><time>2012-07-19T17:44:46.0000000+00:00</time></trkpt><trkpt lat="64.27677155" lon="-20.43052101"><ele>116.4</ele><time>2012-07-19T17:45:06.0000000+00:00</time></trkpt><trkpt lat="64.27693939" lon="-20.4276619"><ele>113.9</ele><time>2012-07-19T17:45:26.0000000+00:00</time></trkpt><trkpt lat="64.27689362" lon="-20.41923142"><ele>113.9</ele><time>2012-07-19T17:46:46.0000000+00:00</time></trkpt><trkpt lat="64.27672577" lon="-20.41645813"><ele>120.3</ele><time>2012-07-19T17:47:36.0000000+00:00</time></trkpt><trkpt lat="64.27629089" lon="-20.41296387"><ele>125.3</ele><time>2012-07-19T17:48:51.0000000+00:00</time></trkpt><trkpt lat="64.27435303" lon="-20.40441132"><ele>125.3</ele><time>2012-07-19T17:50:51.0000000+00:00</time></trkpt><trkpt lat="64.27318573" lon="-20.39390755"><ele>118.1</ele><time>2012-07-19T17:52:21.0000000+00:00</time></trkpt><trkpt lat="64.27127838" lon="-20.38636971"><ele>114.4</ele><time>2012-07-19T17:53:31.0000000+00:00</time></trkpt><trkpt lat="64.27083588" lon="-20.38208389"><ele>109.5</ele><time>2012-07-19T17:54:06.0000000+00:00</time></trkpt><trkpt lat="64.27106476" lon="-20.37739945"><ele>103.9</ele><time>2012-07-19T17:54:36.0000000+00:00</time></trkpt><trkpt lat="64.2722168" lon="-20.37095451"><ele>103.2</ele><time>2012-07-19T17:55:21.0000000+00:00</time></trkpt><trkpt lat="64.2729187" lon="-20.35959244"><ele>99.7</ele><time>2012-07-19T17:56:51.0000000+00:00</time></trkpt><trkpt lat="64.27354431" lon="-20.35620689"><ele>99.2</ele><time>2012-07-19T17:57:21.0000000+00:00</time></trkpt><trkpt lat="64.27432251" lon="-20.35419846"><ele>98.4</ele><time>2012-07-19T17:57:41.0000000+00:00</time></trkpt><trkpt lat="64.27661133" lon="-20.34986877"><ele>97.3</ele><time>2012-07-19T17:58:36.0000000+00:00</time></trkpt><trkpt lat="64.28443146" lon="-20.34127617"><ele>99.9</ele><time>2012-07-19T18:01:46.0000000+00:00</time></trkpt><trkpt lat="64.30058289" lon="-20.33094597"><ele>92.8</ele><time>2012-07-19T18:07:21.0000000+00:00</time></trkpt><trkpt lat="64.30275726" lon="-20.32879829"><ele>90.4</ele><time>2012-07-19T18:08:06.0000000+00:00</time></trkpt><trkpt lat="64.30374908" lon="-20.32690239"><ele>89.3</ele><time>2012-07-19T18:08:26.0000000+00:00</time></trkpt><trkpt lat="64.30462647" lon="-20.32425308"><ele>88.7</ele><time>2012-07-19T18:08:51.0000000+00:00</time></trkpt><trkpt lat="64.30954742" lon="-20.30343247"><ele>103.0</ele><time>2012-07-19T18:13:11.0000000+00:00</time></trkpt><trkpt lat="64.30982971" lon="-20.30150414"><ele>104.0</ele><time>2012-07-19T18:14:16.0000000+00:00</time></trkpt><trkpt lat="64.3097229" lon="-20.30199242"><ele>106.1</ele><time>2012-07-19T18:15:21.0000000+00:00</time></trkpt><trkpt lat="64.30980682" lon="-20.3015728"><ele>104.1</ele><time>2012-07-19T18:15:41.0000000+00:00</time></trkpt><trkpt lat="64.30969238" lon="-20.30128479"><ele>103.2</ele><time>2012-07-19T18:16:06.0000000+00:00</time></trkpt><trkpt lat="64.30987549" lon="-20.30155754"><ele>104.4</ele><time>2012-07-19T18:17:01.0000000+00:00</time></trkpt><trkpt lat="64.30940247" lon="-20.30486298"><ele>99.6</ele><time>2012-07-19T18:17:56.0000000+00:00</time></trkpt><trkpt lat="64.31013489" lon="-20.30600357"><ele>101.5</ele><time>2012-07-19T18:32:56.0000000+00:00</time></trkpt><trkpt lat="64.31058502" lon="-20.3052578"><ele>103.2</ele><time>2012-07-19T21:19:56.0000000+00:00</time></trkpt></trkseg><trkseg><trkpt lat="64.30980682" lon="-20.3053093"><ele>100.5</ele><time>2012-07-20T10:19:04.0000000+00:00</time></trkpt><trkpt lat="64.30929565" lon="-20.30464935"><ele>99.4</ele><time>2012-07-20T10:39:29.0000000+00:00</time></trkpt><trkpt lat="64.3097229" lon="-20.30262756"><ele>104.5</ele><time>2012-07-20T10:39:59.0000000+00:00</time></trkpt><trkpt lat="64.31047058" lon="-20.30028725"><ele>104.9</ele><time>2012-07-20T10:40:39.0000000+00:00</time></trkpt><trkpt lat="64.31167603" lon="-20.29787445"><ele>107.9</ele><time>2012-07-20T10:41:24.0000000+00:00</time></trkpt><trkpt lat="64.31222534" lon="-20.29549027"><ele>107.2</ele><time>2012-07-20T10:41:54.0000000+00:00</time></trkpt><trkpt lat="64.31412506" lon="-20.27645874"><ele>98.1</ele><time>2012-07-20T10:44:34.0000000+00:00</time></trkpt><trkpt lat="64.3143158" lon="-20.27212334"><ele>98.4</ele><time>2012-07-20T10:45:04.0000000+00:00</time></trkpt><trkpt lat="64.31414795" lon="-20.2688694"><ele>100.4</ele><time>2012-07-20T10:45:29.0000000+00:00</time></trkpt><trkpt lat="64.31327057" lon="-20.26112747"><ele>101.3</ele><time>2012-07-20T10:47:24.0000000+00:00</time></trkpt><trkpt lat="64.31156921" lon="-20.25354958"><ele>102.4</ele><time>2012-07-20T10:48:29.0000000+00:00</time></trkpt><trkpt lat="64.31087494" lon="-20.24851799"><ele>100.2</ele><time>2012-07-20T10:49:09.0000000+00:00</time></trkpt><trkpt lat="64.30702972" lon="-20.19758034"><ele>170.3</ele><time>2012-07-20T11:00:54.0000000+00:00</time></trkpt><trkpt lat="64.3055954" lon="-20.18204689"><ele>187.3</ele><time>2012-07-20T11:04:09.0000000+00:00</time></trkpt><trkpt lat="64.30554199" lon="-20.17249489"><ele>186.9</ele><time>2012-07-20T11:07:14.0000000+00:00</time></trkpt><trkpt lat="64.30567169" lon="-20.16958237"><ele>182.1</ele><time>2012-07-20T11:07:34.0000000+00:00</time></trkpt><trkpt lat="64.30607605" lon="-20.16696739"><ele>179.1</ele><time>2012-07-20T11:07:49.0000000+00:00</time></trkpt><trkpt lat="64.30684662" lon="-20.16471481"><ele>178.3</ele><time>2012-07-20T11:08:09.0000000+00:00</time></trkpt><trkpt lat="64.31596375" lon="-20.14732933"><ele>198.5</ele><time>2012-07-20T11:12:39.0000000+00:00</time></trkpt><trkpt lat="64.31801605" lon="-20.13941765"><ele>201.6</ele><time>2012-07-20T11:14:29.0000000+00:00</time></trkpt><trkpt lat="64.31912231" lon="-20.137537"><ele>203.8</ele><time>2012-07-20T11:14:54.0000000+00:00</time></trkpt><trkpt lat="64.32043457" lon="-20.13463974"><ele>207.0</ele><time>2012-07-20T11:16:29.0000000+00:00</time></trkpt><trkpt lat="64.32272339" lon="-20.13440323"><ele>215.5</ele><time>2012-07-20T11:17:44.0000000+00:00</time></trkpt><trkpt lat="64.32468414" lon="-20.13267517"><ele>216.0</ele><time>2012-07-20T11:18:39.0000000+00:00</time></trkpt><trkpt lat="64.32513428" lon="-20.13014603"><ele>216.2</ele><time>2012-07-20T11:19:14.0000000+00:00</time></trkpt><trkpt lat="64.3253479" lon="-20.12968254"><ele>216.7</ele><time>2012-07-20T11:19:24.0000000+00:00</time></trkpt><trkpt lat="64.32532501" lon="-20.12912178"><ele>216.7</ele><time>2012-07-20T13:06:14.0000000+00:00</time></trkpt><trkpt lat="64.32595825" lon="-20.13109779"><ele>216.6</ele><time>2012-07-20T13:38:44.0000000+00:00</time></trkpt><trkpt lat="64.32430267" lon="-20.13320541"><ele>216.0</ele><time>2012-07-20T13:39:39.0000000+00:00</time></trkpt><trkpt lat="64.32274628" lon="-20.1344471"><ele>215.5</ele><time>2012-07-20T13:40:14.0000000+00:00</time></trkpt><trkpt lat="64.32077026" lon="-20.13460922"><ele>210.0</ele><time>2012-07-20T13:40:54.0000000+00:00</time></trkpt><trkpt lat="64.32015991" lon="-20.13524246"><ele>205.6</ele><time>2012-07-20T13:41:04.0000000+00:00</time></trkpt><trkpt lat="64.31932831" lon="-20.13722038"><ele>203.6</ele><time>2012-07-20T13:41:24.0000000+00:00</time></trkpt><trkpt lat="64.31790161" lon="-20.13982391"><ele>200.5</ele><time>2012-07-20T13:41:59.0000000+00:00</time></trkpt><trkpt lat="64.3164444" lon="-20.14602089"><ele>199.9</ele><time>2012-07-20T13:43:19.0000000+00:00</time></trkpt><trkpt lat="64.31595612" lon="-20.14747429"><ele>198.9</ele><time>2012-07-20T13:43:39.0000000+00:00</time></trkpt><trkpt lat="64.30699158" lon="-20.16462898"><ele>179.8</ele><time>2012-07-20T13:47:34.0000000+00:00</time></trkpt><trkpt lat="64.3062973" lon="-20.16642571"><ele>178.1</ele><time>2012-07-20T13:47:54.0000000+00:00</time></trkpt><trkpt lat="64.30593872" lon="-20.16797447"><ele>179.5</ele><time>2012-07-20T13:48:09.0000000+00:00</time></trkpt><trkpt lat="64.30562592" lon="-20.17155266"><ele>185.8</ele><time>2012-07-20T13:48:59.0000000+00:00</time></trkpt><trkpt lat="64.3055954" lon="-20.18164063"><ele>187.9</ele><time>2012-07-20T13:50:49.0000000+00:00</time></trkpt><trkpt lat="64.30696106" lon="-20.19626999"><ele>173.4</ele><time>2012-07-20T13:53:29.0000000+00:00</time></trkpt><trkpt lat="64.30956268" lon="-20.2307148"><ele>125.6</ele><time>2012-07-20T13:57:29.0000000+00:00</time></trkpt><trkpt lat="64.3092804" lon="-20.23111725"><ele>123.4</ele><time>2012-07-20T13:58:09.0000000+00:00</time></trkpt><trkpt lat="64.30567169" lon="-20.24083328"><ele>111.4</ele><time>2012-07-20T13:59:59.0000000+00:00</time></trkpt><trkpt lat="64.30493927" lon="-20.24226379"><ele>113.0</ele><time>2012-07-20T14:00:19.0000000+00:00</time></trkpt><trkpt lat="64.29971314" lon="-20.24305534"><ele>126.3</ele><time>2012-07-20T14:03:34.0000000+00:00</time></trkpt><trkpt lat="64.29824829" lon="-20.24233627"><ele>128.9</ele><time>2012-07-20T14:04:39.0000000+00:00</time></trkpt><trkpt lat="64.29731751" lon="-20.24123955"><ele>133.3</ele><time>2012-07-20T14:05:29.0000000+00:00</time></trkpt><trkpt lat="64.29611969" lon="-20.23891258"><ele>132.2</ele><time>2012-07-20T14:06:24.0000000+00:00</time></trkpt><trkpt lat="64.29494476" lon="-20.23731422"><ele>132.9</ele><time>2012-07-20T14:07:04.0000000+00:00</time></trkpt><trkpt lat="64.29258728" lon="-20.23546028"><ele>131.3</ele><time>2012-07-20T14:08:14.0000000+00:00</time></trkpt><trkpt lat="64.29130554" lon="-20.2339344"><ele>132.7</ele><time>2012-07-20T14:09:14.0000000+00:00</time></trkpt><trkpt lat="64.28704071" lon="-20.22663498"><ele>117.5</ele><time>2012-07-20T14:11:24.0000000+00:00</time></trkpt><trkpt lat="64.2857666" lon="-20.22525787"><ele>117.8</ele><time>2012-07-20T14:11:54.0000000+00:00</time></trkpt><trkpt lat="64.28056335" lon="-20.22491837"><ele>113.7</ele><time>2012-07-20T14:13:59.0000000+00:00</time></trkpt><trkpt lat="64.27651978" lon="-20.22672081"><ele>115.8</ele><time>2012-07-20T14:15:49.0000000+00:00</time></trkpt><trkpt lat="64.27465057" lon="-20.22685051"><ele>116.2</ele><time>2012-07-20T14:16:44.0000000+00:00</time></trkpt><trkpt lat="64.27223206" lon="-20.22596359"><ele>117.0</ele><time>2012-07-20T14:17:44.0000000+00:00</time></trkpt><trkpt lat="64.27055359" lon="-20.22664452"><ele>116.8</ele><time>2012-07-20T14:18:24.0000000+00:00</time></trkpt><trkpt lat="64.26966858" lon="-20.22659493"><ele>115.4</ele><time>2012-07-20T14:18:44.0000000+00:00</time></trkpt><trkpt lat="64.26615143" lon="-20.22375107"><ele>112.6</ele><time>2012-07-20T14:20:14.0000000+00:00</time></trkpt><trkpt lat="64.26534271" lon="-20.2233963"><ele>110.6</ele><time>2012-07-20T14:20:34.0000000+00:00</time></trkpt><trkpt lat="64.26460266" lon="-20.22345924"><ele>105.9</ele><time>2012-07-20T14:20:49.0000000+00:00</time></trkpt><trkpt lat="64.26318359" lon="-20.22456741"><ele>96.7</ele><time>2012-07-20T14:21:09.0000000+00:00</time></trkpt><trkpt lat="64.26200867" lon="-20.22486115"><ele>94.4</ele><time>2012-07-20T14:21:24.0000000+00:00</time></trkpt><trkpt lat="64.26148987" lon="-20.22408676"><ele>89.5</ele><time>2012-07-20T14:21:39.0000000+00:00</time></trkpt><trkpt lat="64.26085663" lon="-20.22250557"><ele>96.9</ele><time>2012-07-20T14:22:59.0000000+00:00</time></trkpt><trkpt lat="64.26067352" lon="-20.22159767"><ele>103.3</ele><time>2012-07-20T14:23:29.0000000+00:00</time></trkpt><trkpt lat="64.26023865" lon="-20.22184944"><ele>105.7</ele><time>2012-07-20T14:31:09.0000000+00:00</time></trkpt><trkpt lat="64.26077271" lon="-20.22146797"><ele>102.6</ele><time>2012-07-20T14:36:59.0000000+00:00</time></trkpt><trkpt lat="64.26334381" lon="-20.21824837"><ele>109.4</ele><time>2012-07-20T14:38:49.0000000+00:00</time></trkpt><trkpt lat="64.26325989" lon="-20.21837807"><ele>108.7</ele><time>2012-07-20T14:39:04.0000000+00:00</time></trkpt><trkpt lat="64.26444244" lon="-20.21615219"><ele>108.7</ele><time>2012-07-20T14:39:59.0000000+00:00</time></trkpt><trkpt lat="64.26488495" lon="-20.2141552"><ele>112.7</ele><time>2012-07-20T14:40:44.0000000+00:00</time></trkpt><trkpt lat="64.26530457" lon="-20.20960426"><ele>114.0</ele><time>2012-07-20T14:41:59.0000000+00:00</time></trkpt><trkpt lat="64.26888275" lon="-20.19757271"><ele>115.0</ele><time>2012-07-20T14:45:04.0000000+00:00</time></trkpt><trkpt lat="64.26908112" lon="-20.19622994"><ele>116.6</ele><time>2012-07-20T14:45:24.0000000+00:00</time></trkpt><trkpt lat="64.26901245" lon="-20.19478226"><ele>118.6</ele><time>2012-07-20T14:45:49.0000000+00:00</time></trkpt><trkpt lat="64.26866913" lon="-20.19353104"><ele>120.6</ele><time>2012-07-20T14:46:14.0000000+00:00</time></trkpt><trkpt lat="64.26821137" lon="-20.19279099"><ele>122.8</ele><time>2012-07-20T14:46:39.0000000+00:00</time></trkpt><trkpt lat="64.2673645" lon="-20.19264603"><ele>126.4</ele><time>2012-07-20T14:47:24.0000000+00:00</time></trkpt><trkpt lat="64.26503754" lon="-20.19465828"><ele>135.6</ele><time>2012-07-20T14:49:29.0000000+00:00</time></trkpt><trkpt lat="64.25855255" lon="-20.19818687"><ele>156.0</ele><time>2012-07-20T14:54:49.0000000+00:00</time></trkpt><trkpt lat="64.2541275" lon="-20.2012043"><ele>174.8</ele><time>2012-07-20T14:58:19.0000000+00:00</time></trkpt><trkpt lat="64.24897766" lon="-20.20576859"><ele>197.4</ele><time>2012-07-20T15:03:04.0000000+00:00</time></trkpt><trkpt lat="64.24832153" lon="-20.20693588"><ele>198.8</ele><time>2012-07-20T15:03:34.0000000+00:00</time></trkpt><trkpt lat="64.24736786" lon="-20.20981789"><ele>203.7</ele><time>2012-07-20T15:04:39.0000000+00:00</time></trkpt><trkpt lat="64.24643707" lon="-20.21159744"><ele>210.1</ele><time>2012-07-20T15:05:44.0000000+00:00</time></trkpt><trkpt lat="64.24575043" lon="-20.21268272"><ele>210.7</ele><time>2012-07-20T15:06:34.0000000+00:00</time></trkpt><trkpt lat="64.24388123" lon="-20.21443939"><ele>204.5</ele><time>2012-07-20T15:25:29.0000000+00:00</time></trkpt><trkpt lat="64.24256897" lon="-20.21636391"><ele>204.3</ele><time>2012-07-20T15:25:59.0000000+00:00</time></trkpt><trkpt lat="64.24118042" lon="-20.21940041"><ele>200.5</ele><time>2012-07-20T15:26:39.0000000+00:00</time></trkpt><trkpt lat="64.23706055" lon="-20.23158455"><ele>168.5</ele><time>2012-07-20T15:28:24.0000000+00:00</time></trkpt><trkpt lat="64.23446655" lon="-20.23812866"><ele>156.1</ele><time>2012-07-20T15:29:39.0000000+00:00</time></trkpt><trkpt lat="64.23248291" lon="-20.24145699"><ele>145.7</ele><time>2012-07-20T15:30:19.0000000+00:00</time></trkpt><trkpt lat="64.23012543" lon="-20.24628067"><ele>131.1</ele><time>2012-07-20T15:31:09.0000000+00:00</time></trkpt><trkpt lat="64.22692108" lon="-20.25068474"><ele>120.9</ele><time>2012-07-20T15:32:24.0000000+00:00</time></trkpt><trkpt lat="64.22455597" lon="-20.25536919"><ele>103.8</ele><time>2012-07-20T15:33:14.0000000+00:00</time></trkpt><trkpt lat="64.22274017" lon="-20.2577858"><ele>95.1</ele><time>2012-07-20T15:33:44.0000000+00:00</time></trkpt><trkpt lat="64.21636963" lon="-20.26224136"><ele>96.4</ele><time>2012-07-20T15:36:49.0000000+00:00</time></trkpt><trkpt lat="64.20864105" lon="-20.26961899"><ele>98.4</ele><time>2012-07-20T15:41:54.0000000+00:00</time></trkpt><trkpt lat="64.20429993" lon="-20.27420425"><ele>97.4</ele><time>2012-07-20T15:44:14.0000000+00:00</time></trkpt><trkpt lat="64.19920349" lon="-20.27760124"><ele>84.0</ele><time>2012-07-20T15:46:14.0000000+00:00</time></trkpt><trkpt lat="64.19789887" lon="-20.27793312"><ele>85.2</ele><time>2012-07-20T15:46:54.0000000+00:00</time></trkpt><trkpt lat="64.19095612" lon="-20.27774429"><ele>81.8</ele><time>2012-07-20T15:50:04.0000000+00:00</time></trkpt><trkpt lat="64.18951416" lon="-20.27805901"><ele>84.9</ele><time>2012-07-20T15:50:44.0000000+00:00</time></trkpt><trkpt lat="64.18804169" lon="-20.2789135"><ele>87.2</ele><time>2012-07-20T15:51:29.0000000+00:00</time></trkpt><trkpt lat="64.17978668" lon="-20.28555298"><ele>87.4</ele><time>2012-07-20T15:55:49.0000000+00:00</time></trkpt><trkpt lat="64.17819977" lon="-20.28634453"><ele>96.2</ele><time>2012-07-20T15:57:19.0000000+00:00</time></trkpt><trkpt lat="64.17656708" lon="-20.28629303"><ele>101.0</ele><time>2012-07-20T15:58:34.0000000+00:00</time></trkpt><trkpt lat="64.17310333" lon="-20.28479767"><ele>105.2</ele><time>2012-07-20T16:01:04.0000000+00:00</time></trkpt><trkpt lat="64.17225647" lon="-20.28491592"><ele>105.3</ele><time>2012-07-20T16:01:34.0000000+00:00</time></trkpt><trkpt lat="64.1713028" lon="-20.28549576"><ele>102.9</ele><time>2012-07-20T16:02:04.0000000+00:00</time></trkpt><trkpt lat="64.16738129" lon="-20.29050446"><ele>100.6</ele><time>2012-07-20T16:04:04.0000000+00:00</time></trkpt><trkpt lat="64.16481018" lon="-20.29564095"><ele>99.2</ele><time>2012-07-20T16:05:54.0000000+00:00</time></trkpt><trkpt lat="64.15893555" lon="-20.30364037"><ele>97.1</ele><time>2012-07-20T16:09:29.0000000+00:00</time></trkpt><trkpt lat="64.15818024" lon="-20.30548286"><ele>97.1</ele><time>2012-07-20T16:09:59.0000000+00:00</time></trkpt><trkpt lat="64.15640259" lon="-20.31267548"><ele>89.3</ele><time>2012-07-20T16:11:29.0000000+00:00</time></trkpt><trkpt lat="64.15431213" lon="-20.31648254"><ele>86.6</ele><time>2012-07-20T16:12:34.0000000+00:00</time></trkpt><trkpt lat="64.15325165" lon="-20.31755066"><ele>86.2</ele><time>2012-07-20T16:13:09.0000000+00:00</time></trkpt><trkpt lat="64.14122772" lon="-20.32645607"><ele>73.7</ele><time>2012-07-20T16:19:09.0000000+00:00</time></trkpt><trkpt lat="64.13978577" lon="-20.32691002"><ele>73.9</ele><time>2012-07-20T16:20:19.0000000+00:00</time></trkpt><trkpt lat="64.1394577" lon="-20.32730293"><ele>74.1</ele><time>2012-07-20T16:20:34.0000000+00:00</time></trkpt><trkpt lat="64.13937378" lon="-20.32777977"><ele>73.2</ele><time>2012-07-20T16:24:39.0000000+00:00</time></trkpt><trkpt lat="64.13694763" lon="-20.32518578"><ele>73.4</ele><time>2012-07-20T16:26:24.0000000+00:00</time></trkpt><trkpt lat="64.13438416" lon="-20.32484245"><ele>69.5</ele><time>2012-07-20T16:27:39.0000000+00:00</time></trkpt><trkpt lat="64.13095093" lon="-20.3216877"><ele>78.7</ele><time>2012-07-20T16:29:39.0000000+00:00</time></trkpt><trkpt lat="64.1309433" lon="-20.32130814"><ele>78.8</ele><time>2012-07-20T17:16:49.0000000+00:00</time></trkpt><trkpt lat="64.13047028" lon="-20.32102966"><ele>80.1</ele><time>2012-07-20T17:32:49.0000000+00:00</time></trkpt><trkpt lat="64.13056183" lon="-20.32073402"><ele>79.8</ele><time>2012-07-20T17:34:29.0000000+00:00</time></trkpt><trkpt lat="64.13066864" lon="-20.32087898"><ele>79.2</ele><time>2012-07-20T17:34:49.0000000+00:00</time></trkpt><trkpt lat="64.13053131" lon="-20.32116699"><ele>79.8</ele><time>2012-07-20T17:35:04.0000000+00:00</time></trkpt><trkpt lat="64.13070679" lon="-20.32116318"><ele>79.1</ele><time>2012-07-20T17:35:59.0000000+00:00</time></trkpt><trkpt lat="64.13076019" lon="-20.32057762"><ele>79.5</ele><time>2012-07-20T17:36:14.0000000+00:00</time></trkpt><trkpt lat="64.13047028" lon="-20.31785011"><ele>78.1</ele><time>2012-07-20T17:36:54.0000000+00:00</time></trkpt><trkpt lat="64.13002777" lon="-20.3167305"><ele>79.9</ele><time>2012-07-20T17:37:09.0000000+00:00</time></trkpt><trkpt lat="64.12961578" lon="-20.31632042"><ele>80.1</ele><time>2012-07-20T17:37:19.0000000+00:00</time></trkpt><trkpt lat="64.12846375" lon="-20.3167572"><ele>80.4</ele><time>2012-07-20T17:37:44.0000000+00:00</time></trkpt><trkpt lat="64.12729645" lon="-20.31649399"><ele>79.9</ele><time>2012-07-20T17:38:09.0000000+00:00</time></trkpt><trkpt lat="64.12554932" lon="-20.31761169"><ele>80.8</ele><time>2012-07-20T17:38:54.0000000+00:00</time></trkpt><trkpt lat="64.11803436" lon="-20.31754303"><ele>87.6</ele><time>2012-07-20T17:42:04.0000000+00:00</time></trkpt><trkpt lat="64.11359406" lon="-20.31941223"><ele>89.6</ele><time>2012-07-20T17:44:14.0000000+00:00</time></trkpt><trkpt lat="64.11245728" lon="-20.32058334"><ele>89.9</ele><time>2012-07-20T17:44:59.0000000+00:00</time></trkpt><trkpt lat="64.10601044" lon="-20.32937813"><ele>101.2</ele><time>2012-07-20T17:50:39.0000000+00:00</time></trkpt><trkpt lat="64.10504913" lon="-20.33033371"><ele>106.4</ele><time>2012-07-20T17:51:24.0000000+00:00</time></trkpt><trkpt lat="64.1040802" lon="-20.33072281"><ele>109.2</ele><time>2012-07-20T17:52:04.0000000+00:00</time></trkpt><trkpt lat="64.1027298" lon="-20.33033752"><ele>109.4</ele><time>2012-07-20T17:52:49.0000000+00:00</time></trkpt><trkpt lat="64.0933609" lon="-20.32323265"><ele>101.9</ele><time>2012-07-20T17:59:14.0000000+00:00</time></trkpt><trkpt lat="64.08446503" lon="-20.31883431"><ele>103.1</ele><time>2012-07-20T18:02:39.0000000+00:00</time></trkpt><trkpt lat="64.08222961" lon="-20.31838036"><ele>105.6</ele><time>2012-07-20T18:03:39.0000000+00:00</time></trkpt><trkpt lat="64.08094788" lon="-20.3188057"><ele>104.5</ele><time>2012-07-20T18:04:14.0000000+00:00</time></trkpt><trkpt lat="64.07980347" lon="-20.31970596"><ele>98.0</ele><time>2012-07-20T18:04:44.0000000+00:00</time></trkpt><trkpt lat="64.07071686" lon="-20.33142281"><ele>89.1</ele><time>2012-07-20T18:08:39.0000000+00:00</time></trkpt><trkpt lat="64.0643158" lon="-20.33819962"><ele>75.7</ele><time>2012-07-20T18:10:54.0000000+00:00</time></trkpt><trkpt lat="64.06296539" lon="-20.34047699"><ele>75.1</ele><time>2012-07-20T18:11:29.0000000+00:00</time></trkpt><trkpt lat="64.06214142" lon="-20.34243584"><ele>73.2</ele><time>2012-07-20T18:11:59.0000000+00:00</time></trkpt><trkpt lat="64.06131744" lon="-20.34514427"><ele>67.2</ele><time>2012-07-20T18:12:29.0000000+00:00</time></trkpt><trkpt lat="64.05955505" lon="-20.35353661"><ele>62.3</ele><time>2012-07-20T18:14:04.0000000+00:00</time></trkpt><trkpt lat="64.05862427" lon="-20.35698319"><ele>61.5</ele><time>2012-07-20T18:14:59.0000000+00:00</time></trkpt><trkpt lat="64.05716705" lon="-20.36113358"><ele>58.9</ele><time>2012-07-20T18:16:19.0000000+00:00</time></trkpt><trkpt lat="64.05477905" lon="-20.36666298"><ele>68.3</ele><time>2012-07-20T18:20:29.0000000+00:00</time></trkpt><trkpt lat="64.05419159" lon="-20.36862373"><ele>68.1</ele><time>2012-07-20T18:20:59.0000000+00:00</time></trkpt><trkpt lat="64.0472641" lon="-20.40782356"><ele>66.3</ele><time>2012-07-20T18:33:19.0000000+00:00</time></trkpt><trkpt lat="64.04660797" lon="-20.41015053"><ele>69.0</ele><time>2012-07-20T18:33:59.0000000+00:00</time></trkpt><trkpt lat="64.04598236" lon="-20.41144943"><ele>69.8</ele><time>2012-07-20T18:34:39.0000000+00:00</time></trkpt><trkpt lat="64.03368378" lon="-20.35784912"><ele>68.5</ele><time>2012-07-20T18:48:14.0000000+00:00</time></trkpt><trkpt lat="64.03340912" lon="-20.35512924"><ele>69.5</ele><time>2012-07-20T18:48:44.0000000+00:00</time></trkpt><trkpt lat="64.03346252" lon="-20.35337067"><ele>68.5</ele><time>2012-07-20T18:49:04.0000000+00:00</time></trkpt><trkpt lat="64.03437042" lon="-20.3460865"><ele>69.3</ele><time>2012-07-20T18:50:29.0000000+00:00</time></trkpt><trkpt lat="64.03443909" lon="-20.34165192"><ele>69.8</ele><time>2012-07-20T18:51:19.0000000+00:00</time></trkpt><trkpt lat="64.03430939" lon="-20.33529282"><ele>72.7</ele><time>2012-07-20T18:52:29.0000000+00:00</time></trkpt><trkpt lat="64.03501892" lon="-20.32774353"><ele>78.2</ele><time>2012-07-20T18:53:59.0000000+00:00</time></trkpt><trkpt lat="64.036232" lon="-20.32058716"><ele>75.4</ele><time>2012-07-20T18:55:24.0000000+00:00</time></trkpt><trkpt lat="64.03742981" lon="-20.31046486"><ele>64.6</ele><time>2012-07-20T18:56:24.0000000+00:00</time></trkpt><trkpt lat="64.03979492" lon="-20.30017471"><ele>68.0</ele><time>2012-07-20T18:58:14.0000000+00:00</time></trkpt><trkpt lat="64.04022217" lon="-20.29687119"><ele>69.2</ele><time>2012-07-20T18:58:44.0000000+00:00</time></trkpt><trkpt lat="64.04071808" lon="-20.28884506"><ele>71.4</ele><time>2012-07-20T19:00:19.0000000+00:00</time></trkpt><trkpt lat="64.04183197" lon="-20.28323364"><ele>73.8</ele><time>2012-07-20T19:01:29.0000000+00:00</time></trkpt><trkpt lat="64.04189301" lon="-20.28006363"><ele>73.5</ele><time>2012-07-20T19:01:59.0000000+00:00</time></trkpt><trkpt lat="64.0417099" lon="-20.27041245"><ele>79.5</ele><time>2012-07-20T19:03:54.0000000+00:00</time></trkpt><trkpt lat="64.04096985" lon="-20.25422096"><ele>87.4</ele><time>2012-07-20T19:06:49.0000000+00:00</time></trkpt><trkpt lat="64.04109955" lon="-20.20632362"><ele>95.4</ele><time>2012-07-20T19:15:54.0000000+00:00</time></trkpt><trkpt lat="64.04148865" lon="-20.19987679"><ele>97.9</ele><time>2012-07-20T19:17:04.0000000+00:00</time></trkpt><trkpt lat="64.04452515" lon="-20.16850853"><ele>104.0</ele><time>2012-07-20T19:22:44.0000000+00:00</time></trkpt><trkpt lat="64.04662323" lon="-20.15545273"><ele>121.7</ele><time>2012-07-20T19:27:49.0000000+00:00</time></trkpt><trkpt lat="64.04763031" lon="-20.15086937"><ele>124.7</ele><time>2012-07-20T19:30:54.0000000+00:00</time></trkpt><trkpt lat="64.04985809" lon="-20.14560318"><ele>122.7</ele><time>2012-07-20T19:32:19.0000000+00:00</time></trkpt><trkpt lat="64.05484009" lon="-20.13255501"><ele>114.0</ele><time>2012-07-20T19:34:39.0000000+00:00</time></trkpt><trkpt lat="64.05875397" lon="-20.12149048"><ele>109.8</ele><time>2012-07-20T19:36:29.0000000+00:00</time></trkpt><trkpt lat="64.06006622" lon="-20.11900139"><ele>109.5</ele><time>2012-07-20T19:37:09.0000000+00:00</time></trkpt><trkpt lat="64.06337738" lon="-20.11435509"><ele>111.0</ele><time>2012-07-20T19:38:44.0000000+00:00</time></trkpt><trkpt lat="64.06391907" lon="-20.11273193"><ele>111.0</ele><time>2012-07-20T19:39:04.0000000+00:00</time></trkpt><trkpt lat="64.06401825" lon="-20.11085892"><ele>110.9</ele><time>2012-07-20T19:39:24.0000000+00:00</time></trkpt><trkpt lat="64.06362152" lon="-20.1053257"><ele>112.2</ele><time>2012-07-20T19:41:09.0000000+00:00</time></trkpt><trkpt lat="64.06410217" lon="-20.10158157"><ele>110.7</ele><time>2012-07-20T19:42:39.0000000+00:00</time></trkpt><trkpt lat="64.06417847" lon="-20.09992027"><ele>113.8</ele><time>2012-07-20T19:42:59.0000000+00:00</time></trkpt><trkpt lat="64.06378174" lon="-20.09190369"><ele>111.4</ele><time>2012-07-20T19:45:09.0000000+00:00</time></trkpt><trkpt lat="64.06441498" lon="-20.08218193"><ele>115.1</ele><time>2012-07-20T19:48:24.0000000+00:00</time></trkpt><trkpt lat="64.06438446" lon="-20.07404327"><ele>118.0</ele><time>2012-07-20T19:49:54.0000000+00:00</time></trkpt><trkpt lat="64.06453705" lon="-20.0716114"><ele>118.5</ele><time>2012-07-20T19:50:19.0000000+00:00</time></trkpt><trkpt lat="64.06920624" lon="-20.04833984"><ele>117.9</ele><time>2012-07-20T19:54:49.0000000+00:00</time></trkpt><trkpt lat="64.0739212" lon="-20.03038216"><ele>120.8</ele><time>2012-07-20T19:57:49.0000000+00:00</time></trkpt><trkpt lat="64.07475281" lon="-20.02805328"><ele>118.1</ele><time>2012-07-20T19:58:14.0000000+00:00</time></trkpt><trkpt lat="64.07567596" lon="-20.0261879"><ele>118.1</ele><time>2012-07-20T19:58:34.0000000+00:00</time></trkpt><trkpt lat="64.07592773" lon="-20.02593994"><ele>118.0</ele><time>2012-07-20T19:58:39.0000000+00:00</time></trkpt><trkpt lat="64.07632446" lon="-20.02636528"><ele>119.0</ele><time>2012-07-20T19:58:49.0000000+00:00</time></trkpt><trkpt lat="64.07897949" lon="-20.0208683"><ele>147.8</ele><time>2012-07-20T20:02:39.0000000+00:00</time></trkpt><trkpt lat="64.0807724" lon="-20.01807404"><ele>160.1</ele><time>2012-07-20T20:05:29.0000000+00:00</time></trkpt><trkpt lat="64.08081055" lon="-20.01763344"><ele>161.1</ele><time>2012-07-20T20:06:34.0000000+00:00</time></trkpt><trkpt lat="64.08094788" lon="-20.01778221"><ele>158.6</ele><time>2012-07-20T20:15:49.0000000+00:00</time></trkpt><trkpt lat="64.08132172" lon="-20.01739311"><ele>157.6</ele><time>2012-07-20T20:16:04.0000000+00:00</time></trkpt><trkpt lat="64.08353424" lon="-20.01286507"><ele>143.1</ele><time>2012-07-20T20:17:09.0000000+00:00</time></trkpt><trkpt lat="64.08447266" lon="-20.01047134"><ele>128.2</ele><time>2012-07-20T20:17:29.0000000+00:00</time></trkpt><trkpt lat="64.08528137" lon="-20.00931549"><ele>120.3</ele><time>2012-07-20T20:17:44.0000000+00:00</time></trkpt><trkpt lat="64.08527374" lon="-20.00810814"><ele>116.6</ele><time>2012-07-20T20:17:54.0000000+00:00</time></trkpt><trkpt lat="64.08728027" lon="-20.00579453"><ele>117.1</ele><time>2012-07-20T20:18:54.0000000+00:00</time></trkpt><trkpt lat="64.08856201" lon="-20.00367165"><ele>116.4</ele><time>2012-07-20T20:19:29.0000000+00:00</time></trkpt><trkpt lat="64.08979034" lon="-20.00098038"><ele>117.2</ele><time>2012-07-20T20:20:04.0000000+00:00</time></trkpt><trkpt lat="64.0927887" lon="-19.99249077"><ele>118.4</ele><time>2012-07-20T20:21:39.0000000+00:00</time></trkpt><trkpt lat="64.09634399" lon="-19.98560906"><ele>124.5</ele><time>2012-07-20T20:23:54.0000000+00:00</time></trkpt><trkpt lat="64.09906769" lon="-19.97632599"><ele>124.6</ele><time>2012-07-20T20:25:29.0000000+00:00</time></trkpt><trkpt lat="64.0995636" lon="-19.97405815"><ele>124.2</ele><time>2012-07-20T20:25:49.0000000+00:00</time></trkpt><trkpt lat="64.09992981" lon="-19.97061539"><ele>121.3</ele><time>2012-07-20T20:26:19.0000000+00:00</time></trkpt><trkpt lat="64.10009003" lon="-19.96261787"><ele>132.3</ele><time>2012-07-20T20:27:59.0000000+00:00</time></trkpt><trkpt lat="64.10066986" lon="-19.95858002"><ele>133.7</ele><time>2012-07-20T20:28:49.0000000+00:00</time></trkpt><trkpt lat="64.10149384" lon="-19.95559883"><ele>134.8</ele><time>2012-07-20T20:29:24.0000000+00:00</time></trkpt><trkpt lat="64.10323334" lon="-19.95133972"><ele>136.3</ele><time>2012-07-20T20:30:24.0000000+00:00</time></trkpt><trkpt lat="64.10488129" lon="-19.95336723"><ele>138.5</ele><time>2012-07-20T20:31:34.0000000+00:00</time></trkpt><trkpt lat="64.10498047" lon="-19.9545002"><ele>138.1</ele><time>2012-07-20T20:31:59.0000000+00:00</time></trkpt><trkpt lat="64.10490418" lon="-19.95391083"><ele>138.2</ele><time>2012-07-20T20:32:09.0000000+00:00</time></trkpt><trkpt lat="64.10507965" lon="-19.95332336"><ele>138.6</ele><time>2012-07-20T20:37:14.0000000+00:00</time></trkpt><trkpt lat="64.10462189" lon="-19.95459175"><ele>139.1</ele><time>2012-07-20T20:37:54.0000000+00:00</time></trkpt><trkpt lat="64.1039505" lon="-19.95545197"><ele>139.7</ele><time>2012-07-20T20:38:19.0000000+00:00</time></trkpt><trkpt lat="64.10337067" lon="-19.95667267"><ele>139.4</ele><time>2012-07-20T20:38:44.0000000+00:00</time></trkpt><trkpt lat="64.10356903" lon="-19.9566288"><ele>139.2</ele><time>2012-07-20T20:39:09.0000000+00:00</time></trkpt><trkpt lat="64.10228729" lon="-19.9582901"><ele>135.8</ele><time>2012-07-20T20:40:44.0000000+00:00</time></trkpt><trkpt lat="64.10334015" lon="-19.95674706"><ele>139.3</ele><time>2012-07-20T20:41:24.0000000+00:00</time></trkpt><trkpt lat="64.10364533" lon="-19.95672989"><ele>138.6</ele><time>2012-07-20T20:41:34.0000000+00:00</time></trkpt><trkpt lat="64.10359192" lon="-19.95695114"><ele>138.5</ele><time>2012-07-20T20:46:39.0000000+00:00</time></trkpt></trkseg><trkseg><trkpt lat="64.10371399" lon="-19.95693588"><ele>137.7</ele><time>2012-07-21T11:10:34.0000000+00:00</time></trkpt><trkpt lat="64.10432434" lon="-19.95600128"><ele>136.9</ele><time>2012-07-21T11:12:14.0000000+00:00</time></trkpt><trkpt lat="64.10487366" lon="-19.95344162"><ele>138.5</ele><time>2012-07-21T11:13:04.0000000+00:00</time></trkpt><trkpt lat="64.103302" lon="-19.95162201"><ele>136.3</ele><time>2012-07-21T11:14:04.0000000+00:00</time></trkpt><trkpt lat="64.10324097" lon="-19.95114136"><ele>136.3</ele><time>2012-07-21T11:15:04.0000000+00:00</time></trkpt><trkpt lat="64.10997009" lon="-19.93443298"><ele>140.3</ele><time>2012-07-21T11:19:14.0000000+00:00</time></trkpt><trkpt lat="64.11447907" lon="-19.91974831"><ele>142.9</ele><time>2012-07-21T11:21:54.0000000+00:00</time></trkpt><trkpt lat="64.11549377" lon="-19.9159565"><ele>143.2</ele><time>2012-07-21T11:22:34.0000000+00:00</time></trkpt><trkpt lat="64.12056732" lon="-19.88849068"><ele>145.7</ele><time>2012-07-21T11:26:54.0000000+00:00</time></trkpt><trkpt lat="64.1214447" lon="-19.88200951"><ele>146.4</ele><time>2012-07-21T11:27:59.0000000+00:00</time></trkpt><trkpt lat="64.12162781" lon="-19.8775177"><ele>145.1</ele><time>2012-07-21T11:28:39.0000000+00:00</time></trkpt><trkpt lat="64.12125397" lon="-19.85167885"><ele>152.4</ele><time>2012-07-21T11:32:59.0000000+00:00</time></trkpt><trkpt lat="64.12042236" lon="-19.84132385"><ele>150.4</ele><time>2012-07-21T11:36:04.0000000+00:00</time></trkpt><trkpt lat="64.11925507" lon="-19.83434677"><ele>156.7</ele><time>2012-07-21T11:38:04.0000000+00:00</time></trkpt><trkpt lat="64.11906433" lon="-19.83164978"><ele>158.4</ele><time>2012-07-21T11:40:34.0000000+00:00</time></trkpt><trkpt lat="64.11751556" lon="-19.82927132"><ele>155.4</ele><time>2012-07-21T11:41:34.0000000+00:00</time></trkpt><trkpt lat="64.11581421" lon="-19.82902527"><ele>144.1</ele><time>2012-07-21T11:42:09.0000000+00:00</time></trkpt><trkpt lat="64.11544037" lon="-19.82570267"><ele>143.7</ele><time>2012-07-21T11:43:09.0000000+00:00</time></trkpt><trkpt lat="64.11559296" lon="-19.82447243"><ele>143.7</ele><time>2012-07-21T11:43:24.0000000+00:00</time></trkpt><trkpt lat="64.11587524" lon="-19.82387734"><ele>144.0</ele><time>2012-07-21T11:43:34.0000000+00:00</time></trkpt><trkpt lat="64.11759949" lon="-19.82306671"><ele>152.5</ele><time>2012-07-21T11:44:49.0000000+00:00</time></trkpt><trkpt lat="64.11865997" lon="-19.82186508"><ele>154.1</ele><time>2012-07-21T12:09:24.0000000+00:00</time></trkpt><trkpt lat="64.11773682" lon="-19.82300568"><ele>152.5</ele><time>2012-07-21T12:15:29.0000000+00:00</time></trkpt><trkpt lat="64.11572266" lon="-19.82416344"><ele>143.7</ele><time>2012-07-21T12:16:14.0000000+00:00</time></trkpt><trkpt lat="64.115448" lon="-19.82549858"><ele>143.5</ele><time>2012-07-21T12:16:29.0000000+00:00</time></trkpt><trkpt lat="64.11580658" lon="-19.82940674"><ele>143.9</ele><time>2012-07-21T12:17:09.0000000+00:00</time></trkpt><trkpt lat="64.11389923" lon="-19.8311367"><ele>137.5</ele><time>2012-07-21T12:17:44.0000000+00:00</time></trkpt><trkpt lat="64.11354828" lon="-19.83056641"><ele>139.0</ele><time>2012-07-21T12:18:09.0000000+00:00</time></trkpt><trkpt lat="64.1137085" lon="-19.83121872"><ele>136.4</ele><time>2012-07-21T12:18:39.0000000+00:00</time></trkpt><trkpt lat="64.11206055" lon="-19.83284569"><ele>131.7</ele><time>2012-07-21T12:19:04.0000000+00:00</time></trkpt><trkpt lat="64.11074066" lon="-19.83533859"><ele>134.7</ele><time>2012-07-21T12:19:34.0000000+00:00</time></trkpt><trkpt lat="64.1092453" lon="-19.8359642"><ele>131.5</ele><time>2012-07-21T12:19:59.0000000+00:00</time></trkpt><trkpt lat="64.10727692" lon="-19.83562279"><ele>132.1</ele><time>2012-07-21T12:20:34.0000000+00:00</time></trkpt><trkpt lat="64.10565186" lon="-19.83482552"><ele>129.9</ele><time>2012-07-21T12:21:09.0000000+00:00</time></trkpt><trkpt lat="64.1055069" lon="-19.83350372"><ele>131.7</ele><time>2012-07-21T12:21:49.0000000+00:00</time></trkpt><trkpt lat="64.10559845" lon="-19.8333149"><ele>137.3</ele><time>2012-07-21T12:22:09.0000000+00:00</time></trkpt><trkpt lat="64.10553742" lon="-19.83395386"><ele>128.4</ele><time>2012-07-21T12:23:09.0000000+00:00</time></trkpt><trkpt lat="64.10527039" lon="-19.83349037"><ele>128.8</ele><time>2012-07-21T12:24:39.0000000+00:00</time></trkpt><trkpt lat="64.10544586" lon="-19.83369637"><ele>127.0</ele><time>2012-07-21T12:26:54.0000000+00:00</time></trkpt><trkpt lat="64.10538483" lon="-19.83335686"><ele>134.6</ele><time>2012-07-21T12:28:14.0000000+00:00</time></trkpt><trkpt lat="64.10549927" lon="-19.83333015"><ele>136.5</ele><time>2012-07-21T12:28:59.0000000+00:00</time></trkpt><trkpt lat="64.10560608" lon="-19.83369064"><ele>130.8</ele><time>2012-07-21T12:29:49.0000000+00:00</time></trkpt><trkpt lat="64.10532379" lon="-19.83328247"><ele>135.6</ele><time>2012-07-21T12:32:54.0000000+00:00</time></trkpt><trkpt lat="64.10558319" lon="-19.83330917"><ele>137.3</ele><time>2012-07-21T12:34:59.0000000+00:00</time></trkpt><trkpt lat="64.10536957" lon="-19.83354378"><ele>128.4</ele><time>2012-07-21T12:37:04.0000000+00:00</time></trkpt><trkpt lat="64.10562134" lon="-19.83374977"><ele>131.0</ele><time>2012-07-21T12:38:04.0000000+00:00</time></trkpt><trkpt lat="64.10545349" lon="-19.83366013"><ele>127.3</ele><time>2012-07-21T12:39:14.0000000+00:00</time></trkpt><trkpt lat="64.10564423" lon="-19.83339882"><ele>135.8</ele><time>2012-07-21T12:43:09.0000000+00:00</time></trkpt><trkpt lat="64.1055069" lon="-19.83324432"><ele>139.0</ele><time>2012-07-21T12:44:34.0000000+00:00</time></trkpt><trkpt lat="64.10588837" lon="-19.83340263"><ele>137.2</ele><time>2012-07-21T12:45:59.0000000+00:00</time></trkpt><trkpt lat="64.10541534" lon="-19.83331108"><ele>136.8</ele><time>2012-07-21T12:49:49.0000000+00:00</time></trkpt><trkpt lat="64.10588837" lon="-19.8335247"><ele>135.2</ele><time>2012-07-21T12:59:49.0000000+00:00</time></trkpt><trkpt lat="64.10569" lon="-19.83343887"><ele>135.6</ele><time>2012-07-21T13:01:39.0000000+00:00</time></trkpt><trkpt lat="64.1057663" lon="-19.83328629"><ele>138.4</ele><time>2012-07-21T13:02:59.0000000+00:00</time></trkpt><trkpt lat="64.10580444" lon="-19.83377838"><ele>133.2</ele><time>2012-07-21T13:03:24.0000000+00:00</time></trkpt><trkpt lat="64.10551453" lon="-19.83351135"><ele>131.6</ele><time>2012-07-21T13:06:34.0000000+00:00</time></trkpt><trkpt lat="64.10584259" lon="-19.83360863"><ele>133.7</ele><time>2012-07-21T13:10:34.0000000+00:00</time></trkpt><trkpt lat="64.10565949" lon="-19.8332901"><ele>137.9</ele><time>2012-07-21T13:12:49.0000000+00:00</time></trkpt><trkpt lat="64.10546875" lon="-19.83397865"><ele>126.6</ele><time>2012-07-21T13:14:09.0000000+00:00</time></trkpt><trkpt lat="64.10531616" lon="-19.83345985"><ele>130.3</ele><time>2012-07-21T13:15:34.0000000+00:00</time></trkpt><trkpt lat="64.10569763" lon="-19.83380318"><ele>132.7</ele><time>2012-07-21T13:17:54.0000000+00:00</time></trkpt><trkpt lat="64.10546875" lon="-19.83367729"><ele>127.6</ele><time>2012-07-21T13:21:19.0000000+00:00</time></trkpt><trkpt lat="64.10562134" lon="-19.83395386"><ele>130.5</ele><time>2012-07-21T13:23:19.0000000+00:00</time></trkpt><trkpt lat="64.10549164" lon="-19.83368111"><ele>128.1</ele><time>2012-07-21T13:26:34.0000000+00:00</time></trkpt><trkpt lat="64.10568237" lon="-19.83374023"><ele>132.5</ele><time>2012-07-21T13:26:54.0000000+00:00</time></trkpt><trkpt lat="64.10569" lon="-19.83454514"><ele>131.3</ele><time>2012-07-21T13:28:24.0000000+00:00</time></trkpt><trkpt lat="64.10587311" lon="-19.83495331"><ele>131.8</ele><time>2012-07-21T13:28:34.0000000+00:00</time></trkpt><trkpt lat="64.10940552" lon="-19.8357811"><ele>133.3</ele><time>2012-07-21T13:30:29.0000000+00:00</time></trkpt><trkpt lat="64.1107254" lon="-19.83521271"><ele>135.8</ele><time>2012-07-21T13:31:04.0000000+00:00</time></trkpt><trkpt lat="64.11228943" lon="-19.83245277"><ele>130.0</ele><time>2012-07-21T13:32:09.0000000+00:00</time></trkpt><trkpt lat="64.11628723" lon="-19.82896042"><ele>147.4</ele><time>2012-07-21T13:35:49.0000000+00:00</time></trkpt><trkpt lat="64.11753082" lon="-19.82915497"><ele>155.0</ele><time>2012-07-21T13:36:54.0000000+00:00</time></trkpt><trkpt lat="64.11908722" lon="-19.83137131"><ele>158.3</ele><time>2012-07-21T13:37:54.0000000+00:00</time></trkpt><trkpt lat="64.1195221" lon="-19.82850838"><ele>159.8</ele><time>2012-07-21T13:38:49.0000000+00:00</time></trkpt><trkpt lat="64.12046814" lon="-19.82609558"><ele>163.3</ele><time>2012-07-21T13:39:59.0000000+00:00</time></trkpt><trkpt lat="64.12431335" lon="-19.82233238"><ele>192.0</ele><time>2012-07-21T13:44:29.0000000+00:00</time></trkpt><trkpt lat="64.12535095" lon="-19.82191849"><ele>196.4</ele><time>2012-07-21T13:46:19.0000000+00:00</time></trkpt><trkpt lat="64.12555695" lon="-19.82149315"><ele>199.9</ele><time>2012-07-21T13:46:44.0000000+00:00</time></trkpt><trkpt lat="64.12555695" lon="-19.82108116"><ele>200.1</ele><time>2012-07-21T13:46:59.0000000+00:00</time></trkpt><trkpt lat="64.12534332" lon="-19.8206749"><ele>204.0</ele><time>2012-07-21T13:47:24.0000000+00:00</time></trkpt><trkpt lat="64.12384033" lon="-19.82084847"><ele>213.4</ele><time>2012-07-21T13:49:34.0000000+00:00</time></trkpt><trkpt lat="64.12316132" lon="-19.81996918"><ele>218.0</ele><time>2012-07-21T13:50:39.0000000+00:00</time></trkpt><trkpt lat="64.12271118" lon="-19.81674004"><ele>229.3</ele><time>2012-07-21T13:52:44.0000000+00:00</time></trkpt><trkpt lat="64.12168121" lon="-19.81375694"><ele>246.1</ele><time>2012-07-21T13:55:29.0000000+00:00</time></trkpt><trkpt lat="64.12147522" lon="-19.81104279"><ele>247.3</ele><time>2012-07-21T13:57:29.0000000+00:00</time></trkpt><trkpt lat="64.12114716" lon="-19.80980492"><ele>250.5</ele><time>2012-07-21T13:57:54.0000000+00:00</time></trkpt><trkpt lat="64.12052155" lon="-19.80874252"><ele>252.0</ele><time>2012-07-21T13:58:24.0000000+00:00</time></trkpt><trkpt lat="64.11947632" lon="-19.80826187"><ele>254.9</ele><time>2012-07-21T13:59:04.0000000+00:00</time></trkpt><trkpt lat="64.11825562" lon="-19.80690575"><ele>264.9</ele><time>2012-07-21T14:00:19.0000000+00:00</time></trkpt><trkpt lat="64.11711121" lon="-19.8041153"><ele>277.5</ele><time>2012-07-21T14:02:19.0000000+00:00</time></trkpt><trkpt lat="64.11672974" lon="-19.80224419"><ele>285.2</ele><time>2012-07-21T14:03:39.0000000+00:00</time></trkpt><trkpt lat="64.11617279" lon="-19.79728508"><ele>296.8</ele><time>2012-07-21T14:06:34.0000000+00:00</time></trkpt><trkpt lat="64.11621094" lon="-19.79463768"><ele>297.1</ele><time>2012-07-21T14:07:29.0000000+00:00</time></trkpt><trkpt lat="64.11672974" lon="-19.79174614"><ele>295.0</ele><time>2012-07-21T14:08:24.0000000+00:00</time></trkpt><trkpt lat="64.11923981" lon="-19.786129"><ele>279.0</ele><time>2012-07-21T14:09:49.0000000+00:00</time></trkpt><trkpt lat="64.12117767" lon="-19.7790947"><ele>267.6</ele><time>2012-07-21T14:11:49.0000000+00:00</time></trkpt><trkpt lat="64.12178803" lon="-19.77577782"><ele>267.6</ele><time>2012-07-21T14:13:04.0000000+00:00</time></trkpt><trkpt lat="64.12187195" lon="-19.77347374"><ele>269.3</ele><time>2012-07-21T14:13:44.0000000+00:00</time></trkpt><trkpt lat="64.1216507" lon="-19.7704773"><ele>267.7</ele><time>2012-07-21T14:14:44.0000000+00:00</time></trkpt><trkpt lat="64.11981201" lon="-19.76182175"><ele>262.7</ele><time>2012-07-21T14:17:19.0000000+00:00</time></trkpt><trkpt lat="64.11922455" lon="-19.75732803"><ele>257.7</ele><time>2012-07-21T14:18:24.0000000+00:00</time></trkpt><trkpt lat="64.11909485" lon="-19.75196075"><ele>248.3</ele><time>2012-07-21T14:19:29.0000000+00:00</time></trkpt><trkpt lat="64.11941528" lon="-19.74817276"><ele>250.4</ele><time>2012-07-21T14:22:54.0000000+00:00</time></trkpt><trkpt lat="64.11856842" lon="-19.74716759"><ele>244.0</ele><time>2012-07-21T14:27:09.0000000+00:00</time></trkpt><trkpt lat="64.11943054" lon="-19.74804306"><ele>250.4</ele><time>2012-07-21T14:48:49.0000000+00:00</time></trkpt><trkpt lat="64.12220001" lon="-19.73315048"><ele>246.1</ele><time>2012-07-21T14:53:54.0000000+00:00</time></trkpt><trkpt lat="64.12019348" lon="-19.73407745"><ele>243.5</ele><time>2012-07-21T14:55:09.0000000+00:00</time></trkpt><trkpt lat="64.11943054" lon="-19.73577309"><ele>244.2</ele><time>2012-07-21T14:55:39.0000000+00:00</time></trkpt><trkpt lat="64.11888123" lon="-19.73422623"><ele>242.1</ele><time>2012-07-21T14:56:19.0000000+00:00</time></trkpt><trkpt lat="64.11898041" lon="-19.73334885"><ele>245.0</ele><time>2012-07-21T14:57:19.0000000+00:00</time></trkpt><trkpt lat="64.11833954" lon="-19.73163605"><ele>244.0</ele><time>2012-07-21T14:57:59.0000000+00:00</time></trkpt><trkpt lat="64.1178894" lon="-19.72921944"><ele>244.5</ele><time>2012-07-21T14:58:54.0000000+00:00</time></trkpt><trkpt lat="64.11791229" lon="-19.7262516"><ele>245.5</ele><time>2012-07-21T15:00:39.0000000+00:00</time></trkpt><trkpt lat="64.11714935" lon="-19.72577095"><ele>245.6</ele><time>2012-07-21T15:01:39.0000000+00:00</time></trkpt><trkpt lat="64.11664581" lon="-19.71559715"><ele>246.8</ele><time>2012-07-21T15:06:34.0000000+00:00</time></trkpt><trkpt lat="64.11647034" lon="-19.71492386"><ele>247.9</ele><time>2012-07-21T15:06:54.0000000+00:00</time></trkpt><trkpt lat="64.09806824" lon="-19.74240494"><ele>235.2</ele><time>2012-07-21T15:17:29.0000000+00:00</time></trkpt><trkpt lat="64.09616852" lon="-19.74441528"><ele>232.6</ele><time>2012-07-21T15:18:14.0000000+00:00</time></trkpt><trkpt lat="64.09231567" lon="-19.74774742"><ele>229.0</ele><time>2012-07-21T15:19:59.0000000+00:00</time></trkpt><trkpt lat="64.09226227" lon="-19.74654198"><ele>228.4</ele><time>2012-07-21T15:20:39.0000000+00:00</time></trkpt><trkpt lat="64.09249878" lon="-19.74599838"><ele>228.2</ele><time>2012-07-21T15:30:24.0000000+00:00</time></trkpt><trkpt lat="64.09246826" lon="-19.74097824"><ele>229.2</ele><time>2012-07-21T15:31:49.0000000+00:00</time></trkpt><trkpt lat="64.09235382" lon="-19.74007225"><ele>229.8</ele><time>2012-07-21T15:32:04.0000000+00:00</time></trkpt><trkpt lat="64.09069061" lon="-19.73199844"><ele>233.9</ele><time>2012-07-21T15:34:34.0000000+00:00</time></trkpt><trkpt lat="64.08966827" lon="-19.72852707"><ele>232.6</ele><time>2012-07-21T15:35:34.0000000+00:00</time></trkpt><trkpt lat="64.08888245" lon="-19.72353745"><ele>230.3</ele><time>2012-07-21T15:36:39.0000000+00:00</time></trkpt><trkpt lat="64.08779144" lon="-19.71227646"><ele>237.6</ele><time>2012-07-21T15:40:24.0000000+00:00</time></trkpt><trkpt lat="64.08740234" lon="-19.7067833"><ele>237.5</ele><time>2012-07-21T15:41:54.0000000+00:00</time></trkpt><trkpt lat="64.08750153" lon="-19.7008934"><ele>238.6</ele><time>2012-07-21T15:43:59.0000000+00:00</time></trkpt><trkpt lat="64.08740997" lon="-19.69299698"><ele>240.4</ele><time>2012-07-21T15:46:29.0000000+00:00</time></trkpt><trkpt lat="64.08683777" lon="-19.68052864"><ele>258.6</ele><time>2012-07-21T15:53:59.0000000+00:00</time></trkpt><trkpt lat="64.08733368" lon="-19.67666054"><ele>267.4</ele><time>2012-07-21T15:55:59.0000000+00:00</time></trkpt><trkpt lat="64.08711243" lon="-19.67544174"><ele>266.7</ele><time>2012-07-21T15:56:49.0000000+00:00</time></trkpt><trkpt lat="64.08731842" lon="-19.67535591"><ele>268.3</ele><time>2012-07-21T15:57:59.0000000+00:00</time></trkpt><trkpt lat="64.08772278" lon="-19.67288017"><ele>268.6</ele><time>2012-07-21T16:08:29.0000000+00:00</time></trkpt><trkpt lat="64.08785248" lon="-19.6691246"><ele>269.0</ele><time>2012-07-21T16:09:59.0000000+00:00</time></trkpt><trkpt lat="64.08824921" lon="-19.6667614"><ele>269.4</ele><time>2012-07-21T16:10:49.0000000+00:00</time></trkpt><trkpt lat="64.08838654" lon="-19.66324997"><ele>270.5</ele><time>2012-07-21T16:12:04.0000000+00:00</time></trkpt><trkpt lat="64.08914948" lon="-19.65789795"><ele>271.1</ele><time>2012-07-21T16:14:14.0000000+00:00</time></trkpt><trkpt lat="64.08929443" lon="-19.65411758"><ele>271.1</ele><time>2012-07-21T16:15:29.0000000+00:00</time></trkpt><trkpt lat="64.08905029" lon="-19.65041161"><ele>272.7</ele><time>2012-07-21T16:17:09.0000000+00:00</time></trkpt><trkpt lat="64.08859253" lon="-19.64684486"><ele>278.4</ele><time>2012-07-21T16:18:54.0000000+00:00</time></trkpt><trkpt lat="64.08890533" lon="-19.64480782"><ele>282.9</ele><time>2012-07-21T16:22:44.0000000+00:00</time></trkpt><trkpt lat="64.08895874" lon="-19.64317703"><ele>286.7</ele><time>2012-07-21T16:23:34.0000000+00:00</time></trkpt><trkpt lat="64.0882721" lon="-19.64048576"><ele>288.9</ele><time>2012-07-21T16:25:49.0000000+00:00</time></trkpt><trkpt lat="64.08798981" lon="-19.63767242"><ele>292.7</ele><time>2012-07-21T16:27:14.0000000+00:00</time></trkpt><trkpt lat="64.08692169" lon="-19.63444138"><ele>300.2</ele><time>2012-07-21T16:30:39.0000000+00:00</time></trkpt><trkpt lat="64.08691406" lon="-19.63086319"><ele>305.2</ele><time>2012-07-21T16:32:14.0000000+00:00</time></trkpt><trkpt lat="64.0857544" lon="-19.62778282"><ele>311.0</ele><time>2012-07-21T16:34:49.0000000+00:00</time></trkpt><trkpt lat="64.08564758" lon="-19.62252808"><ele>318.2</ele><time>2012-07-21T16:37:24.0000000+00:00</time></trkpt><trkpt lat="64.08501434" lon="-19.61660957"><ele>325.5</ele><time>2012-07-21T16:40:49.0000000+00:00</time></trkpt><trkpt lat="64.08503723" lon="-19.61483002"><ele>328.3</ele><time>2012-07-21T16:44:09.0000000+00:00</time></trkpt><trkpt lat="64.08419037" lon="-19.60885239"><ele>341.4</ele><time>2012-07-21T16:49:49.0000000+00:00</time></trkpt><trkpt lat="64.08370209" lon="-19.60401154"><ele>347.0</ele><time>2012-07-21T16:54:19.0000000+00:00</time></trkpt><trkpt lat="64.08261108" lon="-19.60053062"><ele>354.1</ele><time>2012-07-21T16:58:24.0000000+00:00</time></trkpt><trkpt lat="64.08232117" lon="-19.59463692"><ele>362.4</ele><time>2012-07-21T17:03:49.0000000+00:00</time></trkpt><trkpt lat="64.08177185" lon="-19.59152412"><ele>363.9</ele><time>2012-07-21T17:06:59.0000000+00:00</time></trkpt><trkpt lat="64.08198547" lon="-19.59108353"><ele>364.0</ele><time>2012-07-21T17:12:04.0000000+00:00</time></trkpt><trkpt lat="64.08178711" lon="-19.59151077"><ele>363.9</ele><time>2012-07-21T17:19:24.0000000+00:00</time></trkpt><trkpt lat="64.08140564" lon="-19.58949661"><ele>364.8</ele><time>2012-07-21T17:21:09.0000000+00:00</time></trkpt><trkpt lat="64.08106995" lon="-19.58409119"><ele>363.9</ele><time>2012-07-21T17:24:54.0000000+00:00</time></trkpt><trkpt lat="64.08122253" lon="-19.5813694"><ele>362.3</ele><time>2012-07-21T17:27:24.0000000+00:00</time></trkpt><trkpt lat="64.08159638" lon="-19.58048439"><ele>363.9</ele><time>2012-07-21T17:29:19.0000000+00:00</time></trkpt><trkpt lat="64.08325958" lon="-19.57803726"><ele>364.2</ele><time>2012-07-21T17:30:44.0000000+00:00</time></trkpt><trkpt lat="64.08362579" lon="-19.57688713"><ele>364.9</ele><time>2012-07-21T17:31:19.0000000+00:00</time></trkpt><trkpt lat="64.08414459" lon="-19.5741806"><ele>364.5</ele><time>2012-07-21T17:32:34.0000000+00:00</time></trkpt><trkpt lat="64.08472443" lon="-19.56974602"><ele>364.7</ele><time>2012-07-21T17:34:39.0000000+00:00</time></trkpt><trkpt lat="64.08467865" lon="-19.56234551"><ele>366.2</ele><time>2012-07-21T17:41:04.0000000+00:00</time></trkpt><trkpt lat="64.08441162" lon="-19.56117058"><ele>366.3</ele><time>2012-07-21T17:41:54.0000000+00:00</time></trkpt><trkpt lat="64.08408356" lon="-19.56077957"><ele>366.4</ele><time>2012-07-21T17:42:29.0000000+00:00</time></trkpt><trkpt lat="64.08312225" lon="-19.560709"><ele>368.3</ele><time>2012-07-21T17:43:49.0000000+00:00</time></trkpt><trkpt lat="64.08256531" lon="-19.5613308"><ele>369.6</ele><time>2012-07-21T17:44:34.0000000+00:00</time></trkpt><trkpt lat="64.08210754" lon="-19.56142044"><ele>371.9</ele><time>2012-07-21T17:45:04.0000000+00:00</time></trkpt><trkpt lat="64.08176422" lon="-19.56111717"><ele>373.9</ele><time>2012-07-21T17:45:44.0000000+00:00</time></trkpt><trkpt lat="64.08159638" lon="-19.56054115"><ele>378.7</ele><time>2012-07-21T17:46:34.0000000+00:00</time></trkpt><trkpt lat="64.08167267" lon="-19.55805206"><ele>393.2</ele><time>2012-07-21T17:49:49.0000000+00:00</time></trkpt><trkpt lat="64.08203125" lon="-19.5556469"><ele>406.8</ele><time>2012-07-21T17:53:09.0000000+00:00</time></trkpt><trkpt lat="64.08168793" lon="-19.55615044"><ele>403.9</ele><time>2012-07-21T18:48:24.0000000+00:00</time></trkpt><trkpt lat="64.08153534" lon="-19.55536461"><ele>407.7</ele><time>2012-07-21T18:50:04.0000000+00:00</time></trkpt><trkpt lat="64.08152771" lon="-19.54547119"><ele>418.3</ele><time>2012-07-21T18:57:24.0000000+00:00</time></trkpt><trkpt lat="64.08113098" lon="-19.54355431"><ele>419.9</ele><time>2012-07-21T18:58:34.0000000+00:00</time></trkpt><trkpt lat="64.08004761" lon="-19.54055595"><ele>425.7</ele><time>2012-07-21T19:01:29.0000000+00:00</time></trkpt><trkpt lat="64.07910156" lon="-19.53900147"><ele>426.8</ele><time>2012-07-21T19:03:29.0000000+00:00</time></trkpt><trkpt lat="64.07804871" lon="-19.53838158"><ele>428.7</ele><time>2012-07-21T19:05:09.0000000+00:00</time></trkpt><trkpt lat="64.074646" lon="-19.53818512"><ele>442.2</ele><time>2012-07-21T19:10:09.0000000+00:00</time></trkpt><trkpt lat="64.07427979" lon="-19.53713417"><ele>444.6</ele><time>2012-07-21T19:10:44.0000000+00:00</time></trkpt><trkpt lat="64.07398224" lon="-19.53512955"><ele>446.2</ele><time>2012-07-21T19:12:24.0000000+00:00</time></trkpt><trkpt lat="64.07363892" lon="-19.52859879"><ele>450.1</ele><time>2012-07-21T19:17:29.0000000+00:00</time></trkpt><trkpt lat="64.07349396" lon="-19.51986885"><ele>456.2</ele><time>2012-07-21T19:21:59.0000000+00:00</time></trkpt><trkpt lat="64.07389832" lon="-19.51306152"><ele>460.5</ele><time>2012-07-21T19:26:49.0000000+00:00</time></trkpt><trkpt lat="64.07452393" lon="-19.50908852"><ele>461.6</ele><time>2012-07-21T19:29:24.0000000+00:00</time></trkpt><trkpt lat="64.07550812" lon="-19.50562096"><ele>465.1</ele><time>2012-07-21T19:31:14.0000000+00:00</time></trkpt><trkpt lat="64.07583618" lon="-19.50252533"><ele>465.7</ele><time>2012-07-21T19:33:14.0000000+00:00</time></trkpt><trkpt lat="64.07733917" lon="-19.49928856"><ele>464.9</ele><time>2012-07-21T19:36:09.0000000+00:00</time></trkpt><trkpt lat="64.07641602" lon="-19.49352264"><ele>466.0</ele><time>2012-07-21T19:39:24.0000000+00:00</time></trkpt><trkpt lat="64.07631683" lon="-19.49009132"><ele>469.8</ele><time>2012-07-21T19:41:04.0000000+00:00</time></trkpt><trkpt lat="64.07539368" lon="-19.48382759"><ele>472.8</ele><time>2012-07-21T19:44:24.0000000+00:00</time></trkpt><trkpt lat="64.07447815" lon="-19.47978783"><ele>474.1</ele><time>2012-07-21T19:46:34.0000000+00:00</time></trkpt><trkpt lat="64.07363892" lon="-19.47717094"><ele>474.9</ele><time>2012-07-21T19:48:59.0000000+00:00</time></trkpt><trkpt lat="64.07341003" lon="-19.47311401"><ele>479.6</ele><time>2012-07-21T19:51:24.0000000+00:00</time></trkpt><trkpt lat="64.07301331" lon="-19.47055054"><ele>482.0</ele><time>2012-07-21T19:52:59.0000000+00:00</time></trkpt><trkpt lat="64.07161713" lon="-19.46517181"><ele>489.3</ele><time>2012-07-21T19:57:24.0000000+00:00</time></trkpt><trkpt lat="64.07129669" lon="-19.46473503"><ele>489.6</ele><time>2012-07-21T19:57:59.0000000+00:00</time></trkpt><trkpt lat="64.07015991" lon="-19.46434593"><ele>491.4</ele><time>2012-07-21T19:59:44.0000000+00:00</time></trkpt><trkpt lat="64.06871033" lon="-19.46039009"><ele>502.8</ele><time>2012-07-21T20:03:19.0000000+00:00</time></trkpt><trkpt lat="64.06810761" lon="-19.45592117"><ele>513.5</ele><time>2012-07-21T20:09:29.0000000+00:00</time></trkpt><trkpt lat="64.06853485" lon="-19.44978333"><ele>509.4</ele><time>2012-07-21T20:15:14.0000000+00:00</time></trkpt><trkpt lat="64.0691452" lon="-19.44584656"><ele>510.0</ele><time>2012-07-21T20:20:39.0000000+00:00</time></trkpt><trkpt lat="64.06945038" lon="-19.44194603"><ele>507.9</ele><time>2012-07-21T20:22:39.0000000+00:00</time></trkpt><trkpt lat="64.06955719" lon="-19.43980789"><ele>507.9</ele><time>2012-07-21T20:23:44.0000000+00:00</time></trkpt><trkpt lat="64.06947327" lon="-19.43339539"><ele>507.4</ele><time>2012-07-21T20:25:59.0000000+00:00</time></trkpt><trkpt lat="64.07047272" lon="-19.42844582"><ele>501.2</ele><time>2012-07-21T20:27:59.0000000+00:00</time></trkpt><trkpt lat="64.07070923" lon="-19.42307091"><ele>500.1</ele><time>2012-07-21T20:30:19.0000000+00:00</time></trkpt><trkpt lat="64.06879425" lon="-19.41843605"><ele>504.3</ele><time>2012-07-21T20:35:49.0000000+00:00</time></trkpt><trkpt lat="64.06865692" lon="-19.41635513"><ele>500.6</ele><time>2012-07-21T20:36:34.0000000+00:00</time></trkpt><trkpt lat="64.06812286" lon="-19.41503906"><ele>502.9</ele><time>2012-07-21T20:38:14.0000000+00:00</time></trkpt><trkpt lat="64.06770325" lon="-19.41294289"><ele>505.3</ele><time>2012-07-21T20:40:09.0000000+00:00</time></trkpt><trkpt lat="64.06785584" lon="-19.40559959"><ele>503.7</ele><time>2012-07-21T20:44:59.0000000+00:00</time></trkpt><trkpt lat="64.06774139" lon="-19.40501404"><ele>502.6</ele><time>2012-07-21T20:45:34.0000000+00:00</time></trkpt><trkpt lat="64.06707764" lon="-19.4039917"><ele>504.7</ele><time>2012-07-21T20:47:59.0000000+00:00</time></trkpt><trkpt lat="64.06681061" lon="-19.40276718"><ele>507.7</ele><time>2012-07-21T20:48:59.0000000+00:00</time></trkpt><trkpt lat="64.06650543" lon="-19.39932442"><ele>509.8</ele><time>2012-07-21T20:51:34.0000000+00:00</time></trkpt><trkpt lat="64.065979" lon="-19.39678192"><ele>517.3</ele><time>2012-07-21T20:54:09.0000000+00:00</time></trkpt><trkpt lat="64.06591797" lon="-19.39438438"><ele>517.8</ele><time>2012-07-21T20:57:09.0000000+00:00</time></trkpt><trkpt lat="64.06450653" lon="-19.38731194"><ele>521.4</ele><time>2012-07-21T21:05:04.0000000+00:00</time></trkpt><trkpt lat="64.06515503" lon="-19.38257408"><ele>520.4</ele><time>2012-07-21T21:12:09.0000000+00:00</time></trkpt><trkpt lat="64.06507874" lon="-19.38124847"><ele>522.6</ele><time>2012-07-21T21:14:04.0000000+00:00</time></trkpt><trkpt lat="64.06455231" lon="-19.37949944"><ele>524.1</ele><time>2012-07-21T21:16:04.0000000+00:00</time></trkpt><trkpt lat="64.06356812" lon="-19.37759018"><ele>526.0</ele><time>2012-07-21T21:18:39.0000000+00:00</time></trkpt><trkpt lat="64.061409" lon="-19.37512207"><ele>527.8</ele><time>2012-07-21T21:24:19.0000000+00:00</time></trkpt><trkpt lat="64.0608902" lon="-19.37418938"><ele>531.2</ele><time>2012-07-21T21:25:44.0000000+00:00</time></trkpt><trkpt lat="64.05963898" lon="-19.37003136"><ele>542.6</ele><time>2012-07-21T21:30:34.0000000+00:00</time></trkpt><trkpt lat="64.0595932" lon="-19.36865807"><ele>541.3</ele><time>2012-07-21T21:31:44.0000000+00:00</time></trkpt><trkpt lat="64.05911255" lon="-19.36764908"><ele>542.0</ele><time>2012-07-21T21:32:44.0000000+00:00</time></trkpt><trkpt lat="64.05858612" lon="-19.36471176"><ele>547.6</ele><time>2012-07-21T21:36:09.0000000+00:00</time></trkpt><trkpt lat="64.05725861" lon="-19.3615818"><ele>551.4</ele><time>2012-07-21T21:51:09.0000000+00:00</time></trkpt><trkpt lat="64.05593872" lon="-19.35933495"><ele>557.8</ele><time>2012-07-21T21:53:49.0000000+00:00</time></trkpt><trkpt lat="64.0554657" lon="-19.35893059"><ele>560.5</ele><time>2012-07-21T21:54:39.0000000+00:00</time></trkpt><trkpt lat="64.05462647" lon="-19.35914612"><ele>562.1</ele><time>2012-07-21T21:55:49.0000000+00:00</time></trkpt><trkpt lat="64.05340576" lon="-19.35853195"><ele>564.1</ele><time>2012-07-21T21:57:04.0000000+00:00</time></trkpt><trkpt lat="64.05278015" lon="-19.35884094"><ele>562.6</ele><time>2012-07-21T21:57:34.0000000+00:00</time></trkpt><trkpt lat="64.05167389" lon="-19.35793304"><ele>557.5</ele><time>2012-07-21T21:58:14.0000000+00:00</time></trkpt><trkpt lat="64.04970551" lon="-19.35720062"><ele>567.1</ele><time>2012-07-21T22:00:39.0000000+00:00</time></trkpt><trkpt lat="64.04678345" lon="-19.35396004"><ele>574.5</ele><time>2012-07-21T22:03:54.0000000+00:00</time></trkpt><trkpt lat="64.04567719" lon="-19.35420036"><ele>575.3</ele><time>2012-07-21T22:04:49.0000000+00:00</time></trkpt><trkpt lat="64.044487" lon="-19.35285759"><ele>576.8</ele><time>2012-07-21T22:06:24.0000000+00:00</time></trkpt><trkpt lat="64.04329681" lon="-19.35085487"><ele>578.4</ele><time>2012-07-21T22:09:24.0000000+00:00</time></trkpt><trkpt lat="64.04264832" lon="-19.35025406"><ele>578.4</ele><time>2012-07-21T22:10:39.0000000+00:00</time></trkpt><trkpt lat="64.04026794" lon="-19.34687805"><ele>580.8</ele><time>2012-07-21T22:15:29.0000000+00:00</time></trkpt><trkpt lat="64.03936768" lon="-19.34457588"><ele>583.0</ele><time>2012-07-21T22:19:14.0000000+00:00</time></trkpt><trkpt lat="64.03902435" lon="-19.34243965"><ele>583.1</ele><time>2012-07-21T22:21:44.0000000+00:00</time></trkpt><trkpt lat="64.03879547" lon="-19.33454132"><ele>585.3</ele><time>2012-07-21T22:29:34.0000000+00:00</time></trkpt><trkpt lat="64.03901672" lon="-19.33232117"><ele>587.4</ele><time>2012-07-21T22:31:24.0000000+00:00</time></trkpt><trkpt lat="64.03942871" lon="-19.33083344"><ele>587.0</ele><time>2012-07-21T22:32:59.0000000+00:00</time></trkpt><trkpt lat="64.04018402" lon="-19.32926369"><ele>583.9</ele><time>2012-07-21T22:34:34.0000000+00:00</time></trkpt><trkpt lat="64.0405426" lon="-19.33006287"><ele>582.6</ele><time>2012-07-21T22:35:24.0000000+00:00</time></trkpt><trkpt lat="64.04053497" lon="-19.33061218"><ele>583.3</ele><time>2012-07-21T22:41:54.0000000+00:00</time></trkpt><trkpt lat="64.0406723" lon="-19.33028221"><ele>582.4</ele><time>2012-07-21T22:50:24.0000000+00:00</time></trkpt><trkpt lat="64.04077148" lon="-19.33109283"><ele>582.8</ele><time>2012-07-21T22:51:34.0000000+00:00</time></trkpt><trkpt lat="64.04098511" lon="-19.33135223"><ele>581.7</ele><time>2012-07-21T22:56:14.0000000+00:00</time></trkpt><trkpt lat="64.04085541" lon="-19.32812119"><ele>582.2</ele><time>2012-07-21T23:01:54.0000000+00:00</time></trkpt><trkpt lat="64.04135895" lon="-19.32810211"><ele>584.1</ele><time>2012-07-21T23:15:44.0000000+00:00</time></trkpt><trkpt lat="64.04189301" lon="-19.32658196"><ele>587.3</ele><time>2012-07-21T23:17:24.0000000+00:00</time></trkpt><trkpt lat="64.04243469" lon="-19.32350922"><ele>590.1</ele><time>2012-07-21T23:18:39.0000000+00:00</time></trkpt><trkpt lat="64.04239655" lon="-19.32107544"><ele>589.1</ele><time>2012-07-21T23:19:34.0000000+00:00</time></trkpt><trkpt lat="64.04195404" lon="-19.31865692"><ele>588.2</ele><time>2012-07-21T23:20:39.0000000+00:00</time></trkpt><trkpt lat="64.04178619" lon="-19.31592369"><ele>586.2</ele><time>2012-07-21T23:21:49.0000000+00:00</time></trkpt><trkpt lat="64.04190064" lon="-19.31004715"><ele>588.1</ele><time>2012-07-21T23:25:09.0000000+00:00</time></trkpt><trkpt lat="64.04249573" lon="-19.30667496"><ele>587.3</ele><time>2012-07-21T23:26:54.0000000+00:00</time></trkpt><trkpt lat="64.04290009" lon="-19.30506325"><ele>588.1</ele><time>2012-07-21T23:27:39.0000000+00:00</time></trkpt><trkpt lat="64.04397583" lon="-19.30240822"><ele>590.5</ele><time>2012-07-21T23:28:44.0000000+00:00</time></trkpt><trkpt lat="64.04598999" lon="-19.29985809"><ele>590.0</ele><time>2012-07-21T23:29:59.0000000+00:00</time></trkpt><trkpt lat="64.04698181" lon="-19.29937172"><ele>590.6</ele><time>2012-07-21T23:30:29.0000000+00:00</time></trkpt><trkpt lat="64.04743958" lon="-19.29863358"><ele>590.1</ele><time>2012-07-21T23:30:44.0000000+00:00</time></trkpt><trkpt lat="64.04866028" lon="-19.29419136"><ele>593.4</ele><time>2012-07-21T23:32:24.0000000+00:00</time></trkpt><trkpt lat="64.05049133" lon="-19.29014587"><ele>592.4</ele><time>2012-07-21T23:33:54.0000000+00:00</time></trkpt><trkpt lat="64.05196381" lon="-19.28613854"><ele>591.1</ele><time>2012-07-21T23:35:19.0000000+00:00</time></trkpt><trkpt lat="64.05500031" lon="-19.27466202"><ele>595.8</ele><time>2012-07-21T23:42:14.0000000+00:00</time></trkpt><trkpt lat="64.05538178" lon="-19.26972008"><ele>602.9</ele><time>2012-07-21T23:45:19.0000000+00:00</time></trkpt><trkpt lat="64.05552673" lon="-19.2646389"><ele>603.4</ele><time>2012-07-21T23:47:29.0000000+00:00</time></trkpt><trkpt lat="64.05603027" lon="-19.26239204"><ele>598.1</ele><time>2012-07-21T23:48:09.0000000+00:00</time></trkpt><trkpt lat="64.05685425" lon="-19.25695801"><ele>592.8</ele><time>2012-07-21T23:50:24.0000000+00:00</time></trkpt><trkpt lat="64.05744934" lon="-19.2516613"><ele>591.2</ele><time>2012-07-21T23:52:34.0000000+00:00</time></trkpt><trkpt lat="64.0575943" lon="-19.24806976"><ele>590.3</ele><time>2012-07-21T23:54:09.0000000+00:00</time></trkpt><trkpt lat="64.05728912" lon="-19.24558067"><ele>590.9</ele><time>2012-07-21T23:55:09.0000000+00:00</time></trkpt><trkpt lat="64.056633" lon="-19.24434471"><ele>590.3</ele><time>2012-07-21T23:57:44.0000000+00:00</time></trkpt><trkpt lat="64.05641174" lon="-19.24344635"><ele>590.6</ele><time>2012-07-21T23:58:14.0000000+00:00</time></trkpt><trkpt lat="64.05634308" lon="-19.24179077"><ele>591.5</ele><time>2012-07-21T23:59:24.0000000+00:00</time></trkpt><trkpt lat="64.05600739" lon="-19.24085617"><ele>591.7</ele><time>2012-07-22T00:00:14.0000000+00:00</time></trkpt><trkpt lat="64.05618286" lon="-19.24076653"><ele>592.6</ele><time>2012-07-22T00:00:54.0000000+00:00</time></trkpt><trkpt lat="64.0559845" lon="-19.24032402"><ele>592.7</ele><time>2012-07-22T00:05:29.0000000+00:00</time></trkpt><trkpt lat="64.05608368" lon="-19.24124908"><ele>591.3</ele><time>2012-07-22T00:07:49.0000000+00:00</time></trkpt><trkpt lat="64.05644226" lon="-19.24185562"><ele>591.6</ele><time>2012-07-22T00:09:19.0000000+00:00</time></trkpt><trkpt lat="64.05660248" lon="-19.24156761"><ele>593.4</ele><time>2012-07-22T00:15:14.0000000+00:00</time></trkpt><trkpt lat="64.05640411" lon="-19.24191856"><ele>591.3</ele><time>2012-07-22T00:24:59.0000000+00:00</time></trkpt><trkpt lat="64.05647278" lon="-19.24239922"><ele>591.0</ele><time>2012-07-22T00:25:14.0000000+00:00</time></trkpt><trkpt lat="64.05703735" lon="-19.24382401"><ele>592.2</ele><time>2012-07-22T00:28:14.0000000+00:00</time></trkpt><trkpt lat="64.05718231" lon="-19.24395561"><ele>592.7</ele><time>2012-07-22T00:30:04.0000000+00:00</time></trkpt><trkpt lat="64.05719757" lon="-19.24362755"><ele>593.5</ele><time>2012-07-22T00:47:34.0000000+00:00</time></trkpt></trkseg><trkseg><trkpt lat="64.05809784" lon="-19.24648666"><ele>596.9</ele><time>2012-07-22T11:45:36.0000000+00:00</time></trkpt><trkpt lat="64.05812836" lon="-19.24616432"><ele>597.6</ele><time>2012-07-22T11:45:56.0000000+00:00</time></trkpt><trkpt lat="64.05815888" lon="-19.24641037"><ele>598.4</ele><time>2012-07-22T11:46:41.0000000+00:00</time></trkpt><trkpt lat="64.05715942" lon="-19.24407959"><ele>592.3</ele><time>2012-07-22T11:46:46.0000000+00:00</time></trkpt><trkpt lat="64.0572052" lon="-19.24370003"><ele>593.4</ele><time>2012-07-22T11:50:56.0000000+00:00</time></trkpt><trkpt lat="64.05699158" lon="-19.24386787"><ele>592.0</ele><time>2012-07-22T12:00:06.0000000+00:00</time></trkpt><trkpt lat="64.05680084" lon="-19.24461365"><ele>590.5</ele><time>2012-07-22T12:00:21.0000000+00:00</time></trkpt><trkpt lat="64.05667877" lon="-19.24455071"><ele>590.3</ele><time>2012-07-22T12:00:26.0000000+00:00</time></trkpt><trkpt lat="64.0561676" lon="-19.24285126"><ele>590.2</ele><time>2012-07-22T12:01:06.0000000+00:00</time></trkpt><trkpt lat="64.05381775" lon="-19.24183083"><ele>591.8</ele><time>2012-07-22T12:02:26.0000000+00:00</time></trkpt><trkpt lat="64.05317688" lon="-19.24051476"><ele>591.3</ele><time>2012-07-22T12:03:31.0000000+00:00</time></trkpt><trkpt lat="64.05294037" lon="-19.23855972"><ele>590.1</ele><time>2012-07-22T12:04:36.0000000+00:00</time></trkpt><trkpt lat="64.05322266" lon="-19.23643875"><ele>591.3</ele><time>2012-07-22T12:05:21.0000000+00:00</time></trkpt><trkpt lat="64.05300903" lon="-19.23496628"><ele>590.8</ele><time>2012-07-22T12:05:46.0000000+00:00</time></trkpt><trkpt lat="64.05293274" lon="-19.23090363"><ele>590.9</ele><time>2012-07-22T12:07:11.0000000+00:00</time></trkpt><trkpt lat="64.05220795" lon="-19.22784805"><ele>591.0</ele><time>2012-07-22T12:08:01.0000000+00:00</time></trkpt><trkpt lat="64.05075836" lon="-19.2253952"><ele>591.2</ele><time>2012-07-22T12:09:01.0000000+00:00</time></trkpt><trkpt lat="64.05051422" lon="-19.22454262"><ele>590.6</ele><time>2012-07-22T12:09:16.0000000+00:00</time></trkpt><trkpt lat="64.05043793" lon="-19.22339821"><ele>590.2</ele><time>2012-07-22T12:10:36.0000000+00:00</time></trkpt><trkpt lat="64.04977417" lon="-19.22361946"><ele>590.5</ele><time>2012-07-22T12:13:01.0000000+00:00</time></trkpt><trkpt lat="64.04795075" lon="-19.2227726"><ele>591.7</ele><time>2012-07-22T12:14:26.0000000+00:00</time></trkpt><trkpt lat="64.04715729" lon="-19.22114372"><ele>594.0</ele><time>2012-07-22T12:15:11.0000000+00:00</time></trkpt><trkpt lat="64.04514313" lon="-19.21900559"><ele>592.0</ele><time>2012-07-22T12:16:41.0000000+00:00</time></trkpt><trkpt lat="64.04197693" lon="-19.22112083"><ele>592.2</ele><time>2012-07-22T12:18:36.0000000+00:00</time></trkpt><trkpt lat="64.03889465" lon="-19.22376442"><ele>592.3</ele><time>2012-07-22T12:20:31.0000000+00:00</time></trkpt><trkpt lat="64.03678894" lon="-19.22246552"><ele>592.8</ele><time>2012-07-22T12:22:06.0000000+00:00</time></trkpt><trkpt lat="64.03296661" lon="-19.21918678"><ele>595.2</ele><time>2012-07-22T12:25:16.0000000+00:00</time></trkpt><trkpt lat="64.03102875" lon="-19.21158409"><ele>594.8</ele><time>2012-07-22T12:28:21.0000000+00:00</time></trkpt><trkpt lat="64.03014374" lon="-19.20530891"><ele>595.9</ele><time>2012-07-22T12:30:16.0000000+00:00</time></trkpt><trkpt lat="64.02974701" lon="-19.20125389"><ele>598.6</ele><time>2012-07-22T12:31:31.0000000+00:00</time></trkpt><trkpt lat="64.02700806" lon="-19.19062996"><ele>600.8</ele><time>2012-07-22T12:35:26.0000000+00:00</time></trkpt><trkpt lat="64.02616882" lon="-19.1850605"><ele>598.1</ele><time>2012-07-22T12:37:31.0000000+00:00</time></trkpt><trkpt lat="64.02615356" lon="-19.18387032"><ele>598.7</ele><time>2012-07-22T12:37:56.0000000+00:00</time></trkpt><trkpt lat="64.02706909" lon="-19.17708206"><ele>598.8</ele><time>2012-07-22T12:40:11.0000000+00:00</time></trkpt><trkpt lat="64.02727509" lon="-19.17331314"><ele>599.7</ele><time>2012-07-22T12:41:11.0000000+00:00</time></trkpt><trkpt lat="64.02711487" lon="-19.17022133"><ele>599.9</ele><time>2012-07-22T12:42:01.0000000+00:00</time></trkpt><trkpt lat="64.02624512" lon="-19.16520119"><ele>605.4</ele><time>2012-07-22T12:43:51.0000000+00:00</time></trkpt><trkpt lat="64.02629852" lon="-19.16213608"><ele>612.8</ele><time>2012-07-22T12:46:06.0000000+00:00</time></trkpt><trkpt lat="64.02597809" lon="-19.16094399"><ele>609.3</ele><time>2012-07-22T12:46:56.0000000+00:00</time></trkpt><trkpt lat="64.02593231" lon="-19.16002083"><ele>604.8</ele><time>2012-07-22T12:47:16.0000000+00:00</time></trkpt><trkpt lat="64.02611542" lon="-19.15925407"><ele>604.2</ele><time>2012-07-22T12:47:36.0000000+00:00</time></trkpt><trkpt lat="64.02664948" lon="-19.15830612"><ele>589.2</ele><time>2012-07-22T12:48:26.0000000+00:00</time></trkpt><trkpt lat="64.02824402" lon="-19.15833855"><ele>576.8</ele><time>2012-07-22T12:48:51.0000000+00:00</time></trkpt><trkpt lat="64.02832794" lon="-19.15767479"><ele>575.8</ele><time>2012-07-22T12:49:06.0000000+00:00</time></trkpt><trkpt lat="64.02796936" lon="-19.15702248"><ele>576.5</ele><time>2012-07-22T12:52:46.0000000+00:00</time></trkpt><trkpt lat="64.02781677" lon="-19.15592194"><ele>576.6</ele><time>2012-07-22T12:53:16.0000000+00:00</time></trkpt><trkpt lat="64.02822113" lon="-19.15080643"><ele>572.6</ele><time>2012-07-22T12:54:31.0000000+00:00</time></trkpt><trkpt lat="64.02951813" lon="-19.14479637"><ele>569.6</ele><time>2012-07-22T12:56:11.0000000+00:00</time></trkpt><trkpt lat="64.03026581" lon="-19.13903809"><ele>569.3</ele><time>2012-07-22T12:57:46.0000000+00:00</time></trkpt><trkpt lat="64.03160858" lon="-19.13432884"><ele>569.0</ele><time>2012-07-22T12:59:21.0000000+00:00</time></trkpt><trkpt lat="64.03276062" lon="-19.13099289"><ele>570.7</ele><time>2012-07-22T13:00:46.0000000+00:00</time></trkpt><trkpt lat="64.03353119" lon="-19.12945175"><ele>575.7</ele><time>2012-07-22T13:02:26.0000000+00:00</time></trkpt><trkpt lat="64.03417969" lon="-19.1295166"><ele>582.5</ele><time>2012-07-22T13:03:31.0000000+00:00</time></trkpt><trkpt lat="64.03437042" lon="-19.12926865"><ele>584.2</ele><time>2012-07-22T13:03:56.0000000+00:00</time></trkpt><trkpt lat="64.03433991" lon="-19.12804222"><ele>589.6</ele><time>2012-07-22T13:05:01.0000000+00:00</time></trkpt><trkpt lat="64.03461456" lon="-19.12625504"><ele>596.4</ele><time>2012-07-22T13:06:41.0000000+00:00</time></trkpt><trkpt lat="64.03490448" lon="-19.12546158"><ele>600.6</ele><time>2012-07-22T13:07:16.0000000+00:00</time></trkpt><trkpt lat="64.03447723" lon="-19.12319183"><ele>610.9</ele><time>2012-07-22T13:09:01.0000000+00:00</time></trkpt><trkpt lat="64.03379822" lon="-19.12174225"><ele>621.3</ele><time>2012-07-22T13:11:21.0000000+00:00</time></trkpt><trkpt lat="64.0328598" lon="-19.12070084"><ele>628.6</ele><time>2012-07-22T13:13:01.0000000+00:00</time></trkpt><trkpt lat="64.03249359" lon="-19.11848831"><ele>633.4</ele><time>2012-07-22T13:14:06.0000000+00:00</time></trkpt><trkpt lat="64.03173828" lon="-19.11700249"><ele>636.3</ele><time>2012-07-22T13:15:11.0000000+00:00</time></trkpt><trkpt lat="64.0313797" lon="-19.11581802"><ele>635.5</ele><time>2012-07-22T13:15:41.0000000+00:00</time></trkpt><trkpt lat="64.03054047" lon="-19.11518097"><ele>634.3</ele><time>2012-07-22T13:16:26.0000000+00:00</time></trkpt><trkpt lat="64.03022766" lon="-19.11252594"><ele>641.2</ele><time>2012-07-22T13:18:11.0000000+00:00</time></trkpt><trkpt lat="64.02952576" lon="-19.11081314"><ele>641.5</ele><time>2012-07-22T13:19:01.0000000+00:00</time></trkpt><trkpt lat="64.02939606" lon="-19.10877609"><ele>644.0</ele><time>2012-07-22T13:19:41.0000000+00:00</time></trkpt><trkpt lat="64.0298233" lon="-19.10293579"><ele>646.9</ele><time>2012-07-22T13:21:41.0000000+00:00</time></trkpt><trkpt lat="64.0304718" lon="-19.10109329"><ele>649.3</ele><time>2012-07-22T13:22:26.0000000+00:00</time></trkpt><trkpt lat="64.03067017" lon="-19.09927177"><ele>641.6</ele><time>2012-07-22T13:22:46.0000000+00:00</time></trkpt><trkpt lat="64.02935028" lon="-19.09656906"><ele>636.7</ele><time>2012-07-22T13:23:51.0000000+00:00</time></trkpt><trkpt lat="64.02903748" lon="-19.09399414"><ele>636.6</ele><time>2012-07-22T13:24:36.0000000+00:00</time></trkpt><trkpt lat="64.02950287" lon="-19.09160233"><ele>637.6</ele><time>2012-07-22T13:25:36.0000000+00:00</time></trkpt><trkpt lat="64.03024292" lon="-19.09031487"><ele>639.8</ele><time>2012-07-22T13:26:26.0000000+00:00</time></trkpt><trkpt lat="64.03100586" lon="-19.08713913"><ele>638.5</ele><time>2012-07-22T13:27:46.0000000+00:00</time></trkpt><trkpt lat="64.03087616" lon="-19.08592987"><ele>636.7</ele><time>2012-07-22T13:28:31.0000000+00:00</time></trkpt><trkpt lat="64.03019714" lon="-19.08504868"><ele>620.0</ele><time>2012-07-22T13:30:26.0000000+00:00</time></trkpt><trkpt lat="64.02991486" lon="-19.08429146"><ele>616.3</ele><time>2012-07-22T13:30:31.0000000+00:00</time></trkpt><trkpt lat="64.02983093" lon="-19.082304"><ele>618.5</ele><time>2012-07-22T13:30:51.0000000+00:00</time></trkpt><trkpt lat="64.02992249" lon="-19.08149529"><ele>620.4</ele><time>2012-07-22T13:31:11.0000000+00:00</time></trkpt><trkpt lat="64.03063965" lon="-19.07894898"><ele>617.7</ele><time>2012-07-22T13:32:06.0000000+00:00</time></trkpt><trkpt lat="64.03072357" lon="-19.07689095"><ele>612.9</ele><time>2012-07-22T13:32:31.0000000+00:00</time></trkpt><trkpt lat="64.03096771" lon="-19.0755024"><ele>609.9</ele><time>2012-07-22T13:32:46.0000000+00:00</time></trkpt><trkpt lat="64.03176117" lon="-19.0733242"><ele>601.6</ele><time>2012-07-22T13:33:16.0000000+00:00</time></trkpt><trkpt lat="64.03231812" lon="-19.05932808"><ele>594.9</ele><time>2012-07-22T13:36:46.0000000+00:00</time></trkpt><trkpt lat="64.03255463" lon="-19.0583458"><ele>594.5</ele><time>2012-07-22T13:37:11.0000000+00:00</time></trkpt><trkpt lat="64.03328705" lon="-19.05668068"><ele>593.9</ele><time>2012-07-22T13:37:56.0000000+00:00</time></trkpt><trkpt lat="64.03337097" lon="-19.05586052"><ele>592.9</ele><time>2012-07-22T13:38:06.0000000+00:00</time></trkpt><trkpt lat="64.03324127" lon="-19.05453873"><ele>589.8</ele><time>2012-07-22T13:38:21.0000000+00:00</time></trkpt><trkpt lat="64.03274536" lon="-19.05353928"><ele>583.4</ele><time>2012-07-22T13:38:36.0000000+00:00</time></trkpt><trkpt lat="64.03183746" lon="-19.05262756"><ele>574.6</ele><time>2012-07-22T13:38:51.0000000+00:00</time></trkpt><trkpt lat="64.03177643" lon="-19.05203056"><ele>574.0</ele><time>2012-07-22T13:38:56.0000000+00:00</time></trkpt><trkpt lat="64.0329361" lon="-19.04189301"><ele>574.0</ele><time>2012-07-22T13:41:31.0000000+00:00</time></trkpt><trkpt lat="64.03282929" lon="-19.04053879"><ele>574.0</ele><time>2012-07-22T13:42:01.0000000+00:00</time></trkpt><trkpt lat="64.02934265" lon="-19.03639603"><ele>573.7</ele><time>2012-07-22T13:44:11.0000000+00:00</time></trkpt><trkpt lat="64.027771" lon="-19.03655815"><ele>574.7</ele><time>2012-07-22T13:45:06.0000000+00:00</time></trkpt><trkpt lat="64.02720642" lon="-19.03520012"><ele>577.0</ele><time>2012-07-22T13:45:46.0000000+00:00</time></trkpt><trkpt lat="64.0253067" lon="-19.03346252"><ele>576.0</ele><time>2012-07-22T13:46:46.0000000+00:00</time></trkpt><trkpt lat="64.0232544" lon="-19.03633118"><ele>574.1</ele><time>2012-07-22T13:47:56.0000000+00:00</time></trkpt><trkpt lat="64.02272034" lon="-19.03655624"><ele>577.8</ele><time>2012-07-22T13:48:31.0000000+00:00</time></trkpt><trkpt lat="64.02200317" lon="-19.03627968"><ele>581.4</ele><time>2012-07-22T13:49:56.0000000+00:00</time></trkpt><trkpt lat="64.0216217" lon="-19.03654671"><ele>582.1</ele><time>2012-07-22T13:50:16.0000000+00:00</time></trkpt><trkpt lat="64.02137756" lon="-19.03743172"><ele>581.6</ele><time>2012-07-22T13:50:36.0000000+00:00</time></trkpt><trkpt lat="64.02108002" lon="-19.0404892"><ele>581.7</ele><time>2012-07-22T13:51:31.0000000+00:00</time></trkpt><trkpt lat="64.02042389" lon="-19.04199219"><ele>581.4</ele><time>2012-07-22T13:52:06.0000000+00:00</time></trkpt><trkpt lat="64.01821899" lon="-19.04528618"><ele>583.1</ele><time>2012-07-22T13:54:06.0000000+00:00</time></trkpt><trkpt lat="64.01679993" lon="-19.04675674"><ele>591.5</ele><time>2012-07-22T13:55:41.0000000+00:00</time></trkpt><trkpt lat="64.01619721" lon="-19.04692268"><ele>593.5</ele><time>2012-07-22T13:56:46.0000000+00:00</time></trkpt><trkpt lat="64.01483154" lon="-19.04589081"><ele>608.7</ele><time>2012-07-22T14:00:11.0000000+00:00</time></trkpt><trkpt lat="64.01383209" lon="-19.04572678"><ele>615.1</ele><time>2012-07-22T14:05:41.0000000+00:00</time></trkpt><trkpt lat="64.0141983" lon="-19.044487"><ele>604.1</ele><time>2012-07-22T14:06:21.0000000+00:00</time></trkpt><trkpt lat="64.01398468" lon="-19.04343414"><ele>594.0</ele><time>2012-07-22T14:06:31.0000000+00:00</time></trkpt><trkpt lat="64.01260376" lon="-19.04242706"><ele>598.2</ele><time>2012-07-22T14:08:11.0000000+00:00</time></trkpt><trkpt lat="64.01191711" lon="-19.0413723"><ele>593.5</ele><time>2012-07-22T14:10:06.0000000+00:00</time></trkpt><trkpt lat="64.01099396" lon="-19.0413456"><ele>592.4</ele><time>2012-07-22T14:10:36.0000000+00:00</time></trkpt><trkpt lat="64.00992584" lon="-19.0420475"><ele>590.5</ele><time>2012-07-22T14:11:11.0000000+00:00</time></trkpt><trkpt lat="64.00865936" lon="-19.04219246"><ele>589.9</ele><time>2012-07-22T14:11:51.0000000+00:00</time></trkpt><trkpt lat="64.00741577" lon="-19.04162598"><ele>589.4</ele><time>2012-07-22T14:12:31.0000000+00:00</time></trkpt><trkpt lat="64.00679016" lon="-19.04069519"><ele>591.6</ele><time>2012-07-22T14:12:51.0000000+00:00</time></trkpt><trkpt lat="64.00562286" lon="-19.03668404"><ele>585.8</ele><time>2012-07-22T14:13:51.0000000+00:00</time></trkpt><trkpt lat="64.00482178" lon="-19.03616715"><ele>582.4</ele><time>2012-07-22T14:14:16.0000000+00:00</time></trkpt><trkpt lat="64.00238037" lon="-19.04219246"><ele>583.3</ele><time>2012-07-22T14:16:41.0000000+00:00</time></trkpt><trkpt lat="64.00149536" lon="-19.04817963"><ele>594.0</ele><time>2012-07-22T14:19:01.0000000+00:00</time></trkpt><trkpt lat="64.00118256" lon="-19.04947472"><ele>595.7</ele><time>2012-07-22T14:19:26.0000000+00:00</time></trkpt><trkpt lat="64.00048828" lon="-19.05050087"><ele>596.5</ele><time>2012-07-22T14:19:56.0000000+00:00</time></trkpt><trkpt lat="63.99970245" lon="-19.05109596"><ele>594.9</ele><time>2012-07-22T14:20:26.0000000+00:00</time></trkpt><trkpt lat="63.99881744" lon="-19.05095863"><ele>589.0</ele><time>2012-07-22T14:20:56.0000000+00:00</time></trkpt><trkpt lat="63.99798966" lon="-19.05161285"><ele>586.1</ele><time>2012-07-22T14:21:26.0000000+00:00</time></trkpt><trkpt lat="63.99697113" lon="-19.05587196"><ele>589.2</ele><time>2012-07-22T14:23:01.0000000+00:00</time></trkpt><trkpt lat="63.9956131" lon="-19.05919838"><ele>589.5</ele><time>2012-07-22T14:24:01.0000000+00:00</time></trkpt><trkpt lat="63.99456024" lon="-19.05975723"><ele>588.2</ele><time>2012-07-22T14:24:41.0000000+00:00</time></trkpt><trkpt lat="63.99464035" lon="-19.06045914"><ele>590.6</ele><time>2012-07-22T14:26:36.0000000+00:00</time></trkpt><trkpt lat="63.99443054" lon="-19.0609436"><ele>590.9</ele><time>2012-07-22T14:27:06.0000000+00:00</time></trkpt><trkpt lat="63.99375534" lon="-19.0606308"><ele>587.5</ele><time>2012-07-22T14:29:41.0000000+00:00</time></trkpt><trkpt lat="63.99348068" lon="-19.06079483"><ele>588.3</ele><time>2012-07-22T14:30:06.0000000+00:00</time></trkpt><trkpt lat="63.99305725" lon="-19.06012154"><ele>588.1</ele><time>2012-07-22T14:30:56.0000000+00:00</time></trkpt><trkpt lat="63.99197006" lon="-19.05925369"><ele>588.7</ele><time>2012-07-22T14:31:31.0000000+00:00</time></trkpt><trkpt lat="63.99093247" lon="-19.06048012"><ele>589.8</ele><time>2012-07-22T14:32:06.0000000+00:00</time></trkpt><trkpt lat="63.99065018" lon="-19.05989456"><ele>591.0</ele><time>2012-07-22T14:32:21.0000000+00:00</time></trkpt><trkpt lat="63.9903183" lon="-19.06048393"><ele>592.0</ele><time>2012-07-22T14:35:21.0000000+00:00</time></trkpt><trkpt lat="63.98961258" lon="-19.060009"><ele>593.4</ele><time>2012-07-22T14:44:46.0000000+00:00</time></trkpt><trkpt lat="63.9900322" lon="-19.06034279"><ele>592.5</ele><time>2012-07-22T15:17:06.0000000+00:00</time></trkpt></trkseg><trkseg><trkpt lat="63.99052429" lon="-19.06059837"><ele>591.5</ele><time>2012-07-23T09:43:34.0000000+00:00</time></trkpt><trkpt lat="63.99076462" lon="-19.06071854"><ele>590.7</ele><time>2012-07-23T09:44:19.0000000+00:00</time></trkpt><trkpt lat="63.99182892" lon="-19.05921364"><ele>588.9</ele><time>2012-07-23T09:46:34.0000000+00:00</time></trkpt><trkpt lat="63.99298477" lon="-19.06004334"><ele>588.2</ele><time>2012-07-23T09:48:09.0000000+00:00</time></trkpt><trkpt lat="63.9934845" lon="-19.06071854"><ele>588.2</ele><time>2012-07-23T09:48:59.0000000+00:00</time></trkpt><trkpt lat="63.99439621" lon="-19.06093597"><ele>590.6</ele><time>2012-07-23T09:50:29.0000000+00:00</time></trkpt><trkpt lat="63.99461365" lon="-19.06049538"><ele>590.4</ele><time>2012-07-23T09:50:59.0000000+00:00</time></trkpt><trkpt lat="63.99452591" lon="-19.06012917"><ele>588.9</ele><time>2012-07-23T09:51:34.0000000+00:00</time></trkpt><trkpt lat="63.99560165" lon="-19.05913925"><ele>588.7</ele><time>2012-07-23T09:53:34.0000000+00:00</time></trkpt><trkpt lat="63.99655533" lon="-19.05687332"><ele>586.9</ele><time>2012-07-23T09:55:39.0000000+00:00</time></trkpt><trkpt lat="63.99805832" lon="-19.05140305"><ele>585.9</ele><time>2012-07-23T09:59:39.0000000+00:00</time></trkpt><trkpt lat="63.99859619" lon="-19.05090714"><ele>587.3</ele><time>2012-07-23T10:00:24.0000000+00:00</time></trkpt><trkpt lat="63.99934769" lon="-19.05116081"><ele>593.3</ele><time>2012-07-23T10:01:49.0000000+00:00</time></trkpt><trkpt lat="63.99978638" lon="-19.05093002"><ele>595.1</ele><time>2012-07-23T10:02:29.0000000+00:00</time></trkpt><trkpt lat="64.00113678" lon="-19.04950714"><ele>595.7</ele><time>2012-07-23T10:04:44.0000000+00:00</time></trkpt><trkpt lat="64.0011673" lon="-19.05031776"><ele>596.8</ele><time>2012-07-23T10:05:14.0000000+00:00</time></trkpt><trkpt lat="64.00174713" lon="-19.05191803"><ele>602.6</ele><time>2012-07-23T10:06:44.0000000+00:00</time></trkpt><trkpt lat="64.00204468" lon="-19.05382538"><ele>612.2</ele><time>2012-07-23T10:08:54.0000000+00:00</time></trkpt><trkpt lat="64.00289154" lon="-19.05435753"><ele>641.6</ele><time>2012-07-23T10:11:54.0000000+00:00</time></trkpt><trkpt lat="64.00340271" lon="-19.05542946"><ele>657.6</ele><time>2012-07-23T10:13:49.0000000+00:00</time></trkpt><trkpt lat="64.00382996" lon="-19.05545425"><ele>679.5</ele><time>2012-07-23T10:15:44.0000000+00:00</time></trkpt><trkpt lat="64.00424957" lon="-19.05352974"><ele>681.4</ele><time>2012-07-23T10:19:29.0000000+00:00</time></trkpt><trkpt lat="64.00450897" lon="-19.05319405"><ele>681.9</ele><time>2012-07-23T10:20:14.0000000+00:00</time></trkpt><trkpt lat="64.00512695" lon="-19.05326653"><ele>697.2</ele><time>2012-07-23T10:21:39.0000000+00:00</time></trkpt><trkpt lat="64.00549316" lon="-19.05285072"><ele>705.6</ele><time>2012-07-23T10:22:39.0000000+00:00</time></trkpt><trkpt lat="64.00649262" lon="-19.05083656"><ele>697.1</ele><time>2012-07-23T10:25:14.0000000+00:00</time></trkpt><trkpt lat="64.00696564" lon="-19.04849625"><ele>708.8</ele><time>2012-07-23T10:27:19.0000000+00:00</time></trkpt><trkpt lat="64.00805664" lon="-19.04653931"><ele>684.7</ele><time>2012-07-23T10:33:04.0000000+00:00</time></trkpt><trkpt lat="64.01051331" lon="-19.04493904"><ele>643.5</ele><time>2012-07-23T10:41:14.0000000+00:00</time></trkpt><trkpt lat="64.01141357" lon="-19.04514122"><ele>627.3</ele><time>2012-07-23T10:43:24.0000000+00:00</time></trkpt><trkpt lat="64.01230621" lon="-19.04610062"><ele>618.7</ele><time>2012-07-23T10:45:24.0000000+00:00</time></trkpt><trkpt lat="64.01316071" lon="-19.04620552"><ele>624.5</ele><time>2012-07-23T10:47:09.0000000+00:00</time></trkpt><trkpt lat="64.01368713" lon="-19.04580498"><ele>615.7</ele><time>2012-07-23T10:48:24.0000000+00:00</time></trkpt><trkpt lat="64.01405335" lon="-19.04455757"><ele>601.2</ele><time>2012-07-23T10:49:44.0000000+00:00</time></trkpt><trkpt lat="64.0140686" lon="-19.04356384"><ele>594.8</ele><time>2012-07-23T10:50:34.0000000+00:00</time></trkpt><trkpt lat="64.01378632" lon="-19.04304504"><ele>594.0</ele><time>2012-07-23T10:51:44.0000000+00:00</time></trkpt><trkpt lat="64.01292419" lon="-19.04246903"><ele>598.3</ele><time>2012-07-23T10:53:19.0000000+00:00</time></trkpt><trkpt lat="64.01268768" lon="-19.04185295"><ele>601.8</ele><time>2012-07-23T10:53:54.0000000+00:00</time></trkpt><trkpt lat="64.01298523" lon="-19.04109383"><ele>617.5</ele><time>2012-07-23T10:55:34.0000000+00:00</time></trkpt><trkpt lat="64.01322174" lon="-19.04127693"><ele>620.4</ele><time>2012-07-23T10:56:04.0000000+00:00</time></trkpt><trkpt lat="64.01366425" lon="-19.04051209"><ele>614.4</ele><time>2012-07-23T11:03:09.0000000+00:00</time></trkpt><trkpt lat="64.01376343" lon="-19.03984261"><ele>595.6</ele><time>2012-07-23T11:04:14.0000000+00:00</time></trkpt><trkpt lat="64.01396942" lon="-19.0408268"><ele>601.9</ele><time>2012-07-23T11:05:04.0000000+00:00</time></trkpt><trkpt lat="64.01381683" lon="-19.04230881"><ele>598.1</ele><time>2012-07-23T11:06:14.0000000+00:00</time></trkpt><trkpt lat="64.01411438" lon="-19.04284859"><ele>594.7</ele><time>2012-07-23T11:07:14.0000000+00:00</time></trkpt><trkpt lat="64.01734161" lon="-19.03899193"><ele>595.5</ele><time>2012-07-23T11:13:49.0000000+00:00</time></trkpt><trkpt lat="64.01833344" lon="-19.0383358"><ele>601.3</ele><time>2012-07-23T11:15:29.0000000+00:00</time></trkpt><trkpt lat="64.01908112" lon="-19.03837013"><ele>597.6</ele><time>2012-07-23T11:16:34.0000000+00:00</time></trkpt><trkpt lat="64.02153015" lon="-19.03574944"><ele>583.8</ele><time>2012-07-23T11:20:24.0000000+00:00</time></trkpt><trkpt lat="64.02318573" lon="-19.03454971"><ele>577.5</ele><time>2012-07-23T11:22:59.0000000+00:00</time></trkpt><trkpt lat="64.02417755" lon="-19.03421974"><ele>575.0</ele><time>2012-07-23T11:24:24.0000000+00:00</time></trkpt><trkpt lat="64.02522278" lon="-19.03331184"><ele>577.2</ele><time>2012-07-23T11:25:59.0000000+00:00</time></trkpt><trkpt lat="64.02558899" lon="-19.0319519"><ele>577.6</ele><time>2012-07-23T11:26:59.0000000+00:00</time></trkpt><trkpt lat="64.02610779" lon="-19.02809715"><ele>577.9</ele><time>2012-07-23T11:29:24.0000000+00:00</time></trkpt><trkpt lat="64.02568817" lon="-19.02240944"><ele>584.3</ele><time>2012-07-23T11:32:54.0000000+00:00</time></trkpt><trkpt lat="64.02583313" lon="-19.02095032"><ele>581.2</ele><time>2012-07-23T11:33:49.0000000+00:00</time></trkpt><trkpt lat="64.02698517" lon="-19.01811409"><ele>579.4</ele><time>2012-07-23T11:36:09.0000000+00:00</time></trkpt><trkpt lat="64.02711487" lon="-19.0168438"><ele>585.0</ele><time>2012-07-23T11:36:59.0000000+00:00</time></trkpt><trkpt lat="64.02773285" lon="-19.01648712"><ele>589.1</ele><time>2012-07-23T11:37:54.0000000+00:00</time></trkpt><trkpt lat="64.02871704" lon="-19.01410484"><ele>598.0</ele><time>2012-07-23T11:40:14.0000000+00:00</time></trkpt><trkpt lat="64.02861786" lon="-19.01356506"><ele>605.7</ele><time>2012-07-23T11:40:44.0000000+00:00</time></trkpt><trkpt lat="64.02881622" lon="-19.01250839"><ele>609.1</ele><time>2012-07-23T11:41:34.0000000+00:00</time></trkpt><trkpt lat="64.02800751" lon="-19.01104927"><ele>619.7</ele><time>2012-07-23T11:43:19.0000000+00:00</time></trkpt><trkpt lat="64.02804565" lon="-19.01042175"><ele>622.0</ele><time>2012-07-23T11:43:49.0000000+00:00</time></trkpt><trkpt lat="64.02909088" lon="-19.00932884"><ele>635.0</ele><time>2012-07-23T11:46:04.0000000+00:00</time></trkpt><trkpt lat="64.02992249" lon="-19.00772858"><ele>653.2</ele><time>2012-07-23T11:51:19.0000000+00:00</time></trkpt><trkpt lat="64.02998352" lon="-19.00794792"><ele>653.5</ele><time>2012-07-23T11:55:54.0000000+00:00</time></trkpt><trkpt lat="64.02951813" lon="-19.00672913"><ele>658.0</ele><time>2012-07-23T11:59:44.0000000+00:00</time></trkpt><trkpt lat="64.02880096" lon="-19.00666428"><ele>647.9</ele><time>2012-07-23T12:00:49.0000000+00:00</time></trkpt><trkpt lat="64.02701569" lon="-19.00976181"><ele>629.4</ele><time>2012-07-23T12:04:24.0000000+00:00</time></trkpt><trkpt lat="64.02619171" lon="-19.01019478"><ele>632.8</ele><time>2012-07-23T12:05:39.0000000+00:00</time></trkpt><trkpt lat="64.02568054" lon="-19.01153374"><ele>627.6</ele><time>2012-07-23T12:06:44.0000000+00:00</time></trkpt><trkpt lat="64.02529907" lon="-19.01198959"><ele>624.8</ele><time>2012-07-23T12:07:24.0000000+00:00</time></trkpt><trkpt lat="64.02178192" lon="-19.00706291"><ele>572.1</ele><time>2012-07-23T12:14:49.0000000+00:00</time></trkpt><trkpt lat="64.0204773" lon="-19.00633812"><ele>578.2</ele><time>2012-07-23T12:17:04.0000000+00:00</time></trkpt><trkpt lat="64.01931" lon="-19.00666809"><ele>579.1</ele><time>2012-07-23T12:18:44.0000000+00:00</time></trkpt><trkpt lat="64.01873779" lon="-19.00823784"><ele>580.4</ele><time>2012-07-23T12:19:59.0000000+00:00</time></trkpt><trkpt lat="64.01890564" lon="-19.00927353"><ele>583.9</ele><time>2012-07-23T12:20:44.0000000+00:00</time></trkpt><trkpt lat="64.01869965" lon="-19.01140404"><ele>584.4</ele><time>2012-07-23T12:22:09.0000000+00:00</time></trkpt><trkpt lat="64.01818085" lon="-19.01296616"><ele>584.4</ele><time>2012-07-23T12:23:24.0000000+00:00</time></trkpt><trkpt lat="64.01765442" lon="-19.01372147"><ele>585.1</ele><time>2012-07-23T12:24:19.0000000+00:00</time></trkpt><trkpt lat="64.01750946" lon="-19.01428604"><ele>584.9</ele><time>2012-07-23T12:24:44.0000000+00:00</time></trkpt><trkpt lat="64.01791382" lon="-19.01853371"><ele>584.1</ele><time>2012-07-23T12:27:34.0000000+00:00</time></trkpt><trkpt lat="64.01772308" lon="-19.02046967"><ele>582.2</ele><time>2012-07-23T12:28:49.0000000+00:00</time></trkpt><trkpt lat="64.015625" lon="-19.0228672"><ele>583.8</ele><time>2012-07-23T12:32:14.0000000+00:00</time></trkpt><trkpt lat="64.01408386" lon="-19.02417755"><ele>586.7</ele><time>2012-07-23T12:35:04.0000000+00:00</time></trkpt><trkpt lat="64.01210785" lon="-19.02802277"><ele>590.7</ele><time>2012-07-23T12:38:24.0000000+00:00</time></trkpt><trkpt lat="64.01095581" lon="-19.0319767"><ele>587.6</ele><time>2012-07-23T12:41:24.0000000+00:00</time></trkpt><trkpt lat="64.01055908" lon="-19.03631783"><ele>585.4</ele><time>2012-07-23T12:44:14.0000000+00:00</time></trkpt><trkpt lat="64.00995636" lon="-19.03899384"><ele>589.2</ele><time>2012-07-23T12:46:09.0000000+00:00</time></trkpt><trkpt lat="64.00973511" lon="-19.03940773"><ele>589.1</ele><time>2012-07-23T12:46:34.0000000+00:00</time></trkpt><trkpt lat="64.00872803" lon="-19.04011154"><ele>588.6</ele><time>2012-07-23T12:47:59.0000000+00:00</time></trkpt><trkpt lat="64.00804138" lon="-19.03821755"><ele>588.8</ele><time>2012-07-23T12:49:34.0000000+00:00</time></trkpt><trkpt lat="64.00726318" lon="-19.03804398"><ele>588.5</ele><time>2012-07-23T12:50:34.0000000+00:00</time></trkpt><trkpt lat="64.00685883" lon="-19.03763008"><ele>588.7</ele><time>2012-07-23T12:51:09.0000000+00:00</time></trkpt><trkpt lat="64.00647736" lon="-19.03810501"><ele>588.6</ele><time>2012-07-23T12:51:54.0000000+00:00</time></trkpt><trkpt lat="64.00543213" lon="-19.03642464"><ele>584.6</ele><time>2012-07-23T12:53:44.0000000+00:00</time></trkpt><trkpt lat="64.00471497" lon="-19.03628922"><ele>581.9</ele><time>2012-07-23T12:56:24.0000000+00:00</time></trkpt><trkpt lat="64.00469971" lon="-19.03684616"><ele>582.3</ele><time>2012-07-23T12:56:44.0000000+00:00</time></trkpt><trkpt lat="64.00440216" lon="-19.03765869"><ele>582.8</ele><time>2012-07-23T12:57:19.0000000+00:00</time></trkpt><trkpt lat="64.003685" lon="-19.03887367"><ele>582.3</ele><time>2012-07-23T12:58:24.0000000+00:00</time></trkpt><trkpt lat="64.00232697" lon="-19.04264069"><ele>584.0</ele><time>2012-07-23T13:01:04.0000000+00:00</time></trkpt><trkpt lat="64.0015564" lon="-19.04791832"><ele>594.6</ele><time>2012-07-23T13:04:34.0000000+00:00</time></trkpt><trkpt lat="64.00117493" lon="-19.04941368"><ele>595.7</ele><time>2012-07-23T13:05:34.0000000+00:00</time></trkpt><trkpt lat="64.00061035" lon="-19.05029488"><ele>596.4</ele><time>2012-07-23T13:06:29.0000000+00:00</time></trkpt><trkpt lat="63.99972916" lon="-19.05100441"><ele>595.0</ele><time>2012-07-23T13:07:39.0000000+00:00</time></trkpt><trkpt lat="63.99927139" lon="-19.0511837"><ele>592.7</ele><time>2012-07-23T13:08:14.0000000+00:00</time></trkpt><trkpt lat="63.99865341" lon="-19.05090141"><ele>587.7</ele><time>2012-07-23T13:09:09.0000000+00:00</time></trkpt><trkpt lat="63.99800873" lon="-19.05152702"><ele>585.8</ele><time>2012-07-23T13:10:04.0000000+00:00</time></trkpt><trkpt lat="63.99692154" lon="-19.05599022"><ele>589.3</ele><time>2012-07-23T13:12:59.0000000+00:00</time></trkpt><trkpt lat="63.99567413" lon="-19.05916596"><ele>589.4</ele><time>2012-07-23T13:15:19.0000000+00:00</time></trkpt><trkpt lat="63.99533081" lon="-19.05962372"><ele>588.9</ele><time>2012-07-23T13:15:49.0000000+00:00</time></trkpt><trkpt lat="63.99460602" lon="-19.05986404"><ele>588.2</ele><time>2012-07-23T13:16:44.0000000+00:00</time></trkpt><trkpt lat="63.99455643" lon="-19.06065559"><ele>590.2</ele><time>2012-07-23T13:17:44.0000000+00:00</time></trkpt><trkpt lat="63.9943924" lon="-19.06090736"><ele>590.5</ele><time>2012-07-23T13:17:59.0000000+00:00</time></trkpt><trkpt lat="63.99368286" lon="-19.06050873"><ele>587.7</ele><time>2012-07-23T13:18:59.0000000+00:00</time></trkpt><trkpt lat="63.99344254" lon="-19.0606575"><ele>588.2</ele><time>2012-07-23T13:19:24.0000000+00:00</time></trkpt><trkpt lat="63.99193192" lon="-19.05914497"><ele>588.8</ele><time>2012-07-23T13:21:54.0000000+00:00</time></trkpt><trkpt lat="63.99088287" lon="-19.06034279"><ele>590.0</ele><time>2012-07-23T13:23:24.0000000+00:00</time></trkpt><trkpt lat="63.99000931" lon="-19.06023216"><ele>592.5</ele><time>2012-07-23T13:26:54.0000000+00:00</time></trkpt></trkseg><trkseg><trkpt lat="63.99053574" lon="-19.06246948"><ele>597.7</ele><time>2012-07-23T14:56:37.0000000+00:00</time></trkpt><trkpt lat="63.99084091" lon="-19.06239319"><ele>590.6</ele><time>2012-07-23T14:56:47.0000000+00:00</time></trkpt><trkpt lat="63.99087143" lon="-19.06263351"><ele>590.9</ele><time>2012-07-23T14:56:52.0000000+00:00</time></trkpt><trkpt lat="63.99076462" lon="-19.06298447"><ele>593.2</ele><time>2012-07-23T14:57:07.0000000+00:00</time></trkpt><trkpt lat="63.99087143" lon="-19.06385803"><ele>600.2</ele><time>2012-07-23T14:58:17.0000000+00:00</time></trkpt><trkpt lat="63.99060059" lon="-19.06474876"><ele>610.0</ele><time>2012-07-23T14:59:22.0000000+00:00</time></trkpt><trkpt lat="63.99103928" lon="-19.06513596"><ele>613.0</ele><time>2012-07-23T15:01:17.0000000+00:00</time></trkpt><trkpt lat="63.99057388" lon="-19.06558037"><ele>622.6</ele><time>2012-07-23T15:02:22.0000000+00:00</time></trkpt><trkpt lat="63.99083328" lon="-19.06840706"><ele>626.3</ele><time>2012-07-23T15:04:52.0000000+00:00</time></trkpt><trkpt lat="63.990345" lon="-19.07132149"><ele>631.2</ele><time>2012-07-23T15:07:02.0000000+00:00</time></trkpt><trkpt lat="63.99040604" lon="-19.07254601"><ele>632.3</ele><time>2012-07-23T15:07:52.0000000+00:00</time></trkpt><trkpt lat="63.99093628" lon="-19.07423973"><ele>635.3</ele><time>2012-07-23T15:09:22.0000000+00:00</time></trkpt><trkpt lat="63.99063873" lon="-19.07520676"><ele>636.8</ele><time>2012-07-23T15:10:47.0000000+00:00</time></trkpt><trkpt lat="63.99056244" lon="-19.07607079"><ele>637.9</ele><time>2012-07-23T15:11:22.0000000+00:00</time></trkpt><trkpt lat="63.99072266" lon="-19.07719421"><ele>637.1</ele><time>2012-07-23T15:12:22.0000000+00:00</time></trkpt><trkpt lat="63.99048233" lon="-19.07995987"><ele>636.7</ele><time>2012-07-23T15:14:22.0000000+00:00</time></trkpt><trkpt lat="63.99065399" lon="-19.08122063"><ele>636.2</ele><time>2012-07-23T15:15:27.0000000+00:00</time></trkpt><trkpt lat="63.9906311" lon="-19.08416557"><ele>630.1</ele><time>2012-07-23T15:17:17.0000000+00:00</time></trkpt><trkpt lat="63.98994064" lon="-19.0858078"><ele>619.7</ele><time>2012-07-23T15:18:42.0000000+00:00</time></trkpt><trkpt lat="63.98881912" lon="-19.08587074"><ele>624.4</ele><time>2012-07-23T15:20:37.0000000+00:00</time></trkpt><trkpt lat="63.98883057" lon="-19.08785629"><ele>619.4</ele><time>2012-07-23T15:21:57.0000000+00:00</time></trkpt><trkpt lat="63.989151" lon="-19.08957481"><ele>621.6</ele><time>2012-07-23T15:23:12.0000000+00:00</time></trkpt><trkpt lat="63.98999405" lon="-19.0902195"><ele>621.5</ele><time>2012-07-23T15:24:37.0000000+00:00</time></trkpt><trkpt lat="63.99012756" lon="-19.09066963"><ele>625.0</ele><time>2012-07-23T15:25:07.0000000+00:00</time></trkpt><trkpt lat="63.99015808" lon="-19.0917778"><ele>625.4</ele><time>2012-07-23T15:25:52.0000000+00:00</time></trkpt><trkpt lat="63.98986816" lon="-19.0928669"><ele>622.7</ele><time>2012-07-23T15:26:52.0000000+00:00</time></trkpt><trkpt lat="63.99027634" lon="-19.09376335"><ele>622.9</ele><time>2012-07-23T15:28:12.0000000+00:00</time></trkpt><trkpt lat="63.99058533" lon="-19.09786987"><ele>626.4</ele><time>2012-07-23T15:31:47.0000000+00:00</time></trkpt><trkpt lat="63.99177551" lon="-19.09993362"><ele>624.1</ele><time>2012-07-23T15:34:17.0000000+00:00</time></trkpt><trkpt lat="63.99248505" lon="-19.10327148"><ele>626.1</ele><time>2012-07-23T15:38:17.0000000+00:00</time></trkpt><trkpt lat="63.99300003" lon="-19.10482407"><ele>626.2</ele><time>2012-07-23T15:39:42.0000000+00:00</time></trkpt><trkpt lat="63.99301529" lon="-19.10534096"><ele>626.5</ele><time>2012-07-23T15:40:47.0000000+00:00</time></trkpt><trkpt lat="63.99360275" lon="-19.10369492"><ele>625.3</ele><time>2012-07-23T15:43:42.0000000+00:00</time></trkpt><trkpt lat="63.99371719" lon="-19.1039238"><ele>625.5</ele><time>2012-07-23T15:43:52.0000000+00:00</time></trkpt><trkpt lat="63.99335098" lon="-19.10525894"><ele>626.1</ele><time>2012-07-23T15:44:57.0000000+00:00</time></trkpt><trkpt lat="63.9935112" lon="-19.10536575"><ele>625.9</ele><time>2012-07-23T15:45:52.0000000+00:00</time></trkpt><trkpt lat="63.9933548" lon="-19.10595512"><ele>626.3</ele><time>2012-07-23T15:47:12.0000000+00:00</time></trkpt><trkpt lat="63.99346542" lon="-19.10708427"><ele>627.0</ele><time>2012-07-23T15:48:12.0000000+00:00</time></trkpt><trkpt lat="63.99403381" lon="-19.10806084"><ele>627.7</ele><time>2012-07-23T15:49:27.0000000+00:00</time></trkpt><trkpt lat="63.99456406" lon="-19.10994339"><ele>646.0</ele><time>2012-07-23T15:52:42.0000000+00:00</time></trkpt><trkpt lat="63.99489212" lon="-19.11226654"><ele>684.7</ele><time>2012-07-23T15:55:57.0000000+00:00</time></trkpt><trkpt lat="63.99539185" lon="-19.1138916"><ele>716.2</ele><time>2012-07-23T15:58:07.0000000+00:00</time></trkpt><trkpt lat="63.99675369" lon="-19.11696053"><ele>751.8</ele><time>2012-07-23T16:01:57.0000000+00:00</time></trkpt><trkpt lat="63.9972229" lon="-19.11698341"><ele>764.0</ele><time>2012-07-23T16:02:42.0000000+00:00</time></trkpt><trkpt lat="63.997509" lon="-19.11654854"><ele>765.0</ele><time>2012-07-23T16:05:52.0000000+00:00</time></trkpt><trkpt lat="63.99716187" lon="-19.11704636"><ele>763.0</ele><time>2012-07-23T16:07:37.0000000+00:00</time></trkpt><trkpt lat="63.99678421" lon="-19.11699867"><ele>752.8</ele><time>2012-07-23T16:08:17.0000000+00:00</time></trkpt><trkpt lat="63.99648285" lon="-19.11639977"><ele>744.0</ele><time>2012-07-23T16:09:07.0000000+00:00</time></trkpt><trkpt lat="63.99696732" lon="-19.11707687"><ele>758.4</ele><time>2012-07-23T16:13:12.0000000+00:00</time></trkpt><trkpt lat="63.99754715" lon="-19.11655998"><ele>764.3</ele><time>2012-07-23T16:14:12.0000000+00:00</time></trkpt><trkpt lat="63.99720764" lon="-19.11624718"><ele>768.1</ele><time>2012-07-23T16:15:42.0000000+00:00</time></trkpt><trkpt lat="63.99724579" lon="-19.11553383"><ele>770.1</ele><time>2012-07-23T16:16:42.0000000+00:00</time></trkpt><trkpt lat="63.99815369" lon="-19.11262894"><ele>782.8</ele><time>2012-07-23T16:19:32.0000000+00:00</time></trkpt><trkpt lat="63.99894333" lon="-19.11153984"><ele>781.4</ele><time>2012-07-23T16:21:07.0000000+00:00</time></trkpt><trkpt lat="63.99999619" lon="-19.11175919"><ele>813.9</ele><time>2012-07-23T16:26:07.0000000+00:00</time></trkpt><trkpt lat="64.00022125" lon="-19.11140823"><ele>823.6</ele><time>2012-07-23T16:27:07.0000000+00:00</time></trkpt><trkpt lat="64.00115967" lon="-19.11140823"><ele>850.6</ele><time>2012-07-23T16:29:27.0000000+00:00</time></trkpt><trkpt lat="64.00163269" lon="-19.10975838"><ele>856.2</ele><time>2012-07-23T16:33:07.0000000+00:00</time></trkpt><trkpt lat="64.00190735" lon="-19.10778427"><ele>871.8</ele><time>2012-07-23T16:34:52.0000000+00:00</time></trkpt><trkpt lat="64.00151825" lon="-19.10429192"><ele>900.1</ele><time>2012-07-23T16:38:32.0000000+00:00</time></trkpt><trkpt lat="64.00180054" lon="-19.10236168"><ele>911.7</ele><time>2012-07-23T16:39:57.0000000+00:00</time></trkpt><trkpt lat="64.00162506" lon="-19.10090065"><ele>898.5</ele><time>2012-07-23T16:42:07.0000000+00:00</time></trkpt><trkpt lat="64.0019989" lon="-19.09846497"><ele>869.1</ele><time>2012-07-23T16:45:12.0000000+00:00</time></trkpt><trkpt lat="64.00198364" lon="-19.09634018"><ele>866.2</ele><time>2012-07-23T16:46:47.0000000+00:00</time></trkpt><trkpt lat="64.00174713" lon="-19.09544563"><ele>871.3</ele><time>2012-07-23T16:47:27.0000000+00:00</time></trkpt><trkpt lat="64.00076294" lon="-19.09420776"><ele>868.5</ele><time>2012-07-23T16:49:02.0000000+00:00</time></trkpt><trkpt lat="64.00037384" lon="-19.09311104"><ele>861.7</ele><time>2012-07-23T16:50:02.0000000+00:00</time></trkpt><trkpt lat="64.00025177" lon="-19.08695221"><ele>875.7</ele><time>2012-07-23T16:54:37.0000000+00:00</time></trkpt><trkpt lat="64.00015259" lon="-19.08674812"><ele>873.1</ele><time>2012-07-23T16:55:02.0000000+00:00</time></trkpt><trkpt lat="64.00029755" lon="-19.08556366"><ele>878.7</ele><time>2012-07-23T16:55:57.0000000+00:00</time></trkpt><trkpt lat="63.99984741" lon="-19.08275795"><ele>877.8</ele><time>2012-07-23T16:59:07.0000000+00:00</time></trkpt><trkpt lat="63.99980164" lon="-19.08109856"><ele>869.9</ele><time>2012-07-23T17:00:37.0000000+00:00</time></trkpt><trkpt lat="63.99931717" lon="-19.08062935"><ele>851.2</ele><time>2012-07-23T17:01:22.0000000+00:00</time></trkpt><trkpt lat="63.99929428" lon="-19.07845879"><ele>851.9</ele><time>2012-07-23T17:02:57.0000000+00:00</time></trkpt><trkpt lat="63.99909592" lon="-19.07799912"><ele>847.3</ele><time>2012-07-23T17:03:17.0000000+00:00</time></trkpt><trkpt lat="63.99892426" lon="-19.07668495"><ele>840.9</ele><time>2012-07-23T17:04:17.0000000+00:00</time></trkpt><trkpt lat="63.99885941" lon="-19.07428742"><ele>834.9</ele><time>2012-07-23T17:06:17.0000000+00:00</time></trkpt><trkpt lat="63.99865723" lon="-19.07406426"><ele>825.1</ele><time>2012-07-23T17:07:17.0000000+00:00</time></trkpt><trkpt lat="63.99872589" lon="-19.07283211"><ele>811.0</ele><time>2012-07-23T17:08:52.0000000+00:00</time></trkpt><trkpt lat="63.99904633" lon="-19.07193565"><ele>796.1</ele><time>2012-07-23T17:10:02.0000000+00:00</time></trkpt><trkpt lat="63.9989624" lon="-19.07143593"><ele>787.7</ele><time>2012-07-23T17:10:27.0000000+00:00</time></trkpt><trkpt lat="63.99909592" lon="-19.07071686"><ele>778.4</ele><time>2012-07-23T17:11:17.0000000+00:00</time></trkpt><trkpt lat="63.9989624" lon="-19.07005119"><ele>762.6</ele><time>2012-07-23T17:12:27.0000000+00:00</time></trkpt><trkpt lat="63.99855042" lon="-19.06964111"><ele>747.3</ele><time>2012-07-23T17:13:27.0000000+00:00</time></trkpt><trkpt lat="63.99808121" lon="-19.06845474"><ele>716.7</ele><time>2012-07-23T17:16:07.0000000+00:00</time></trkpt><trkpt lat="63.99794006" lon="-19.06703758"><ele>701.5</ele><time>2012-07-23T17:18:02.0000000+00:00</time></trkpt><trkpt lat="63.99743652" lon="-19.06489754"><ele>695.2</ele><time>2012-07-23T17:19:37.0000000+00:00</time></trkpt><trkpt lat="63.99622345" lon="-19.06405067"><ele>693.5</ele><time>2012-07-23T17:21:12.0000000+00:00</time></trkpt><trkpt lat="63.99542618" lon="-19.06265259"><ele>660.4</ele><time>2012-07-23T17:24:07.0000000+00:00</time></trkpt><trkpt lat="63.99519348" lon="-19.06263924"><ele>648.8</ele><time>2012-07-23T17:24:57.0000000+00:00</time></trkpt><trkpt lat="63.99520111" lon="-19.06202316"><ele>635.6</ele><time>2012-07-23T17:26:02.0000000+00:00</time></trkpt><trkpt lat="63.99472427" lon="-19.06177712"><ele>604.5</ele><time>2012-07-23T17:27:32.0000000+00:00</time></trkpt><trkpt lat="63.99456787" lon="-19.06113625"><ele>593.5</ele><time>2012-07-23T17:29:07.0000000+00:00</time></trkpt><trkpt lat="63.99372101" lon="-19.06062508"><ele>587.5</ele><time>2012-07-23T17:31:07.0000000+00:00</time></trkpt><trkpt lat="63.99348831" lon="-19.06079865"><ele>588.3</ele><time>2012-07-23T17:31:57.0000000+00:00</time></trkpt><trkpt lat="63.99207306" lon="-19.05928421"><ele>588.6</ele><time>2012-07-23T17:33:57.0000000+00:00</time></trkpt><trkpt lat="63.99085617" lon="-19.06039429"><ele>590.1</ele><time>2012-07-23T17:35:42.0000000+00:00</time></trkpt><trkpt lat="63.99052048" lon="-19.06017494"><ele>591.4</ele><time>2012-07-23T17:37:37.0000000+00:00</time></trkpt><trkpt lat="63.99063492" lon="-19.0600605"><ele>591.0</ele><time>2012-07-23T17:38:27.0000000+00:00</time></trkpt></trkseg><trkseg><trkpt lat="63.99038315" lon="-19.06074333"><ele>592.0</ele><time>2012-07-24T11:13:29.0000000+00:00</time></trkpt><trkpt lat="63.99024582" lon="-19.06024933"><ele>592.1</ele><time>2012-07-24T11:13:34.0000000+00:00</time></trkpt><trkpt lat="63.99003601" lon="-19.06027603"><ele>592.5</ele><time>2012-07-24T11:22:29.0000000+00:00</time></trkpt><trkpt lat="63.99040222" lon="-19.0603466"><ele>591.9</ele><time>2012-07-24T11:27:24.0000000+00:00</time></trkpt><trkpt lat="63.99058151" lon="-19.06072235"><ele>591.4</ele><time>2012-07-24T11:30:09.0000000+00:00</time></trkpt><trkpt lat="63.99196625" lon="-19.05925369"><ele>588.7</ele><time>2012-07-24T11:32:34.0000000+00:00</time></trkpt><trkpt lat="63.99348831" lon="-19.06076431"><ele>588.2</ele><time>2012-07-24T11:33:54.0000000+00:00</time></trkpt><trkpt lat="63.9944458" lon="-19.06093025"><ele>591.0</ele><time>2012-07-24T11:35:34.0000000+00:00</time></trkpt><trkpt lat="63.99468613" lon="-19.06043053"><ele>591.0</ele><time>2012-07-24T11:36:19.0000000+00:00</time></trkpt><trkpt lat="63.99459839" lon="-19.06013298"><ele>589.0</ele><time>2012-07-24T11:36:44.0000000+00:00</time></trkpt><trkpt lat="63.99567413" lon="-19.05918312"><ele>589.6</ele><time>2012-07-24T11:39:04.0000000+00:00</time></trkpt><trkpt lat="63.99644852" lon="-19.05739784"><ele>588.4</ele><time>2012-07-24T11:39:44.0000000+00:00</time></trkpt><trkpt lat="63.99814987" lon="-19.05137825"><ele>586.0</ele><time>2012-07-24T11:41:29.0000000+00:00</time></trkpt><trkpt lat="63.99874497" lon="-19.05085754"><ele>588.3</ele><time>2012-07-24T11:41:54.0000000+00:00</time></trkpt><trkpt lat="63.99926376" lon="-19.05121422"><ele>592.6</ele><time>2012-07-24T11:42:24.0000000+00:00</time></trkpt><trkpt lat="64.00019074" lon="-19.05071831"><ele>596.1</ele><time>2012-07-24T11:43:04.0000000+00:00</time></trkpt><trkpt lat="64.00125885" lon="-19.04918861"><ele>595.4</ele><time>2012-07-24T11:43:49.0000000+00:00</time></trkpt><trkpt lat="64.00210571" lon="-19.04452133"><ele>591.6</ele><time>2012-07-24T11:44:44.0000000+00:00</time></trkpt><trkpt lat="64.00231171" lon="-19.04255676"><ele>583.8</ele><time>2012-07-24T11:44:59.0000000+00:00</time></trkpt><trkpt lat="64.00341797" lon="-19.03930092"><ele>582.4</ele><time>2012-07-24T11:45:49.0000000+00:00</time></trkpt><trkpt lat="64.00476074" lon="-19.03619766"><ele>582.1</ele><time>2012-07-24T11:47:59.0000000+00:00</time></trkpt><trkpt lat="64.00434113" lon="-19.03168678"><ele>581.3</ele><time>2012-07-24T11:49:14.0000000+00:00</time></trkpt><trkpt lat="64.00369263" lon="-19.0280323"><ele>580.2</ele><time>2012-07-24T11:50:19.0000000+00:00</time></trkpt><trkpt lat="64.00370026" lon="-19.02503777"><ele>580.3</ele><time>2012-07-24T11:51:04.0000000+00:00</time></trkpt><trkpt lat="64.00402832" lon="-19.02147102"><ele>578.6</ele><time>2012-07-24T11:52:04.0000000+00:00</time></trkpt><trkpt lat="64.00445557" lon="-19.02018166"><ele>579.5</ele><time>2012-07-24T11:52:29.0000000+00:00</time></trkpt><trkpt lat="64.00461578" lon="-19.01813126"><ele>578.2</ele><time>2012-07-24T11:52:54.0000000+00:00</time></trkpt><trkpt lat="64.00528717" lon="-19.01648521"><ele>578.2</ele><time>2012-07-24T11:53:29.0000000+00:00</time></trkpt><trkpt lat="64.00525665" lon="-19.01457596"><ele>577.7</ele><time>2012-07-24T11:53:54.0000000+00:00</time></trkpt><trkpt lat="64.00557709" lon="-19.01367569"><ele>579.0</ele><time>2012-07-24T11:54:09.0000000+00:00</time></trkpt><trkpt lat="64.00639343" lon="-19.01379776"><ele>580.1</ele><time>2012-07-24T11:54:34.0000000+00:00</time></trkpt><trkpt lat="64.00687408" lon="-19.01342011"><ele>579.1</ele><time>2012-07-24T11:54:49.0000000+00:00</time></trkpt><trkpt lat="64.00838471" lon="-19.00803757"><ele>577.7</ele><time>2012-07-24T11:56:14.0000000+00:00</time></trkpt><trkpt lat="64.00843811" lon="-19.00689697"><ele>578.6</ele><time>2012-07-24T11:56:29.0000000+00:00</time></trkpt><trkpt lat="64.00772095" lon="-19.00445557"><ele>576.0</ele><time>2012-07-24T11:57:09.0000000+00:00</time></trkpt><trkpt lat="64.00788879" lon="-19.00249481"><ele>575.9</ele><time>2012-07-24T12:01:04.0000000+00:00</time></trkpt><trkpt lat="64.0082016" lon="-19.00205994"><ele>576.5</ele><time>2012-07-24T12:01:39.0000000+00:00</time></trkpt><trkpt lat="64.00843811" lon="-19.00093842"><ele>576.0</ele><time>2012-07-24T12:02:04.0000000+00:00</time></trkpt><trkpt lat="64.00933838" lon="-19.00100327"><ele>578.8</ele><time>2012-07-24T12:02:49.0000000+00:00</time></trkpt><trkpt lat="64.0096817" lon="-19.00010109"><ele>578.3</ele><time>2012-07-24T12:03:09.0000000+00:00</time></trkpt><trkpt lat="64.00971985" lon="-18.99949455"><ele>578.6</ele><time>2012-07-24T12:03:19.0000000+00:00</time></trkpt><trkpt lat="64.00914764" lon="-18.9976902"><ele>582.0</ele><time>2012-07-24T12:04:19.0000000+00:00</time></trkpt><trkpt lat="64.00800324" lon="-18.99752235"><ele>589.9</ele><time>2012-07-24T12:05:29.0000000+00:00</time></trkpt><trkpt lat="64.00595856" lon="-18.99794579"><ele>581.3</ele><time>2012-07-24T12:06:24.0000000+00:00</time></trkpt><trkpt lat="64.00388336" lon="-18.99378777"><ele>583.1</ele><time>2012-07-24T12:07:29.0000000+00:00</time></trkpt><trkpt lat="63.99970627" lon="-18.98867798"><ele>571.1</ele><time>2012-07-24T12:09:24.0000000+00:00</time></trkpt><trkpt lat="63.99903488" lon="-18.98832512"><ele>570.9</ele><time>2012-07-24T12:09:34.0000000+00:00</time></trkpt><trkpt lat="63.99794388" lon="-18.98887444"><ele>570.9</ele><time>2012-07-24T12:09:59.0000000+00:00</time></trkpt><trkpt lat="63.99465942" lon="-18.99174118"><ele>570.4</ele><time>2012-07-24T12:11:19.0000000+00:00</time></trkpt><trkpt lat="63.99422836" lon="-18.99283218"><ele>570.5</ele><time>2012-07-24T12:11:39.0000000+00:00</time></trkpt><trkpt lat="63.99330902" lon="-18.99677849"><ele>571.1</ele><time>2012-07-24T12:12:34.0000000+00:00</time></trkpt><trkpt lat="63.99236679" lon="-18.99890137"><ele>571.7</ele><time>2012-07-24T12:13:59.0000000+00:00</time></trkpt><trkpt lat="63.99164963" lon="-18.99986076"><ele>571.2</ele><time>2012-07-24T12:14:19.0000000+00:00</time></trkpt><trkpt lat="63.99081802" lon="-19.00002289"><ele>571.6</ele><time>2012-07-24T12:14:39.0000000+00:00</time></trkpt><trkpt lat="63.98999405" lon="-18.99856567"><ele>576.9</ele><time>2012-07-24T12:15:19.0000000+00:00</time></trkpt><trkpt lat="63.98920822" lon="-18.99606133"><ele>571.9</ele><time>2012-07-24T12:15:49.0000000+00:00</time></trkpt><trkpt lat="63.98837662" lon="-18.99427605"><ele>571.4</ele><time>2012-07-24T12:16:14.0000000+00:00</time></trkpt><trkpt lat="63.98843765" lon="-18.99171829"><ele>573.2</ele><time>2012-07-24T12:16:39.0000000+00:00</time></trkpt><trkpt lat="63.98812103" lon="-18.99041367"><ele>572.7</ele><time>2012-07-24T12:16:54.0000000+00:00</time></trkpt><trkpt lat="63.9869957" lon="-18.98850822"><ele>571.5</ele><time>2012-07-24T12:17:29.0000000+00:00</time></trkpt><trkpt lat="63.98463059" lon="-18.98200226"><ele>571.0</ele><time>2012-07-24T12:19:09.0000000+00:00</time></trkpt><trkpt lat="63.98467255" lon="-18.9794941"><ele>574.3</ele><time>2012-07-24T12:19:39.0000000+00:00</time></trkpt><trkpt lat="63.98545837" lon="-18.97562408"><ele>573.3</ele><time>2012-07-24T12:20:29.0000000+00:00</time></trkpt><trkpt lat="63.98553085" lon="-18.97420502"><ele>574.2</ele><time>2012-07-24T12:20:49.0000000+00:00</time></trkpt><trkpt lat="63.98521042" lon="-18.96753693"><ele>572.5</ele><time>2012-07-24T12:22:04.0000000+00:00</time></trkpt><trkpt lat="63.98540497" lon="-18.96691513"><ele>575.5</ele><time>2012-07-24T12:22:14.0000000+00:00</time></trkpt><trkpt lat="63.98681259" lon="-18.96460533"><ele>572.6</ele><time>2012-07-24T12:22:59.0000000+00:00</time></trkpt><trkpt lat="63.98757553" lon="-18.96265793"><ele>573.4</ele><time>2012-07-24T12:23:29.0000000+00:00</time></trkpt><trkpt lat="63.98816299" lon="-18.95962715"><ele>576.7</ele><time>2012-07-24T12:24:09.0000000+00:00</time></trkpt><trkpt lat="63.9892273" lon="-18.9516182"><ele>572.2</ele><time>2012-07-24T12:25:44.0000000+00:00</time></trkpt><trkpt lat="63.98952484" lon="-18.95014381"><ele>572.5</ele><time>2012-07-24T12:26:04.0000000+00:00</time></trkpt><trkpt lat="63.99055481" lon="-18.94682884"><ele>572.1</ele><time>2012-07-24T12:26:54.0000000+00:00</time></trkpt><trkpt lat="63.99114227" lon="-18.94255066"><ele>574.6</ele><time>2012-07-24T12:28:04.0000000+00:00</time></trkpt><trkpt lat="63.99150848" lon="-18.93815041"><ele>574.1</ele><time>2012-07-24T12:29:44.0000000+00:00</time></trkpt><trkpt lat="63.9912529" lon="-18.93442535"><ele>573.9</ele><time>2012-07-24T12:30:29.0000000+00:00</time></trkpt><trkpt lat="63.99118424" lon="-18.93050003"><ele>573.9</ele><time>2012-07-24T12:31:24.0000000+00:00</time></trkpt><trkpt lat="63.99100876" lon="-18.92924118"><ele>575.1</ele><time>2012-07-24T12:31:44.0000000+00:00</time></trkpt><trkpt lat="63.99102783" lon="-18.92702675"><ele>579.9</ele><time>2012-07-24T12:32:59.0000000+00:00</time></trkpt><trkpt lat="63.990551" lon="-18.92391777"><ele>578.0</ele><time>2012-07-24T12:35:04.0000000+00:00</time></trkpt><trkpt lat="63.98921967" lon="-18.92163086"><ele>586.1</ele><time>2012-07-24T12:36:24.0000000+00:00</time></trkpt><trkpt lat="63.98907471" lon="-18.91959"><ele>589.0</ele><time>2012-07-24T12:37:09.0000000+00:00</time></trkpt><trkpt lat="63.98866653" lon="-18.91736412"><ele>600.5</ele><time>2012-07-24T12:38:24.0000000+00:00</time></trkpt><trkpt lat="63.98871613" lon="-18.91565895"><ele>610.7</ele><time>2012-07-24T12:39:14.0000000+00:00</time></trkpt><trkpt lat="63.98797607" lon="-18.91345787"><ele>603.9</ele><time>2012-07-24T12:42:14.0000000+00:00</time></trkpt><trkpt lat="63.98745346" lon="-18.91104126"><ele>586.5</ele><time>2012-07-24T12:42:34.0000000+00:00</time></trkpt><trkpt lat="63.98631668" lon="-18.90953255"><ele>574.3</ele><time>2012-07-24T12:43:04.0000000+00:00</time></trkpt><trkpt lat="63.98622131" lon="-18.90885544"><ele>574.1</ele><time>2012-07-24T12:46:44.0000000+00:00</time></trkpt><trkpt lat="63.98590088" lon="-18.90937614"><ele>574.2</ele><time>2012-07-24T12:52:39.0000000+00:00</time></trkpt><trkpt lat="63.98188782" lon="-18.90890694"><ele>575.9</ele><time>2012-07-24T12:56:19.0000000+00:00</time></trkpt><trkpt lat="63.98090363" lon="-18.90624046"><ele>579.4</ele><time>2012-07-24T12:57:24.0000000+00:00</time></trkpt><trkpt lat="63.98091888" lon="-18.90318108"><ele>578.0</ele><time>2012-07-24T12:58:04.0000000+00:00</time></trkpt><trkpt lat="63.97994232" lon="-18.89772415"><ele>579.5</ele><time>2012-07-24T12:59:29.0000000+00:00</time></trkpt><trkpt lat="63.9788208" lon="-18.8958931"><ele>580.3</ele><time>2012-07-24T13:04:34.0000000+00:00</time></trkpt><trkpt lat="63.97770691" lon="-18.89563561"><ele>581.2</ele><time>2012-07-24T13:07:54.0000000+00:00</time></trkpt><trkpt lat="63.97731781" lon="-18.89513969"><ele>581.7</ele><time>2012-07-24T13:08:19.0000000+00:00</time></trkpt><trkpt lat="63.9771843" lon="-18.89450073"><ele>581.7</ele><time>2012-07-24T13:09:39.0000000+00:00</time></trkpt><trkpt lat="63.97729111" lon="-18.89393807"><ele>582.2</ele><time>2012-07-24T13:09:49.0000000+00:00</time></trkpt><trkpt lat="63.97822952" lon="-18.89215469"><ele>583.3</ele><time>2012-07-24T13:10:34.0000000+00:00</time></trkpt><trkpt lat="63.97849274" lon="-18.89244652"><ele>583.6</ele><time>2012-07-24T13:10:44.0000000+00:00</time></trkpt><trkpt lat="63.97878265" lon="-18.89390373"><ele>589.1</ele><time>2012-07-24T13:12:34.0000000+00:00</time></trkpt><trkpt lat="63.97940445" lon="-18.89363289"><ele>604.4</ele><time>2012-07-24T13:15:09.0000000+00:00</time></trkpt><trkpt lat="63.97997284" lon="-18.89513016"><ele>614.9</ele><time>2012-07-24T13:17:14.0000000+00:00</time></trkpt><trkpt lat="63.98018265" lon="-18.89505196"><ele>618.7</ele><time>2012-07-24T13:17:44.0000000+00:00</time></trkpt><trkpt lat="63.98028946" lon="-18.89461708"><ele>621.4</ele><time>2012-07-24T13:18:09.0000000+00:00</time></trkpt><trkpt lat="63.9802208" lon="-18.89256096"><ele>623.3</ele><time>2012-07-24T13:20:04.0000000+00:00</time></trkpt><trkpt lat="63.97947693" lon="-18.89078522"><ele>606.4</ele><time>2012-07-24T13:20:24.0000000+00:00</time></trkpt><trkpt lat="63.9793396" lon="-18.8898716"><ele>607.1</ele><time>2012-07-24T13:20:29.0000000+00:00</time></trkpt><trkpt lat="63.97954178" lon="-18.88735962"><ele>611.6</ele><time>2012-07-24T13:21:09.0000000+00:00</time></trkpt><trkpt lat="63.98016739" lon="-18.88586807"><ele>617.6</ele><time>2012-07-24T13:22:49.0000000+00:00</time></trkpt><trkpt lat="63.98019028" lon="-18.88227081"><ele>598.9</ele><time>2012-07-24T13:23:34.0000000+00:00</time></trkpt><trkpt lat="63.98059464" lon="-18.88160896"><ele>587.3</ele><time>2012-07-24T13:23:49.0000000+00:00</time></trkpt><trkpt lat="63.98074722" lon="-18.88060761"><ele>580.2</ele><time>2012-07-24T13:23:59.0000000+00:00</time></trkpt><trkpt lat="63.98027802" lon="-18.88021851"><ele>574.0</ele><time>2012-07-24T13:24:09.0000000+00:00</time></trkpt><trkpt lat="63.98034287" lon="-18.87979889"><ele>574.5</ele><time>2012-07-24T13:24:24.0000000+00:00</time></trkpt><trkpt lat="63.98015213" lon="-18.87975121"><ele>574.3</ele><time>2012-07-24T13:25:14.0000000+00:00</time></trkpt><trkpt lat="63.98027802" lon="-18.87860107"><ele>577.0</ele><time>2012-07-24T13:28:54.0000000+00:00</time></trkpt><trkpt lat="63.97938538" lon="-18.87645531"><ele>588.5</ele><time>2012-07-24T13:31:54.0000000+00:00</time></trkpt><trkpt lat="63.97933579" lon="-18.87597084"><ele>589.4</ele><time>2012-07-24T13:32:04.0000000+00:00</time></trkpt><trkpt lat="63.979496" lon="-18.87509728"><ele>593.8</ele><time>2012-07-24T13:32:19.0000000+00:00</time></trkpt><trkpt lat="63.9799614" lon="-18.87433815"><ele>590.6</ele><time>2012-07-24T13:32:39.0000000+00:00</time></trkpt><trkpt lat="63.98023605" lon="-18.87333107"><ele>592.2</ele><time>2012-07-24T13:32:59.0000000+00:00</time></trkpt><trkpt lat="63.9803772" lon="-18.86981583"><ele>586.6</ele><time>2012-07-24T13:33:49.0000000+00:00</time></trkpt><trkpt lat="63.98020935" lon="-18.86868858"><ele>579.8</ele><time>2012-07-24T13:34:04.0000000+00:00</time></trkpt><trkpt lat="63.98064041" lon="-18.86812592"><ele>577.9</ele><time>2012-07-24T13:34:14.0000000+00:00</time></trkpt><trkpt lat="63.98109055" lon="-18.86818123"><ele>579.2</ele><time>2012-07-24T13:35:34.0000000+00:00</time></trkpt><trkpt lat="63.98101425" lon="-18.86712837"><ele>585.2</ele><time>2012-07-24T13:36:09.0000000+00:00</time></trkpt><trkpt lat="63.98125458" lon="-18.86631775"><ele>583.3</ele><time>2012-07-24T13:36:39.0000000+00:00</time></trkpt><trkpt lat="63.98131561" lon="-18.8634243"><ele>576.7</ele><time>2012-07-24T13:37:14.0000000+00:00</time></trkpt><trkpt lat="63.98147202" lon="-18.86250305"><ele>576.5</ele><time>2012-07-24T13:37:34.0000000+00:00</time></trkpt><trkpt lat="63.98134613" lon="-18.86175346"><ele>579.7</ele><time>2012-07-24T13:37:59.0000000+00:00</time></trkpt><trkpt lat="63.9815979" lon="-18.86206818"><ele>576.5</ele><time>2012-07-24T13:54:04.0000000+00:00</time></trkpt><trkpt lat="63.98191071" lon="-18.86144257"><ele>576.3</ele><time>2012-07-24T13:54:24.0000000+00:00</time></trkpt><trkpt lat="63.9827652" lon="-18.85781479"><ele>578.7</ele><time>2012-07-24T13:55:19.0000000+00:00</time></trkpt><trkpt lat="63.98281479" lon="-18.8562355"><ele>585.0</ele><time>2012-07-24T13:55:59.0000000+00:00</time></trkpt><trkpt lat="63.98247147" lon="-18.85555267"><ele>591.7</ele><time>2012-07-24T13:56:44.0000000+00:00</time></trkpt><trkpt lat="63.98233795" lon="-18.85461998"><ele>595.5</ele><time>2012-07-24T13:57:24.0000000+00:00</time></trkpt><trkpt lat="63.98254776" lon="-18.85276032"><ele>591.6</ele><time>2012-07-24T13:58:19.0000000+00:00</time></trkpt><trkpt lat="63.98246002" lon="-18.8508606"><ele>586.2</ele><time>2012-07-24T13:58:34.0000000+00:00</time></trkpt><trkpt lat="63.98094559" lon="-18.8486824"><ele>584.8</ele><time>2012-07-24T13:59:29.0000000+00:00</time></trkpt><trkpt lat="63.98052979" lon="-18.84678268"><ele>581.9</ele><time>2012-07-24T13:59:44.0000000+00:00</time></trkpt><trkpt lat="63.97945404" lon="-18.84587479"><ele>587.2</ele><time>2012-07-24T14:00:34.0000000+00:00</time></trkpt><trkpt lat="63.97840881" lon="-18.84381294"><ele>584.8</ele><time>2012-07-24T14:01:24.0000000+00:00</time></trkpt><trkpt lat="63.97776032" lon="-18.84356308"><ele>578.1</ele><time>2012-07-24T14:01:34.0000000+00:00</time></trkpt><trkpt lat="63.97482681" lon="-18.84548187"><ele>579.2</ele><time>2012-07-24T14:02:49.0000000+00:00</time></trkpt><trkpt lat="63.974617" lon="-18.84428406"><ele>579.0</ele><time>2012-07-24T14:15:39.0000000+00:00</time></trkpt><trkpt lat="63.97441483" lon="-18.84394455"><ele>579.0</ele><time>2012-07-24T14:16:39.0000000+00:00</time></trkpt><trkpt lat="63.9745369" lon="-18.84331894"><ele>578.9</ele><time>2012-07-24T14:17:54.0000000+00:00</time></trkpt><trkpt lat="63.97432709" lon="-18.84081459"><ele>578.8</ele><time>2012-07-24T14:18:44.0000000+00:00</time></trkpt><trkpt lat="63.97437668" lon="-18.83834648"><ele>578.3</ele><time>2012-07-24T14:19:14.0000000+00:00</time></trkpt><trkpt lat="63.97219086" lon="-18.83007431"><ele>584.4</ele><time>2012-07-24T14:21:49.0000000+00:00</time></trkpt><trkpt lat="63.97135925" lon="-18.82785416"><ele>582.3</ele><time>2012-07-24T14:22:14.0000000+00:00</time></trkpt><trkpt lat="63.9709816" lon="-18.82598305"><ele>581.3</ele><time>2012-07-24T14:29:49.0000000+00:00</time></trkpt><trkpt lat="63.9707489" lon="-18.82365418"><ele>585.0</ele><time>2012-07-24T14:33:04.0000000+00:00</time></trkpt><trkpt lat="63.96820068" lon="-18.81961632"><ele>587.7</ele><time>2012-07-24T14:34:34.0000000+00:00</time></trkpt><trkpt lat="63.96821213" lon="-18.81864166"><ele>583.2</ele><time>2012-07-24T14:34:59.0000000+00:00</time></trkpt><trkpt lat="63.96817398" lon="-18.81906891"><ele>585.1</ele><time>2012-07-24T14:35:24.0000000+00:00</time></trkpt><trkpt lat="63.96838379" lon="-18.81846428"><ele>583.0</ele><time>2012-07-24T14:35:44.0000000+00:00</time></trkpt><trkpt lat="63.96811676" lon="-18.81723785"><ele>583.4</ele><time>2012-07-24T14:36:14.0000000+00:00</time></trkpt><trkpt lat="63.9681015" lon="-18.81641769"><ele>583.6</ele><time>2012-07-24T14:36:34.0000000+00:00</time></trkpt><trkpt lat="63.96844482" lon="-18.81682015"><ele>583.1</ele><time>2012-07-24T14:40:14.0000000+00:00</time></trkpt><trkpt lat="63.96820831" lon="-18.81649971"><ele>583.4</ele><time>2012-07-24T14:40:39.0000000+00:00</time></trkpt><trkpt lat="63.96841049" lon="-18.81678772"><ele>583.1</ele><time>2012-07-24T14:41:14.0000000+00:00</time></trkpt><trkpt lat="63.96853638" lon="-18.81659126"><ele>583.3</ele><time>2012-07-24T14:43:09.0000000+00:00</time></trkpt><trkpt lat="63.96835709" lon="-18.81564903"><ele>583.2</ele><time>2012-07-24T14:44:34.0000000+00:00</time></trkpt><trkpt lat="63.96856308" lon="-18.81402969"><ele>583.7</ele><time>2012-07-24T14:48:19.0000000+00:00</time></trkpt><trkpt lat="63.96936035" lon="-18.81078911"><ele>583.1</ele><time>2012-07-24T14:51:39.0000000+00:00</time></trkpt><trkpt lat="63.97045136" lon="-18.80839348"><ele>586.6</ele><time>2012-07-24T14:52:34.0000000+00:00</time></trkpt><trkpt lat="63.97013092" lon="-18.80563927"><ele>590.8</ele><time>2012-07-24T14:53:44.0000000+00:00</time></trkpt><trkpt lat="63.9702301" lon="-18.8030777"><ele>595.6</ele><time>2012-07-24T14:54:39.0000000+00:00</time></trkpt><trkpt lat="63.97087097" lon="-18.80011177"><ele>592.6</ele><time>2012-07-24T14:55:24.0000000+00:00</time></trkpt><trkpt lat="63.97139359" lon="-18.79834938"><ele>593.9</ele><time>2012-07-24T14:55:59.0000000+00:00</time></trkpt><trkpt lat="63.97213364" lon="-18.79711151"><ele>587.1</ele><time>2012-07-24T14:57:14.0000000+00:00</time></trkpt><trkpt lat="63.9726944" lon="-18.7940197"><ele>586.4</ele><time>2012-07-24T14:58:24.0000000+00:00</time></trkpt><trkpt lat="63.97392654" lon="-18.79181862"><ele>591.9</ele><time>2012-07-24T14:59:39.0000000+00:00</time></trkpt><trkpt lat="63.97458267" lon="-18.79008293"><ele>592.3</ele><time>2012-07-24T15:00:19.0000000+00:00</time></trkpt><trkpt lat="63.97548294" lon="-18.78727722"><ele>589.4</ele><time>2012-07-24T15:01:24.0000000+00:00</time></trkpt><trkpt lat="63.97578812" lon="-18.78566361"><ele>593.7</ele><time>2012-07-24T15:01:59.0000000+00:00</time></trkpt><trkpt lat="63.9764328" lon="-18.78428841"><ele>595.1</ele><time>2012-07-24T15:02:39.0000000+00:00</time></trkpt><trkpt lat="63.97703552" lon="-18.78216744"><ele>595.5</ele><time>2012-07-24T15:42:44.0000000+00:00</time></trkpt><trkpt lat="63.97784042" lon="-18.781353"><ele>593.0</ele><time>2012-07-24T15:46:24.0000000+00:00</time></trkpt><trkpt lat="63.97826767" lon="-18.78016281"><ele>606.0</ele><time>2012-07-24T15:47:09.0000000+00:00</time></trkpt><trkpt lat="63.97947311" lon="-18.7790966"><ele>594.0</ele><time>2012-07-24T15:48:04.0000000+00:00</time></trkpt><trkpt lat="63.98095703" lon="-18.77920723"><ele>595.9</ele><time>2012-07-24T15:49:04.0000000+00:00</time></trkpt><trkpt lat="63.98171616" lon="-18.77896118"><ele>596.6</ele><time>2012-07-24T15:50:29.0000000+00:00</time></trkpt><trkpt lat="63.98179245" lon="-18.77864456"><ele>596.4</ele><time>2012-07-24T15:51:19.0000000+00:00</time></trkpt><trkpt lat="63.98269653" lon="-18.77970886"><ele>597.7</ele><time>2012-07-24T15:52:44.0000000+00:00</time></trkpt><trkpt lat="63.98303986" lon="-18.77927399"><ele>599.6</ele><time>2012-07-24T15:52:59.0000000+00:00</time></trkpt><trkpt lat="63.98342133" lon="-18.77806854"><ele>605.4</ele><time>2012-07-24T15:53:34.0000000+00:00</time></trkpt><trkpt lat="63.98377991" lon="-18.77782059"><ele>600.8</ele><time>2012-07-24T15:53:49.0000000+00:00</time></trkpt><trkpt lat="63.98437119" lon="-18.77823067"><ele>599.7</ele><time>2012-07-24T15:54:14.0000000+00:00</time></trkpt><trkpt lat="63.98498154" lon="-18.77985001"><ele>602.0</ele><time>2012-07-24T15:54:59.0000000+00:00</time></trkpt><trkpt lat="63.98541641" lon="-18.77955055"><ele>607.9</ele><time>2012-07-24T15:55:29.0000000+00:00</time></trkpt><trkpt lat="63.98570252" lon="-18.77871323"><ele>610.7</ele><time>2012-07-24T15:55:54.0000000+00:00</time></trkpt><trkpt lat="63.9855957" lon="-18.77445793"><ele>621.5</ele><time>2012-07-24T15:57:49.0000000+00:00</time></trkpt><trkpt lat="63.98575974" lon="-18.77390671"><ele>627.3</ele><time>2012-07-24T15:58:59.0000000+00:00</time></trkpt><trkpt lat="63.98617935" lon="-18.7738266"><ele>631.8</ele><time>2012-07-24T16:00:24.0000000+00:00</time></trkpt><trkpt lat="63.98627853" lon="-18.7735157"><ele>635.5</ele><time>2012-07-24T16:00:49.0000000+00:00</time></trkpt><trkpt lat="63.98601914" lon="-18.77169609"><ele>641.6</ele><time>2012-07-24T16:03:34.0000000+00:00</time></trkpt><trkpt lat="63.98624039" lon="-18.77026749"><ele>647.8</ele><time>2012-07-24T16:04:59.0000000+00:00</time></trkpt><trkpt lat="63.98613358" lon="-18.76898003"><ele>656.2</ele><time>2012-07-24T16:05:39.0000000+00:00</time></trkpt><trkpt lat="63.98562622" lon="-18.76765442"><ele>666.4</ele><time>2012-07-24T16:07:14.0000000+00:00</time></trkpt><trkpt lat="63.98452759" lon="-18.76777077"><ele>674.5</ele><time>2012-07-24T16:09:14.0000000+00:00</time></trkpt><trkpt lat="63.98347092" lon="-18.76875687"><ele>676.8</ele><time>2012-07-24T16:10:14.0000000+00:00</time></trkpt><trkpt lat="63.98318481" lon="-18.77040672"><ele>680.4</ele><time>2012-07-24T16:10:54.0000000+00:00</time></trkpt><trkpt lat="63.98287201" lon="-18.77056694"><ele>682.5</ele><time>2012-07-24T16:11:44.0000000+00:00</time></trkpt><trkpt lat="63.98199844" lon="-18.76723671"><ele>710.9</ele><time>2012-07-24T16:17:14.0000000+00:00</time></trkpt><trkpt lat="63.98186493" lon="-18.76384544"><ele>701.2</ele><time>2012-07-24T16:19:44.0000000+00:00</time></trkpt><trkpt lat="63.98196793" lon="-18.76248932"><ele>696.5</ele><time>2012-07-24T16:19:59.0000000+00:00</time></trkpt><trkpt lat="63.98160553" lon="-18.76081657"><ele>691.6</ele><time>2012-07-24T16:20:09.0000000+00:00</time></trkpt><trkpt lat="63.98120117" lon="-18.75998879"><ele>692.2</ele><time>2012-07-24T16:20:19.0000000+00:00</time></trkpt><trkpt lat="63.97994614" lon="-18.7591095"><ele>691.2</ele><time>2012-07-24T16:20:59.0000000+00:00</time></trkpt><trkpt lat="63.97896195" lon="-18.75627708"><ele>685.8</ele><time>2012-07-24T16:24:39.0000000+00:00</time></trkpt><trkpt lat="63.97791672" lon="-18.75445175"><ele>676.8</ele><time>2012-07-24T16:25:04.0000000+00:00</time></trkpt><trkpt lat="63.97669601" lon="-18.75120354"><ele>663.2</ele><time>2012-07-24T16:26:19.0000000+00:00</time></trkpt><trkpt lat="63.97603226" lon="-18.75003243"><ele>658.2</ele><time>2012-07-24T16:26:34.0000000+00:00</time></trkpt><trkpt lat="63.97536087" lon="-18.74716568"><ele>644.0</ele><time>2012-07-24T16:27:09.0000000+00:00</time></trkpt><trkpt lat="63.97487259" lon="-18.7460537"><ele>637.3</ele><time>2012-07-24T16:27:29.0000000+00:00</time></trkpt><trkpt lat="63.97216034" lon="-18.74157143"><ele>622.2</ele><time>2012-07-24T16:28:19.0000000+00:00</time></trkpt><trkpt lat="63.97064972" lon="-18.73993874"><ele>622.0</ele><time>2012-07-24T16:29:09.0000000+00:00</time></trkpt><trkpt lat="63.97063446" lon="-18.74034119"><ele>622.8</ele><time>2012-07-24T16:29:49.0000000+00:00</time></trkpt><trkpt lat="63.97063446" lon="-18.73995209"><ele>622.0</ele><time>2012-07-24T16:31:14.0000000+00:00</time></trkpt><trkpt lat="63.96867752" lon="-18.73786545"><ele>622.7</ele><time>2012-07-24T16:34:29.0000000+00:00</time></trkpt><trkpt lat="63.96743393" lon="-18.7376194"><ele>622.8</ele><time>2012-07-24T16:35:09.0000000+00:00</time></trkpt><trkpt lat="63.96630096" lon="-18.73620987"><ele>629.4</ele><time>2012-07-24T16:36:19.0000000+00:00</time></trkpt><trkpt lat="63.96559906" lon="-18.73570252"><ele>632.6</ele><time>2012-07-24T16:37:09.0000000+00:00</time></trkpt><trkpt lat="63.96470261" lon="-18.73417282"><ele>645.5</ele><time>2012-07-24T16:39:04.0000000+00:00</time></trkpt><trkpt lat="63.96399307" lon="-18.73204422"><ele>657.5</ele><time>2012-07-24T16:42:09.0000000+00:00</time></trkpt><trkpt lat="63.96321106" lon="-18.72819519"><ele>658.2</ele><time>2012-07-24T16:45:29.0000000+00:00</time></trkpt><trkpt lat="63.9621048" lon="-18.72615814"><ele>651.9</ele><time>2012-07-24T16:45:59.0000000+00:00</time></trkpt><trkpt lat="63.96139145" lon="-18.72362328"><ele>656.6</ele><time>2012-07-24T16:46:59.0000000+00:00</time></trkpt><trkpt lat="63.96156693" lon="-18.72155571"><ele>661.0</ele><time>2012-07-24T16:48:04.0000000+00:00</time></trkpt><trkpt lat="63.96109772" lon="-18.71999931"><ele>656.1</ele><time>2012-07-24T16:48:29.0000000+00:00</time></trkpt><trkpt lat="63.96107101" lon="-18.71894074"><ele>657.1</ele><time>2012-07-24T16:48:39.0000000+00:00</time></trkpt><trkpt lat="63.96124268" lon="-18.71816063"><ele>660.5</ele><time>2012-07-24T16:49:04.0000000+00:00</time></trkpt><trkpt lat="63.96225739" lon="-18.71587944"><ele>663.5</ele><time>2012-07-24T16:53:54.0000000+00:00</time></trkpt><trkpt lat="63.96112824" lon="-18.71871948"><ele>658.3</ele><time>2012-07-24T16:59:24.0000000+00:00</time></trkpt><trkpt lat="63.96111298" lon="-18.71998024"><ele>656.1</ele><time>2012-07-24T16:59:34.0000000+00:00</time></trkpt><trkpt lat="63.96160889" lon="-18.7217617"><ele>661.5</ele><time>2012-07-24T17:00:24.0000000+00:00</time></trkpt><trkpt lat="63.96144104" lon="-18.72376823"><ele>656.1</ele><time>2012-07-24T17:00:44.0000000+00:00</time></trkpt><trkpt lat="63.9621582" lon="-18.72627831"><ele>651.8</ele><time>2012-07-24T17:01:04.0000000+00:00</time></trkpt><trkpt lat="63.9632225" lon="-18.7281704"><ele>658.4</ele><time>2012-07-24T17:02:24.0000000+00:00</time></trkpt><trkpt lat="63.96403885" lon="-18.73197937"><ele>657.6</ele><time>2012-07-24T17:03:44.0000000+00:00</time></trkpt><trkpt lat="63.96472168" lon="-18.73410416"><ele>645.7</ele><time>2012-07-24T17:04:04.0000000+00:00</time></trkpt><trkpt lat="63.9654808" lon="-18.73550606"><ele>633.8</ele><time>2012-07-24T17:04:14.0000000+00:00</time></trkpt><trkpt lat="63.96740341" lon="-18.73761749"><ele>622.9</ele><time>2012-07-24T17:04:39.0000000+00:00</time></trkpt><trkpt lat="63.96889114" lon="-18.73800278"><ele>622.2</ele><time>2012-07-24T17:05:29.0000000+00:00</time></trkpt><trkpt lat="63.97279739" lon="-18.74238968"><ele>623.0</ele><time>2012-07-24T17:08:09.0000000+00:00</time></trkpt><trkpt lat="63.97328949" lon="-18.74357796"><ele>625.5</ele><time>2012-07-24T17:08:44.0000000+00:00</time></trkpt><trkpt lat="63.97513199" lon="-18.74650002"><ele>639.3</ele><time>2012-07-24T17:10:54.0000000+00:00</time></trkpt><trkpt lat="63.97591782" lon="-18.74963951"><ele>656.2</ele><time>2012-07-24T17:13:24.0000000+00:00</time></trkpt><trkpt lat="63.97689819" lon="-18.75157929"><ele>663.7</ele><time>2012-07-24T17:15:34.0000000+00:00</time></trkpt><trkpt lat="63.97811508" lon="-18.75486755"><ele>677.8</ele><time>2012-07-24T17:18:44.0000000+00:00</time></trkpt><trkpt lat="63.97910309" lon="-18.75658608"><ele>685.7</ele><time>2012-07-24T17:19:49.0000000+00:00</time></trkpt><trkpt lat="63.97971726" lon="-18.75837517"><ele>689.9</ele><time>2012-07-24T17:20:34.0000000+00:00</time></trkpt><trkpt lat="63.97900391" lon="-18.75874519"><ele>689.3</ele><time>2012-07-24T17:24:09.0000000+00:00</time></trkpt><trkpt lat="63.97772217" lon="-18.76011467"><ele>692.5</ele><time>2012-07-24T17:26:54.0000000+00:00</time></trkpt><trkpt lat="63.97695923" lon="-18.76214218"><ele>697.6</ele><time>2012-07-24T17:28:39.0000000+00:00</time></trkpt><trkpt lat="63.97599793" lon="-18.76324463"><ele>701.0</ele><time>2012-07-24T17:30:04.0000000+00:00</time></trkpt><trkpt lat="63.97556305" lon="-18.76485825"><ele>704.5</ele><time>2012-07-24T17:30:54.0000000+00:00</time></trkpt><trkpt lat="63.97458267" lon="-18.76573753"><ele>702.8</ele><time>2012-07-24T17:33:24.0000000+00:00</time></trkpt><trkpt lat="63.97437286" lon="-18.76816559"><ele>695.1</ele><time>2012-07-24T17:34:24.0000000+00:00</time></trkpt><trkpt lat="63.9737587" lon="-18.77109528"><ele>685.5</ele><time>2012-07-24T17:35:14.0000000+00:00</time></trkpt><trkpt lat="63.97289276" lon="-18.77058792"><ele>682.9</ele><time>2012-07-24T17:35:49.0000000+00:00</time></trkpt><trkpt lat="63.97206497" lon="-18.77039337"><ele>688.9</ele><time>2012-07-24T17:37:49.0000000+00:00</time></trkpt><trkpt lat="63.97137451" lon="-18.7706089"><ele>688.7</ele><time>2012-07-24T17:38:44.0000000+00:00</time></trkpt><trkpt lat="63.97117615" lon="-18.77033615"><ele>687.2</ele><time>2012-07-24T17:39:34.0000000+00:00</time></trkpt><trkpt lat="63.96929932" lon="-18.76369667"><ele>656.1</ele><time>2012-07-24T17:42:19.0000000+00:00</time></trkpt><trkpt lat="63.96836853" lon="-18.76222038"><ele>651.6</ele><time>2012-07-24T17:43:04.0000000+00:00</time></trkpt><trkpt lat="63.96771622" lon="-18.75986671"><ele>647.2</ele><time>2012-07-24T17:44:09.0000000+00:00</time></trkpt><trkpt lat="63.96705246" lon="-18.75952339"><ele>641.9</ele><time>2012-07-24T17:44:39.0000000+00:00</time></trkpt><trkpt lat="63.96696472" lon="-18.75862122"><ele>643.1</ele><time>2012-07-24T17:47:19.0000000+00:00</time></trkpt><trkpt lat="63.96649933" lon="-18.75805283"><ele>645.5</ele><time>2012-07-24T17:49:09.0000000+00:00</time></trkpt><trkpt lat="63.96667099" lon="-18.75683594"><ele>643.8</ele><time>2012-07-24T17:49:54.0000000+00:00</time></trkpt><trkpt lat="63.96622849" lon="-18.75441933"><ele>643.0</ele><time>2012-07-24T17:50:39.0000000+00:00</time></trkpt><trkpt lat="63.96629334" lon="-18.75179863"><ele>652.2</ele><time>2012-07-24T17:53:04.0000000+00:00</time></trkpt><trkpt lat="63.96509552" lon="-18.75124168"><ele>665.5</ele><time>2012-07-24T17:59:44.0000000+00:00</time></trkpt><trkpt lat="63.96489334" lon="-18.75029182"><ele>666.2</ele><time>2012-07-24T18:00:09.0000000+00:00</time></trkpt><trkpt lat="63.96419907" lon="-18.74886894"><ele>671.4</ele><time>2012-07-24T18:00:59.0000000+00:00</time></trkpt><trkpt lat="63.96387482" lon="-18.74719238"><ele>667.4</ele><time>2012-07-24T18:02:44.0000000+00:00</time></trkpt><trkpt lat="63.96292877" lon="-18.74481773"><ele>658.3</ele><time>2012-07-24T18:05:09.0000000+00:00</time></trkpt><trkpt lat="63.96101761" lon="-18.74254799"><ele>654.2</ele><time>2012-07-24T18:06:39.0000000+00:00</time></trkpt><trkpt lat="63.96078491" lon="-18.74197769"><ele>646.9</ele><time>2012-07-24T18:06:49.0000000+00:00</time></trkpt><trkpt lat="63.96082687" lon="-18.74155426"><ele>643.7</ele><time>2012-07-24T18:06:54.0000000+00:00</time></trkpt><trkpt lat="63.96125794" lon="-18.74054146"><ele>640.6</ele><time>2012-07-24T18:07:09.0000000+00:00</time></trkpt><trkpt lat="63.96128845" lon="-18.74004936"><ele>641.3</ele><time>2012-07-24T18:07:39.0000000+00:00</time></trkpt><trkpt lat="63.96068955" lon="-18.74011231"><ele>644.7</ele><time>2012-07-24T18:10:34.0000000+00:00</time></trkpt><trkpt lat="63.95970154" lon="-18.74110794"><ele>656.2</ele><time>2012-07-24T18:13:44.0000000+00:00</time></trkpt><trkpt lat="63.95862961" lon="-18.74137116"><ele>658.8</ele><time>2012-07-24T18:15:29.0000000+00:00</time></trkpt><trkpt lat="63.95741272" lon="-18.74110794"><ele>660.0</ele><time>2012-07-24T18:16:39.0000000+00:00</time></trkpt><trkpt lat="63.95621109" lon="-18.74005127"><ele>656.3</ele><time>2012-07-24T18:17:59.0000000+00:00</time></trkpt><trkpt lat="63.95497513" lon="-18.74078369"><ele>671.8</ele><time>2012-07-24T18:21:59.0000000+00:00</time></trkpt><trkpt lat="63.95471573" lon="-18.73982048"><ele>672.8</ele><time>2012-07-24T18:24:29.0000000+00:00</time></trkpt><trkpt lat="63.95344544" lon="-18.73893166"><ele>658.4</ele><time>2012-07-24T18:25:19.0000000+00:00</time></trkpt><trkpt lat="63.95290756" lon="-18.73915863"><ele>649.5</ele><time>2012-07-24T18:25:39.0000000+00:00</time></trkpt><trkpt lat="63.95251846" lon="-18.73764229"><ele>648.7</ele><time>2012-07-24T18:26:09.0000000+00:00</time></trkpt><trkpt lat="63.95174408" lon="-18.73604965"><ele>646.8</ele><time>2012-07-24T18:27:54.0000000+00:00</time></trkpt><trkpt lat="63.95072556" lon="-18.73512459"><ele>651.7</ele><time>2012-07-24T18:31:29.0000000+00:00</time></trkpt><trkpt lat="63.95043564" lon="-18.73634338"><ele>657.0</ele><time>2012-07-24T18:32:54.0000000+00:00</time></trkpt><trkpt lat="63.94996262" lon="-18.73740959"><ele>661.8</ele><time>2012-07-24T18:34:29.0000000+00:00</time></trkpt><trkpt lat="63.94970703" lon="-18.74010468"><ele>666.6</ele><time>2012-07-24T18:36:39.0000000+00:00</time></trkpt><trkpt lat="63.9493103" lon="-18.7397747"><ele>666.8</ele><time>2012-07-24T18:36:54.0000000+00:00</time></trkpt><trkpt lat="63.94826508" lon="-18.73968506"><ele>662.4</ele><time>2012-07-24T18:39:09.0000000+00:00</time></trkpt><trkpt lat="63.94646454" lon="-18.73496056"><ele>625.0</ele><time>2012-07-24T18:42:04.0000000+00:00</time></trkpt><trkpt lat="63.94589996" lon="-18.73413658"><ele>621.9</ele><time>2012-07-24T18:43:24.0000000+00:00</time></trkpt><trkpt lat="63.94511795" lon="-18.73652077"><ele>637.3</ele><time>2012-07-24T18:47:34.0000000+00:00</time></trkpt><trkpt lat="63.94467163" lon="-18.7367115"><ele>640.0</ele><time>2012-07-24T18:48:34.0000000+00:00</time></trkpt><trkpt lat="63.94389725" lon="-18.73590469"><ele>632.6</ele><time>2012-07-24T18:49:09.0000000+00:00</time></trkpt><trkpt lat="63.94355393" lon="-18.73459625"><ele>621.9</ele><time>2012-07-24T18:49:34.0000000+00:00</time></trkpt><trkpt lat="63.94290543" lon="-18.73345184"><ele>613.1</ele><time>2012-07-24T18:50:04.0000000+00:00</time></trkpt><trkpt lat="63.94208527" lon="-18.73322868"><ele>615.8</ele><time>2012-07-24T18:53:14.0000000+00:00</time></trkpt><trkpt lat="63.9418602" lon="-18.73237228"><ele>611.4</ele><time>2012-07-24T18:54:24.0000000+00:00</time></trkpt><trkpt lat="63.94185638" lon="-18.73119545"><ele>610.3</ele><time>2012-07-24T18:55:29.0000000+00:00</time></trkpt><trkpt lat="63.94156265" lon="-18.7294445"><ele>604.6</ele><time>2012-07-24T19:00:24.0000000+00:00</time></trkpt><trkpt lat="63.94094086" lon="-18.72738838"><ele>599.2</ele><time>2012-07-24T19:08:09.0000000+00:00</time></trkpt><trkpt lat="63.93960571" lon="-18.72616768"><ele>579.0</ele><time>2012-07-24T19:09:09.0000000+00:00</time></trkpt><trkpt lat="63.93835068" lon="-18.72628784"><ele>569.6</ele><time>2012-07-24T19:09:44.0000000+00:00</time></trkpt><trkpt lat="63.93751907" lon="-18.7259655"><ele>563.8</ele><time>2012-07-24T19:10:19.0000000+00:00</time></trkpt><trkpt lat="63.9371376" lon="-18.72527695"><ele>551.9</ele><time>2012-07-24T19:11:14.0000000+00:00</time></trkpt><trkpt lat="63.93733597" lon="-18.7235508"><ele>546.2</ele><time>2012-07-24T19:15:29.0000000+00:00</time></trkpt><trkpt lat="63.93717957" lon="-18.72338677"><ele>549.8</ele><time>2012-07-24T19:17:54.0000000+00:00</time></trkpt><trkpt lat="63.93724823" lon="-18.72255516"><ele>547.9</ele><time>2012-07-24T19:18:44.0000000+00:00</time></trkpt><trkpt lat="63.93690491" lon="-18.72180748"><ele>549.1</ele><time>2012-07-24T19:19:44.0000000+00:00</time></trkpt><trkpt lat="63.9368515" lon="-18.72083855"><ele>545.9</ele><time>2012-07-24T19:20:44.0000000+00:00</time></trkpt><trkpt lat="63.93644333" lon="-18.72117424"><ele>547.6</ele><time>2012-07-24T19:23:34.0000000+00:00</time></trkpt><trkpt lat="63.93628693" lon="-18.7221241"><ele>550.7</ele><time>2012-07-24T19:25:54.0000000+00:00</time></trkpt><trkpt lat="63.9364624" lon="-18.72324562"><ele>559.9</ele><time>2012-07-24T19:27:34.0000000+00:00</time></trkpt><trkpt lat="63.93637848" lon="-18.72407723"><ele>562.1</ele><time>2012-07-24T19:29:09.0000000+00:00</time></trkpt><trkpt lat="63.9358902" lon="-18.72555351"><ele>575.9</ele><time>2012-07-24T19:32:09.0000000+00:00</time></trkpt><trkpt lat="63.93554306" lon="-18.72604752"><ele>585.8</ele><time>2012-07-24T19:33:44.0000000+00:00</time></trkpt><trkpt lat="63.93538284" lon="-18.72698021"><ele>592.3</ele><time>2012-07-24T19:35:19.0000000+00:00</time></trkpt><trkpt lat="63.93467712" lon="-18.7281189"><ele>599.0</ele><time>2012-07-24T19:37:14.0000000+00:00</time></trkpt><trkpt lat="63.93440628" lon="-18.73091888"><ele>605.7</ele><time>2012-07-24T19:45:29.0000000+00:00</time></trkpt><trkpt lat="63.93447113" lon="-18.73238945"><ele>610.8</ele><time>2012-07-24T19:46:59.0000000+00:00</time></trkpt><trkpt lat="63.93413925" lon="-18.73674202"><ele>619.4</ele><time>2012-07-24T19:53:14.0000000+00:00</time></trkpt><trkpt lat="63.93299103" lon="-18.73853493"><ele>623.2</ele><time>2012-07-24T19:55:14.0000000+00:00</time></trkpt><trkpt lat="63.93190002" lon="-18.73879051"><ele>620.2</ele><time>2012-07-24T19:56:19.0000000+00:00</time></trkpt><trkpt lat="63.93119812" lon="-18.73963356"><ele>603.1</ele><time>2012-07-24T19:56:54.0000000+00:00</time></trkpt><trkpt lat="63.93067551" lon="-18.73936844"><ele>596.3</ele><time>2012-07-24T20:00:19.0000000+00:00</time></trkpt><trkpt lat="63.93050766" lon="-18.73881531"><ele>598.3</ele><time>2012-07-24T20:03:09.0000000+00:00</time></trkpt><trkpt lat="63.93046188" lon="-18.73706055"><ele>597.1</ele><time>2012-07-24T20:04:44.0000000+00:00</time></trkpt><trkpt lat="63.93008041" lon="-18.73586083"><ele>599.3</ele><time>2012-07-24T20:05:44.0000000+00:00</time></trkpt><trkpt lat="63.92976379" lon="-18.73405457"><ele>602.8</ele><time>2012-07-24T20:06:49.0000000+00:00</time></trkpt><trkpt lat="63.92847443" lon="-18.73164558"><ele>624.0</ele><time>2012-07-24T20:13:34.0000000+00:00</time></trkpt><trkpt lat="63.92856216" lon="-18.73107147"><ele>624.4</ele><time>2012-07-24T20:13:59.0000000+00:00</time></trkpt><trkpt lat="63.92999268" lon="-18.72821808"><ele>614.1</ele><time>2012-07-24T20:15:44.0000000+00:00</time></trkpt><trkpt lat="63.93021393" lon="-18.72665215"><ele>615.4</ele><time>2012-07-24T20:17:19.0000000+00:00</time></trkpt><trkpt lat="63.92926025" lon="-18.72414589"><ele>599.0</ele><time>2012-07-24T20:18:14.0000000+00:00</time></trkpt><trkpt lat="63.92893982" lon="-18.72278786"><ele>589.4</ele><time>2012-07-24T20:18:44.0000000+00:00</time></trkpt><trkpt lat="63.92874908" lon="-18.72052383"><ele>564.9</ele><time>2012-07-24T20:27:49.0000000+00:00</time></trkpt><trkpt lat="63.9290657" lon="-18.71925926"><ele>562.7</ele><time>2012-07-24T20:28:14.0000000+00:00</time></trkpt><trkpt lat="63.92903137" lon="-18.71889496"><ele>563.2</ele><time>2012-07-24T20:28:29.0000000+00:00</time></trkpt><trkpt lat="63.9283905" lon="-18.71813965"><ele>563.9</ele><time>2012-07-24T20:29:14.0000000+00:00</time></trkpt><trkpt lat="63.92778015" lon="-18.71691513"><ele>564.3</ele><time>2012-07-24T20:29:59.0000000+00:00</time></trkpt><trkpt lat="63.92642212" lon="-18.71112061"><ele>565.4</ele><time>2012-07-24T20:32:09.0000000+00:00</time></trkpt><trkpt lat="63.92636108" lon="-18.70997238"><ele>565.7</ele><time>2012-07-24T20:32:34.0000000+00:00</time></trkpt><trkpt lat="63.92736435" lon="-18.70645332"><ele>564.5</ele><time>2012-07-24T20:33:44.0000000+00:00</time></trkpt><trkpt lat="63.92747116" lon="-18.70463753"><ele>566.6</ele><time>2012-07-24T20:34:24.0000000+00:00</time></trkpt><trkpt lat="63.92705917" lon="-18.70346832"><ele>566.6</ele><time>2012-07-24T20:35:19.0000000+00:00</time></trkpt><trkpt lat="63.92634583" lon="-18.70328713"><ele>569.3</ele><time>2012-07-24T20:37:14.0000000+00:00</time></trkpt><trkpt lat="63.92660141" lon="-18.70324326"><ele>566.6</ele><time>2012-07-24T20:37:49.0000000+00:00</time></trkpt><trkpt lat="63.92662811" lon="-18.70282173"><ele>566.4</ele><time>2012-07-24T20:38:09.0000000+00:00</time></trkpt><trkpt lat="63.92628479" lon="-18.70143318"><ele>566.8</ele><time>2012-07-24T20:38:59.0000000+00:00</time></trkpt><trkpt lat="63.92591095" lon="-18.70083237"><ele>568.0</ele><time>2012-07-24T20:39:59.0000000+00:00</time></trkpt><trkpt lat="63.92494202" lon="-18.70040703"><ele>583.5</ele><time>2012-07-24T20:43:19.0000000+00:00</time></trkpt><trkpt lat="63.9240303" lon="-18.69955063"><ele>601.1</ele><time>2012-07-24T20:47:34.0000000+00:00</time></trkpt><trkpt lat="63.92329025" lon="-18.69968605"><ele>613.2</ele><time>2012-07-24T20:50:34.0000000+00:00</time></trkpt><trkpt lat="63.9223671" lon="-18.69796944"><ele>625.6</ele><time>2012-07-24T20:55:19.0000000+00:00</time></trkpt><trkpt lat="63.92086792" lon="-18.69667053"><ele>628.8</ele><time>2012-07-24T20:58:29.0000000+00:00</time></trkpt><trkpt lat="63.9202652" lon="-18.69864655"><ele>633.1</ele><time>2012-07-24T21:00:49.0000000+00:00</time></trkpt><trkpt lat="63.92021179" lon="-18.6984272"><ele>632.4</ele><time>2012-07-24T21:05:34.0000000+00:00</time></trkpt><trkpt lat="63.92004776" lon="-18.69917297"><ele>631.3</ele><time>2012-07-24T21:07:44.0000000+00:00</time></trkpt><trkpt lat="63.91928101" lon="-18.70070458"><ele>621.3</ele><time>2012-07-24T21:08:09.0000000+00:00</time></trkpt><trkpt lat="63.91882324" lon="-18.70262909"><ele>616.9</ele><time>2012-07-24T21:08:24.0000000+00:00</time></trkpt><trkpt lat="63.91827393" lon="-18.70262718"><ele>612.6</ele><time>2012-07-24T21:08:44.0000000+00:00</time></trkpt><trkpt lat="63.91800308" lon="-18.70298576"><ele>609.3</ele><time>2012-07-24T21:08:54.0000000+00:00</time></trkpt><trkpt lat="63.91795731" lon="-18.70406914"><ele>606.1</ele><time>2012-07-24T21:09:04.0000000+00:00</time></trkpt><trkpt lat="63.91832352" lon="-18.70701599"><ele>601.5</ele><time>2012-07-24T21:09:34.0000000+00:00</time></trkpt><trkpt lat="63.91821671" lon="-18.70827103"><ele>596.2</ele><time>2012-07-24T21:09:49.0000000+00:00</time></trkpt><trkpt lat="63.91842651" lon="-18.70940399"><ele>591.8</ele><time>2012-07-24T21:09:59.0000000+00:00</time></trkpt><trkpt lat="63.91900635" lon="-18.71084213"><ele>594.5</ele><time>2012-07-24T21:10:59.0000000+00:00</time></trkpt><trkpt lat="63.91880035" lon="-18.71145058"><ele>589.8</ele><time>2012-07-24T21:11:39.0000000+00:00</time></trkpt><trkpt lat="63.91766357" lon="-18.71276474"><ele>580.9</ele><time>2012-07-24T21:11:59.0000000+00:00</time></trkpt><trkpt lat="63.91703033" lon="-18.71310425"><ele>578.0</ele><time>2012-07-24T21:12:09.0000000+00:00</time></trkpt><trkpt lat="63.91611481" lon="-18.71286202"><ele>573.5</ele><time>2012-07-24T21:12:29.0000000+00:00</time></trkpt><trkpt lat="63.9154129" lon="-18.71373367"><ele>573.5</ele><time>2012-07-24T21:12:49.0000000+00:00</time></trkpt><trkpt lat="63.91424561" lon="-18.71454239"><ele>574.4</ele><time>2012-07-24T21:13:19.0000000+00:00</time></trkpt><trkpt lat="63.91260529" lon="-18.71523094"><ele>570.5</ele><time>2012-07-24T21:16:04.0000000+00:00</time></trkpt><trkpt lat="63.91141129" lon="-18.71513557"><ele>566.8</ele><time>2012-07-24T21:16:29.0000000+00:00</time></trkpt><trkpt lat="63.91015625" lon="-18.71457291"><ele>563.3</ele><time>2012-07-24T21:16:54.0000000+00:00</time></trkpt><trkpt lat="63.90967941" lon="-18.71386719"><ele>558.8</ele><time>2012-07-24T21:17:09.0000000+00:00</time></trkpt><trkpt lat="63.9078331" lon="-18.7131424"><ele>542.7</ele><time>2012-07-24T21:17:39.0000000+00:00</time></trkpt><trkpt lat="63.90681076" lon="-18.71191406"><ele>538.2</ele><time>2012-07-24T21:17:59.0000000+00:00</time></trkpt><trkpt lat="63.90503311" lon="-18.71140862"><ele>521.9</ele><time>2012-07-24T21:18:29.0000000+00:00</time></trkpt><trkpt lat="63.90429688" lon="-18.7107029"><ele>518.5</ele><time>2012-07-24T21:18:39.0000000+00:00</time></trkpt><trkpt lat="63.9021492" lon="-18.70739174"><ele>487.3</ele><time>2012-07-24T21:19:14.0000000+00:00</time></trkpt><trkpt lat="63.89946747" lon="-18.70575905"><ele>478.4</ele><time>2012-07-24T21:20:29.0000000+00:00</time></trkpt><trkpt lat="63.89917755" lon="-18.70584488"><ele>475.9</ele><time>2012-07-24T21:20:39.0000000+00:00</time></trkpt><trkpt lat="63.89896774" lon="-18.7064724"><ele>475.0</ele><time>2012-07-24T21:20:59.0000000+00:00</time></trkpt><trkpt lat="63.89923477" lon="-18.70757103"><ele>479.8</ele><time>2012-07-24T21:21:19.0000000+00:00</time></trkpt><trkpt lat="63.89888001" lon="-18.70841599"><ele>479.0</ele><time>2012-07-24T21:21:54.0000000+00:00</time></trkpt><trkpt lat="63.89891815" lon="-18.70731926"><ele>478.4</ele><time>2012-07-24T21:24:29.0000000+00:00</time></trkpt><trkpt lat="63.8988266" lon="-18.70685196"><ele>476.1</ele><time>2012-07-24T21:24:44.0000000+00:00</time></trkpt><trkpt lat="63.89871597" lon="-18.70691299"><ele>476.6</ele><time>2012-07-24T21:25:09.0000000+00:00</time></trkpt><trkpt lat="63.89889145" lon="-18.70825768"><ele>479.2</ele><time>2012-07-24T21:26:49.0000000+00:00</time></trkpt><trkpt lat="63.89889526" lon="-18.70706558"><ele>477.0</ele><time>2012-07-24T21:27:19.0000000+00:00</time></trkpt><trkpt lat="63.89876175" lon="-18.70658875"><ele>476.0</ele><time>2012-07-24T21:27:39.0000000+00:00</time></trkpt><trkpt lat="63.89855957" lon="-18.70658684"><ele>479.1</ele><time>2012-07-24T21:28:09.0000000+00:00</time></trkpt><trkpt lat="63.89857864" lon="-18.70553207"><ele>479.1</ele><time>2012-07-24T21:29:24.0000000+00:00</time></trkpt><trkpt lat="63.89711762" lon="-18.70367622"><ele>482.2</ele><time>2012-07-24T21:31:09.0000000+00:00</time></trkpt><trkpt lat="63.89699173" lon="-18.70317841"><ele>481.8</ele><time>2012-07-24T21:31:19.0000000+00:00</time></trkpt><trkpt lat="63.89736176" lon="-18.69942665"><ele>479.0</ele><time>2012-07-24T21:32:04.0000000+00:00</time></trkpt><trkpt lat="63.8978157" lon="-18.69780922"><ele>478.0</ele><time>2012-07-24T21:32:34.0000000+00:00</time></trkpt><trkpt lat="63.89767838" lon="-18.69653702"><ele>472.6</ele><time>2012-07-24T21:32:49.0000000+00:00</time></trkpt><trkpt lat="63.89799118" lon="-18.69425392"><ele>461.5</ele><time>2012-07-24T21:34:59.0000000+00:00</time></trkpt><trkpt lat="63.89776993" lon="-18.69344521"><ele>447.0</ele><time>2012-07-24T21:36:04.0000000+00:00</time></trkpt><trkpt lat="63.89785004" lon="-18.69306755"><ele>446.5</ele><time>2012-07-24T21:36:44.0000000+00:00</time></trkpt><trkpt lat="63.89768982" lon="-18.6918869"><ele>445.2</ele><time>2012-07-24T21:37:49.0000000+00:00</time></trkpt><trkpt lat="63.897995" lon="-18.69046593"><ele>443.9</ele><time>2012-07-24T21:40:24.0000000+00:00</time></trkpt><trkpt lat="63.89792633" lon="-18.69111633"><ele>445.0</ele><time>2012-07-24T21:41:29.0000000+00:00</time></trkpt><trkpt lat="63.89787674" lon="-18.69068146"><ele>444.3</ele><time>2012-07-24T21:44:34.0000000+00:00</time></trkpt></trkseg><trkseg><trkpt lat="63.89785004" lon="-18.69068718"><ele>444.3</ele><time>2012-07-25T12:03:52.0000000+00:00</time></trkpt><trkpt lat="63.89780808" lon="-18.69047165"><ele>443.7</ele><time>2012-07-25T12:04:07.0000000+00:00</time></trkpt><trkpt lat="63.89759445" lon="-18.69077873"><ele>443.6</ele><time>2012-07-25T12:04:37.0000000+00:00</time></trkpt><trkpt lat="63.89784241" lon="-18.69073868"><ele>444.4</ele><time>2012-07-25T12:05:57.0000000+00:00</time></trkpt><trkpt lat="63.89765549" lon="-18.69182396"><ele>444.9</ele><time>2012-07-25T12:07:07.0000000+00:00</time></trkpt><trkpt lat="63.89780808" lon="-18.69311523"><ele>446.1</ele><time>2012-07-25T12:08:37.0000000+00:00</time></trkpt><trkpt lat="63.89775848" lon="-18.69450378"><ele>456.0</ele><time>2012-07-25T12:11:47.0000000+00:00</time></trkpt><trkpt lat="63.89702225" lon="-18.69832611"><ele>470.3</ele><time>2012-07-25T12:15:02.0000000+00:00</time></trkpt><trkpt lat="63.89692307" lon="-18.69976807"><ele>480.3</ele><time>2012-07-25T12:15:37.0000000+00:00</time></trkpt><trkpt lat="63.89707947" lon="-18.70241928"><ele>480.3</ele><time>2012-07-25T12:16:42.0000000+00:00</time></trkpt><trkpt lat="63.89692688" lon="-18.70335388"><ele>482.2</ele><time>2012-07-25T12:17:07.0000000+00:00</time></trkpt><trkpt lat="63.89624023" lon="-18.70123291"><ele>484.0</ele><time>2012-07-25T12:21:32.0000000+00:00</time></trkpt><trkpt lat="63.89587021" lon="-18.70059586"><ele>486.4</ele><time>2012-07-25T12:21:57.0000000+00:00</time></trkpt><trkpt lat="63.89543915" lon="-18.70024681"><ele>486.0</ele><time>2012-07-25T12:22:17.0000000+00:00</time></trkpt><trkpt lat="63.89406967" lon="-18.70006752"><ele>482.8</ele><time>2012-07-25T12:22:57.0000000+00:00</time></trkpt><trkpt lat="63.89356232" lon="-18.70036125"><ele>482.2</ele><time>2012-07-25T12:23:17.0000000+00:00</time></trkpt><trkpt lat="63.89260101" lon="-18.70200348"><ele>481.4</ele><time>2012-07-25T12:23:57.0000000+00:00</time></trkpt><trkpt lat="63.8915863" lon="-18.70299912"><ele>482.1</ele><time>2012-07-25T12:27:22.0000000+00:00</time></trkpt><trkpt lat="63.89066696" lon="-18.70184135"><ele>484.0</ele><time>2012-07-25T12:29:27.0000000+00:00</time></trkpt><trkpt lat="63.8903122" lon="-18.70080185"><ele>484.3</ele><time>2012-07-25T12:30:07.0000000+00:00</time></trkpt><trkpt lat="63.88967133" lon="-18.70014954"><ele>483.9</ele><time>2012-07-25T12:31:07.0000000+00:00</time></trkpt><trkpt lat="63.88860321" lon="-18.70030212"><ele>483.0</ele><time>2012-07-25T12:31:42.0000000+00:00</time></trkpt><trkpt lat="63.88767624" lon="-18.70154572"><ele>482.7</ele><time>2012-07-25T12:32:27.0000000+00:00</time></trkpt><trkpt lat="63.88644409" lon="-18.70228195"><ele>481.8</ele><time>2012-07-25T12:33:17.0000000+00:00</time></trkpt><trkpt lat="63.88180542" lon="-18.70350266"><ele>483.6</ele><time>2012-07-25T12:35:47.0000000+00:00</time></trkpt><trkpt lat="63.88100433" lon="-18.70540428"><ele>484.2</ele><time>2012-07-25T12:36:27.0000000+00:00</time></trkpt><trkpt lat="63.88090515" lon="-18.70614624"><ele>485.2</ele><time>2012-07-25T12:36:37.0000000+00:00</time></trkpt><trkpt lat="63.88101959" lon="-18.70715332"><ele>484.7</ele><time>2012-07-25T12:36:52.0000000+00:00</time></trkpt><trkpt lat="63.88090134" lon="-18.70772934"><ele>483.9</ele><time>2012-07-25T12:37:02.0000000+00:00</time></trkpt><trkpt lat="63.87984467" lon="-18.70892716"><ele>484.3</ele><time>2012-07-25T12:40:12.0000000+00:00</time></trkpt><trkpt lat="63.87929153" lon="-18.71026611"><ele>484.3</ele><time>2012-07-25T12:40:37.0000000+00:00</time></trkpt><trkpt lat="63.87919998" lon="-18.71217728"><ele>484.1</ele><time>2012-07-25T12:41:02.0000000+00:00</time></trkpt><trkpt lat="63.87854385" lon="-18.71639252"><ele>483.0</ele><time>2012-07-25T12:41:52.0000000+00:00</time></trkpt><trkpt lat="63.87786102" lon="-18.71703148"><ele>482.7</ele><time>2012-07-25T12:42:12.0000000+00:00</time></trkpt><trkpt lat="63.87692642" lon="-18.71675873"><ele>483.4</ele><time>2012-07-25T12:42:42.0000000+00:00</time></trkpt><trkpt lat="63.87566757" lon="-18.71786881"><ele>483.7</ele><time>2012-07-25T12:43:27.0000000+00:00</time></trkpt><trkpt lat="63.87214661" lon="-18.72314453"><ele>487.4</ele><time>2012-07-25T12:45:32.0000000+00:00</time></trkpt><trkpt lat="63.87056351" lon="-18.72681999"><ele>489.1</ele><time>2012-07-25T12:46:52.0000000+00:00</time></trkpt><trkpt lat="63.87014389" lon="-18.72908402"><ele>486.3</ele><time>2012-07-25T12:47:22.0000000+00:00</time></trkpt><trkpt lat="63.8695221" lon="-18.73121262"><ele>485.5</ele><time>2012-07-25T12:47:52.0000000+00:00</time></trkpt><trkpt lat="63.86955261" lon="-18.73268509"><ele>484.5</ele><time>2012-07-25T12:48:12.0000000+00:00</time></trkpt><trkpt lat="63.86929321" lon="-18.73353577"><ele>485.1</ele><time>2012-07-25T12:48:27.0000000+00:00</time></trkpt><trkpt lat="63.86816406" lon="-18.73349762"><ele>484.7</ele><time>2012-07-25T12:49:02.0000000+00:00</time></trkpt><trkpt lat="63.86712265" lon="-18.73449707"><ele>485.0</ele><time>2012-07-25T12:49:42.0000000+00:00</time></trkpt><trkpt lat="63.86645126" lon="-18.7320385"><ele>501.0</ele><time>2012-07-25T12:53:37.0000000+00:00</time></trkpt><trkpt lat="63.86620331" lon="-18.72904778"><ele>501.8</ele><time>2012-07-25T12:54:37.0000000+00:00</time></trkpt><trkpt lat="63.86573792" lon="-18.72872353"><ele>503.1</ele><time>2012-07-25T12:54:57.0000000+00:00</time></trkpt><trkpt lat="63.86515427" lon="-18.72927284"><ele>509.2</ele><time>2012-07-25T12:55:32.0000000+00:00</time></trkpt><trkpt lat="63.86498642" lon="-18.73006058"><ele>509.7</ele><time>2012-07-25T12:56:42.0000000+00:00</time></trkpt><trkpt lat="63.86517716" lon="-18.73192215"><ele>515.8</ele><time>2012-07-25T12:57:57.0000000+00:00</time></trkpt><trkpt lat="63.86480713" lon="-18.73284721"><ele>523.8</ele><time>2012-07-25T12:59:42.0000000+00:00</time></trkpt><trkpt lat="63.8640976" lon="-18.73353958"><ele>529.5</ele><time>2012-07-25T13:00:52.0000000+00:00</time></trkpt><trkpt lat="63.86407471" lon="-18.73592758"><ele>542.6</ele><time>2012-07-25T13:02:17.0000000+00:00</time></trkpt><trkpt lat="63.86359406" lon="-18.73689652"><ele>548.3</ele><time>2012-07-25T13:02:57.0000000+00:00</time></trkpt><trkpt lat="63.86277771" lon="-18.74056244"><ele>554.0</ele><time>2012-07-25T13:04:32.0000000+00:00</time></trkpt><trkpt lat="63.86243439" lon="-18.74105072"><ele>557.8</ele><time>2012-07-25T13:04:52.0000000+00:00</time></trkpt><trkpt lat="63.86145783" lon="-18.74154282"><ele>569.7</ele><time>2012-07-25T13:06:27.0000000+00:00</time></trkpt><trkpt lat="63.86114121" lon="-18.74140549"><ele>570.6</ele><time>2012-07-25T13:06:52.0000000+00:00</time></trkpt><trkpt lat="63.86080551" lon="-18.73925018"><ele>571.1</ele><time>2012-07-25T13:07:47.0000000+00:00</time></trkpt><trkpt lat="63.86046982" lon="-18.73823547"><ele>571.1</ele><time>2012-07-25T13:08:07.0000000+00:00</time></trkpt><trkpt lat="63.86062241" lon="-18.73674202"><ele>572.1</ele><time>2012-07-25T13:08:32.0000000+00:00</time></trkpt><trkpt lat="63.86052704" lon="-18.73602295"><ele>572.5</ele><time>2012-07-25T13:08:47.0000000+00:00</time></trkpt><trkpt lat="63.8597908" lon="-18.73423958"><ele>567.4</ele><time>2012-07-25T13:09:27.0000000+00:00</time></trkpt><trkpt lat="63.85971451" lon="-18.73323631"><ele>562.3</ele><time>2012-07-25T13:09:42.0000000+00:00</time></trkpt><trkpt lat="63.85872269" lon="-18.73198319"><ele>552.2</ele><time>2012-07-25T13:10:07.0000000+00:00</time></trkpt><trkpt lat="63.85765457" lon="-18.73156929"><ele>548.9</ele><time>2012-07-25T13:10:27.0000000+00:00</time></trkpt><trkpt lat="63.85697937" lon="-18.73209572"><ele>546.1</ele><time>2012-07-25T13:10:42.0000000+00:00</time></trkpt><trkpt lat="63.8567009" lon="-18.73369408"><ele>545.6</ele><time>2012-07-25T13:10:57.0000000+00:00</time></trkpt><trkpt lat="63.85631943" lon="-18.73451614"><ele>541.1</ele><time>2012-07-25T13:11:17.0000000+00:00</time></trkpt><trkpt lat="63.85587311" lon="-18.73720551"><ele>549.6</ele><time>2012-07-25T13:12:27.0000000+00:00</time></trkpt><trkpt lat="63.85476303" lon="-18.73951149"><ele>557.9</ele><time>2012-07-25T13:14:22.0000000+00:00</time></trkpt><trkpt lat="63.85263825" lon="-18.7388382"><ele>560.4</ele><time>2012-07-25T13:15:47.0000000+00:00</time></trkpt><trkpt lat="63.85202408" lon="-18.73776436"><ele>558.8</ele><time>2012-07-25T13:16:17.0000000+00:00</time></trkpt><trkpt lat="63.85094452" lon="-18.73687553"><ele>550.2</ele><time>2012-07-25T13:17:02.0000000+00:00</time></trkpt><trkpt lat="63.84941101" lon="-18.7375679"><ele>533.4</ele><time>2012-07-25T13:18:57.0000000+00:00</time></trkpt><trkpt lat="63.84939575" lon="-18.73886108"><ele>532.4</ele><time>2012-07-25T13:19:42.0000000+00:00</time></trkpt><trkpt lat="63.84946442" lon="-18.73853493"><ele>532.4</ele><time>2012-07-25T13:21:07.0000000+00:00</time></trkpt><trkpt lat="63.84944153" lon="-18.73831368"><ele>532.7</ele><time>2012-07-25T13:21:17.0000000+00:00</time></trkpt><trkpt lat="63.84928513" lon="-18.73965836"><ele>533.0</ele><time>2012-07-25T13:21:52.0000000+00:00</time></trkpt><trkpt lat="63.84944916" lon="-18.74094009"><ele>533.5</ele><time>2012-07-25T13:22:27.0000000+00:00</time></trkpt><trkpt lat="63.84932709" lon="-18.74156189"><ele>533.2</ele><time>2012-07-25T13:22:57.0000000+00:00</time></trkpt><trkpt lat="63.8480835" lon="-18.74365234"><ele>535.1</ele><time>2012-07-25T13:26:02.0000000+00:00</time></trkpt><trkpt lat="63.84734726" lon="-18.74603653"><ele>543.7</ele><time>2012-07-25T13:27:57.0000000+00:00</time></trkpt><trkpt lat="63.846138" lon="-18.74761391"><ele>560.2</ele><time>2012-07-25T13:31:02.0000000+00:00</time></trkpt><trkpt lat="63.84571075" lon="-18.75050926"><ele>574.9</ele><time>2012-07-25T13:36:57.0000000+00:00</time></trkpt><trkpt lat="63.84519959" lon="-18.75148583"><ele>579.1</ele><time>2012-07-25T13:37:32.0000000+00:00</time></trkpt><trkpt lat="63.84228134" lon="-18.75244522"><ele>589.8</ele><time>2012-07-25T13:45:27.0000000+00:00</time></trkpt><trkpt lat="63.84193802" lon="-18.75216484"><ele>588.8</ele><time>2012-07-25T13:45:37.0000000+00:00</time></trkpt><trkpt lat="63.84173584" lon="-18.75148201"><ele>587.1</ele><time>2012-07-25T13:45:47.0000000+00:00</time></trkpt><trkpt lat="63.84138107" lon="-18.75137711"><ele>583.4</ele><time>2012-07-25T13:45:57.0000000+00:00</time></trkpt><trkpt lat="63.84092331" lon="-18.7507"><ele>576.6</ele><time>2012-07-25T13:46:12.0000000+00:00</time></trkpt><trkpt lat="63.83989716" lon="-18.75052834"><ele>560.1</ele><time>2012-07-25T13:46:42.0000000+00:00</time></trkpt><trkpt lat="63.83928299" lon="-18.75086021"><ele>557.6</ele><time>2012-07-25T13:46:52.0000000+00:00</time></trkpt><trkpt lat="63.83813095" lon="-18.75048828"><ele>554.1</ele><time>2012-07-25T13:47:17.0000000+00:00</time></trkpt><trkpt lat="63.83740616" lon="-18.74954605"><ele>554.5</ele><time>2012-07-25T13:47:37.0000000+00:00</time></trkpt><trkpt lat="63.83657837" lon="-18.74762535"><ele>547.3</ele><time>2012-07-25T13:48:12.0000000+00:00</time></trkpt><trkpt lat="63.83394623" lon="-18.74840546"><ele>566.0</ele><time>2012-07-25T13:51:27.0000000+00:00</time></trkpt><trkpt lat="63.83382797" lon="-18.74952126"><ele>562.2</ele><time>2012-07-25T13:53:37.0000000+00:00</time></trkpt><trkpt lat="63.83430481" lon="-18.75192642"><ele>559.9</ele><time>2012-07-25T13:53:57.0000000+00:00</time></trkpt><trkpt lat="63.83364868" lon="-18.75439644"><ele>555.7</ele><time>2012-07-25T13:54:22.0000000+00:00</time></trkpt><trkpt lat="63.83263016" lon="-18.75641251"><ele>561.6</ele><time>2012-07-25T13:55:22.0000000+00:00</time></trkpt><trkpt lat="63.83204269" lon="-18.75716209"><ele>554.8</ele><time>2012-07-25T13:56:47.0000000+00:00</time></trkpt><trkpt lat="63.83182526" lon="-18.75908089"><ele>542.1</ele><time>2012-07-25T13:57:07.0000000+00:00</time></trkpt><trkpt lat="63.83151245" lon="-18.75970841"><ele>538.1</ele><time>2012-07-25T13:57:12.0000000+00:00</time></trkpt><trkpt lat="63.83006668" lon="-18.76037788"><ele>538.3</ele><time>2012-07-25T13:57:47.0000000+00:00</time></trkpt><trkpt lat="63.82927704" lon="-18.76031876"><ele>537.3</ele><time>2012-07-25T13:58:07.0000000+00:00</time></trkpt><trkpt lat="63.82830811" lon="-18.76198006"><ele>528.8</ele><time>2012-07-25T13:58:27.0000000+00:00</time></trkpt><trkpt lat="63.82788849" lon="-18.76367188"><ele>527.4</ele><time>2012-07-25T13:58:42.0000000+00:00</time></trkpt><trkpt lat="63.82756043" lon="-18.76687431"><ele>528.8</ele><time>2012-07-25T13:59:42.0000000+00:00</time></trkpt><trkpt lat="63.82684708" lon="-18.76996613"><ele>514.4</ele><time>2012-07-25T14:00:17.0000000+00:00</time></trkpt><trkpt lat="63.82684708" lon="-18.77070427"><ele>511.1</ele><time>2012-07-25T14:02:32.0000000+00:00</time></trkpt><trkpt lat="63.82720184" lon="-18.77108002"><ele>511.8</ele><time>2012-07-25T14:03:37.0000000+00:00</time></trkpt><trkpt lat="63.82710648" lon="-18.77185822"><ele>515.2</ele><time>2012-07-25T14:04:27.0000000+00:00</time></trkpt><trkpt lat="63.82670593" lon="-18.77285385"><ele>526.3</ele><time>2012-07-25T14:05:57.0000000+00:00</time></trkpt><trkpt lat="63.82530594" lon="-18.77432251"><ele>526.8</ele><time>2012-07-25T14:08:12.0000000+00:00</time></trkpt><trkpt lat="63.82418823" lon="-18.77685928"><ele>519.3</ele><time>2012-07-25T14:10:17.0000000+00:00</time></trkpt><trkpt lat="63.82395554" lon="-18.77799797"><ele>515.4</ele><time>2012-07-25T14:10:27.0000000+00:00</time></trkpt><trkpt lat="63.82395935" lon="-18.7785759"><ele>514.0</ele><time>2012-07-25T14:10:37.0000000+00:00</time></trkpt><trkpt lat="63.82446671" lon="-18.7806282"><ele>504.8</ele><time>2012-07-25T14:11:02.0000000+00:00</time></trkpt><trkpt lat="63.82445908" lon="-18.78221321"><ele>500.8</ele><time>2012-07-25T14:11:32.0000000+00:00</time></trkpt><trkpt lat="63.82508469" lon="-18.78309059"><ele>500.2</ele><time>2012-07-25T14:12:47.0000000+00:00</time></trkpt><trkpt lat="63.82546997" lon="-18.78409195"><ele>500.3</ele><time>2012-07-25T14:13:02.0000000+00:00</time></trkpt><trkpt lat="63.82591248" lon="-18.78767014"><ele>500.5</ele><time>2012-07-25T14:13:57.0000000+00:00</time></trkpt><trkpt lat="63.82605743" lon="-18.79030418"><ele>505.6</ele><time>2012-07-25T14:16:02.0000000+00:00</time></trkpt><trkpt lat="63.8257103" lon="-18.79517746"><ele>510.0</ele><time>2012-07-25T14:17:57.0000000+00:00</time></trkpt><trkpt lat="63.82500839" lon="-18.79666901"><ele>510.9</ele><time>2012-07-25T14:18:32.0000000+00:00</time></trkpt><trkpt lat="63.82422257" lon="-18.79764366"><ele>505.0</ele><time>2012-07-25T14:19:02.0000000+00:00</time></trkpt><trkpt lat="63.82406998" lon="-18.79846191"><ele>505.5</ele><time>2012-07-25T14:19:12.0000000+00:00</time></trkpt><trkpt lat="63.8251915" lon="-18.80086899"><ele>503.7</ele><time>2012-07-25T14:19:47.0000000+00:00</time></trkpt><trkpt lat="63.82575607" lon="-18.80291176"><ele>503.7</ele><time>2012-07-25T14:20:12.0000000+00:00</time></trkpt><trkpt lat="63.82564926" lon="-18.80493736"><ele>502.9</ele><time>2012-07-25T14:20:42.0000000+00:00</time></trkpt><trkpt lat="63.8257637" lon="-18.80561447"><ele>502.8</ele><time>2012-07-25T14:21:32.0000000+00:00</time></trkpt><trkpt lat="63.82547379" lon="-18.80530167"><ele>502.6</ele><time>2012-07-25T14:22:02.0000000+00:00</time></trkpt><trkpt lat="63.82683945" lon="-18.80629349"><ele>503.4</ele><time>2012-07-25T14:24:27.0000000+00:00</time></trkpt><trkpt lat="63.82736588" lon="-18.80718994"><ele>503.3</ele><time>2012-07-25T14:25:17.0000000+00:00</time></trkpt><trkpt lat="63.82751846" lon="-18.80800247"><ele>503.6</ele><time>2012-07-25T14:26:22.0000000+00:00</time></trkpt><trkpt lat="63.82622147" lon="-18.80517006"><ele>503.2</ele><time>2012-07-25T14:28:27.0000000+00:00</time></trkpt><trkpt lat="63.82595825" lon="-18.8049736"><ele>502.9</ele><time>2012-07-25T14:28:47.0000000+00:00</time></trkpt><trkpt lat="63.82564926" lon="-18.80567551"><ele>502.6</ele><time>2012-07-25T14:29:22.0000000+00:00</time></trkpt><trkpt lat="63.82535172" lon="-18.8050499"><ele>502.5</ele><time>2012-07-25T14:32:27.0000000+00:00</time></trkpt><trkpt lat="63.82549667" lon="-18.80555344"><ele>502.5</ele><time>2012-07-25T14:32:57.0000000+00:00</time></trkpt><trkpt lat="63.82554245" lon="-18.8052578"><ele>502.7</ele><time>2012-07-25T14:35:02.0000000+00:00</time></trkpt><trkpt lat="63.82535553" lon="-18.80497932"><ele>502.5</ele><time>2012-07-25T14:35:57.0000000+00:00</time></trkpt><trkpt lat="63.82569885" lon="-18.8055191"><ele>502.7</ele><time>2012-07-25T14:38:12.0000000+00:00</time></trkpt><trkpt lat="63.82536316" lon="-18.80498123"><ele>502.5</ele><time>2012-07-25T14:40:27.0000000+00:00</time></trkpt><trkpt lat="63.82517242" lon="-18.80414009"><ele>502.3</ele><time>2012-07-25T14:44:32.0000000+00:00</time></trkpt><trkpt lat="63.82502747" lon="-18.80416489"><ele>502.4</ele><time>2012-07-25T14:50:22.0000000+00:00</time></trkpt><trkpt lat="63.82495117" lon="-18.80443764"><ele>503.2</ele><time>2012-07-25T14:51:02.0000000+00:00</time></trkpt><trkpt lat="63.82535553" lon="-18.80448341"><ele>502.5</ele><time>2012-07-25T14:53:52.0000000+00:00</time></trkpt><trkpt lat="63.82556534" lon="-18.80545998"><ele>502.6</ele><time>2012-07-25T14:54:47.0000000+00:00</time></trkpt><trkpt lat="63.82555771" lon="-18.8050251"><ele>502.7</ele><time>2012-07-25T14:59:37.0000000+00:00</time></trkpt><trkpt lat="63.82528305" lon="-18.80644798"><ele>502.4</ele><time>2012-07-25T15:04:12.0000000+00:00</time></trkpt><trkpt lat="63.82452774" lon="-18.80674362"><ele>503.7</ele><time>2012-07-25T15:05:07.0000000+00:00</time></trkpt><trkpt lat="63.82468414" lon="-18.80679703"><ele>503.3</ele><time>2012-07-25T15:07:42.0000000+00:00</time></trkpt><trkpt lat="63.82449341" lon="-18.80722237"><ele>503.6</ele><time>2012-07-25T15:18:57.0000000+00:00</time></trkpt><trkpt lat="63.82471848" lon="-18.8067627"><ele>503.2</ele><time>2012-07-25T15:21:22.0000000+00:00</time></trkpt><trkpt lat="63.82444763" lon="-18.80708885"><ele>503.7</ele><time>2012-07-25T15:22:12.0000000+00:00</time></trkpt><trkpt lat="63.82401657" lon="-18.80934715"><ele>505.0</ele><time>2012-07-25T15:26:07.0000000+00:00</time></trkpt><trkpt lat="63.82525635" lon="-18.81165505"><ele>506.1</ele><time>2012-07-25T15:27:37.0000000+00:00</time></trkpt><trkpt lat="63.82549286" lon="-18.81290054"><ele>505.7</ele><time>2012-07-25T15:28:02.0000000+00:00</time></trkpt><trkpt lat="63.82490921" lon="-18.81805611"><ele>506.4</ele><time>2012-07-25T15:29:27.0000000+00:00</time></trkpt><trkpt lat="63.82433319" lon="-18.82007217"><ele>507.8</ele><time>2012-07-25T15:30:02.0000000+00:00</time></trkpt><trkpt lat="63.82320023" lon="-18.8218174"><ele>510.5</ele><time>2012-07-25T15:30:57.0000000+00:00</time></trkpt><trkpt lat="63.82175446" lon="-18.82297897"><ele>512.7</ele><time>2012-07-25T15:31:57.0000000+00:00</time></trkpt><trkpt lat="63.82021713" lon="-18.82378578"><ele>513.1</ele><time>2012-07-25T15:32:52.0000000+00:00</time></trkpt><trkpt lat="63.81798935" lon="-18.82408714"><ele>511.8</ele><time>2012-07-25T15:33:47.0000000+00:00</time></trkpt><trkpt lat="63.81502152" lon="-18.82513046"><ele>510.4</ele><time>2012-07-25T15:35:07.0000000+00:00</time></trkpt><trkpt lat="63.81475067" lon="-18.82699394"><ele>511.1</ele><time>2012-07-25T15:35:42.0000000+00:00</time></trkpt><trkpt lat="63.81498718" lon="-18.82817841"><ele>512.2</ele><time>2012-07-25T15:36:07.0000000+00:00</time></trkpt><trkpt lat="63.81486511" lon="-18.83048058"><ele>515.3</ele><time>2012-07-25T15:36:52.0000000+00:00</time></trkpt><trkpt lat="63.81448746" lon="-18.83153343"><ele>515.6</ele><time>2012-07-25T15:37:12.0000000+00:00</time></trkpt><trkpt lat="63.81410599" lon="-18.83435822"><ele>513.7</ele><time>2012-07-25T15:37:47.0000000+00:00</time></trkpt><trkpt lat="63.81358337" lon="-18.83522606"><ele>513.7</ele><time>2012-07-25T15:38:02.0000000+00:00</time></trkpt><trkpt lat="63.81285858" lon="-18.83716011"><ele>515.4</ele><time>2012-07-25T15:39:07.0000000+00:00</time></trkpt><trkpt lat="63.81311798" lon="-18.83729172"><ele>515.8</ele><time>2012-07-25T15:39:27.0000000+00:00</time></trkpt><trkpt lat="63.81335068" lon="-18.83798218"><ele>516.2</ele><time>2012-07-25T15:39:37.0000000+00:00</time></trkpt><trkpt lat="63.8139267" lon="-18.84122849"><ele>518.5</ele><time>2012-07-25T15:40:27.0000000+00:00</time></trkpt><trkpt lat="63.8147583" lon="-18.84307289"><ele>519.7</ele><time>2012-07-25T15:41:02.0000000+00:00</time></trkpt><trkpt lat="63.81612396" lon="-18.84706307"><ele>524.6</ele><time>2012-07-25T15:42:17.0000000+00:00</time></trkpt><trkpt lat="63.81807709" lon="-18.85149384"><ele>526.3</ele><time>2012-07-25T15:43:47.0000000+00:00</time></trkpt><trkpt lat="63.81923676" lon="-18.853405"><ele>529.2</ele><time>2012-07-25T15:44:42.0000000+00:00</time></trkpt><trkpt lat="63.81924057" lon="-18.85451126"><ele>530.7</ele><time>2012-07-25T15:45:02.0000000+00:00</time></trkpt><trkpt lat="63.81881332" lon="-18.85648537"><ele>534.7</ele><time>2012-07-25T15:45:47.0000000+00:00</time></trkpt><trkpt lat="63.81871796" lon="-18.85768318"><ele>533.7</ele><time>2012-07-25T15:46:12.0000000+00:00</time></trkpt><trkpt lat="63.81958771" lon="-18.86154366"><ele>535.7</ele><time>2012-07-25T15:47:07.0000000+00:00</time></trkpt><trkpt lat="63.81990051" lon="-18.86467552"><ele>536.8</ele><time>2012-07-25T15:47:52.0000000+00:00</time></trkpt><trkpt lat="63.81975174" lon="-18.86596108"><ele>536.2</ele><time>2012-07-25T15:48:07.0000000+00:00</time></trkpt><trkpt lat="63.81945038" lon="-18.86729431"><ele>535.5</ele><time>2012-07-25T15:48:22.0000000+00:00</time></trkpt><trkpt lat="63.81782532" lon="-18.87180328"><ele>538.9</ele><time>2012-07-25T15:49:32.0000000+00:00</time></trkpt><trkpt lat="63.81654358" lon="-18.87604141"><ele>537.0</ele><time>2012-07-25T15:50:52.0000000+00:00</time></trkpt><trkpt lat="63.81386566" lon="-18.88580895"><ele>539.4</ele><time>2012-07-25T15:55:52.0000000+00:00</time></trkpt><trkpt lat="63.81197739" lon="-18.89029312"><ele>541.2</ele><time>2012-07-25T15:58:02.0000000+00:00</time></trkpt><trkpt lat="63.81187439" lon="-18.89015007"><ele>541.4</ele><time>2012-07-25T15:58:17.0000000+00:00</time></trkpt><trkpt lat="63.81174851" lon="-18.89090157"><ele>541.5</ele><time>2012-07-25T15:58:37.0000000+00:00</time></trkpt><trkpt lat="63.80115128" lon="-18.91917229"><ele>555.4</ele><time>2012-07-25T16:11:02.0000000+00:00</time></trkpt><trkpt lat="63.79627609" lon="-18.93131256"><ele>560.8</ele><time>2012-07-25T16:18:32.0000000+00:00</time></trkpt><trkpt lat="63.79571533" lon="-18.93373489"><ele>561.7</ele><time>2012-07-25T16:19:22.0000000+00:00</time></trkpt><trkpt lat="63.79560471" lon="-18.939291"><ele>563.1</ele><time>2012-07-25T16:21:07.0000000+00:00</time></trkpt><trkpt lat="63.79576111" lon="-18.9410038"><ele>564.1</ele><time>2012-07-25T16:21:37.0000000+00:00</time></trkpt><trkpt lat="63.79602051" lon="-18.94249725"><ele>564.5</ele><time>2012-07-25T16:22:47.0000000+00:00</time></trkpt><trkpt lat="63.79610062" lon="-18.94235802"><ele>565.1</ele><time>2012-07-25T16:30:12.0000000+00:00</time></trkpt><trkpt lat="63.79600906" lon="-18.94257736"><ele>564.4</ele><time>2012-07-25T17:15:03.0000000+00:00</time></trkpt><trkpt lat="63.7961998" lon="-18.94234848"><ele>566.0</ele><time>2012-07-25T17:15:25.0000000+00:00</time></trkpt><trkpt lat="63.7960434" lon="-18.94257736"><ele>564.6</ele><time>2012-07-25T17:20:45.0000000+00:00</time></trkpt><trkpt lat="63.79642868" lon="-18.94435883"><ele>565.6</ele><time>2012-07-25T17:22:05.0000000+00:00</time></trkpt><trkpt lat="63.798069" lon="-18.95100021"><ele>568.2</ele><time>2012-07-25T17:24:35.0000000+00:00</time></trkpt><trkpt lat="63.79846573" lon="-18.95245361"><ele>566.6</ele><time>2012-07-25T17:25:00.0000000+00:00</time></trkpt><trkpt lat="63.79863739" lon="-18.95248222"><ele>565.7</ele><time>2012-07-25T17:27:30.0000000+00:00</time></trkpt><trkpt lat="63.79860687" lon="-18.95368004"><ele>565.3</ele><time>2012-07-25T17:29:00.0000000+00:00</time></trkpt><trkpt lat="63.79877472" lon="-18.95471764"><ele>565.7</ele><time>2012-07-25T17:31:00.0000000+00:00</time></trkpt><trkpt lat="63.8003273" lon="-18.95573235"><ele>570.6</ele><time>2012-07-25T17:35:30.0000000+00:00</time></trkpt><trkpt lat="63.80042648" lon="-18.95615006"><ele>570.8</ele><time>2012-07-25T17:36:05.0000000+00:00</time></trkpt><trkpt lat="63.80051041" lon="-18.95866966"><ele>572.3</ele><time>2012-07-25T17:36:45.0000000+00:00</time></trkpt><trkpt lat="63.80106354" lon="-18.96194077"><ele>575.1</ele><time>2012-07-25T17:37:40.0000000+00:00</time></trkpt><trkpt lat="63.80152512" lon="-18.96642113"><ele>577.3</ele><time>2012-07-25T17:38:50.0000000+00:00</time></trkpt><trkpt lat="63.8020134" lon="-18.96870613"><ele>578.5</ele><time>2012-07-25T17:39:30.0000000+00:00</time></trkpt><trkpt lat="63.80282974" lon="-18.97419357"><ele>579.4</ele><time>2012-07-25T17:40:45.0000000+00:00</time></trkpt><trkpt lat="63.80410385" lon="-18.97810555"><ele>582.0</ele><time>2012-07-25T17:42:00.0000000+00:00</time></trkpt><trkpt lat="63.80474091" lon="-18.98379898"><ele>581.9</ele><time>2012-07-25T17:43:40.0000000+00:00</time></trkpt><trkpt lat="63.80559158" lon="-18.98617744"><ele>581.3</ele><time>2012-07-25T17:44:55.0000000+00:00</time></trkpt><trkpt lat="63.80608749" lon="-18.99108887"><ele>588.7</ele><time>2012-07-25T17:47:30.0000000+00:00</time></trkpt><trkpt lat="63.80734634" lon="-18.99636459"><ele>594.2</ele><time>2012-07-25T17:49:15.0000000+00:00</time></trkpt><trkpt lat="63.80816269" lon="-19.00173569"><ele>592.1</ele><time>2012-07-25T17:50:25.0000000+00:00</time></trkpt><trkpt lat="63.808918" lon="-19.00884628"><ele>595.4</ele><time>2012-07-25T17:52:20.0000000+00:00</time></trkpt><trkpt lat="63.81001663" lon="-19.01609039"><ele>603.5</ele><time>2012-07-25T17:54:35.0000000+00:00</time></trkpt><trkpt lat="63.81510544" lon="-19.04605866"><ele>603.1</ele><time>2012-07-25T18:04:40.0000000+00:00</time></trkpt><trkpt lat="63.81555557" lon="-19.04944038"><ele>605.5</ele><time>2012-07-25T18:05:45.0000000+00:00</time></trkpt><trkpt lat="63.81562042" lon="-19.05342293"><ele>607.4</ele><time>2012-07-25T18:07:05.0000000+00:00</time></trkpt><trkpt lat="63.81551743" lon="-19.05521393"><ele>608.4</ele><time>2012-07-25T18:07:35.0000000+00:00</time></trkpt><trkpt lat="63.81581116" lon="-19.05716133"><ele>608.5</ele><time>2012-07-25T18:08:10.0000000+00:00</time></trkpt><trkpt lat="63.81815338" lon="-19.06764221"><ele>606.0</ele><time>2012-07-25T18:11:00.0000000+00:00</time></trkpt><trkpt lat="63.8184166" lon="-19.06992912"><ele>607.4</ele><time>2012-07-25T18:11:45.0000000+00:00</time></trkpt><trkpt lat="63.81929398" lon="-19.0727787"><ele>603.6</ele><time>2012-07-25T18:13:20.0000000+00:00</time></trkpt><trkpt lat="63.8198204" lon="-19.07532692"><ele>601.6</ele><time>2012-07-25T18:13:45.0000000+00:00</time></trkpt><trkpt lat="63.82027817" lon="-19.0823822"><ele>596.5</ele><time>2012-07-25T18:15:15.0000000+00:00</time></trkpt><trkpt lat="63.82019424" lon="-19.08588409"><ele>595.9</ele><time>2012-07-25T18:16:05.0000000+00:00</time></trkpt><trkpt lat="63.82035065" lon="-19.09132004"><ele>596.3</ele><time>2012-07-25T18:17:25.0000000+00:00</time></trkpt><trkpt lat="63.82011032" lon="-19.09625053"><ele>596.4</ele><time>2012-07-25T18:18:40.0000000+00:00</time></trkpt><trkpt lat="63.81949997" lon="-19.09988022"><ele>596.8</ele><time>2012-07-25T18:19:35.0000000+00:00</time></trkpt><trkpt lat="63.81738663" lon="-19.10804939"><ele>599.2</ele><time>2012-07-25T18:21:51.0000000+00:00</time></trkpt><trkpt lat="63.81744766" lon="-19.10830689"><ele>599.1</ele><time>2012-07-25T18:21:59.0000000+00:00</time></trkpt><trkpt lat="63.81637955" lon="-19.11242867"><ele>599.8</ele><time>2012-07-25T18:26:50.0000000+00:00</time></trkpt><trkpt lat="63.81578827" lon="-19.11539841"><ele>600.6</ele><time>2012-07-25T18:29:15.0000000+00:00</time></trkpt><trkpt lat="63.81564331" lon="-19.1193676"><ele>600.7</ele><time>2012-07-25T18:30:20.0000000+00:00</time></trkpt><trkpt lat="63.81609726" lon="-19.12936974"><ele>599.2</ele><time>2012-07-25T18:33:20.0000000+00:00</time></trkpt><trkpt lat="63.81704712" lon="-19.14220619"><ele>595.6</ele><time>2012-07-25T18:36:25.0000000+00:00</time></trkpt><trkpt lat="63.81876755" lon="-19.15349197"><ele>592.4</ele><time>2012-07-25T18:38:55.0000000+00:00</time></trkpt><trkpt lat="63.81900406" lon="-19.16144562"><ele>591.0</ele><time>2012-07-25T18:40:35.0000000+00:00</time></trkpt><trkpt lat="63.8187294" lon="-19.16732407"><ele>590.2</ele><time>2012-07-25T18:41:50.0000000+00:00</time></trkpt><trkpt lat="63.8191452" lon="-19.17411423"><ele>589.1</ele><time>2012-07-25T18:43:30.0000000+00:00</time></trkpt><trkpt lat="63.81955719" lon="-19.17724419"><ele>587.8</ele><time>2012-07-25T18:44:45.0000000+00:00</time></trkpt><trkpt lat="63.82046127" lon="-19.17943764"><ele>587.3</ele><time>2012-07-25T18:45:25.0000000+00:00</time></trkpt><trkpt lat="63.82062912" lon="-19.18144798"><ele>587.2</ele><time>2012-07-25T18:45:55.0000000+00:00</time></trkpt><trkpt lat="63.82246018" lon="-19.18710709"><ele>587.2</ele><time>2012-07-25T18:47:25.0000000+00:00</time></trkpt><trkpt lat="63.82273102" lon="-19.18886948"><ele>586.7</ele><time>2012-07-25T18:47:50.0000000+00:00</time></trkpt><trkpt lat="63.82224274" lon="-19.18997383"><ele>585.2</ele><time>2012-07-25T18:48:10.0000000+00:00</time></trkpt><trkpt lat="63.82210159" lon="-19.19124603"><ele>583.0</ele><time>2012-07-25T18:48:30.0000000+00:00</time></trkpt><trkpt lat="63.82152939" lon="-19.19269562"><ele>577.7</ele><time>2012-07-25T18:48:50.0000000+00:00</time></trkpt><trkpt lat="63.82129669" lon="-19.19434738"><ele>576.6</ele><time>2012-07-25T18:49:20.0000000+00:00</time></trkpt><trkpt lat="63.82097626" lon="-19.19499016"><ele>577.3</ele><time>2012-07-25T18:49:50.0000000+00:00</time></trkpt><trkpt lat="63.821064" lon="-19.19750977"><ele>577.0</ele><time>2012-07-25T18:50:40.0000000+00:00</time></trkpt><trkpt lat="63.82081986" lon="-19.19929314"><ele>575.7</ele><time>2012-07-25T18:52:25.0000000+00:00</time></trkpt><trkpt lat="63.82114792" lon="-19.20020676"><ele>575.7</ele><time>2012-07-25T18:52:55.0000000+00:00</time></trkpt><trkpt lat="63.82141876" lon="-19.20197296"><ele>575.5</ele><time>2012-07-25T18:53:30.0000000+00:00</time></trkpt><trkpt lat="63.82201386" lon="-19.20270538"><ele>574.2</ele><time>2012-07-25T18:53:50.0000000+00:00</time></trkpt><trkpt lat="63.82254791" lon="-19.20655632"><ele>572.1</ele><time>2012-07-25T18:55:00.0000000+00:00</time></trkpt><trkpt lat="63.82278061" lon="-19.20719338"><ele>571.8</ele><time>2012-07-25T18:55:15.0000000+00:00</time></trkpt><trkpt lat="63.82323456" lon="-19.2075901"><ele>572.3</ele><time>2012-07-25T18:55:35.0000000+00:00</time></trkpt><trkpt lat="63.82383728" lon="-19.2113514"><ele>571.3</ele><time>2012-07-25T18:56:30.0000000+00:00</time></trkpt><trkpt lat="63.82429504" lon="-19.21310616"><ele>569.5</ele><time>2012-07-25T18:57:00.0000000+00:00</time></trkpt><trkpt lat="63.82510757" lon="-19.21481133"><ele>562.5</ele><time>2012-07-25T18:57:40.0000000+00:00</time></trkpt><trkpt lat="63.82546616" lon="-19.21376419"><ele>562.6</ele><time>2012-07-25T19:00:10.0000000+00:00</time></trkpt><trkpt lat="63.82533264" lon="-19.21336746"><ele>564.4</ele><time>2012-07-25T19:01:10.0000000+00:00</time></trkpt><trkpt lat="63.82547379" lon="-19.21379662"><ele>562.4</ele><time>2012-07-25T19:01:35.0000000+00:00</time></trkpt><trkpt lat="63.82585907" lon="-19.21310043"><ele>560.9</ele><time>2012-07-25T19:05:05.0000000+00:00</time></trkpt><trkpt lat="63.82624817" lon="-19.21367073"><ele>561.9</ele><time>2012-07-25T19:06:10.0000000+00:00</time></trkpt><trkpt lat="63.82677841" lon="-19.21196556"><ele>562.7</ele><time>2012-07-25T19:07:45.0000000+00:00</time></trkpt><trkpt lat="63.82825851" lon="-19.20879173"><ele>565.3</ele><time>2012-07-25T19:09:00.0000000+00:00</time></trkpt><trkpt lat="63.82875443" lon="-19.20691681"><ele>565.4</ele><time>2012-07-25T19:09:30.0000000+00:00</time></trkpt><trkpt lat="63.82854843" lon="-19.20478249"><ele>564.6</ele><time>2012-07-25T19:10:00.0000000+00:00</time></trkpt><trkpt lat="63.82869339" lon="-19.20391083"><ele>564.5</ele><time>2012-07-25T19:10:10.0000000+00:00</time></trkpt><trkpt lat="63.82888031" lon="-19.20383644"><ele>564.5</ele><time>2012-07-25T19:10:15.0000000+00:00</time></trkpt><trkpt lat="63.82966614" lon="-19.20486069"><ele>564.2</ele><time>2012-07-25T19:10:35.0000000+00:00</time></trkpt><trkpt lat="63.83005524" lon="-19.2047329"><ele>563.7</ele><time>2012-07-25T19:10:45.0000000+00:00</time></trkpt><trkpt lat="63.83153915" lon="-19.2010479"><ele>560.6</ele><time>2012-07-25T19:11:40.0000000+00:00</time></trkpt><trkpt lat="63.83189011" lon="-19.201437"><ele>559.9</ele><time>2012-07-25T19:11:50.0000000+00:00</time></trkpt><trkpt lat="63.83228302" lon="-19.20274735"><ele>557.8</ele><time>2012-07-25T19:12:05.0000000+00:00</time></trkpt><trkpt lat="63.83234406" lon="-19.20414162"><ele>557.3</ele><time>2012-07-25T19:12:20.0000000+00:00</time></trkpt><trkpt lat="63.83195496" lon="-19.20516586"><ele>559.2</ele><time>2012-07-25T19:12:45.0000000+00:00</time></trkpt><trkpt lat="63.83205414" lon="-19.20531845"><ele>558.6</ele><time>2012-07-25T19:13:15.0000000+00:00</time></trkpt><trkpt lat="63.83190155" lon="-19.20619965"><ele>559.6</ele><time>2012-07-25T19:14:10.0000000+00:00</time></trkpt><trkpt lat="63.83200073" lon="-19.20528793"><ele>558.9</ele><time>2012-07-25T19:21:05.0000000+00:00</time></trkpt></trkseg><trkseg><trkpt lat="63.831604" lon="-19.20549202"><ele>560.6</ele><time>2012-07-26T10:39:34.0000000+00:00</time></trkpt><trkpt lat="63.83186722" lon="-19.20526886"><ele>559.8</ele><time>2012-07-26T10:49:24.0000000+00:00</time></trkpt><trkpt lat="63.8319397" lon="-19.20630074"><ele>559.3</ele><time>2012-07-26T10:50:44.0000000+00:00</time></trkpt><trkpt lat="63.83193207" lon="-19.20528221"><ele>559.4</ele><time>2012-07-26T10:51:24.0000000+00:00</time></trkpt><trkpt lat="63.83172607" lon="-19.20538521"><ele>560.4</ele><time>2012-07-26T10:51:59.0000000+00:00</time></trkpt><trkpt lat="63.83185959" lon="-19.20464134"><ele>559.4</ele><time>2012-07-26T10:54:49.0000000+00:00</time></trkpt><trkpt lat="63.8317337" lon="-19.20454598"><ele>559.5</ele><time>2012-07-26T10:55:14.0000000+00:00</time></trkpt><trkpt lat="63.8316803" lon="-19.20518303"><ele>560.2</ele><time>2012-07-26T10:56:29.0000000+00:00</time></trkpt><trkpt lat="63.83179092" lon="-19.20542526"><ele>560.3</ele><time>2012-07-26T10:59:04.0000000+00:00</time></trkpt><trkpt lat="63.8311615" lon="-19.20625687"><ele>561.3</ele><time>2012-07-26T11:01:04.0000000+00:00</time></trkpt><trkpt lat="63.82856751" lon="-19.2075901"><ele>567.0</ele><time>2012-07-26T11:04:34.0000000+00:00</time></trkpt><trkpt lat="63.82859802" lon="-19.20731163"><ele>567.8</ele><time>2012-07-26T11:08:14.0000000+00:00</time></trkpt><trkpt lat="63.82860184" lon="-19.20758438"><ele>566.7</ele><time>2012-07-26T11:14:39.0000000+00:00</time></trkpt><trkpt lat="63.8285408" lon="-19.20733643"><ele>568.9</ele><time>2012-07-26T11:17:54.0000000+00:00</time></trkpt><trkpt lat="63.82865906" lon="-19.20748901"><ele>566.2</ele><time>2012-07-26T11:35:39.0000000+00:00</time></trkpt><trkpt lat="63.82824707" lon="-19.20885468"><ele>565.3</ele><time>2012-07-26T11:53:24.0000000+00:00</time></trkpt><trkpt lat="63.82778549" lon="-19.20946121"><ele>565.2</ele><time>2012-07-26T11:53:49.0000000+00:00</time></trkpt><trkpt lat="63.82727051" lon="-19.21095276"><ele>563.0</ele><time>2012-07-26T11:54:54.0000000+00:00</time></trkpt><trkpt lat="63.82752609" lon="-19.21053886"><ele>563.7</ele><time>2012-07-26T11:55:09.0000000+00:00</time></trkpt><trkpt lat="63.82779312" lon="-19.20956421"><ele>565.2</ele><time>2012-07-26T11:55:29.0000000+00:00</time></trkpt><trkpt lat="63.82675552" lon="-19.21207237"><ele>562.8</ele><time>2012-07-26T11:56:19.0000000+00:00</time></trkpt><trkpt lat="63.8252449" lon="-19.2141571"><ele>562.7</ele><time>2012-07-26T12:04:24.0000000+00:00</time></trkpt><trkpt lat="63.82431412" lon="-19.21791267"><ele>559.9</ele><time>2012-07-26T12:05:19.0000000+00:00</time></trkpt><trkpt lat="63.82325745" lon="-19.21915436"><ele>559.6</ele><time>2012-07-26T12:05:49.0000000+00:00</time></trkpt><trkpt lat="63.8228302" lon="-19.21925163"><ele>558.8</ele><time>2012-07-26T12:06:09.0000000+00:00</time></trkpt><trkpt lat="63.82304382" lon="-19.21997833"><ele>558.6</ele><time>2012-07-26T12:07:24.0000000+00:00</time></trkpt><trkpt lat="63.82286835" lon="-19.22042465"><ele>558.8</ele><time>2012-07-26T12:10:19.0000000+00:00</time></trkpt><trkpt lat="63.82242966" lon="-19.21990776"><ele>559.7</ele><time>2012-07-26T12:19:44.0000000+00:00</time></trkpt><trkpt lat="63.81983948" lon="-19.23147965"><ele>560.6</ele><time>2012-07-26T12:22:09.0000000+00:00</time></trkpt><trkpt lat="63.81925964" lon="-19.23477173"><ele>559.2</ele><time>2012-07-26T12:22:49.0000000+00:00</time></trkpt><trkpt lat="63.81851959" lon="-19.23734856"><ele>557.7</ele><time>2012-07-26T12:23:19.0000000+00:00</time></trkpt><trkpt lat="63.81731796" lon="-19.24322701"><ele>555.8</ele><time>2012-07-26T12:24:14.0000000+00:00</time></trkpt><trkpt lat="63.81415176" lon="-19.25627327"><ele>547.7</ele><time>2012-07-26T12:28:29.0000000+00:00</time></trkpt><trkpt lat="63.81371689" lon="-19.25901985"><ele>546.7</ele><time>2012-07-26T12:28:59.0000000+00:00</time></trkpt><trkpt lat="63.81353378" lon="-19.2627964"><ele>546.6</ele><time>2012-07-26T12:29:54.0000000+00:00</time></trkpt><trkpt lat="63.81087875" lon="-19.27305222"><ele>550.8</ele><time>2012-07-26T12:32:09.0000000+00:00</time></trkpt><trkpt lat="63.81031036" lon="-19.27806473"><ele>546.5</ele><time>2012-07-26T12:33:14.0000000+00:00</time></trkpt><trkpt lat="63.80991745" lon="-19.2798214"><ele>541.5</ele><time>2012-07-26T12:33:29.0000000+00:00</time></trkpt><trkpt lat="63.80968094" lon="-19.28002358"><ele>538.6</ele><time>2012-07-26T12:33:34.0000000+00:00</time></trkpt><trkpt lat="63.80939102" lon="-19.27980042"><ele>535.4</ele><time>2012-07-26T12:33:39.0000000+00:00</time></trkpt><trkpt lat="63.80913544" lon="-19.27913284"><ele>533.8</ele><time>2012-07-26T12:33:44.0000000+00:00</time></trkpt><trkpt lat="63.80882263" lon="-19.27721024"><ele>534.0</ele><time>2012-07-26T12:34:04.0000000+00:00</time></trkpt><trkpt lat="63.80688477" lon="-19.27596283"><ele>534.4</ele><time>2012-07-26T12:36:04.0000000+00:00</time></trkpt><trkpt lat="63.80643845" lon="-19.27511025"><ele>535.2</ele><time>2012-07-26T12:36:34.0000000+00:00</time></trkpt><trkpt lat="63.80584717" lon="-19.27792168"><ele>532.6</ele><time>2012-07-26T12:39:44.0000000+00:00</time></trkpt><trkpt lat="63.80467606" lon="-19.27932167"><ele>535.4</ele><time>2012-07-26T12:42:19.0000000+00:00</time></trkpt><trkpt lat="63.80408478" lon="-19.28072357"><ele>538.4</ele><time>2012-07-26T12:42:54.0000000+00:00</time></trkpt><trkpt lat="63.80343628" lon="-19.28166962"><ele>541.7</ele><time>2012-07-26T12:47:14.0000000+00:00</time></trkpt><trkpt lat="63.80325317" lon="-19.28951073"><ele>541.7</ele><time>2012-07-26T12:48:54.0000000+00:00</time></trkpt><trkpt lat="63.80273438" lon="-19.29102516"><ele>549.3</ele><time>2012-07-26T12:49:54.0000000+00:00</time></trkpt><trkpt lat="63.80256653" lon="-19.29355621"><ele>549.8</ele><time>2012-07-26T12:51:29.0000000+00:00</time></trkpt><trkpt lat="63.80191803" lon="-19.29663086"><ele>548.2</ele><time>2012-07-26T12:52:09.0000000+00:00</time></trkpt><trkpt lat="63.80164337" lon="-19.29897499"><ele>546.6</ele><time>2012-07-26T12:52:39.0000000+00:00</time></trkpt><trkpt lat="63.80175781" lon="-19.30010605"><ele>546.7</ele><time>2012-07-26T12:52:54.0000000+00:00</time></trkpt><trkpt lat="63.80212021" lon="-19.30113792"><ele>544.4</ele><time>2012-07-26T12:53:09.0000000+00:00</time></trkpt><trkpt lat="63.8034668" lon="-19.30351448"><ele>542.7</ele><time>2012-07-26T12:54:04.0000000+00:00</time></trkpt><trkpt lat="63.8037529" lon="-19.30503464"><ele>542.9</ele><time>2012-07-26T12:54:34.0000000+00:00</time></trkpt><trkpt lat="63.80374146" lon="-19.30672646"><ele>541.8</ele><time>2012-07-26T12:54:59.0000000+00:00</time></trkpt><trkpt lat="63.80181503" lon="-19.31630135"><ele>537.7</ele><time>2012-07-26T12:57:19.0000000+00:00</time></trkpt><trkpt lat="63.80124664" lon="-19.31990624"><ele>537.4</ele><time>2012-07-26T12:58:09.0000000+00:00</time></trkpt><trkpt lat="63.80104446" lon="-19.32221603"><ele>537.4</ele><time>2012-07-26T12:58:44.0000000+00:00</time></trkpt><trkpt lat="63.80059052" lon="-19.32392693"><ele>535.9</ele><time>2012-07-26T12:59:19.0000000+00:00</time></trkpt><trkpt lat="63.79855347" lon="-19.33849907"><ele>530.0</ele><time>2012-07-26T13:04:19.0000000+00:00</time></trkpt><trkpt lat="63.79821014" lon="-19.34254265"><ele>531.6</ele><time>2012-07-26T13:05:44.0000000+00:00</time></trkpt><trkpt lat="63.79974747" lon="-19.34968567"><ele>527.3</ele><time>2012-07-26T13:07:29.0000000+00:00</time></trkpt><trkpt lat="63.79980469" lon="-19.35033989"><ele>525.9</ele><time>2012-07-26T13:07:34.0000000+00:00</time></trkpt><trkpt lat="63.79955673" lon="-19.35247612"><ele>520.6</ele><time>2012-07-26T13:07:59.0000000+00:00</time></trkpt><trkpt lat="63.80028153" lon="-19.35527039"><ele>521.6</ele><time>2012-07-26T13:08:54.0000000+00:00</time></trkpt><trkpt lat="63.80027008" lon="-19.3563633"><ele>522.7</ele><time>2012-07-26T13:09:14.0000000+00:00</time></trkpt><trkpt lat="63.80002594" lon="-19.35749245"><ele>522.0</ele><time>2012-07-26T13:09:34.0000000+00:00</time></trkpt><trkpt lat="63.8003273" lon="-19.35930634"><ele>520.9</ele><time>2012-07-26T13:10:19.0000000+00:00</time></trkpt><trkpt lat="63.80002594" lon="-19.36125183"><ele>520.6</ele><time>2012-07-26T13:10:49.0000000+00:00</time></trkpt><trkpt lat="63.79960251" lon="-19.36621475"><ele>519.0</ele><time>2012-07-26T13:12:29.0000000+00:00</time></trkpt><trkpt lat="63.79876709" lon="-19.36919403"><ele>517.3</ele><time>2012-07-26T13:13:14.0000000+00:00</time></trkpt><trkpt lat="63.79636383" lon="-19.37524605"><ele>512.0</ele><time>2012-07-26T13:14:49.0000000+00:00</time></trkpt><trkpt lat="63.79634857" lon="-19.37670898"><ele>513.0</ele><time>2012-07-26T13:15:19.0000000+00:00</time></trkpt><trkpt lat="63.79597855" lon="-19.37798691"><ele>513.6</ele><time>2012-07-26T13:15:44.0000000+00:00</time></trkpt><trkpt lat="63.79613495" lon="-19.37926483"><ele>515.7</ele><time>2012-07-26T13:16:14.0000000+00:00</time></trkpt><trkpt lat="63.79475784" lon="-19.38309097"><ele>515.1</ele><time>2012-07-26T13:17:49.0000000+00:00</time></trkpt><trkpt lat="63.79397965" lon="-19.38704681"><ele>513.8</ele><time>2012-07-26T13:19:14.0000000+00:00</time></trkpt><trkpt lat="63.79378128" lon="-19.38880539"><ele>513.7</ele><time>2012-07-26T13:19:54.0000000+00:00</time></trkpt><trkpt lat="63.79319763" lon="-19.39061546"><ele>510.9</ele><time>2012-07-26T13:20:39.0000000+00:00</time></trkpt><trkpt lat="63.79309845" lon="-19.39205933"><ele>510.0</ele><time>2012-07-26T13:21:04.0000000+00:00</time></trkpt><trkpt lat="63.79272842" lon="-19.39264107"><ele>510.0</ele><time>2012-07-26T13:21:24.0000000+00:00</time></trkpt><trkpt lat="63.79217529" lon="-19.39458847"><ele>509.3</ele><time>2012-07-26T13:22:04.0000000+00:00</time></trkpt><trkpt lat="63.79148102" lon="-19.39472008"><ele>505.5</ele><time>2012-07-26T13:22:34.0000000+00:00</time></trkpt><trkpt lat="63.78987885" lon="-19.39782333"><ele>499.7</ele><time>2012-07-26T13:23:24.0000000+00:00</time></trkpt><trkpt lat="63.78974533" lon="-19.3988533"><ele>498.9</ele><time>2012-07-26T13:24:04.0000000+00:00</time></trkpt><trkpt lat="63.78983688" lon="-19.39987755"><ele>497.3</ele><time>2012-07-26T13:24:19.0000000+00:00</time></trkpt><trkpt lat="63.78915787" lon="-19.40246391"><ele>493.0</ele><time>2012-07-26T13:24:59.0000000+00:00</time></trkpt><trkpt lat="63.78871155" lon="-19.40642166"><ele>495.4</ele><time>2012-07-26T13:26:09.0000000+00:00</time></trkpt><trkpt lat="63.78834152" lon="-19.40808296"><ele>488.7</ele><time>2012-07-26T13:26:29.0000000+00:00</time></trkpt><trkpt lat="63.78678894" lon="-19.40995789"><ele>487.7</ele><time>2012-07-26T13:27:19.0000000+00:00</time></trkpt><trkpt lat="63.78677368" lon="-19.4111042"><ele>485.4</ele><time>2012-07-26T13:27:29.0000000+00:00</time></trkpt><trkpt lat="63.78731918" lon="-19.4144516"><ele>481.0</ele><time>2012-07-26T13:28:04.0000000+00:00</time></trkpt><trkpt lat="63.78487396" lon="-19.42453575"><ele>473.4</ele><time>2012-07-26T13:30:24.0000000+00:00</time></trkpt><trkpt lat="63.7834816" lon="-19.42724419"><ele>463.0</ele><time>2012-07-26T13:30:59.0000000+00:00</time></trkpt><trkpt lat="63.78263092" lon="-19.42645073"><ele>450.5</ele><time>2012-07-26T13:31:19.0000000+00:00</time></trkpt><trkpt lat="63.78310776" lon="-19.4234581"><ele>430.4</ele><time>2012-07-26T13:31:59.0000000+00:00</time></trkpt><trkpt lat="63.78292084" lon="-19.42194176"><ele>424.6</ele><time>2012-07-26T13:32:14.0000000+00:00</time></trkpt><trkpt lat="63.78154755" lon="-19.42099762"><ele>434.7</ele><time>2012-07-26T13:33:19.0000000+00:00</time></trkpt><trkpt lat="63.78095627" lon="-19.41916275"><ele>430.6</ele><time>2012-07-26T13:33:44.0000000+00:00</time></trkpt><trkpt lat="63.78098679" lon="-19.41838646"><ele>427.9</ele><time>2012-07-26T13:33:54.0000000+00:00</time></trkpt><trkpt lat="63.78058624" lon="-19.41783333"><ele>428.6</ele><time>2012-07-26T13:34:14.0000000+00:00</time></trkpt><trkpt lat="63.78007889" lon="-19.4187088"><ele>438.8</ele><time>2012-07-26T13:35:19.0000000+00:00</time></trkpt><trkpt lat="63.77947235" lon="-19.418993"><ele>445.2</ele><time>2012-07-26T13:36:34.0000000+00:00</time></trkpt><trkpt lat="63.778862" lon="-19.41979408"><ele>451.4</ele><time>2012-07-26T13:37:44.0000000+00:00</time></trkpt><trkpt lat="63.77825165" lon="-19.41942596"><ele>454.9</ele><time>2012-07-26T13:39:04.0000000+00:00</time></trkpt><trkpt lat="63.77732849" lon="-19.42050171"><ele>462.8</ele><time>2012-07-26T13:40:19.0000000+00:00</time></trkpt><trkpt lat="63.77637863" lon="-19.42047119"><ele>470.1</ele><time>2012-07-26T13:41:24.0000000+00:00</time></trkpt><trkpt lat="63.77596664" lon="-19.42078781"><ele>477.6</ele><time>2012-07-26T13:42:29.0000000+00:00</time></trkpt><trkpt lat="63.77526474" lon="-19.42345238"><ele>503.2</ele><time>2012-07-26T13:46:39.0000000+00:00</time></trkpt><trkpt lat="63.77485657" lon="-19.42370033"><ele>510.2</ele><time>2012-07-26T13:48:04.0000000+00:00</time></trkpt><trkpt lat="63.77375031" lon="-19.42338562"><ele>524.7</ele><time>2012-07-26T13:50:24.0000000+00:00</time></trkpt><trkpt lat="63.77352524" lon="-19.4240818"><ele>534.3</ele><time>2012-07-26T13:51:39.0000000+00:00</time></trkpt><trkpt lat="63.77340317" lon="-19.42533493"><ele>543.0</ele><time>2012-07-26T13:53:44.0000000+00:00</time></trkpt><trkpt lat="63.77220535" lon="-19.42486763"><ele>557.9</ele><time>2012-07-26T13:56:39.0000000+00:00</time></trkpt><trkpt lat="63.7706604" lon="-19.4249363"><ele>571.8</ele><time>2012-07-26T13:59:49.0000000+00:00</time></trkpt><trkpt lat="63.76910019" lon="-19.42709732"><ele>573.7</ele><time>2012-07-26T14:01:49.0000000+00:00</time></trkpt><trkpt lat="63.76810455" lon="-19.42901421"><ele>571.1</ele><time>2012-07-26T14:02:29.0000000+00:00</time></trkpt><trkpt lat="63.76747894" lon="-19.43097115"><ele>565.2</ele><time>2012-07-26T14:02:49.0000000+00:00</time></trkpt><trkpt lat="63.76720047" lon="-19.4331665"><ele>558.5</ele><time>2012-07-26T14:03:04.0000000+00:00</time></trkpt><trkpt lat="63.76522446" lon="-19.43806267"><ele>530.0</ele><time>2012-07-26T14:03:44.0000000+00:00</time></trkpt><trkpt lat="63.76380539" lon="-19.44045448"><ele>531.6</ele><time>2012-07-26T14:04:04.0000000+00:00</time></trkpt><trkpt lat="63.76350021" lon="-19.44078827"><ele>530.4</ele><time>2012-07-26T14:04:09.0000000+00:00</time></trkpt><trkpt lat="63.76291657" lon="-19.4407692"><ele>530.2</ele><time>2012-07-26T14:04:19.0000000+00:00</time></trkpt><trkpt lat="63.76066208" lon="-19.43904114"><ele>527.0</ele><time>2012-07-26T14:05:04.0000000+00:00</time></trkpt><trkpt lat="63.76022339" lon="-19.43912697"><ele>527.2</ele><time>2012-07-26T14:05:14.0000000+00:00</time></trkpt><trkpt lat="63.75933456" lon="-19.44059944"><ele>528.1</ele><time>2012-07-26T14:05:39.0000000+00:00</time></trkpt><trkpt lat="63.75654221" lon="-19.44859695"><ele>529.9</ele><time>2012-07-26T14:07:19.0000000+00:00</time></trkpt><trkpt lat="63.75566101" lon="-19.44981194"><ele>542.7</ele><time>2012-07-26T14:10:04.0000000+00:00</time></trkpt><trkpt lat="63.75453949" lon="-19.45042038"><ele>553.5</ele><time>2012-07-26T14:11:44.0000000+00:00</time></trkpt><trkpt lat="63.75312042" lon="-19.45228767"><ele>554.2</ele><time>2012-07-26T14:13:04.0000000+00:00</time></trkpt><trkpt lat="63.75299454" lon="-19.45202446"><ele>552.2</ele><time>2012-07-26T14:13:59.0000000+00:00</time></trkpt><trkpt lat="63.75327683" lon="-19.45235062"><ele>555.2</ele><time>2012-07-26T14:14:22.0000000+00:00</time></trkpt><trkpt lat="63.75308991" lon="-19.45232582"><ele>554.2</ele><time>2012-07-26T14:14:37.0000000+00:00</time></trkpt><trkpt lat="63.75228882" lon="-19.45352554"><ele>555.1</ele><time>2012-07-26T14:15:22.0000000+00:00</time></trkpt><trkpt lat="63.75086594" lon="-19.45638847"><ele>545.2</ele><time>2012-07-26T14:16:12.0000000+00:00</time></trkpt><trkpt lat="63.74978638" lon="-19.46080589"><ele>540.2</ele><time>2012-07-26T14:16:47.0000000+00:00</time></trkpt><trkpt lat="63.74934769" lon="-19.46325302"><ele>539.2</ele><time>2012-07-26T14:17:52.0000000+00:00</time></trkpt><trkpt lat="63.74863434" lon="-19.46430779"><ele>525.6</ele><time>2012-07-26T14:18:27.0000000+00:00</time></trkpt><trkpt lat="63.74796677" lon="-19.46617127"><ele>506.7</ele><time>2012-07-26T14:18:57.0000000+00:00</time></trkpt><trkpt lat="63.74694061" lon="-19.46634293"><ele>499.6</ele><time>2012-07-26T14:19:27.0000000+00:00</time></trkpt><trkpt lat="63.74646759" lon="-19.46569824"><ele>499.3</ele><time>2012-07-26T14:19:37.0000000+00:00</time></trkpt><trkpt lat="63.74551392" lon="-19.46572495"><ele>491.5</ele><time>2012-07-26T14:20:07.0000000+00:00</time></trkpt><trkpt lat="63.74504471" lon="-19.46539116"><ele>484.4</ele><time>2012-07-26T14:20:57.0000000+00:00</time></trkpt><trkpt lat="63.74480057" lon="-19.46190643"><ele>491.4</ele><time>2012-07-26T14:22:32.0000000+00:00</time></trkpt><trkpt lat="63.74494553" lon="-19.45883942"><ele>486.8</ele><time>2012-07-26T14:23:02.0000000+00:00</time></trkpt><trkpt lat="63.74409485" lon="-19.45543671"><ele>473.6</ele><time>2012-07-26T14:23:47.0000000+00:00</time></trkpt><trkpt lat="63.74328232" lon="-19.4539299"><ele>465.5</ele><time>2012-07-26T14:24:02.0000000+00:00</time></trkpt><trkpt lat="63.74196625" lon="-19.4527607"><ele>453.2</ele><time>2012-07-26T14:24:27.0000000+00:00</time></trkpt><trkpt lat="63.7407341" lon="-19.45404053"><ele>438.6</ele><time>2012-07-26T14:24:57.0000000+00:00</time></trkpt><trkpt lat="63.74048615" lon="-19.45399284"><ele>437.6</ele><time>2012-07-26T14:25:02.0000000+00:00</time></trkpt><trkpt lat="63.7398262" lon="-19.45264626"><ele>430.1</ele><time>2012-07-26T14:25:22.0000000+00:00</time></trkpt><trkpt lat="63.7387085" lon="-19.45140076"><ele>416.9</ele><time>2012-07-26T14:25:42.0000000+00:00</time></trkpt><trkpt lat="63.73728943" lon="-19.4507103"><ele>399.5</ele><time>2012-07-26T14:27:37.0000000+00:00</time></trkpt><trkpt lat="63.73698044" lon="-19.45145607"><ele>393.3</ele><time>2012-07-26T14:27:47.0000000+00:00</time></trkpt><trkpt lat="63.73692322" lon="-19.45321274"><ele>388.0</ele><time>2012-07-26T14:28:42.0000000+00:00</time></trkpt><trkpt lat="63.73666382" lon="-19.45433044"><ele>378.5</ele><time>2012-07-26T14:28:52.0000000+00:00</time></trkpt><trkpt lat="63.73553848" lon="-19.45573044"><ele>354.9</ele><time>2012-07-26T14:29:52.0000000+00:00</time></trkpt><trkpt lat="63.73503494" lon="-19.45750809"><ele>346.2</ele><time>2012-07-26T14:30:37.0000000+00:00</time></trkpt><trkpt lat="63.73427582" lon="-19.45833206"><ele>338.5</ele><time>2012-07-26T14:31:02.0000000+00:00</time></trkpt><trkpt lat="63.73336792" lon="-19.46033859"><ele>320.6</ele><time>2012-07-26T14:31:37.0000000+00:00</time></trkpt><trkpt lat="63.73224258" lon="-19.4614315"><ele>310.8</ele><time>2012-07-26T14:32:07.0000000+00:00</time></trkpt><trkpt lat="63.73154068" lon="-19.46283531"><ele>308.8</ele><time>2012-07-26T14:32:32.0000000+00:00</time></trkpt><trkpt lat="63.73121262" lon="-19.46647072"><ele>297.2</ele><time>2012-07-26T14:33:07.0000000+00:00</time></trkpt><trkpt lat="63.73097229" lon="-19.46763992"><ele>291.9</ele><time>2012-07-26T14:33:22.0000000+00:00</time></trkpt><trkpt lat="63.73064041" lon="-19.46840668"><ele>289.0</ele><time>2012-07-26T14:33:37.0000000+00:00</time></trkpt><trkpt lat="63.72979736" lon="-19.46928406"><ele>283.4</ele><time>2012-07-26T14:33:57.0000000+00:00</time></trkpt><trkpt lat="63.72882462" lon="-19.47350311"><ele>280.6</ele><time>2012-07-26T14:52:42.0000000+00:00</time></trkpt><trkpt lat="63.7272377" lon="-19.47790337"><ele>277.4</ele><time>2012-07-26T14:54:22.0000000+00:00</time></trkpt><trkpt lat="63.72594833" lon="-19.48564529"><ele>275.5</ele><time>2012-07-26T14:56:22.0000000+00:00</time></trkpt><trkpt lat="63.72568893" lon="-19.48880005"><ele>270.7</ele><time>2012-07-26T14:57:07.0000000+00:00</time></trkpt><trkpt lat="63.72423554" lon="-19.49261665"><ele>267.4</ele><time>2012-07-26T14:58:12.0000000+00:00</time></trkpt><trkpt lat="63.72148514" lon="-19.49832344"><ele>259.0</ele><time>2012-07-26T15:00:02.0000000+00:00</time></trkpt><trkpt lat="63.72079849" lon="-19.50112915"><ele>246.4</ele><time>2012-07-26T15:00:32.0000000+00:00</time></trkpt><trkpt lat="63.72018051" lon="-19.50212669"><ele>243.2</ele><time>2012-07-26T15:00:42.0000000+00:00</time></trkpt><trkpt lat="63.71638107" lon="-19.50445366"><ele>233.3</ele><time>2012-07-26T15:02:07.0000000+00:00</time></trkpt><trkpt lat="63.71559143" lon="-19.50584412"><ele>237.5</ele><time>2012-07-26T15:08:27.0000000+00:00</time></trkpt><trkpt lat="63.71461868" lon="-19.50843239"><ele>238.7</ele><time>2012-07-26T15:09:17.0000000+00:00</time></trkpt><trkpt lat="63.71345139" lon="-19.51267815"><ele>225.6</ele><time>2012-07-26T15:10:27.0000000+00:00</time></trkpt><trkpt lat="63.71262741" lon="-19.51459122"><ele>223.7</ele><time>2012-07-26T15:11:07.0000000+00:00</time></trkpt><trkpt lat="63.71152496" lon="-19.51557541"><ele>221.3</ele><time>2012-07-26T15:11:52.0000000+00:00</time></trkpt><trkpt lat="63.71014404" lon="-19.51619148"><ele>219.9</ele><time>2012-07-26T15:12:42.0000000+00:00</time></trkpt><trkpt lat="63.70951843" lon="-19.5176754"><ele>220.2</ele><time>2012-07-26T15:13:22.0000000+00:00</time></trkpt><trkpt lat="63.70889664" lon="-19.51851082"><ele>219.3</ele><time>2012-07-26T15:13:47.0000000+00:00</time></trkpt><trkpt lat="63.70769882" lon="-19.52368736"><ele>228.4</ele><time>2012-07-26T15:17:02.0000000+00:00</time></trkpt><trkpt lat="63.7062645" lon="-19.5277729"><ele>229.2</ele><time>2012-07-26T15:18:57.0000000+00:00</time></trkpt><trkpt lat="63.70563507" lon="-19.53197098"><ele>224.6</ele><time>2012-07-26T15:19:57.0000000+00:00</time></trkpt><trkpt lat="63.70496368" lon="-19.53470993"><ele>221.8</ele><time>2012-07-26T15:21:52.0000000+00:00</time></trkpt><trkpt lat="63.70253754" lon="-19.54059792"><ele>214.1</ele><time>2012-07-26T15:23:57.0000000+00:00</time></trkpt><trkpt lat="63.70068359" lon="-19.54673195"><ele>208.9</ele><time>2012-07-26T15:26:12.0000000+00:00</time></trkpt><trkpt lat="63.69984436" lon="-19.54869843"><ele>205.6</ele><time>2012-07-26T15:26:52.0000000+00:00</time></trkpt><trkpt lat="63.69910431" lon="-19.5521183"><ele>201.2</ele><time>2012-07-26T15:27:47.0000000+00:00</time></trkpt><trkpt lat="63.69872665" lon="-19.55306816"><ele>199.3</ele><time>2012-07-26T15:28:12.0000000+00:00</time></trkpt><trkpt lat="63.69883347" lon="-19.5529995"><ele>200.1</ele><time>2012-07-26T15:29:32.0000000+00:00</time></trkpt><trkpt lat="63.69887161" lon="-19.55405617"><ele>200.8</ele><time>2012-07-26T15:31:22.0000000+00:00</time></trkpt><trkpt lat="63.69871903" lon="-19.55557442"><ele>198.2</ele><time>2012-07-26T15:31:47.0000000+00:00</time></trkpt><trkpt lat="63.69791031" lon="-19.55793381"><ele>199.3</ele><time>2012-07-26T15:32:37.0000000+00:00</time></trkpt><trkpt lat="63.69820786" lon="-19.56045151"><ele>195.4</ele><time>2012-07-26T15:33:17.0000000+00:00</time></trkpt><trkpt lat="63.698349" lon="-19.5666256"><ele>186.7</ele><time>2012-07-26T15:35:27.0000000+00:00</time></trkpt><trkpt lat="63.69816971" lon="-19.57033348"><ele>184.4</ele><time>2012-07-26T15:36:32.0000000+00:00</time></trkpt><trkpt lat="63.69818497" lon="-19.57634544"><ele>182.8</ele><time>2012-07-26T15:38:12.0000000+00:00</time></trkpt><trkpt lat="63.69841003" lon="-19.57990074"><ele>181.3</ele><time>2012-07-26T15:39:07.0000000+00:00</time></trkpt><trkpt lat="63.69881439" lon="-19.58175278"><ele>180.2</ele><time>2012-07-26T15:41:37.0000000+00:00</time></trkpt><trkpt lat="63.69921494" lon="-19.59229851"><ele>175.6</ele><time>2012-07-26T15:46:32.0000000+00:00</time></trkpt><trkpt lat="63.69910431" lon="-19.59387589"><ele>174.6</ele><time>2012-07-26T15:47:02.0000000+00:00</time></trkpt><trkpt lat="63.69851685" lon="-19.5960331"><ele>173.9</ele><time>2012-07-26T15:47:47.0000000+00:00</time></trkpt><trkpt lat="63.69841385" lon="-19.59710693"><ele>173.3</ele><time>2012-07-26T15:48:07.0000000+00:00</time></trkpt><trkpt lat="63.69839096" lon="-19.59925842"><ele>171.9</ele><time>2012-07-26T15:48:47.0000000+00:00</time></trkpt><trkpt lat="63.6988945" lon="-19.61175919"><ele>165.9</ele><time>2012-07-26T15:54:12.0000000+00:00</time></trkpt><trkpt lat="63.69961166" lon="-19.62542152"><ele>158.8</ele><time>2012-07-26T15:58:22.0000000+00:00</time></trkpt><trkpt lat="63.70026016" lon="-19.63363075"><ele>155.0</ele><time>2012-07-26T16:00:27.0000000+00:00</time></trkpt><trkpt lat="63.70149231" lon="-19.64543724"><ele>150.6</ele><time>2012-07-26T16:07:37.0000000+00:00</time></trkpt><trkpt lat="63.70178986" lon="-19.64494705"><ele>150.9</ele><time>2012-07-26T16:08:37.0000000+00:00</time></trkpt><trkpt lat="63.70168686" lon="-19.64496803"><ele>151.0</ele><time>2012-07-26T16:18:54.0000000+00:00</time></trkpt><trkpt lat="63.69762421" lon="-19.62470436"><ele>159.6</ele><time>2012-07-26T16:19:41.0000000+00:00</time></trkpt><trkpt lat="63.70122528" lon="-19.64294052"><ele>151.4</ele><time>2012-07-26T16:20:11.0000000+00:00</time></trkpt><trkpt lat="63.7016983" lon="-19.64326096"><ele>151.4</ele><time>2012-07-26T16:21:16.0000000+00:00</time></trkpt><trkpt lat="63.70194626" lon="-19.64481354"><ele>155.3</ele><time>2012-07-26T16:22:01.0000000+00:00</time></trkpt><trkpt lat="63.70165253" lon="-19.64521408"><ele>151.5</ele><time>2012-07-26T16:22:21.0000000+00:00</time></trkpt><trkpt lat="63.70159912" lon="-19.6449604"><ele>151.0</ele><time>2012-07-26T16:24:55.0000000+00:00</time></trkpt><trkpt lat="63.70160294" lon="-19.64532471"><ele>151.2</ele><time>2012-07-26T16:26:05.0000000+00:00</time></trkpt><trkpt lat="63.70153809" lon="-19.64489365"><ele>151.0</ele><time>2012-07-26T16:27:20.0000000+00:00</time></trkpt><trkpt lat="63.70124435" lon="-19.64454842"><ele>150.7</ele><time>2012-07-26T16:28:10.0000000+00:00</time></trkpt><trkpt lat="63.70197296" lon="-19.64544678"><ele>156.3</ele><time>2012-07-26T16:44:19.0000000+00:00</time></trkpt><trkpt lat="63.70178986" lon="-19.64517403"><ele>152.0</ele><time>2012-07-26T16:45:54.0000000+00:00</time></trkpt><trkpt lat="63.70196152" lon="-19.64531517"><ele>157.1</ele><time>2012-07-26T16:46:59.0000000+00:00</time></trkpt><trkpt lat="63.70180512" lon="-19.64506912"><ele>151.5</ele><time>2012-07-26T16:49:04.0000000+00:00</time></trkpt><trkpt lat="63.70188904" lon="-19.64481735"><ele>153.3</ele><time>2012-07-26T16:51:24.0000000+00:00</time></trkpt><trkpt lat="63.70161057" lon="-19.64479828"><ele>150.9</ele><time>2012-07-26T16:56:54.0000000+00:00</time></trkpt><trkpt lat="63.70194626" lon="-19.64502525"><ele>155.9</ele><time>2012-07-26T17:00:39.0000000+00:00</time></trkpt><trkpt lat="63.70178223" lon="-19.64513397"><ele>151.7</ele><time>2012-07-26T17:02:34.0000000+00:00</time></trkpt><trkpt lat="63.70183182" lon="-19.64533043"><ele>153.1</ele><time>2012-07-26T17:03:04.0000000+00:00</time></trkpt><trkpt lat="63.70162964" lon="-19.64499092"><ele>151.0</ele><time>2012-07-26T17:06:34.0000000+00:00</time></trkpt><trkpt lat="63.70148087" lon="-19.64563179"><ele>150.5</ele><time>2012-07-26T17:08:09.0000000+00:00</time></trkpt><trkpt lat="63.70146561" lon="-19.64768219"><ele>148.5</ele><time>2012-07-26T17:08:44.0000000+00:00</time></trkpt><trkpt lat="63.70104599" lon="-19.65222359"><ele>147.7</ele><time>2012-07-26T17:10:29.0000000+00:00</time></trkpt><trkpt lat="63.70150375" lon="-19.65572739"><ele>146.2</ele><time>2012-07-26T17:11:44.0000000+00:00</time></trkpt><trkpt lat="63.70185089" lon="-19.66111183"><ele>145.0</ele><time>2012-07-26T17:13:29.0000000+00:00</time></trkpt><trkpt lat="63.70220184" lon="-19.66332245"><ele>144.5</ele><time>2012-07-26T17:14:14.0000000+00:00</time></trkpt><trkpt lat="63.70212936" lon="-19.66477013"><ele>144.5</ele><time>2012-07-26T17:14:39.0000000+00:00</time></trkpt><trkpt lat="63.70233917" lon="-19.66785812"><ele>143.9</ele><time>2012-07-26T17:15:29.0000000+00:00</time></trkpt><trkpt lat="63.70228195" lon="-19.67279625"><ele>142.7</ele><time>2012-07-26T17:16:59.0000000+00:00</time></trkpt><trkpt lat="63.70249558" lon="-19.67571068"><ele>141.1</ele><time>2012-07-26T17:18:04.0000000+00:00</time></trkpt><trkpt lat="63.70228577" lon="-19.68020439"><ele>139.2</ele><time>2012-07-26T17:20:24.0000000+00:00</time></trkpt><trkpt lat="63.70258331" lon="-19.6816082"><ele>139.2</ele><time>2012-07-26T17:20:49.0000000+00:00</time></trkpt><trkpt lat="63.70360947" lon="-19.68467331"><ele>137.4</ele><time>2012-07-26T17:21:54.0000000+00:00</time></trkpt><trkpt lat="63.70428085" lon="-19.68801689"><ele>136.3</ele><time>2012-07-26T17:22:54.0000000+00:00</time></trkpt><trkpt lat="63.70515823" lon="-19.69080353"><ele>134.8</ele><time>2012-07-26T17:23:59.0000000+00:00</time></trkpt><trkpt lat="63.70552826" lon="-19.69837189"><ele>132.5</ele><time>2012-07-26T17:26:19.0000000+00:00</time></trkpt><trkpt lat="63.70589829" lon="-19.70116043"><ele>132.1</ele><time>2012-07-26T17:27:14.0000000+00:00</time></trkpt><trkpt lat="63.70691299" lon="-19.70362663"><ele>131.1</ele><time>2012-07-26T17:28:04.0000000+00:00</time></trkpt><trkpt lat="63.70768356" lon="-19.70745087"><ele>129.7</ele><time>2012-07-26T17:29:09.0000000+00:00</time></trkpt><trkpt lat="63.70758057" lon="-19.7098484"><ele>128.7</ele><time>2012-07-26T17:29:54.0000000+00:00</time></trkpt><trkpt lat="63.70830536" lon="-19.71528816"><ele>126.6</ele><time>2012-07-26T17:35:09.0000000+00:00</time></trkpt><trkpt lat="63.70837021" lon="-19.72203064"><ele>124.7</ele><time>2012-07-26T17:36:44.0000000+00:00</time></trkpt><trkpt lat="63.70880127" lon="-19.725914"><ele>123.3</ele><time>2012-07-26T17:37:39.0000000+00:00</time></trkpt><trkpt lat="63.70956802" lon="-19.73032188"><ele>121.3</ele><time>2012-07-26T17:38:49.0000000+00:00</time></trkpt><trkpt lat="63.70976257" lon="-19.73271751"><ele>120.4</ele><time>2012-07-26T17:39:34.0000000+00:00</time></trkpt><trkpt lat="63.71032333" lon="-19.73255348"><ele>120.5</ele><time>2012-07-26T17:40:29.0000000+00:00</time></trkpt><trkpt lat="63.71033096" lon="-19.73324966"><ele>120.5</ele><time>2012-07-26T17:41:19.0000000+00:00</time></trkpt><trkpt lat="63.71113205" lon="-19.73381615"><ele>120.2</ele><time>2012-07-26T17:42:29.0000000+00:00</time></trkpt><trkpt lat="63.7128067" lon="-19.7364006"><ele>118.9</ele><time>2012-07-26T17:43:59.0000000+00:00</time></trkpt><trkpt lat="63.71299362" lon="-19.73700714"><ele>118.6</ele><time>2012-07-26T17:44:14.0000000+00:00</time></trkpt><trkpt lat="63.71289825" lon="-19.73977089"><ele>117.6</ele><time>2012-07-26T17:44:49.0000000+00:00</time></trkpt><trkpt lat="63.71302795" lon="-19.74948692"><ele>114.3</ele><time>2012-07-26T17:46:19.0000000+00:00</time></trkpt><trkpt lat="63.71416855" lon="-19.81505966"><ele>94.8</ele><time>2012-07-26T18:01:24.0000000+00:00</time></trkpt><trkpt lat="63.71376038" lon="-19.8233757"><ele>93.2</ele><time>2012-07-26T18:03:09.0000000+00:00</time></trkpt><trkpt lat="63.71356964" lon="-19.82411766"><ele>92.8</ele><time>2012-07-26T18:03:19.0000000+00:00</time></trkpt><trkpt lat="63.71237946" lon="-19.82590866"><ele>92.2</ele><time>2012-07-26T18:04:04.0000000+00:00</time></trkpt><trkpt lat="63.71212387" lon="-19.82739258"><ele>91.7</ele><time>2012-07-26T18:04:29.0000000+00:00</time></trkpt><trkpt lat="63.71215057" lon="-19.8297081"><ele>91.0</ele><time>2012-07-26T18:05:24.0000000+00:00</time></trkpt><trkpt lat="63.71280289" lon="-19.83831787"><ele>88.5</ele><time>2012-07-26T18:06:54.0000000+00:00</time></trkpt><trkpt lat="63.71348572" lon="-19.85205269"><ele>84.5</ele><time>2012-07-26T18:08:49.0000000+00:00</time></trkpt><trkpt lat="63.71575928" lon="-19.87842941"><ele>77.1</ele><time>2012-07-26T18:12:19.0000000+00:00</time></trkpt><trkpt lat="63.71696472" lon="-19.8950119"><ele>73.6</ele><time>2012-07-26T18:15:49.0000000+00:00</time></trkpt><trkpt lat="63.71921921" lon="-19.89278603"><ele>76.5</ele><time>2012-07-26T18:17:39.0000000+00:00</time></trkpt><trkpt lat="63.72038269" lon="-19.89273834"><ele>77.5</ele><time>2012-07-26T18:19:09.0000000+00:00</time></trkpt><trkpt lat="63.71909714" lon="-19.89288712"><ele>75.9</ele><time>2012-07-26T18:28:14.0000000+00:00</time></trkpt><trkpt lat="63.71708679" lon="-19.8950882"><ele>73.7</ele><time>2012-07-26T18:29:34.0000000+00:00</time></trkpt><trkpt lat="63.71699524" lon="-19.89548302"><ele>73.5</ele><time>2012-07-26T18:30:09.0000000+00:00</time></trkpt><trkpt lat="63.71800995" lon="-19.90538216"><ele>70.7</ele><time>2012-07-26T18:31:39.0000000+00:00</time></trkpt><trkpt lat="63.71980667" lon="-19.91824722"><ele>67.5</ele><time>2012-07-26T18:34:39.0000000+00:00</time></trkpt><trkpt lat="63.72322083" lon="-19.94878197"><ele>59.6</ele><time>2012-07-26T18:39:19.0000000+00:00</time></trkpt><trkpt lat="63.72346115" lon="-19.95309448"><ele>59.2</ele><time>2012-07-26T18:39:59.0000000+00:00</time></trkpt><trkpt lat="63.72356033" lon="-19.96532631"><ele>56.7</ele><time>2012-07-26T18:42:04.0000000+00:00</time></trkpt><trkpt lat="63.72404099" lon="-19.97184753"><ele>55.6</ele><time>2012-07-26T18:42:59.0000000+00:00</time></trkpt><trkpt lat="63.72507477" lon="-19.97777557"><ele>58.7</ele><time>2012-07-26T18:44:04.0000000+00:00</time></trkpt><trkpt lat="63.72682571" lon="-19.98491478"><ele>70.5</ele><time>2012-07-26T18:46:24.0000000+00:00</time></trkpt><trkpt lat="63.72742081" lon="-19.98832703"><ele>69.9</ele><time>2012-07-26T18:47:04.0000000+00:00</time></trkpt><trkpt lat="63.72784805" lon="-19.99194527"><ele>69.9</ele><time>2012-07-26T18:47:44.0000000+00:00</time></trkpt><trkpt lat="63.73031998" lon="-20.02799797"><ele>65.3</ele><time>2012-07-26T18:55:34.0000000+00:00</time></trkpt><trkpt lat="63.73013306" lon="-20.02775192"><ele>64.6</ele><time>2012-07-26T19:01:29.0000000+00:00</time></trkpt><trkpt lat="63.73028946" lon="-20.02809906"><ele>65.1</ele><time>2012-07-26T19:02:04.0000000+00:00</time></trkpt><trkpt lat="63.73042297" lon="-20.0297966"><ele>64.2</ele><time>2012-07-26T19:02:24.0000000+00:00</time></trkpt><trkpt lat="63.73168945" lon="-20.04866409"><ele>47.7</ele><time>2012-07-26T19:06:04.0000000+00:00</time></trkpt><trkpt lat="63.73403549" lon="-20.07575035"><ele>46.5</ele><time>2012-07-26T19:11:04.0000000+00:00</time></trkpt><trkpt lat="63.7341156" lon="-20.07819557"><ele>45.6</ele><time>2012-07-26T19:11:29.0000000+00:00</time></trkpt><trkpt lat="63.7339859" lon="-20.08110809"><ele>45.2</ele><time>2012-07-26T19:11:59.0000000+00:00</time></trkpt><trkpt lat="63.73316956" lon="-20.08826828"><ele>45.7</ele><time>2012-07-26T19:13:19.0000000+00:00</time></trkpt><trkpt lat="63.73416519" lon="-20.10464096"><ele>51.8</ele><time>2012-07-26T19:16:29.0000000+00:00</time></trkpt><trkpt lat="63.73357391" lon="-20.10957718"><ele>51.5</ele><time>2012-07-26T19:17:24.0000000+00:00</time></trkpt><trkpt lat="63.7332077" lon="-20.12131882"><ele>42.1</ele><time>2012-07-26T19:18:54.0000000+00:00</time></trkpt><trkpt lat="63.73524857" lon="-20.15306473"><ele>37.6</ele><time>2012-07-26T19:24:24.0000000+00:00</time></trkpt><trkpt lat="63.73635483" lon="-20.15921211"><ele>36.6</ele><time>2012-07-26T19:25:44.0000000+00:00</time></trkpt><trkpt lat="63.74103928" lon="-20.17727852"><ele>38.3</ele><time>2012-07-26T19:29:59.0000000+00:00</time></trkpt><trkpt lat="63.74222946" lon="-20.18367386"><ele>38.8</ele><time>2012-07-26T19:31:24.0000000+00:00</time></trkpt><trkpt lat="63.74412537" lon="-20.19155502"><ele>42.4</ele><time>2012-07-26T19:33:39.0000000+00:00</time></trkpt><trkpt lat="63.7448616" lon="-20.19611359"><ele>51.1</ele><time>2012-07-26T19:35:04.0000000+00:00</time></trkpt><trkpt lat="63.74556351" lon="-20.19858933"><ele>52.6</ele><time>2012-07-26T19:38:29.0000000+00:00</time></trkpt><trkpt lat="63.74850082" lon="-20.20690155"><ele>37.0</ele><time>2012-07-26T19:39:44.0000000+00:00</time></trkpt><trkpt lat="63.75076675" lon="-20.2150898"><ele>34.6</ele><time>2012-07-26T19:41:19.0000000+00:00</time></trkpt><trkpt lat="63.75122452" lon="-20.22271156"><ele>34.5</ele><time>2012-07-26T19:42:39.0000000+00:00</time></trkpt><trkpt lat="63.75101852" lon="-20.22466469"><ele>34.0</ele><time>2012-07-26T19:43:09.0000000+00:00</time></trkpt><trkpt lat="63.75038528" lon="-20.22529602"><ele>33.1</ele><time>2012-07-26T19:43:49.0000000+00:00</time></trkpt><trkpt lat="63.75065613" lon="-20.224823"><ele>33.0</ele><time>2012-07-26T19:44:09.0000000+00:00</time></trkpt><trkpt lat="63.75092697" lon="-20.22483254"><ele>33.8</ele><time>2012-07-26T19:44:44.0000000+00:00</time></trkpt><trkpt lat="63.75102615" lon="-20.22290802"><ele>33.6</ele><time>2012-07-26T19:45:29.0000000+00:00</time></trkpt><trkpt lat="63.75118256" lon="-20.22311211"><ele>34.3</ele><time>2012-07-26T19:46:44.0000000+00:00</time></trkpt><trkpt lat="63.75156021" lon="-20.22276688"><ele>34.1</ele><time>2012-07-26T19:47:04.0000000+00:00</time></trkpt><trkpt lat="63.75128555" lon="-20.22302628"><ele>34.5</ele><time>2012-07-26T19:47:14.0000000+00:00</time></trkpt><trkpt lat="63.75125504" lon="-20.22340775"><ele>34.1</ele><time>2012-07-26T19:47:19.0000000+00:00</time></trkpt><trkpt lat="63.75195313" lon="-20.2329998"><ele>32.5</ele><time>2012-07-26T19:54:09.0000000+00:00</time></trkpt><trkpt lat="63.7518158" lon="-20.2340622"><ele>31.1</ele><time>2012-07-26T19:54:19.0000000+00:00</time></trkpt><trkpt lat="63.75125885" lon="-20.23554421"><ele>30.4</ele><time>2012-07-26T19:54:44.0000000+00:00</time></trkpt><trkpt lat="63.74933624" lon="-20.23247719"><ele>31.3</ele><time>2012-07-26T19:56:19.0000000+00:00</time></trkpt><trkpt lat="63.75041199" lon="-20.23328018"><ele>31.7</ele><time>2012-07-26T19:56:59.0000000+00:00</time></trkpt><trkpt lat="63.7506218" lon="-20.23300171"><ele>31.7</ele><time>2012-07-26T19:57:14.0000000+00:00</time></trkpt><trkpt lat="63.75053406" lon="-20.23312569"><ele>31.8</ele><time>2012-07-26T19:57:24.0000000+00:00</time></trkpt><trkpt lat="63.75046158" lon="-20.23279953"><ele>31.8</ele><time>2012-07-26T19:58:29.0000000+00:00</time></trkpt><trkpt lat="63.75095749" lon="-20.23282623"><ele>31.5</ele><time>2012-07-26T19:58:49.0000000+00:00</time></trkpt><trkpt lat="63.75152588" lon="-20.23217392"><ele>32.5</ele><time>2012-07-26T19:59:49.0000000+00:00</time></trkpt><trkpt lat="63.7505455" lon="-20.2331028"><ele>31.8</ele><time>2012-07-26T20:00:29.0000000+00:00</time></trkpt><trkpt lat="63.75051117" lon="-20.23339844"><ele>31.5</ele><time>2012-07-26T20:00:34.0000000+00:00</time></trkpt><trkpt lat="63.75084305" lon="-20.233778"><ele>31.4</ele><time>2012-07-26T20:00:49.0000000+00:00</time></trkpt><trkpt lat="63.75138092" lon="-20.23506928"><ele>31.3</ele><time>2012-07-26T20:01:14.0000000+00:00</time></trkpt><trkpt lat="63.75136948" lon="-20.23539734"><ele>30.8</ele><time>2012-07-26T20:01:19.0000000+00:00</time></trkpt><trkpt lat="63.75066757" lon="-20.23715019"><ele>30.2</ele><time>2012-07-26T20:01:54.0000000+00:00</time></trkpt><trkpt lat="63.75029373" lon="-20.23902512"><ele>29.7</ele><time>2012-07-26T20:02:14.0000000+00:00</time></trkpt><trkpt lat="63.74994659" lon="-20.23843384"><ele>29.6</ele><time>2012-07-26T20:02:29.0000000+00:00</time></trkpt><trkpt lat="63.74971008" lon="-20.23996735"><ele>30.1</ele><time>2012-07-26T20:02:54.0000000+00:00</time></trkpt><trkpt lat="63.74985123" lon="-20.23851585"><ele>29.7</ele><time>2012-07-26T20:03:34.0000000+00:00</time></trkpt><trkpt lat="63.75030136" lon="-20.23897171"><ele>29.7</ele><time>2012-07-26T20:06:49.0000000+00:00</time></trkpt><trkpt lat="63.75059128" lon="-20.23732948"><ele>30.0</ele><time>2012-07-26T20:08:24.0000000+00:00</time></trkpt><trkpt lat="63.75025559" lon="-20.23903847"><ele>29.7</ele><time>2012-07-26T20:08:54.0000000+00:00</time></trkpt><trkpt lat="63.74985504" lon="-20.23882484"><ele>29.6</ele><time>2012-07-26T20:09:09.0000000+00:00</time></trkpt><trkpt lat="63.74969482" lon="-20.23991585"><ele>30.1</ele><time>2012-07-26T20:09:39.0000000+00:00</time></trkpt><trkpt lat="63.74956513" lon="-20.24000931"><ele>30.2</ele><time>2012-07-26T22:12:54.0000000+00:00</time></trkpt></trkseg><trkseg><trkpt lat="63.74957275" lon="-20.24004173"><ele>30.2</ele><time>2012-07-27T10:48:28.0000000+00:00</time></trkpt><trkpt lat="63.74983215" lon="-20.23867416"><ele>29.7</ele><time>2012-07-27T10:53:58.0000000+00:00</time></trkpt><trkpt lat="63.75021362" lon="-20.23889542"><ele>29.6</ele><time>2012-07-27T10:54:18.0000000+00:00</time></trkpt><trkpt lat="63.75040054" lon="-20.23724747"><ele>29.9</ele><time>2012-07-27T10:54:48.0000000+00:00</time></trkpt><trkpt lat="63.7509079" lon="-20.23633194"><ele>30.6</ele><time>2012-07-27T10:55:13.0000000+00:00</time></trkpt><trkpt lat="63.75114059" lon="-20.23545456"><ele>30.4</ele><time>2012-07-27T10:55:33.0000000+00:00</time></trkpt><trkpt lat="63.74995804" lon="-20.23351479"><ele>31.6</ele><time>2012-07-27T10:56:48.0000000+00:00</time></trkpt><trkpt lat="63.75009155" lon="-20.23280335"><ele>33.0</ele><time>2012-07-27T10:57:08.0000000+00:00</time></trkpt><trkpt lat="63.74992371" lon="-20.23303413"><ele>32.1</ele><time>2012-07-27T11:36:18.0000000+00:00</time></trkpt><trkpt lat="63.75033951" lon="-20.23397446"><ele>31.5</ele><time>2012-07-27T11:36:48.0000000+00:00</time></trkpt><trkpt lat="63.75462723" lon="-20.24056435"><ele>31.6</ele><time>2012-07-27T11:39:08.0000000+00:00</time></trkpt><trkpt lat="63.75904083" lon="-20.24786949"><ele>31.5</ele><time>2012-07-27T11:41:18.0000000+00:00</time></trkpt><trkpt lat="63.7696991" lon="-20.27064133"><ele>32.0</ele><time>2012-07-27T11:47:53.0000000+00:00</time></trkpt><trkpt lat="63.77123642" lon="-20.27359963"><ele>32.5</ele><time>2012-07-27T12:00:58.0000000+00:00</time></trkpt><trkpt lat="63.77297974" lon="-20.27628708"><ele>32.2</ele><time>2012-07-27T12:01:53.0000000+00:00</time></trkpt><trkpt lat="63.77974701" lon="-20.28452492"><ele>23.3</ele><time>2012-07-27T12:04:18.0000000+00:00</time></trkpt><trkpt lat="63.7899437" lon="-20.29990387"><ele>30.0</ele><time>2012-07-27T12:09:58.0000000+00:00</time></trkpt><trkpt lat="63.79569626" lon="-20.31271362"><ele>28.8</ele><time>2012-07-27T12:12:58.0000000+00:00</time></trkpt><trkpt lat="63.8065033" lon="-20.33252144"><ele>32.6</ele><time>2012-07-27T12:19:08.0000000+00:00</time></trkpt><trkpt lat="63.80904007" lon="-20.33686829"><ele>30.8</ele><time>2012-07-27T12:20:33.0000000+00:00</time></trkpt><trkpt lat="63.8125" lon="-20.34188461"><ele>26.9</ele><time>2012-07-27T12:22:08.0000000+00:00</time></trkpt><trkpt lat="63.81557083" lon="-20.34852028"><ele>33.5</ele><time>2012-07-27T12:24:18.0000000+00:00</time></trkpt><trkpt lat="63.81734467" lon="-20.35176849"><ele>32.4</ele><time>2012-07-27T12:25:23.0000000+00:00</time></trkpt><trkpt lat="63.82173538" lon="-20.35794067"><ele>19.3</ele><time>2012-07-27T12:27:23.0000000+00:00</time></trkpt><trkpt lat="63.82380676" lon="-20.36144066"><ele>24.9</ele><time>2012-07-27T12:29:03.0000000+00:00</time></trkpt><trkpt lat="63.82507324" lon="-20.36436844"><ele>32.7</ele><time>2012-07-27T12:30:53.0000000+00:00</time></trkpt><trkpt lat="63.82626724" lon="-20.36844063"><ele>32.0</ele><time>2012-07-27T12:33:53.0000000+00:00</time></trkpt><trkpt lat="63.833004" lon="-20.3982811"><ele>31.6</ele><time>2012-07-27T12:40:38.0000000+00:00</time></trkpt><trkpt lat="63.83356476" lon="-20.40020943"><ele>30.0</ele><time>2012-07-27T12:41:13.0000000+00:00</time></trkpt><trkpt lat="63.83432007" lon="-20.40189552"><ele>27.8</ele><time>2012-07-27T12:41:48.0000000+00:00</time></trkpt><trkpt lat="63.83447647" lon="-20.40187073"><ele>27.9</ele><time>2012-07-27T12:41:53.0000000+00:00</time></trkpt><trkpt lat="63.83471298" lon="-20.40110016"><ele>29.9</ele><time>2012-07-27T12:42:18.0000000+00:00</time></trkpt><trkpt lat="63.83452225" lon="-20.40090942"><ele>29.3</ele><time>2012-07-27T12:59:28.0000000+00:00</time></trkpt><trkpt lat="63.8351059" lon="-20.40208435"><ele>28.5</ele><time>2012-07-27T13:15:38.0000000+00:00</time></trkpt><trkpt lat="63.83466339" lon="-20.40190506"><ele>28.1</ele><time>2012-07-27T13:15:58.0000000+00:00</time></trkpt><trkpt lat="63.83465958" lon="-20.40222168"><ele>28.0</ele><time>2012-07-27T13:16:03.0000000+00:00</time></trkpt><trkpt lat="63.83530808" lon="-20.40283203"><ele>27.3</ele><time>2012-07-27T13:16:23.0000000+00:00</time></trkpt><trkpt lat="63.83662796" lon="-20.40524292"><ele>24.7</ele><time>2012-07-27T13:17:23.0000000+00:00</time></trkpt><trkpt lat="63.8374939" lon="-20.40625"><ele>25.7</ele><time>2012-07-27T13:17:58.0000000+00:00</time></trkpt><trkpt lat="63.84141541" lon="-20.40778732"><ele>37.9</ele><time>2012-07-27T13:20:38.0000000+00:00</time></trkpt><trkpt lat="63.84246445" lon="-20.40857697"><ele>37.6</ele><time>2012-07-27T13:21:18.0000000+00:00</time></trkpt><trkpt lat="63.84368134" lon="-20.41008759"><ele>38.0</ele><time>2012-07-27T13:22:03.0000000+00:00</time></trkpt><trkpt lat="63.84643173" lon="-20.41439819"><ele>37.0</ele><time>2012-07-27T13:23:48.0000000+00:00</time></trkpt><trkpt lat="63.84906006" lon="-20.41962051"><ele>43.6</ele><time>2012-07-27T13:25:38.0000000+00:00</time></trkpt><trkpt lat="63.86530685" lon="-20.44432259"><ele>37.8</ele><time>2012-07-27T13:35:33.0000000+00:00</time></trkpt><trkpt lat="63.86639404" lon="-20.44735336"><ele>36.3</ele><time>2012-07-27T13:36:58.0000000+00:00</time></trkpt><trkpt lat="63.86702728" lon="-20.45070076"><ele>35.0</ele><time>2012-07-27T13:37:33.0000000+00:00</time></trkpt><trkpt lat="63.86734009" lon="-20.46211243"><ele>45.6</ele><time>2012-07-27T13:40:08.0000000+00:00</time></trkpt><trkpt lat="63.86778259" lon="-20.46580887"><ele>47.1</ele><time>2012-07-27T13:40:48.0000000+00:00</time></trkpt><trkpt lat="63.88859177" lon="-20.53176117"><ele>58.1</ele><time>2012-07-27T13:55:28.0000000+00:00</time></trkpt><trkpt lat="63.8887825" lon="-20.53188133"><ele>58.4</ele><time>2012-07-27T13:59:23.0000000+00:00</time></trkpt><trkpt lat="63.89038086" lon="-20.53945351"><ele>56.9</ele><time>2012-07-27T14:26:33.0000000+00:00</time></trkpt><trkpt lat="63.89184952" lon="-20.54943466"><ele>38.3</ele><time>2012-07-27T14:27:43.0000000+00:00</time></trkpt><trkpt lat="63.89282608" lon="-20.55445671"><ele>28.7</ele><time>2012-07-27T14:28:18.0000000+00:00</time></trkpt><trkpt lat="63.90010834" lon="-20.58632851"><ele>19.0</ele><time>2012-07-27T14:34:53.0000000+00:00</time></trkpt><trkpt lat="63.9007225" lon="-20.58790779"><ele>19.5</ele><time>2012-07-27T14:35:23.0000000+00:00</time></trkpt><trkpt lat="63.90152359" lon="-20.58910561"><ele>20.8</ele><time>2012-07-27T14:35:58.0000000+00:00</time></trkpt><trkpt lat="63.90213013" lon="-20.58958435"><ele>23.1</ele><time>2012-07-27T14:37:48.0000000+00:00</time></trkpt><trkpt lat="63.90509415" lon="-20.59069824"><ele>40.9</ele><time>2012-07-27T14:41:03.0000000+00:00</time></trkpt><trkpt lat="63.90739059" lon="-20.59342003"><ele>47.2</ele><time>2012-07-27T14:43:08.0000000+00:00</time></trkpt><trkpt lat="63.90930939" lon="-20.59648323"><ele>59.6</ele><time>2012-07-27T14:45:18.0000000+00:00</time></trkpt><trkpt lat="63.91043854" lon="-20.59967995"><ele>64.1</ele><time>2012-07-27T14:46:28.0000000+00:00</time></trkpt><trkpt lat="63.91204071" lon="-20.60813141"><ele>64.7</ele><time>2012-07-27T14:48:23.0000000+00:00</time></trkpt><trkpt lat="63.91797257" lon="-20.64221382"><ele>55.1</ele><time>2012-07-27T14:54:43.0000000+00:00</time></trkpt><trkpt lat="63.91923523" lon="-20.64734078"><ele>61.4</ele><time>2012-07-27T14:56:13.0000000+00:00</time></trkpt><trkpt lat="63.92030716" lon="-20.65067864"><ele>60.4</ele><time>2012-07-27T14:57:18.0000000+00:00</time></trkpt><trkpt lat="63.92169952" lon="-20.65416336"><ele>60.6</ele><time>2012-07-27T14:58:33.0000000+00:00</time></trkpt><trkpt lat="63.92325974" lon="-20.65728188"><ele>59.9</ele><time>2012-07-27T14:59:53.0000000+00:00</time></trkpt><trkpt lat="63.92643356" lon="-20.66176605"><ele>55.9</ele><time>2012-07-27T15:02:28.0000000+00:00</time></trkpt><trkpt lat="63.9333992" lon="-20.66826248"><ele>44.0</ele><time>2012-07-27T15:07:13.0000000+00:00</time></trkpt><trkpt lat="63.93540192" lon="-20.66937637"><ele>44.7</ele><time>2012-07-27T15:08:13.0000000+00:00</time></trkpt><trkpt lat="63.93956375" lon="-20.67069244"><ele>44.9</ele><time>2012-07-27T15:10:08.0000000+00:00</time></trkpt><trkpt lat="63.94187927" lon="-20.67289162"><ele>44.5</ele><time>2012-07-27T15:11:18.0000000+00:00</time></trkpt><trkpt lat="63.94327927" lon="-20.67506599"><ele>43.9</ele><time>2012-07-27T15:12:03.0000000+00:00</time></trkpt><trkpt lat="63.94754791" lon="-20.68345833"><ele>44.7</ele><time>2012-07-27T15:17:03.0000000+00:00</time></trkpt><trkpt lat="63.95154953" lon="-20.68994141"><ele>43.2</ele><time>2012-07-27T15:19:48.0000000+00:00</time></trkpt><trkpt lat="63.95253372" lon="-20.69285584"><ele>45.1</ele><time>2012-07-27T15:20:43.0000000+00:00</time></trkpt><trkpt lat="63.95301056" lon="-20.69628716"><ele>42.5</ele><time>2012-07-27T15:21:28.0000000+00:00</time></trkpt><trkpt lat="63.95299149" lon="-20.70019913"><ele>41.4</ele><time>2012-07-27T15:22:08.0000000+00:00</time></trkpt><trkpt lat="63.95317078" lon="-20.70107651"><ele>42.7</ele><time>2012-07-27T15:23:53.0000000+00:00</time></trkpt><trkpt lat="63.95296097" lon="-20.70240021"><ele>41.3</ele><time>2012-07-27T15:29:43.0000000+00:00</time></trkpt><trkpt lat="63.95273972" lon="-20.71390724"><ele>41.9</ele><time>2012-07-27T15:31:23.0000000+00:00</time></trkpt><trkpt lat="63.95241547" lon="-20.71938515"><ele>39.1</ele><time>2012-07-27T15:32:08.0000000+00:00</time></trkpt><trkpt lat="63.94873047" lon="-20.73981094"><ele>35.2</ele><time>2012-07-27T15:34:38.0000000+00:00</time></trkpt><trkpt lat="63.94827271" lon="-20.74324226"><ele>34.7</ele><time>2012-07-27T15:35:03.0000000+00:00</time></trkpt><trkpt lat="63.94739914" lon="-20.75247002"><ele>32.1</ele><time>2012-07-27T15:36:13.0000000+00:00</time></trkpt><trkpt lat="63.94570541" lon="-20.75989533"><ele>31.2</ele><time>2012-07-27T15:37:08.0000000+00:00</time></trkpt><trkpt lat="63.94517517" lon="-20.76601601"><ele>33.5</ele><time>2012-07-27T15:38:33.0000000+00:00</time></trkpt><trkpt lat="63.94366074" lon="-20.77637672"><ele>31.6</ele><time>2012-07-27T15:39:58.0000000+00:00</time></trkpt><trkpt lat="63.9432106" lon="-20.78111076"><ele>31.3</ele><time>2012-07-27T15:40:33.0000000+00:00</time></trkpt><trkpt lat="63.94271088" lon="-20.82188034"><ele>29.6</ele><time>2012-07-27T15:47:08.0000000+00:00</time></trkpt><trkpt lat="63.94360733" lon="-20.83540916"><ele>28.8</ele><time>2012-07-27T15:48:58.0000000+00:00</time></trkpt><trkpt lat="63.94373703" lon="-20.84514237"><ele>28.0</ele><time>2012-07-27T15:50:13.0000000+00:00</time></trkpt><trkpt lat="63.94339752" lon="-20.86473084"><ele>26.7</ele><time>2012-07-27T15:52:43.0000000+00:00</time></trkpt><trkpt lat="63.94171906" lon="-20.93504906"><ele>22.5</ele><time>2012-07-27T16:03:13.0000000+00:00</time></trkpt><trkpt lat="63.94144058" lon="-20.94169807"><ele>22.4</ele><time>2012-07-27T16:04:13.0000000+00:00</time></trkpt><trkpt lat="63.93885422" lon="-20.97525787"><ele>20.1</ele><time>2012-07-27T16:10:08.0000000+00:00</time></trkpt><trkpt lat="63.93856049" lon="-20.97506332"><ele>20.6</ele><time>2012-07-27T16:12:23.0000000+00:00</time></trkpt><trkpt lat="63.93841553" lon="-20.97431564"><ele>21.3</ele><time>2012-07-27T16:32:58.0000000+00:00</time></trkpt><trkpt lat="63.93863297" lon="-20.97400284"><ele>21.0</ele><time>2012-07-27T16:35:28.0000000+00:00</time></trkpt><trkpt lat="63.93862534" lon="-20.97346115"><ele>21.5</ele><time>2012-07-27T16:35:38.0000000+00:00</time></trkpt><trkpt lat="63.9379158" lon="-20.97278214"><ele>20.2</ele><time>2012-07-27T16:36:03.0000000+00:00</time></trkpt><trkpt lat="63.9379158" lon="-20.97250557"><ele>20.3</ele><time>2012-07-27T16:36:08.0000000+00:00</time></trkpt><trkpt lat="63.93802261" lon="-20.97184563"><ele>20.1</ele><time>2012-07-27T16:36:23.0000000+00:00</time></trkpt><trkpt lat="63.9381752" lon="-20.97196579"><ele>20.2</ele><time>2012-07-27T16:36:28.0000000+00:00</time></trkpt><trkpt lat="63.93893814" lon="-20.97308159"><ele>19.8</ele><time>2012-07-27T16:36:58.0000000+00:00</time></trkpt><trkpt lat="63.9389534" lon="-20.97343445"><ele>19.8</ele><time>2012-07-27T16:37:03.0000000+00:00</time></trkpt><trkpt lat="63.93854904" lon="-20.97796249"><ele>19.1</ele><time>2012-07-27T16:37:58.0000000+00:00</time></trkpt><trkpt lat="63.93719482" lon="-20.98547745"><ele>18.4</ele><time>2012-07-27T16:39:23.0000000+00:00</time></trkpt><trkpt lat="63.93719101" lon="-20.99272537"><ele>19.4</ele><time>2012-07-27T16:41:58.0000000+00:00</time></trkpt><trkpt lat="63.93732834" lon="-20.9930687"><ele>18.4</ele><time>2012-07-27T16:42:08.0000000+00:00</time></trkpt><trkpt lat="63.93720245" lon="-20.99355888"><ele>18.5</ele><time>2012-07-27T16:42:28.0000000+00:00</time></trkpt><trkpt lat="63.93726349" lon="-21.00037766"><ele>17.5</ele><time>2012-07-27T16:44:18.0000000+00:00</time></trkpt><trkpt lat="63.93747711" lon="-21.00319099"><ele>18.0</ele><time>2012-07-27T16:45:28.0000000+00:00</time></trkpt><trkpt lat="63.93769455" lon="-21.00381661"><ele>16.3</ele><time>2012-07-27T16:45:48.0000000+00:00</time></trkpt><trkpt lat="63.93749237" lon="-21.00288391"><ele>18.0</ele><time>2012-07-27T16:47:08.0000000+00:00</time></trkpt><trkpt lat="63.93737412" lon="-21.00085449"><ele>17.4</ele><time>2012-07-27T16:47:38.0000000+00:00</time></trkpt><trkpt lat="63.93750763" lon="-21.00061798"><ele>17.1</ele><time>2012-07-27T17:10:58.0000000+00:00</time></trkpt><trkpt lat="63.93738174" lon="-21.00086403"><ele>17.4</ele><time>2012-07-27T17:37:43.0000000+00:00</time></trkpt><trkpt lat="63.937397" lon="-21.00061607"><ele>17.3</ele><time>2012-07-27T18:07:48.0000000+00:00</time></trkpt><trkpt lat="63.93745422" lon="-21.00274468"><ele>18.1</ele><time>2012-07-27T18:10:03.0000000+00:00</time></trkpt><trkpt lat="63.93728256" lon="-21.00270653"><ele>18.4</ele><time>2012-07-27T18:10:18.0000000+00:00</time></trkpt><trkpt lat="63.93716049" lon="-21.00167465"><ele>18.2</ele><time>2012-07-27T18:11:23.0000000+00:00</time></trkpt><trkpt lat="63.93733215" lon="-21.00181007"><ele>18.1</ele><time>2012-07-27T18:11:58.0000000+00:00</time></trkpt><trkpt lat="63.93759155" lon="-21.00383377"><ele>16.6</ele><time>2012-07-27T18:12:28.0000000+00:00</time></trkpt><trkpt lat="63.93516159" lon="-21.00934029"><ele>15.8</ele><time>2012-07-27T18:15:03.0000000+00:00</time></trkpt><trkpt lat="63.93436813" lon="-21.01156044"><ele>16.1</ele><time>2012-07-27T18:15:43.0000000+00:00</time></trkpt><trkpt lat="63.93338013" lon="-21.01336861"><ele>16.7</ele><time>2012-07-27T18:16:18.0000000+00:00</time></trkpt><trkpt lat="63.9311409" lon="-21.01850319"><ele>16.6</ele><time>2012-07-27T18:17:58.0000000+00:00</time></trkpt><trkpt lat="63.91804123" lon="-21.04094505"><ele>12.3</ele><time>2012-07-27T18:22:48.0000000+00:00</time></trkpt><trkpt lat="63.90605164" lon="-21.0638752"><ele>10.8</ele><time>2012-07-27T18:26:43.0000000+00:00</time></trkpt><trkpt lat="63.89809036" lon="-21.07210541"><ele>9.2</ele><time>2012-07-27T18:28:53.0000000+00:00</time></trkpt><trkpt lat="63.88893127" lon="-21.07965851"><ele>8.0</ele><time>2012-07-27T18:31:33.0000000+00:00</time></trkpt><trkpt lat="63.87608719" lon="-21.09280396"><ele>6.1</ele><time>2012-07-27T18:35:28.0000000+00:00</time></trkpt><trkpt lat="63.86338043" lon="-21.10635757"><ele>4.2</ele><time>2012-07-27T18:39:23.0000000+00:00</time></trkpt><trkpt lat="63.86099625" lon="-21.10933304"><ele>3.8</ele><time>2012-07-27T18:42:38.0000000+00:00</time></trkpt><trkpt lat="63.8601532" lon="-21.11157227"><ele>3.2</ele><time>2012-07-27T18:43:03.0000000+00:00</time></trkpt><trkpt lat="63.85965729" lon="-21.1140995"><ele>3.0</ele><time>2012-07-27T18:43:23.0000000+00:00</time></trkpt><trkpt lat="63.85953903" lon="-21.1176033"><ele>3.1</ele><time>2012-07-27T18:43:48.0000000+00:00</time></trkpt><trkpt lat="63.86008072" lon="-21.12127686"><ele>2.6</ele><time>2012-07-27T18:44:23.0000000+00:00</time></trkpt><trkpt lat="63.86453629" lon="-21.13903427"><ele>2.2</ele><time>2012-07-27T18:48:48.0000000+00:00</time></trkpt><trkpt lat="63.87023544" lon="-21.16029549"><ele>1.8</ele><time>2012-07-27T18:53:03.0000000+00:00</time></trkpt><trkpt lat="63.87618637" lon="-21.18574715"><ele>1.8</ele><time>2012-07-27T18:58:13.0000000+00:00</time></trkpt><trkpt lat="63.87714005" lon="-21.18862724"><ele>1.6</ele><time>2012-07-27T18:59:28.0000000+00:00</time></trkpt><trkpt lat="63.87931061" lon="-21.19309235"><ele>2.0</ele><time>2012-07-27T19:02:38.0000000+00:00</time></trkpt><trkpt lat="63.88024902" lon="-21.19709969"><ele>1.8</ele><time>2012-07-27T19:03:33.0000000+00:00</time></trkpt><trkpt lat="63.88044357" lon="-21.20034027"><ele>2.5</ele><time>2012-07-27T19:04:13.0000000+00:00</time></trkpt><trkpt lat="63.88018417" lon="-21.20369148"><ele>3.4</ele><time>2012-07-27T19:07:08.0000000+00:00</time></trkpt><trkpt lat="63.87838364" lon="-21.21307373"><ele>0.7</ele><time>2012-07-27T19:08:43.0000000+00:00</time></trkpt><trkpt lat="63.87803268" lon="-21.21731377"><ele>4.9</ele><time>2012-07-27T19:09:23.0000000+00:00</time></trkpt><trkpt lat="63.87773132" lon="-21.21728897"><ele>6.3</ele><time>2012-07-27T19:16:03.0000000+00:00</time></trkpt><trkpt lat="63.87802124" lon="-21.21730804"><ele>5.1</ele><time>2012-07-27T19:18:38.0000000+00:00</time></trkpt><trkpt lat="63.87833786" lon="-21.22086334"><ele>6.7</ele><time>2012-07-27T19:19:38.0000000+00:00</time></trkpt><trkpt lat="63.87975311" lon="-21.22661591"><ele>4.5</ele><time>2012-07-27T19:21:43.0000000+00:00</time></trkpt><trkpt lat="63.88217163" lon="-21.24032211"><ele>4.5</ele><time>2012-07-27T19:25:08.0000000+00:00</time></trkpt><trkpt lat="63.8847847" lon="-21.25288582"><ele>4.3</ele><time>2012-07-27T19:27:53.0000000+00:00</time></trkpt><trkpt lat="63.88568115" lon="-21.25820541"><ele>4.7</ele><time>2012-07-27T19:28:53.0000000+00:00</time></trkpt><trkpt lat="63.88629532" lon="-21.2631073"><ele>2.5</ele><time>2012-07-27T19:29:48.0000000+00:00</time></trkpt><trkpt lat="63.88674927" lon="-21.2684021"><ele>4.5</ele><time>2012-07-27T19:30:48.0000000+00:00</time></trkpt><trkpt lat="63.88766098" lon="-21.28458977"><ele>3.6</ele><time>2012-07-27T19:33:33.0000000+00:00</time></trkpt><trkpt lat="63.88935089" lon="-21.30229187"><ele>1.3</ele><time>2012-07-27T19:36:33.0000000+00:00</time></trkpt><trkpt lat="63.88983917" lon="-21.30996323"><ele>1.1</ele><time>2012-07-27T19:37:58.0000000+00:00</time></trkpt><trkpt lat="63.88993835" lon="-21.32177162"><ele>1.4</ele><time>2012-07-27T19:45:23.0000000+00:00</time></trkpt><trkpt lat="63.88926315" lon="-21.33472443"><ele>4.3</ele><time>2012-07-27T19:48:33.0000000+00:00</time></trkpt><trkpt lat="63.88928986" lon="-21.33778"><ele>6.0</ele><time>2012-07-27T19:49:08.0000000+00:00</time></trkpt><trkpt lat="63.8895874" lon="-21.34072685"><ele>5.6</ele><time>2012-07-27T19:49:43.0000000+00:00</time></trkpt><trkpt lat="63.89086914" lon="-21.34840012"><ele>5.9</ele><time>2012-07-27T19:51:23.0000000+00:00</time></trkpt><trkpt lat="63.89103317" lon="-21.35104752"><ele>5.1</ele><time>2012-07-27T19:51:53.0000000+00:00</time></trkpt><trkpt lat="63.89115524" lon="-21.35932732"><ele>9.3</ele><time>2012-07-27T19:53:43.0000000+00:00</time></trkpt><trkpt lat="63.89162064" lon="-21.36366653"><ele>10.3</ele><time>2012-07-27T19:54:43.0000000+00:00</time></trkpt><trkpt lat="63.89201355" lon="-21.36445046"><ele>10.8</ele><time>2012-07-27T19:57:53.0000000+00:00</time></trkpt><trkpt lat="63.89188004" lon="-21.36423302"><ele>11.0</ele><time>2012-07-27T19:59:33.0000000+00:00</time></trkpt><trkpt lat="63.89140701" lon="-21.36447334"><ele>9.4</ele><time>2012-07-27T19:59:58.0000000+00:00</time></trkpt><trkpt lat="63.89004517" lon="-21.36576462"><ele>6.2</ele><time>2012-07-27T20:00:28.0000000+00:00</time></trkpt><trkpt lat="63.88897324" lon="-21.36750031"><ele>5.6</ele><time>2012-07-27T20:00:48.0000000+00:00</time></trkpt><trkpt lat="63.88663483" lon="-21.37235069"><ele>1.2</ele><time>2012-07-27T20:01:38.0000000+00:00</time></trkpt><trkpt lat="63.88405991" lon="-21.37542152"><ele>2.0</ele><time>2012-07-27T20:02:28.0000000+00:00</time></trkpt><trkpt lat="63.87949753" lon="-21.37886047"><ele>2.8</ele><time>2012-07-27T20:03:48.0000000+00:00</time></trkpt><trkpt lat="63.8738327" lon="-21.38159752"><ele>3.2</ele><time>2012-07-27T20:05:28.0000000+00:00</time></trkpt><trkpt lat="63.87202072" lon="-21.38282585"><ele>4.5</ele><time>2012-07-27T20:05:58.0000000+00:00</time></trkpt><trkpt lat="63.86975479" lon="-21.38539314"><ele>4.8</ele><time>2012-07-27T20:06:38.0000000+00:00</time></trkpt><trkpt lat="63.86738205" lon="-21.38920021"><ele>4.9</ele><time>2012-07-27T20:07:38.0000000+00:00</time></trkpt><trkpt lat="63.86536789" lon="-21.39116669"><ele>6.2</ele><time>2012-07-27T20:09:03.0000000+00:00</time></trkpt><trkpt lat="63.86319733" lon="-21.39106941"><ele>8.1</ele><time>2012-07-27T20:10:38.0000000+00:00</time></trkpt><trkpt lat="63.86235428" lon="-21.39495277"><ele>7.2</ele><time>2012-07-27T20:14:03.0000000+00:00</time></trkpt><trkpt lat="63.85908127" lon="-21.40034103"><ele>10.8</ele><time>2012-07-27T20:15:43.0000000+00:00</time></trkpt><trkpt lat="63.85667419" lon="-21.40590859"><ele>13.6</ele><time>2012-07-27T20:17:08.0000000+00:00</time></trkpt><trkpt lat="63.85509872" lon="-21.41103554"><ele>14.7</ele><time>2012-07-27T20:18:13.0000000+00:00</time></trkpt><trkpt lat="63.85415268" lon="-21.41530991"><ele>15.8</ele><time>2012-07-27T20:19:08.0000000+00:00</time></trkpt><trkpt lat="63.85342789" lon="-21.41980934"><ele>15.7</ele><time>2012-07-27T20:20:03.0000000+00:00</time></trkpt><trkpt lat="63.85294342" lon="-21.42446709"><ele>15.9</ele><time>2012-07-27T20:20:58.0000000+00:00</time></trkpt><trkpt lat="63.85203552" lon="-21.44437981"><ele>16.3</ele><time>2012-07-27T20:25:03.0000000+00:00</time></trkpt><trkpt lat="63.85145569" lon="-21.45176315"><ele>15.1</ele><time>2012-07-27T20:26:28.0000000+00:00</time></trkpt><trkpt lat="63.85061646" lon="-21.45979309"><ele>13.3</ele><time>2012-07-27T20:28:08.0000000+00:00</time></trkpt><trkpt lat="63.84869385" lon="-21.47324371"><ele>10.3</ele><time>2012-07-27T20:30:43.0000000+00:00</time></trkpt><trkpt lat="63.84538651" lon="-21.49032021"><ele>15.4</ele><time>2012-07-27T20:34:03.0000000+00:00</time></trkpt><trkpt lat="63.84372711" lon="-21.50048065"><ele>13.8</ele><time>2012-07-27T20:36:08.0000000+00:00</time></trkpt><trkpt lat="63.8424263" lon="-21.51125336"><ele>13.3</ele><time>2012-07-27T20:38:28.0000000+00:00</time></trkpt><trkpt lat="63.84147644" lon="-21.52371979"><ele>11.3</ele><time>2012-07-27T20:54:38.0000000+00:00</time></trkpt><trkpt lat="63.8418541" lon="-21.5164299"><ele>12.6</ele><time>2012-07-27T20:56:13.0000000+00:00</time></trkpt><trkpt lat="63.84195709" lon="-21.5152874"><ele>13.5</ele><time>2012-07-27T21:02:08.0000000+00:00</time></trkpt><trkpt lat="63.84133148" lon="-21.52692223"><ele>12.3</ele><time>2012-07-27T21:04:38.0000000+00:00</time></trkpt><trkpt lat="63.84109879" lon="-21.53684807"><ele>15.0</ele><time>2012-07-27T21:07:18.0000000+00:00</time></trkpt><trkpt lat="63.84141159" lon="-21.55247498"><ele>13.1</ele><time>2012-07-27T21:10:58.0000000+00:00</time></trkpt><trkpt lat="63.84135437" lon="-21.56147957"><ele>10.3</ele><time>2012-07-27T21:13:13.0000000+00:00</time></trkpt><trkpt lat="63.84088135" lon="-21.57148552"><ele>10.1</ele><time>2012-07-27T21:15:38.0000000+00:00</time></trkpt><trkpt lat="63.84008789" lon="-21.58048058"><ele>6.1</ele><time>2012-07-27T21:17:38.0000000+00:00</time></trkpt><trkpt lat="63.83911896" lon="-21.58797836"><ele>3.1</ele><time>2012-07-27T21:19:03.0000000+00:00</time></trkpt><trkpt lat="63.83782578" lon="-21.59578896"><ele>2.2</ele><time>2012-07-27T21:20:38.0000000+00:00</time></trkpt><trkpt lat="63.83365631" lon="-21.61473846"><ele>9.5</ele><time>2012-07-27T21:26:15.0000000+00:00</time></trkpt><trkpt lat="63.83283234" lon="-21.62023163"><ele>11.8</ele><time>2012-07-27T21:27:25.0000000+00:00</time></trkpt><trkpt lat="63.83214188" lon="-21.6265564"><ele>14.1</ele><time>2012-07-27T21:28:55.0000000+00:00</time></trkpt><trkpt lat="63.83170319" lon="-21.63523865"><ele>13.8</ele><time>2012-07-27T21:30:40.0000000+00:00</time></trkpt><trkpt lat="63.83172607" lon="-21.6415329"><ele>11.5</ele><time>2012-07-27T21:31:55.0000000+00:00</time></trkpt><trkpt lat="63.83193588" lon="-21.64612961"><ele>12.1</ele><time>2012-07-27T21:32:55.0000000+00:00</time></trkpt><trkpt lat="63.8323555" lon="-21.6512413"><ele>13.8</ele><time>2012-07-27T21:33:55.0000000+00:00</time></trkpt><trkpt lat="63.83296967" lon="-21.65622902"><ele>14.7</ele><time>2012-07-27T21:34:55.0000000+00:00</time></trkpt><trkpt lat="63.8336792" lon="-21.66072083"><ele>14.4</ele><time>2012-07-27T21:35:55.0000000+00:00</time></trkpt><trkpt lat="63.83458328" lon="-21.66515923"><ele>15.6</ele><time>2012-07-27T21:37:00.0000000+00:00</time></trkpt></trkseg><trkseg><trkpt lat="63.83077622" lon="-21.67786408"><ele>7.1</ele><time>2012-07-28T12:39:06.0000000+00:00</time></trkpt><trkpt lat="63.83091736" lon="-21.67874527"><ele>7.0</ele><time>2012-07-28T12:39:26.0000000+00:00</time></trkpt><trkpt lat="63.83076859" lon="-21.67898369"><ele>6.8</ele><time>2012-07-28T12:39:31.0000000+00:00</time></trkpt><trkpt lat="63.83353043" lon="-21.69761276"><ele>2.9</ele><time>2012-07-28T12:45:01.0000000+00:00</time></trkpt><trkpt lat="63.83414459" lon="-21.70070076"><ele>3.2</ele><time>2012-07-28T12:45:46.0000000+00:00</time></trkpt><trkpt lat="63.83568192" lon="-21.70522499"><ele>3.7</ele><time>2012-07-28T12:52:31.0000000+00:00</time></trkpt><trkpt lat="63.83544159" lon="-21.7060051"><ele>2.8</ele><time>2012-07-28T13:03:51.0000000+00:00</time></trkpt><trkpt lat="63.83556366" lon="-21.70546913"><ele>3.3</ele><time>2012-07-28T13:04:16.0000000+00:00</time></trkpt><trkpt lat="63.83546448" lon="-21.70480919"><ele>3.1</ele><time>2012-07-28T13:04:26.0000000+00:00</time></trkpt><trkpt lat="63.83411789" lon="-21.70052147"><ele>3.2</ele><time>2012-07-28T13:05:36.0000000+00:00</time></trkpt><trkpt lat="63.8335228" lon="-21.69737625"><ele>3.0</ele><time>2012-07-28T13:06:21.0000000+00:00</time></trkpt><trkpt lat="63.83043671" lon="-21.67645454"><ele>7.4</ele><time>2012-07-28T13:11:01.0000000+00:00</time></trkpt><trkpt lat="63.83050537" lon="-21.67610169"><ele>7.4</ele><time>2012-07-28T13:11:06.0000000+00:00</time></trkpt><trkpt lat="63.83150482" lon="-21.67512131"><ele>8.6</ele><time>2012-07-28T13:11:46.0000000+00:00</time></trkpt><trkpt lat="63.8356514" lon="-21.67175865"><ele>14.3</ele><time>2012-07-28T13:14:56.0000000+00:00</time></trkpt><trkpt lat="63.83585358" lon="-21.6715107"><ele>15.0</ele><time>2012-07-28T13:15:16.0000000+00:00</time></trkpt><trkpt lat="63.83581162" lon="-21.67057037"><ele>15.6</ele><time>2012-07-28T13:16:11.0000000+00:00</time></trkpt><trkpt lat="63.83646393" lon="-21.67050552"><ele>15.1</ele><time>2012-07-28T13:18:06.0000000+00:00</time></trkpt><trkpt lat="63.83652115" lon="-21.67067909"><ele>14.8</ele><time>2012-07-28T13:18:16.0000000+00:00</time></trkpt><trkpt lat="63.83617401" lon="-21.67108917"><ele>16.2</ele><time>2012-07-28T13:18:51.0000000+00:00</time></trkpt><trkpt lat="63.83615494" lon="-21.67148018"><ele>16.1</ele><time>2012-07-28T13:19:01.0000000+00:00</time></trkpt><trkpt lat="63.83750534" lon="-21.67578316"><ele>16.9</ele><time>2012-07-28T13:20:21.0000000+00:00</time></trkpt><trkpt lat="63.84422302" lon="-21.69194412"><ele>13.4</ele><time>2012-07-28T13:26:01.0000000+00:00</time></trkpt><trkpt lat="63.84658432" lon="-21.69860458"><ele>9.2</ele><time>2012-07-28T13:27:56.0000000+00:00</time></trkpt><trkpt lat="63.85007477" lon="-21.70971108"><ele>3.6</ele><time>2012-07-28T13:31:41.0000000+00:00</time></trkpt><trkpt lat="63.85240173" lon="-21.71593666"><ele>1.1</ele><time>2012-07-28T13:34:06.0000000+00:00</time></trkpt><trkpt lat="63.85606003" lon="-21.7236805"><ele>3.3</ele><time>2012-07-28T13:37:26.0000000+00:00</time></trkpt><trkpt lat="63.86177063" lon="-21.73315048"><ele>4.0</ele><time>2012-07-28T13:43:06.0000000+00:00</time></trkpt><trkpt lat="63.86421585" lon="-21.73900604"><ele>3.9</ele><time>2012-07-28T13:45:41.0000000+00:00</time></trkpt><trkpt lat="63.86564255" lon="-21.74389648"><ele>4.5</ele><time>2012-07-28T13:47:41.0000000+00:00</time></trkpt><trkpt lat="63.86751556" lon="-21.75205231"><ele>5.5</ele><time>2012-07-28T13:50:26.0000000+00:00</time></trkpt><trkpt lat="63.86895752" lon="-21.76036835"><ele>6.0</ele><time>2012-07-28T13:53:31.0000000+00:00</time></trkpt><trkpt lat="63.87018204" lon="-21.77009583"><ele>5.3</ele><time>2012-07-28T13:56:36.0000000+00:00</time></trkpt><trkpt lat="63.87092209" lon="-21.77940941"><ele>12.3</ele><time>2012-07-28T14:08:46.0000000+00:00</time></trkpt><trkpt lat="63.87073898" lon="-21.7830925"><ele>13.8</ele><time>2012-07-28T14:14:16.0000000+00:00</time></trkpt><trkpt lat="63.86977387" lon="-21.79368019"><ele>11.1</ele><time>2012-07-28T14:16:26.0000000+00:00</time></trkpt><trkpt lat="63.86986923" lon="-21.79776764"><ele>11.7</ele><time>2012-07-28T14:17:31.0000000+00:00</time></trkpt><trkpt lat="63.87048721" lon="-21.80419159"><ele>10.6</ele><time>2012-07-28T14:19:36.0000000+00:00</time></trkpt><trkpt lat="63.87032318" lon="-21.81681061"><ele>5.6</ele><time>2012-07-28T14:22:16.0000000+00:00</time></trkpt><trkpt lat="63.87063217" lon="-21.82682991"><ele>8.0</ele><time>2012-07-28T14:25:06.0000000+00:00</time></trkpt><trkpt lat="63.87049866" lon="-21.83731842"><ele>10.3</ele><time>2012-07-28T14:27:56.0000000+00:00</time></trkpt><trkpt lat="63.86989594" lon="-21.84760666"><ele>14.2</ele><time>2012-07-28T14:31:01.0000000+00:00</time></trkpt><trkpt lat="63.86904526" lon="-21.85597801"><ele>18.5</ele><time>2012-07-28T14:33:46.0000000+00:00</time></trkpt><trkpt lat="63.86790848" lon="-21.8643322"><ele>28.0</ele><time>2012-07-28T14:36:36.0000000+00:00</time></trkpt><trkpt lat="63.86315155" lon="-21.89035797"><ele>41.3</ele><time>2012-07-28T14:43:56.0000000+00:00</time></trkpt><trkpt lat="63.85916519" lon="-21.91674614"><ele>62.9</ele><time>2012-07-28T14:51:51.0000000+00:00</time></trkpt><trkpt lat="63.85755539" lon="-21.92414284"><ele>50.0</ele><time>2012-07-28T14:55:01.0000000+00:00</time></trkpt><trkpt lat="63.85489273" lon="-21.93338394"><ele>41.7</ele><time>2012-07-28T14:56:26.0000000+00:00</time></trkpt><trkpt lat="63.85406876" lon="-21.93788338"><ele>47.1</ele><time>2012-07-28T14:57:51.0000000+00:00</time></trkpt><trkpt lat="63.85349274" lon="-21.94393349"><ele>56.0</ele><time>2012-07-28T14:59:51.0000000+00:00</time></trkpt><trkpt lat="63.85306931" lon="-21.95662308"><ele>73.4</ele><time>2012-07-28T15:05:31.0000000+00:00</time></trkpt><trkpt lat="63.85268784" lon="-21.96071053"><ele>73.1</ele><time>2012-07-28T15:06:41.0000000+00:00</time></trkpt><trkpt lat="63.85126877" lon="-21.97184753"><ele>79.3</ele><time>2012-07-28T15:09:41.0000000+00:00</time></trkpt><trkpt lat="63.85066223" lon="-21.97896195"><ele>88.8</ele><time>2012-07-28T15:11:41.0000000+00:00</time></trkpt><trkpt lat="63.85031509" lon="-21.98912048"><ele>93.9</ele><time>2012-07-28T15:14:11.0000000+00:00</time></trkpt><trkpt lat="63.85062027" lon="-22.00302506"><ele>86.7</ele><time>2012-07-28T15:17:26.0000000+00:00</time></trkpt><trkpt lat="63.85053253" lon="-22.01524735"><ele>81.9</ele><time>2012-07-28T15:20:16.0000000+00:00</time></trkpt><trkpt lat="63.85163498" lon="-22.01570129"><ele>84.1</ele><time>2012-07-28T15:24:01.0000000+00:00</time></trkpt><trkpt lat="63.85260773" lon="-22.01755142"><ele>86.4</ele><time>2012-07-28T15:25:01.0000000+00:00</time></trkpt><trkpt lat="63.85355377" lon="-22.01857185"><ele>92.0</ele><time>2012-07-28T15:26:06.0000000+00:00</time></trkpt><trkpt lat="63.85380554" lon="-22.01934242"><ele>92.4</ele><time>2012-07-28T15:33:46.0000000+00:00</time></trkpt><trkpt lat="63.85372162" lon="-22.019207"><ele>92.7</ele><time>2012-07-28T15:45:41.0000000+00:00</time></trkpt><trkpt lat="63.85382462" lon="-22.0193367"><ele>92.4</ele><time>2012-07-28T15:56:51.0000000+00:00</time></trkpt><trkpt lat="63.85387421" lon="-22.0187645"><ele>93.8</ele><time>2012-07-28T16:26:11.0000000+00:00</time></trkpt><trkpt lat="63.8550148" lon="-22.01866341"><ele>94.2</ele><time>2012-07-28T16:28:31.0000000+00:00</time></trkpt><trkpt lat="63.85663605" lon="-22.01765251"><ele>95.0</ele><time>2012-07-28T16:29:41.0000000+00:00</time></trkpt><trkpt lat="63.85782623" lon="-22.01793289"><ele>96.5</ele><time>2012-07-28T16:30:41.0000000+00:00</time></trkpt><trkpt lat="63.8587532" lon="-22.01896095"><ele>99.4</ele><time>2012-07-28T16:31:46.0000000+00:00</time></trkpt><trkpt lat="63.85933685" lon="-22.02026558"><ele>101.0</ele><time>2012-07-28T16:32:31.0000000+00:00</time></trkpt><trkpt lat="63.86791611" lon="-22.04621315"><ele>113.5</ele><time>2012-07-28T16:41:56.0000000+00:00</time></trkpt><trkpt lat="63.86891937" lon="-22.04811096"><ele>119.2</ele><time>2012-07-28T16:43:11.0000000+00:00</time></trkpt><trkpt lat="63.86981964" lon="-22.04905319"><ele>122.3</ele><time>2012-07-28T16:44:01.0000000+00:00</time></trkpt><trkpt lat="63.88024521" lon="-22.05701256"><ele>150.4</ele><time>2012-07-28T16:52:56.0000000+00:00</time></trkpt><trkpt lat="63.88515854" lon="-22.05905342"><ele>160.1</ele><time>2012-07-28T16:56:56.0000000+00:00</time></trkpt><trkpt lat="63.88668823" lon="-22.05898285"><ele>164.0</ele><time>2012-07-28T16:58:06.0000000+00:00</time></trkpt><trkpt lat="63.88820648" lon="-22.05811501"><ele>162.8</ele><time>2012-07-28T16:59:06.0000000+00:00</time></trkpt><trkpt lat="63.89375305" lon="-22.05273056"><ele>160.3</ele><time>2012-07-28T17:01:56.0000000+00:00</time></trkpt><trkpt lat="63.89497376" lon="-22.05080414"><ele>158.8</ele><time>2012-07-28T17:08:16.0000000+00:00</time></trkpt><trkpt lat="63.89548492" lon="-22.05184555"><ele>160.3</ele><time>2012-07-28T17:08:36.0000000+00:00</time></trkpt><trkpt lat="63.89597321" lon="-22.05228615"><ele>163.8</ele><time>2012-07-28T17:29:21.0000000+00:00</time></trkpt><trkpt lat="63.89538193" lon="-22.05164337"><ele>159.7</ele><time>2012-07-28T17:43:01.0000000+00:00</time></trkpt><trkpt lat="63.89499664" lon="-22.05056763"><ele>158.6</ele><time>2012-07-28T17:43:16.0000000+00:00</time></trkpt><trkpt lat="63.89635086" lon="-22.04748535"><ele>156.3</ele><time>2012-07-28T17:43:56.0000000+00:00</time></trkpt><trkpt lat="63.89814377" lon="-22.0443573"><ele>153.6</ele><time>2012-07-28T17:44:46.0000000+00:00</time></trkpt><trkpt lat="63.89928055" lon="-22.04322815"><ele>152.2</ele><time>2012-07-28T17:45:21.0000000+00:00</time></trkpt><trkpt lat="63.90969467" lon="-22.03531265"><ele>144.9</ele><time>2012-07-28T17:51:16.0000000+00:00</time></trkpt><trkpt lat="63.91095734" lon="-22.03381538"><ele>147.3</ele><time>2012-07-28T17:52:11.0000000+00:00</time></trkpt><trkpt lat="63.91292954" lon="-22.03030777"><ele>146.3</ele><time>2012-07-28T17:53:56.0000000+00:00</time></trkpt><trkpt lat="63.92038345" lon="-22.01286697"><ele>145.7</ele><time>2012-07-28T18:01:06.0000000+00:00</time></trkpt><trkpt lat="63.92556" lon="-22.00276566"><ele>147.4</ele><time>2012-07-28T18:07:46.0000000+00:00</time></trkpt><trkpt lat="63.92601776" lon="-22.00107575"><ele>151.1</ele><time>2012-07-28T18:08:31.0000000+00:00</time></trkpt><trkpt lat="63.92603302" lon="-21.99747849"><ele>162.9</ele><time>2012-07-28T18:10:51.0000000+00:00</time></trkpt><trkpt lat="63.92641449" lon="-21.9968586"><ele>153.3</ele><time>2012-07-28T18:11:31.0000000+00:00</time></trkpt><trkpt lat="63.92720413" lon="-21.99631119"><ele>150.3</ele><time>2012-07-28T18:11:46.0000000+00:00</time></trkpt><trkpt lat="63.92890549" lon="-21.99683571"><ele>158.2</ele><time>2012-07-28T18:13:16.0000000+00:00</time></trkpt><trkpt lat="63.92999649" lon="-21.99462128"><ele>167.2</ele><time>2012-07-28T18:15:31.0000000+00:00</time></trkpt><trkpt lat="63.93143463" lon="-21.99570465"><ele>165.6</ele><time>2012-07-28T18:16:21.0000000+00:00</time></trkpt><trkpt lat="63.93255234" lon="-21.99435806"><ele>153.1</ele><time>2012-07-28T18:16:46.0000000+00:00</time></trkpt><trkpt lat="63.93314743" lon="-21.99479675"><ele>150.9</ele><time>2012-07-28T18:16:56.0000000+00:00</time></trkpt><trkpt lat="63.93342972" lon="-21.99464607"><ele>146.2</ele><time>2012-07-28T18:17:01.0000000+00:00</time></trkpt><trkpt lat="63.93416214" lon="-21.99301338"><ele>144.6</ele><time>2012-07-28T18:17:41.0000000+00:00</time></trkpt><trkpt lat="63.93548203" lon="-21.99107361"><ele>145.4</ele><time>2012-07-28T18:18:46.0000000+00:00</time></trkpt><trkpt lat="63.93785858" lon="-21.98859024"><ele>158.2</ele><time>2012-07-28T18:21:36.0000000+00:00</time></trkpt><trkpt lat="63.93838882" lon="-21.98749161"><ele>171.7</ele><time>2012-07-28T18:22:56.0000000+00:00</time></trkpt><trkpt lat="63.93855286" lon="-21.98614883"><ele>178.3</ele><time>2012-07-28T18:24:31.0000000+00:00</time></trkpt><trkpt lat="63.93881226" lon="-21.98543549"><ele>169.9</ele><time>2012-07-28T18:25:31.0000000+00:00</time></trkpt><trkpt lat="63.93984985" lon="-21.98454094"><ele>155.7</ele><time>2012-07-28T18:25:51.0000000+00:00</time></trkpt><trkpt lat="63.94135284" lon="-21.9826088"><ele>142.0</ele><time>2012-07-28T18:26:11.0000000+00:00</time></trkpt><trkpt lat="63.94219589" lon="-21.98061752"><ele>138.8</ele><time>2012-07-28T18:26:31.0000000+00:00</time></trkpt><trkpt lat="63.94311905" lon="-21.97952652"><ele>138.4</ele><time>2012-07-28T18:27:01.0000000+00:00</time></trkpt><trkpt lat="63.94570541" lon="-21.9728241"><ele>138.9</ele><time>2012-07-28T18:28:51.0000000+00:00</time></trkpt><trkpt lat="63.94610977" lon="-21.97099876"><ele>139.5</ele><time>2012-07-28T18:29:16.0000000+00:00</time></trkpt><trkpt lat="63.94674683" lon="-21.96434021"><ele>140.8</ele><time>2012-07-28T18:30:36.0000000+00:00</time></trkpt><trkpt lat="63.94707108" lon="-21.96307373"><ele>140.2</ele><time>2012-07-28T18:30:51.0000000+00:00</time></trkpt><trkpt lat="63.95352554" lon="-21.95468712"><ele>148.9</ele><time>2012-07-28T18:35:51.0000000+00:00</time></trkpt><trkpt lat="63.95792389" lon="-21.95058441"><ele>152.2</ele><time>2012-07-28T18:38:36.0000000+00:00</time></trkpt><trkpt lat="63.95928955" lon="-21.9478035"><ele>155.0</ele><time>2012-07-28T18:39:41.0000000+00:00</time></trkpt><trkpt lat="63.95986557" lon="-21.94414711"><ele>162.0</ele><time>2012-07-28T18:41:11.0000000+00:00</time></trkpt><trkpt lat="63.9602623" lon="-21.94287682"><ele>162.6</ele><time>2012-07-28T18:41:51.0000000+00:00</time></trkpt><trkpt lat="63.96139145" lon="-21.9403553"><ele>159.2</ele><time>2012-07-28T18:42:51.0000000+00:00</time></trkpt><trkpt lat="63.96221161" lon="-21.93948174"><ele>158.5</ele><time>2012-07-28T18:43:21.0000000+00:00</time></trkpt><trkpt lat="63.96278381" lon="-21.93959618"><ele>157.1</ele><time>2012-07-28T18:43:36.0000000+00:00</time></trkpt><trkpt lat="63.96361542" lon="-21.94057083"><ele>157.2</ele><time>2012-07-28T18:44:11.0000000+00:00</time></trkpt><trkpt lat="63.96554565" lon="-21.94443893"><ele>160.0</ele><time>2012-07-28T18:46:01.0000000+00:00</time></trkpt><trkpt lat="63.96744156" lon="-21.94690704"><ele>170.1</ele><time>2012-07-28T18:49:06.0000000+00:00</time></trkpt><trkpt lat="63.96848679" lon="-21.94892311"><ele>150.4</ele><time>2012-07-28T18:49:21.0000000+00:00</time></trkpt><trkpt lat="63.96986008" lon="-21.95067024"><ele>127.7</ele><time>2012-07-28T18:49:36.0000000+00:00</time></trkpt><trkpt lat="63.97220993" lon="-21.95230103"><ele>125.5</ele><time>2012-07-28T18:50:36.0000000+00:00</time></trkpt><trkpt lat="63.97395325" lon="-21.95301628"><ele>122.9</ele><time>2012-07-28T18:51:46.0000000+00:00</time></trkpt><trkpt lat="64.00872803" lon="-21.94165039"><ele>79.5</ele><time>2012-07-28T19:03:16.0000000+00:00</time></trkpt><trkpt lat="64.01033783" lon="-21.94192696"><ele>79.0</ele><time>2012-07-28T19:03:46.0000000+00:00</time></trkpt><trkpt lat="64.01112366" lon="-21.94265175"><ele>76.5</ele><time>2012-07-28T19:04:01.0000000+00:00</time></trkpt><trkpt lat="64.03569794" lon="-21.97479057"><ele>34.5</ele><time>2012-07-28T19:13:01.0000000+00:00</time></trkpt><trkpt lat="64.03696442" lon="-21.97723961"><ele>33.2</ele><time>2012-07-28T19:13:41.0000000+00:00</time></trkpt><trkpt lat="64.03899384" lon="-21.98263359"><ele>27.2</ele><time>2012-07-28T19:14:56.0000000+00:00</time></trkpt><trkpt lat="64.04062653" lon="-21.98528862"><ele>25.0</ele><time>2012-07-28T19:15:41.0000000+00:00</time></trkpt><trkpt lat="64.0424881" lon="-21.98698616"><ele>19.7</ele><time>2012-07-28T19:16:21.0000000+00:00</time></trkpt><trkpt lat="64.04579926" lon="-21.98861504"><ele>14.5</ele><time>2012-07-28T19:17:46.0000000+00:00</time></trkpt><trkpt lat="64.04605866" lon="-21.98836136"><ele>13.9</ele><time>2012-07-28T19:17:56.0000000+00:00</time></trkpt><trkpt lat="64.04829407" lon="-21.99104881"><ele>10.3</ele><time>2012-07-28T19:19:01.0000000+00:00</time></trkpt><trkpt lat="64.05023193" lon="-21.99256897"><ele>8.6</ele><time>2012-07-28T19:20:11.0000000+00:00</time></trkpt><trkpt lat="64.05066681" lon="-21.99377441"><ele>9.6</ele><time>2012-07-28T19:20:36.0000000+00:00</time></trkpt><trkpt lat="64.05080414" lon="-21.99519539"><ele>11.1</ele><time>2012-07-28T19:21:01.0000000+00:00</time></trkpt><trkpt lat="64.04991913" lon="-22.00047112"><ele>12.2</ele><time>2012-07-28T19:22:16.0000000+00:00</time></trkpt><trkpt lat="64.04999542" lon="-22.00148773"><ele>10.2</ele><time>2012-07-28T19:22:31.0000000+00:00</time></trkpt><trkpt lat="64.0502243" lon="-22.00169373"><ele>9.7</ele><time>2012-07-28T19:22:41.0000000+00:00</time></trkpt><trkpt lat="64.05037689" lon="-22.00148773"><ele>8.9</ele><time>2012-07-28T19:23:21.0000000+00:00</time></trkpt><trkpt lat="64.05099487" lon="-21.9978447"><ele>9.5</ele><time>2012-07-28T19:24:11.0000000+00:00</time></trkpt><trkpt lat="64.05395508" lon="-21.97827339"><ele>23.3</ele><time>2012-07-28T19:30:16.0000000+00:00</time></trkpt><trkpt lat="64.05397034" lon="-21.97805023"><ele>23.0</ele><time>2012-07-28T19:30:41.0000000+00:00</time></trkpt><trkpt lat="64.05345154" lon="-21.9775238"><ele>22.3</ele><time>2012-07-28T19:32:06.0000000+00:00</time></trkpt><trkpt lat="64.05249023" lon="-21.97986603"><ele>21.1</ele><time>2012-07-28T19:33:06.0000000+00:00</time></trkpt><trkpt lat="64.05253601" lon="-21.97948456"><ele>21.3</ele><time>2012-07-28T19:35:01.0000000+00:00</time></trkpt><trkpt lat="64.05278778" lon="-21.97968483"><ele>21.1</ele><time>2012-07-28T19:37:26.0000000+00:00</time></trkpt><trkpt lat="64.05263519" lon="-21.9797821"><ele>21.6</ele><time>2012-07-28T19:44:36.0000000+00:00</time></trkpt><trkpt lat="64.05245972" lon="-21.97933197"><ele>20.9</ele><time>2012-07-28T19:50:36.0000000+00:00</time></trkpt><trkpt lat="64.05256653" lon="-21.97971344"><ele>21.4</ele><time>2012-07-28T19:53:41.0000000+00:00</time></trkpt><trkpt lat="64.0526886" lon="-21.97963905"><ele>21.4</ele><time>2012-07-28T20:03:26.0000000+00:00</time></trkpt><trkpt lat="64.0530777" lon="-21.97801971"><ele>21.4</ele><time>2012-07-28T20:03:51.0000000+00:00</time></trkpt><trkpt lat="64.05324554" lon="-21.97612763"><ele>22.9</ele><time>2012-07-28T20:04:16.0000000+00:00</time></trkpt><trkpt lat="64.05413818" lon="-21.97081757"><ele>25.3</ele><time>2012-07-28T20:05:46.0000000+00:00</time></trkpt><trkpt lat="64.05406189" lon="-21.97023583"><ele>22.8</ele><time>2012-07-28T20:05:56.0000000+00:00</time></trkpt><trkpt lat="64.05344391" lon="-21.9700222"><ele>23.2</ele><time>2012-07-28T20:06:16.0000000+00:00</time></trkpt><trkpt lat="64.05345917" lon="-21.9696846"><ele>23.2</ele><time>2012-07-28T20:06:21.0000000+00:00</time></trkpt><trkpt lat="64.05393219" lon="-21.96788406"><ele>22.9</ele><time>2012-07-28T20:06:51.0000000+00:00</time></trkpt><trkpt lat="64.05436707" lon="-21.96695137"><ele>24.1</ele><time>2012-07-28T20:07:11.0000000+00:00</time></trkpt><trkpt lat="64.05421448" lon="-21.96606064"><ele>23.7</ele><time>2012-07-28T20:07:26.0000000+00:00</time></trkpt><trkpt lat="64.05452728" lon="-21.96398926"><ele>23.7</ele><time>2012-07-28T20:08:06.0000000+00:00</time></trkpt><trkpt lat="64.05575562" lon="-21.96240234"><ele>38.3</ele><time>2012-07-28T20:09:46.0000000+00:00</time></trkpt><trkpt lat="64.05610657" lon="-21.96120453"><ele>41.4</ele><time>2012-07-28T20:10:31.0000000+00:00</time></trkpt><trkpt lat="64.05703735" lon="-21.95529938"><ele>52.8</ele><time>2012-07-28T20:13:16.0000000+00:00</time></trkpt><trkpt lat="64.05715179" lon="-21.95205879"><ele>57.4</ele><time>2012-07-28T20:14:46.0000000+00:00</time></trkpt><trkpt lat="64.05778503" lon="-21.9497757"><ele>65.1</ele><time>2012-07-28T20:15:41.0000000+00:00</time></trkpt><trkpt lat="64.0579071" lon="-21.94803047"><ele>68.2</ele><time>2012-07-28T20:16:21.0000000+00:00</time></trkpt><trkpt lat="64.05830383" lon="-21.94751549"><ele>66.9</ele><time>2012-07-28T20:16:41.0000000+00:00</time></trkpt><trkpt lat="64.05854797" lon="-21.94636536"><ele>67.7</ele><time>2012-07-28T20:16:56.0000000+00:00</time></trkpt><trkpt lat="64.05896759" lon="-21.94207764"><ele>55.5</ele><time>2012-07-28T20:17:21.0000000+00:00</time></trkpt><trkpt lat="64.05891419" lon="-21.93980217"><ele>52.2</ele><time>2012-07-28T20:17:31.0000000+00:00</time></trkpt><trkpt lat="64.05931854" lon="-21.93849945"><ele>49.1</ele><time>2012-07-28T20:17:41.0000000+00:00</time></trkpt><trkpt lat="64.05966187" lon="-21.93888474"><ele>48.1</ele><time>2012-07-28T20:18:06.0000000+00:00</time></trkpt><trkpt lat="64.0594101" lon="-21.93939781"><ele>48.3</ele><time>2012-07-28T20:18:21.0000000+00:00</time></trkpt><trkpt lat="64.05941773" lon="-21.93984795"><ele>48.3</ele><time>2012-07-28T20:18:26.0000000+00:00</time></trkpt><trkpt lat="64.05947113" lon="-21.94035721"><ele>48.5</ele><time>2012-07-28T20:18:31.0000000+00:00</time></trkpt><trkpt lat="64.0597229" lon="-21.94068146"><ele>45.8</ele><time>2012-07-28T20:18:36.0000000+00:00</time></trkpt><trkpt lat="64.06143189" lon="-21.93876457"><ele>37.6</ele><time>2012-07-28T20:19:01.0000000+00:00</time></trkpt><trkpt lat="64.0672226" lon="-21.93721581"><ele>18.2</ele><time>2012-07-28T20:20:21.0000000+00:00</time></trkpt><trkpt lat="64.06764984" lon="-21.93769264"><ele>18.2</ele><time>2012-07-28T20:20:31.0000000+00:00</time></trkpt><trkpt lat="64.07520294" lon="-21.93999291"><ele>21.7</ele><time>2012-07-28T20:24:16.0000000+00:00</time></trkpt><trkpt lat="64.0761261" lon="-21.93992043"><ele>22.0</ele><time>2012-07-28T20:24:41.0000000+00:00</time></trkpt><trkpt lat="64.07674408" lon="-21.94051361"><ele>24.6</ele><time>2012-07-28T20:25:01.0000000+00:00</time></trkpt><trkpt lat="64.08274078" lon="-21.94222832"><ele>25.4</ele><time>2012-07-28T20:27:46.0000000+00:00</time></trkpt><trkpt lat="64.0838089" lon="-21.94344139"><ele>21.3</ele><time>2012-07-28T20:28:16.0000000+00:00</time></trkpt><trkpt lat="64.08408356" lon="-21.94314194"><ele>20.3</ele><time>2012-07-28T20:29:26.0000000+00:00</time></trkpt><trkpt lat="64.08545685" lon="-21.93951035"><ele>28.0</ele><time>2012-07-28T20:30:51.0000000+00:00</time></trkpt><trkpt lat="64.0884552" lon="-21.93447495"><ele>23.0</ele><time>2012-07-28T20:32:21.0000000+00:00</time></trkpt><trkpt lat="64.09151459" lon="-21.92679024"><ele>16.8</ele><time>2012-07-28T20:33:56.0000000+00:00</time></trkpt><trkpt lat="64.09664154" lon="-21.92098045"><ele>7.1</ele><time>2012-07-28T20:35:16.0000000+00:00</time></trkpt><trkpt lat="64.09822846" lon="-21.91874504"><ele>11.2</ele><time>2012-07-28T20:35:51.0000000+00:00</time></trkpt><trkpt lat="64.09941864" lon="-21.91614533"><ele>18.3</ele><time>2012-07-28T20:36:56.0000000+00:00</time></trkpt><trkpt lat="64.10010529" lon="-21.91400528"><ele>22.5</ele><time>2012-07-28T20:37:36.0000000+00:00</time></trkpt><trkpt lat="64.10206604" lon="-21.90677452"><ele>6.1</ele><time>2012-07-28T20:38:46.0000000+00:00</time></trkpt><trkpt lat="64.10326386" lon="-21.90449143"><ele>2.9</ele><time>2012-07-28T20:39:06.0000000+00:00</time></trkpt><trkpt lat="64.10445404" lon="-21.90355492"><ele>2.8</ele><time>2012-07-28T20:39:26.0000000+00:00</time></trkpt><trkpt lat="64.10574341" lon="-21.90356636"><ele>6.3</ele><time>2012-07-28T20:40:01.0000000+00:00</time></trkpt><trkpt lat="64.10964966" lon="-21.90739441"><ele>28.7</ele><time>2012-07-28T20:43:16.0000000+00:00</time></trkpt><trkpt lat="64.11083221" lon="-21.9077549"><ele>34.7</ele><time>2012-07-28T20:43:56.0000000+00:00</time></trkpt><trkpt lat="64.11225128" lon="-21.90684128"><ele>42.2</ele><time>2012-07-28T20:44:39.0000000+00:00</time></trkpt><trkpt lat="64.11287689" lon="-21.90587997"><ele>35.3</ele><time>2012-07-28T20:44:54.0000000+00:00</time></trkpt><trkpt lat="64.11508942" lon="-21.89974785"><ele>14.7</ele><time>2012-07-28T20:45:39.0000000+00:00</time></trkpt><trkpt lat="64.11591339" lon="-21.89858246"><ele>14.0</ele><time>2012-07-28T20:45:49.0000000+00:00</time></trkpt><trkpt lat="64.11676788" lon="-21.89800453"><ele>8.8</ele><time>2012-07-28T20:45:59.0000000+00:00</time></trkpt><trkpt lat="64.1288681" lon="-21.89993858"><ele>42.9</ele><time>2012-07-28T20:53:49.0000000+00:00</time></trkpt><trkpt lat="64.1302948" lon="-21.89978409"><ele>39.8</ele><time>2012-07-28T20:54:54.0000000+00:00</time></trkpt><trkpt lat="64.1317749" lon="-21.89894676"><ele>37.2</ele><time>2012-07-28T20:55:19.0000000+00:00</time></trkpt><trkpt lat="64.13794708" lon="-21.89380646"><ele>29.1</ele><time>2012-07-28T20:57:54.0000000+00:00</time></trkpt><trkpt lat="64.13801575" lon="-21.8929615"><ele>29.1</ele><time>2012-07-28T20:58:04.0000000+00:00</time></trkpt><trkpt lat="64.13748169" lon="-21.88949204"><ele>31.6</ele><time>2012-07-28T20:59:14.0000000+00:00</time></trkpt><trkpt lat="64.13845825" lon="-21.88700867"><ele>35.3</ele><time>2012-07-28T21:00:04.0000000+00:00</time></trkpt><trkpt lat="64.13882446" lon="-21.88503265"><ele>36.9</ele><time>2012-07-28T21:00:44.0000000+00:00</time></trkpt><trkpt lat="64.13864136" lon="-21.88294601"><ele>36.9</ele><time>2012-07-28T21:01:24.0000000+00:00</time></trkpt><trkpt lat="64.13839722" lon="-21.88212967"><ele>37.6</ele><time>2012-07-28T21:01:39.0000000+00:00</time></trkpt><trkpt lat="64.13785553" lon="-21.8812809"><ele>37.8</ele><time>2012-07-28T21:03:09.0000000+00:00</time></trkpt><trkpt lat="64.13780212" lon="-21.88074493"><ele>39.2</ele><time>2012-07-28T21:03:29.0000000+00:00</time></trkpt><trkpt lat="64.13864136" lon="-21.87857819"><ele>28.0</ele><time>2012-07-28T21:04:29.0000000+00:00</time></trkpt><trkpt lat="64.13912964" lon="-21.87940598"><ele>27.5</ele><time>2012-07-28T21:04:49.0000000+00:00</time></trkpt><trkpt lat="64.1403122" lon="-21.88339043"><ele>27.2</ele><time>2012-07-28T21:05:39.0000000+00:00</time></trkpt><trkpt lat="64.14157105" lon="-21.8829155"><ele>19.8</ele><time>2012-07-28T21:06:14.0000000+00:00</time></trkpt><trkpt lat="64.14311981" lon="-21.88296318"><ele>14.9</ele><time>2012-07-28T21:06:54.0000000+00:00</time></trkpt><trkpt lat="64.1466217" lon="-21.88182068"><ele>7.6</ele><time>2012-07-28T21:08:34.0000000+00:00</time></trkpt><trkpt lat="64.1467514" lon="-21.87596703"><ele>10.9</ele><time>2012-07-28T21:09:59.0000000+00:00</time></trkpt><trkpt lat="64.14619446" lon="-21.87584114"><ele>11.2</ele><time>2012-07-28T21:10:19.0000000+00:00</time></trkpt><trkpt lat="64.14614868" lon="-21.87664795"><ele>10.8</ele><time>2012-07-28T21:11:34.0000000+00:00</time></trkpt><trkpt lat="64.14617157" lon="-21.87520409"><ele>11.8</ele><time>2012-07-28T21:13:04.0000000+00:00</time></trkpt><trkpt lat="64.14557648" lon="-21.87469482"><ele>12.9</ele><time>2012-07-28T21:13:29.0000000+00:00</time></trkpt><trkpt lat="64.14467621" lon="-21.87464333"><ele>12.4</ele><time>2012-07-28T21:14:14.0000000+00:00</time></trkpt><trkpt lat="64.14443207" lon="-21.87427712"><ele>13.0</ele><time>2012-07-28T21:14:39.0000000+00:00</time></trkpt><trkpt lat="64.1447525" lon="-21.87405205"><ele>14.6</ele><time>2012-07-28T21:19:04.0000000+00:00</time></trkpt><trkpt lat="64.14598846" lon="-21.87515831"><ele>11.8</ele><time>2012-07-28T21:20:29.0000000+00:00</time></trkpt><trkpt lat="64.14609528" lon="-21.87516975"><ele>11.8</ele><time>2012-07-28T21:20:34.0000000+00:00</time></trkpt><trkpt lat="64.14614105" lon="-21.8744545"><ele>12.6</ele><time>2012-07-28T21:21:39.0000000+00:00</time></trkpt><trkpt lat="64.14559937" lon="-21.87523079"><ele>11.5</ele><time>2012-07-28T21:28:49.0000000+00:00</time></trkpt><trkpt lat="64.14676666" lon="-21.87619019"><ele>10.7</ele><time>2012-07-28T22:36:49.0000000+00:00</time></trkpt><trkpt lat="64.14678192" lon="-21.88112068"><ele>7.2</ele><time>2012-07-28T22:37:59.0000000+00:00</time></trkpt><trkpt lat="64.146492" lon="-21.89267349"><ele>3.7</ele><time>2012-07-28T22:41:59.0000000+00:00</time></trkpt><trkpt lat="64.14566803" lon="-21.90073395"><ele>5.4</ele><time>2012-07-28T22:44:04.0000000+00:00</time></trkpt><trkpt lat="64.14557648" lon="-21.90652275"><ele>9.7</ele><time>2012-07-28T22:45:04.0000000+00:00</time></trkpt><trkpt lat="64.14524078" lon="-21.91215706"><ele>12.2</ele><time>2012-07-28T22:46:04.0000000+00:00</time></trkpt><trkpt lat="64.1450119" lon="-21.91356468"><ele>8.3</ele><time>2012-07-28T22:46:14.0000000+00:00</time></trkpt><trkpt lat="64.14476776" lon="-21.91382408"><ele>9.6</ele><time>2012-07-28T22:46:29.0000000+00:00</time></trkpt><trkpt lat="64.14558411" lon="-21.91397095"><ele>5.2</ele><time>2012-07-28T22:46:59.0000000+00:00</time></trkpt><trkpt lat="64.14577484" lon="-21.91432953"><ele>4.8</ele><time>2012-07-28T22:47:14.0000000+00:00</time></trkpt><trkpt lat="64.14603424" lon="-21.91733933"><ele>4.6</ele><time>2012-07-28T22:47:44.0000000+00:00</time></trkpt><trkpt lat="64.14672852" lon="-21.92066383"><ele>3.9</ele><time>2012-07-28T22:48:19.0000000+00:00</time></trkpt><trkpt lat="64.1465683" lon="-21.92201805"><ele>10.1</ele><time>2012-07-28T22:49:34.0000000+00:00</time></trkpt><trkpt lat="64.14679718" lon="-21.92290306"><ele>4.8</ele><time>2012-07-28T22:49:49.0000000+00:00</time></trkpt><trkpt lat="64.14640808" lon="-21.92344666"><ele>7.1</ele><time>2012-07-28T22:50:04.0000000+00:00</time></trkpt><trkpt lat="64.14608002" lon="-21.92328453"><ele>9.5</ele><time>2012-07-28T22:50:29.0000000+00:00</time></trkpt><trkpt lat="64.14559937" lon="-21.92434502"><ele>15.5</ele><time>2012-07-28T22:52:49.0000000+00:00</time></trkpt><trkpt lat="64.14619446" lon="-21.92694664"><ele>20.9</ele><time>2012-07-28T22:53:39.0000000+00:00</time></trkpt><trkpt lat="64.14639282" lon="-21.92871857"><ele>20.6</ele><time>2012-07-28T22:54:54.0000000+00:00</time></trkpt><trkpt lat="64.14646912" lon="-21.92980003"><ele>19.3</ele><time>2012-07-28T22:57:24.0000000+00:00</time></trkpt><trkpt lat="64.14614105" lon="-21.92973709"><ele>23.0</ele><time>2012-07-28T23:01:39.0000000+00:00</time></trkpt><trkpt lat="64.14626312" lon="-21.93070221"><ele>20.5</ele><time>2012-07-28T23:04:09.0000000+00:00</time></trkpt><trkpt lat="64.14649963" lon="-21.930439"><ele>17.5</ele><time>2012-07-28T23:04:44.0000000+00:00</time></trkpt><trkpt lat="64.14659119" lon="-21.93065071"><ele>18.0</ele><time>2012-07-28T23:05:04.0000000+00:00</time></trkpt><trkpt lat="64.14598084" lon="-21.9311657"><ele>23.4</ele><time>2012-07-28T23:12:41.0000000+00:00</time></trkpt><trkpt lat="64.14587402" lon="-21.93073654"><ele>24.0</ele><time>2012-07-28T23:12:46.0000000+00:00</time></trkpt><trkpt lat="64.14594269" lon="-21.92988777"><ele>21.8</ele><time>2012-07-28T23:13:06.0000000+00:00</time></trkpt><trkpt lat="64.14630127" lon="-21.92954254"><ele>22.7</ele><time>2012-07-28T23:13:31.0000000+00:00</time></trkpt><trkpt lat="64.14620972" lon="-21.9295044"><ele>23.5</ele><time>2012-07-28T23:13:46.0000000+00:00</time></trkpt><trkpt lat="64.14628601" lon="-21.92985916"><ele>23.0</ele><time>2012-07-28T23:14:21.0000000+00:00</time></trkpt><trkpt lat="64.14613342" lon="-21.93037987"><ele>21.6</ele><time>2012-07-28T23:14:36.0000000+00:00</time></trkpt><trkpt lat="64.14599609" lon="-21.92971611"><ele>21.9</ele><time>2012-07-28T23:16:00.0000000+00:00</time></trkpt><trkpt lat="64.14633942" lon="-21.93001556"><ele>21.0</ele><time>2012-07-28T23:16:30.0000000+00:00</time></trkpt><trkpt lat="64.14631653" lon="-21.93042183"><ele>19.8</ele><time>2012-07-28T23:17:05.0000000+00:00</time></trkpt><trkpt lat="64.14640045" lon="-21.93021584"><ele>18.8</ele><time>2012-07-28T23:17:30.0000000+00:00</time></trkpt><trkpt lat="64.14670563" lon="-21.93084335"><ele>20.0</ele><time>2012-07-28T23:18:05.0000000+00:00</time></trkpt><trkpt lat="64.14680481" lon="-21.93059921"><ele>17.8</ele><time>2012-07-28T23:18:15.0000000+00:00</time></trkpt><trkpt lat="64.14672089" lon="-21.93030167"><ele>15.9</ele><time>2012-07-28T23:18:30.0000000+00:00</time></trkpt><trkpt lat="64.14612579" lon="-21.93031502"><ele>21.5</ele><time>2012-07-28T23:19:00.0000000+00:00</time></trkpt><trkpt lat="64.1463089" lon="-21.93035317"><ele>19.9</ele><time>2012-07-28T23:19:30.0000000+00:00</time></trkpt><trkpt lat="64.14615631" lon="-21.9307766"><ele>21.9</ele><time>2012-07-28T23:20:05.0000000+00:00</time></trkpt><trkpt lat="64.14643097" lon="-21.93057251"><ele>18.7</ele><time>2012-07-28T23:20:35.0000000+00:00</time></trkpt><trkpt lat="64.14692688" lon="-21.93080521"><ele>17.3</ele><time>2012-07-28T23:22:00.0000000+00:00</time></trkpt><trkpt lat="64.14595795" lon="-21.93103027"><ele>23.6</ele><time>2012-07-28T23:23:25.0000000+00:00</time></trkpt><trkpt lat="64.14620209" lon="-21.92963982"><ele>23.4</ele><time>2012-07-28T23:26:35.0000000+00:00</time></trkpt><trkpt lat="64.14624786" lon="-21.92999268"><ele>22.8</ele><time>2012-07-28T23:27:40.0000000+00:00</time></trkpt><trkpt lat="64.14611054" lon="-21.93027878"><ele>21.6</ele><time>2012-07-28T23:28:30.0000000+00:00</time></trkpt><trkpt lat="64.14632416" lon="-21.93003655"><ele>21.1</ele><time>2012-07-28T23:29:35.0000000+00:00</time></trkpt><trkpt lat="64.14632416" lon="-21.92966652"><ele>22.2</ele><time>2012-07-28T23:29:50.0000000+00:00</time></trkpt><trkpt lat="64.14623261" lon="-21.92984581"><ele>23.6</ele><time>2012-07-28T23:30:05.0000000+00:00</time></trkpt><trkpt lat="64.14625549" lon="-21.93034172"><ele>20.6</ele><time>2012-07-28T23:31:00.0000000+00:00</time></trkpt><trkpt lat="64.14634705" lon="-21.93026352"><ele>19.4</ele><time>2012-07-28T23:31:10.0000000+00:00</time></trkpt></trkseg></trk></gpx>